Wetterdaten: Montag, 23.10.2017
Datum Zeit Temp. A. Temp. A. max Feuchte A. Luftdruck Regen Wind Richtung Richtung Sonnenschein ET UV Solar Taupunkt Windchill Windböen
23.10.2017 00:00 4,6 °C 4,6 °C 90 % 1018,4 hPa 0,0 mm 14,8 km/h (3 Bft) W 269 ° 0 min 0,000 mm 0,0 UV-I 0 W/m² 3,1 °C 1,3 °C 20,9 km/h (4 Bft)
23.10.2017 00:01 4,6 °C 4,6 °C 90 % 1018,2 hPa 0,0 mm 6,0 km/h (2 Bft) SW 232 ° 0 min 0,000 mm 0,0 UV-I 0 W/m² 3,1 °C 3,3 °C 11,3 km/h (2 Bft)
23.10.2017 00:03 4,6 °C 4,6 °C 90 % 1018,2 hPa 0,0 mm 10,6 km/h (2 Bft) W 264 ° 0 min 0,000 mm 0,0 UV-I 0 W/m² 3,1 °C 2,1 °C 20,9 km/h (4 Bft)
23.10.2017 00:04 4,6 °C 4,6 °C 90 % 1018,2 hPa 0,0 mm 12,2 km/h (2 Bft) W 275 ° 0 min 0,000 mm 0,0 UV-I 0 W/m² 3,1 °C 1,7 °C 19,3 km/h (3 Bft)
23.10.2017 00:05 4,6 °C 4,6 °C 90 % 1018,2 hPa 0,0 mm 13,4 km/h (3 Bft) SW 230 ° 0 min 0,000 mm 0,0 UV-I 0 W/m² 3,1 °C 1,5 °C 16,1 km/h (3 Bft)
23.10.2017 00:06 4,6 °C 4,6 °C 90 % 1018,2 hPa 0,0 mm 7,2 km/h (2 Bft) W 266 ° 0 min 0,000 mm 0,0 UV-I 0 W/m² 3,1 °C 2,9 °C 9,7 km/h (2 Bft)
23.10.2017 00:07 4,6 °C 4,6 °C 90 % 1018,2 hPa 0,0 mm 11,1 km/h (2 Bft) SW 224 ° 0 min 0,000 mm 0,0 UV-I 0 W/m² 3,1 °C 1,9 °C 17,7 km/h (3 Bft)
23.10.2017 00:08 4,6 °C 4,6 °C 90 % 1018,2 hPa 0,0 mm 11,3 km/h (2 Bft) W 271 ° 0 min 0,000 mm 0,0 UV-I 0 W/m² 3,1 °C 1,9 °C 25,7 km/h (4 Bft)
23.10.2017 00:09 4,6 °C 4,6 °C 90 % 1018,1 hPa 0,0 mm 14,4 km/h (3 Bft) W-SW 249 ° 0 min 0,000 mm 0,0 UV-I 0 W/m² 3,1 °C 1,4 °C 24,1 km/h (4 Bft)
23.10.2017 00:10 4,6 °C 4,6 °C 90 % 1018,2 hPa 0,0 mm 13,8 km/h (3 Bft) W-SW 252 ° 0 min 0,000 mm 0,0 UV-I 0 W/m² 3,1 °C 1,5 °C 19,3 km/h (3 Bft)
23.10.2017 00:11 4,6 °C 4,6 °C 90 % 1018,2 hPa 0,0 mm 9,5 km/h (2 Bft) S-SW 212 ° 0 min 0,000 mm 0,0 UV-I 0 W/m² 3,1 °C 2,3 °C 20,9 km/h (4 Bft)
23.10.2017 00:12 4,6 °C 4,6 °C 90 % 1018,2 hPa 0,0 mm 11,3 km/h (2 Bft) W 268 ° 0 min 0,000 mm 0,0 UV-I 0 W/m² 3,1 °C 1,9 °C 17,7 km/h (3 Bft)
23.10.2017 00:13 4,6 °C 4,6 °C 90 % 1018,1 hPa 0,0 mm 12,9 km/h (3 Bft) W 277 ° 0 min 0,000 mm 0,0 UV-I 0 W/m² 3,1 °C 1,6 °C 19,3 km/h (3 Bft)
23.10.2017 00:14 4,6 °C 4,6 °C 90 % 1018,1 hPa 0,0 mm 5,7 km/h (1 Bft) W-SW 254 ° 0 min 0,000 mm 0,0 UV-I 0 W/m² 3,1 °C 3,4 °C 12,9 km/h (3 Bft)
23.10.2017 00:15 4,6 °C 4,6 °C 90 % 1018,1 hPa 0,0 mm 9,6 km/h (2 Bft) W 277 ° 0 min 0,000 mm 0,0 UV-I 0 W/m² 3,1 °C 2,3 °C 16,1 km/h (3 Bft)
23.10.2017 00:16 4,6 °C 4,6 °C 90 % 1018,1 hPa 0,0 mm 8,8 km/h (2 Bft) W-NW 291 ° 0 min 0,000 mm 0,0 UV-I 0 W/m² 3,1 °C 2,5 °C 16,1 km/h (3 Bft)
23.10.2017 00:17 4,6 °C 4,6 °C 90 % 1018,1 hPa 0,0 mm 10,2 km/h (2 Bft) W-SW 257 ° 0 min 0,000 mm 0,0 UV-I 0 W/m² 3,1 °C 2,1 °C 14,5 km/h (3 Bft)
23.10.2017 00:18 4,6 °C 4,6 °C 90 % 1018,0 hPa 0,0 mm 11,0 km/h (2 Bft) W-SW 249 ° 0 min 0,000 mm 0,0 UV-I 0 W/m² 3,1 °C 2,0 °C 16,1 km/h (3 Bft)
23.10.2017 00:19 4,6 °C 4,6 °C 90 % 1018,0 hPa 0,0 mm 12,9 km/h (3 Bft) W 263 ° 0 min 0,000 mm 0,0 UV-I 0 W/m² 3,1 °C 1,6 °C 16,1 km/h (3 Bft)
23.10.2017 00:20 4,6 °C 4,6 °C 90 % 1018,0 hPa 0,0 mm 7,3 km/h (2 Bft) SW 234 ° 0 min 0,000 mm 0,0 UV-I 0 W/m² 3,1 °C 2,9 °C 14,5 km/h (3 Bft)
23.10.2017 00:21 4,6 °C 4,6 °C 90 % 1018,0 hPa 0,0 mm 7,5 km/h (2 Bft) W 259 ° 0 min 0,000 mm 0,0 UV-I 0 W/m² 3,1 °C 2,8 °C 14,5 km/h (3 Bft)
23.10.2017 00:22 4,6 °C 4,6 °C 90 % 1018,0 hPa 0,0 mm 14,3 km/h (3 Bft) W-SW 246 ° 0 min 0,000 mm 0,0 UV-I 0 W/m² 3,1 °C 1,4 °C 22,5 km/h (4 Bft)
23.10.2017 00:23 4,6 °C 4,6 °C 90 % 1018,0 hPa 0,0 mm 9,2 km/h (2 Bft) W-SW 248 ° 0 min 0,000 mm 0,0 UV-I 0 W/m² 3,1 °C 2,4 °C 12,9 km/h (3 Bft)
23.10.2017 00:24 4,6 °C 4,6 °C 90 % 1018,1 hPa 0,0 mm 12,1 km/h (2 Bft) W 264 ° 0 min 0,000 mm 0,0 UV-I 0 W/m² 3,1 °C 1,8 °C 17,7 km/h (3 Bft)
23.10.2017 00:25 4,6 °C 4,6 °C 90 % 1018,0 hPa 0,0 mm 11,0 km/h (2 Bft) W 277 ° 0 min 0,000 mm 0,0 UV-I 0 W/m² 3,1 °C 2,0 °C 19,3 km/h (3 Bft)
23.10.2017 00:26 4,6 °C 4,6 °C 90 % 1018,0 hPa 0,0 mm 10,1 km/h (2 Bft) W-SW 257 ° 0 min 0,000 mm 0,0 UV-I 0 W/m² 3,1 °C 2,2 °C 19,3 km/h (3 Bft)
23.10.2017 00:27 4,6 °C 4,6 °C 90 % 1018,0 hPa 0,0 mm 9,3 km/h (2 Bft) W-SW 237 ° 0 min 0,000 mm 0,0 UV-I 0 W/m² 3,1 °C 2,3 °C 14,5 km/h (3 Bft)
23.10.2017 00:28 4,6 °C 4,6 °C 90 % 1018,0 hPa 0,0 mm 11,7 km/h (2 Bft) W 275 ° 0 min 0,000 mm 0,0 UV-I 0 W/m² 3,1 °C 1,8 °C 20,9 km/h (4 Bft)
23.10.2017 00:29 4,6 °C 4,6 °C 90 % 1017,9 hPa 0,0 mm 11,8 km/h (2 Bft) SW 234 ° 0 min 0,000 mm 0,0 UV-I 0 W/m² 3,1 °C 1,8 °C 16,1 km/h (3 Bft)
23.10.2017 00:30 4,6 °C 4,6 °C 90 % 1017,9 hPa 0,0 mm 7,4 km/h (2 Bft) SW 217 ° 0 min 0,000 mm 0,0 UV-I 0 W/m² 3,1 °C 2,8 °C 17,7 km/h (3 Bft)
23.10.2017 00:31 4,6 °C 4,6 °C 90 % 1018,0 hPa 0,0 mm 13,7 km/h (3 Bft) W 263 ° 0 min 0,000 mm 0,0 UV-I 0 W/m² 3,1 °C 1,5 °C 22,5 km/h (4 Bft)
23.10.2017 00:32 4,6 °C 4,6 °C 90 % 1018,0 hPa 0,0 mm 13,9 km/h (3 Bft) W-SW 252 ° 0 min 0,000 mm 0,0 UV-I 0 W/m² 3,1 °C 1,4 °C 17,7 km/h (3 Bft)
23.10.2017 00:33 4,6 °C 4,6 °C 90 % 1018,0 hPa 0,0 mm 11,9 km/h (2 Bft) W-SW 256 ° 0 min 0,000 mm 0,0 UV-I 0 W/m² 3,1 °C 1,8 °C 16,1 km/h (3 Bft)
23.10.2017 00:34 4,6 °C 4,6 °C 90 % 1018,0 hPa 0,0 mm 7,1 km/h (2 Bft) SW 233 ° 0 min 0,000 mm 0,0 UV-I 0 W/m² 3,1 °C 2,9 °C 11,3 km/h (2 Bft)
23.10.2017 00:35 4,6 °C 4,6 °C 90 % 1018,0 hPa 0,0 mm 8,5 km/h (2 Bft) W-SW 256 ° 0 min 0,000 mm 0,0 UV-I 0 W/m² 3,1 °C 2,5 °C 14,5 km/h (3 Bft)
23.10.2017 00:36 4,6 °C 4,6 °C 90 % 1018,0 hPa 0,0 mm 11,7 km/h (2 Bft) SW 226 ° 0 min 0,000 mm 0,0 UV-I 0 W/m² 3,1 °C 1,8 °C 17,7 km/h (3 Bft)
23.10.2017 00:37 4,6 °C 4,6 °C 90 % 1018,0 hPa 0,0 mm 8,6 km/h (2 Bft) SW 232 ° 0 min 0,000 mm 0,0 UV-I 0 W/m² 3,1 °C 2,5 °C 19,3 km/h (3 Bft)
23.10.2017 00:38 4,6 °C 4,6 °C 90 % 1018,0 hPa 0,0 mm 8,3 km/h (2 Bft) S-SW 210 ° 0 min 0,000 mm 0,0 UV-I 0 W/m² 3,1 °C 2,6 °C 12,9 km/h (3 Bft)
23.10.2017 00:39 4,6 °C 4,6 °C 90 % 1017,9 hPa 0,0 mm 10,9 km/h (2 Bft) SW 218 ° 0 min 0,000 mm 0,0 UV-I 0 W/m² 3,1 °C 2,0 °C 12,9 km/h (3 Bft)
23.10.2017 00:40 4,6 °C 4,6 °C 90 % 1017,9 hPa 0,0 mm 14,3 km/h (3 Bft) W-SW 252 ° 0 min 0,000 mm 0,0 UV-I 0 W/m² 3,1 °C 1,4 °C 17,7 km/h (3 Bft)
23.10.2017 00:41 4,6 °C 4,6 °C 90 % 1018,0 hPa 0,0 mm 9,5 km/h (2 Bft) W 259 ° 0 min 0,000 mm 0,0 UV-I 0 W/m² 3,1 °C 2,3 °C 14,5 km/h (3 Bft)
23.10.2017 00:42 4,6 °C 4,6 °C 90 % 1017,9 hPa 0,0 mm 12,2 km/h (2 Bft) W 276 ° 0 min 0,000 mm 0,0 UV-I 0 W/m² 3,1 °C 1,7 °C 17,7 km/h (3 Bft)
23.10.2017 00:43 4,6 °C 4,6 °C 90 % 1017,9 hPa 0,0 mm 11,6 km/h (2 Bft) S-SW 208 ° 0 min 0,000 mm 0,0 UV-I 0 W/m² 3,1 °C 1,8 °C 19,3 km/h (3 Bft)
23.10.2017 00:44 4,6 °C 4,7 °C 90 % 1017,9 hPa 0,0 mm 9,4 km/h (2 Bft) SW 225 ° 0 min 0,000 mm 0,0 UV-I 0 W/m² 3,1 °C 2,3 °C 16,1 km/h (3 Bft)
23.10.2017 00:45 4,6 °C 4,7 °C 90 % 1017,9 hPa 0,0 mm 14,4 km/h (3 Bft) W-SW 244 ° 0 min 0,000 mm 0,0 UV-I 0 W/m² 3,1 °C 1,4 °C 19,3 km/h (3 Bft)
23.10.2017 00:46 4,6 °C 4,7 °C 90 % 1018,0 hPa 0,0 mm 10,7 km/h (2 Bft) W-SW 238 ° 0 min 0,000 mm 0,0 UV-I 0 W/m² 3,1 °C 2,0 °C 17,7 km/h (3 Bft)
23.10.2017 00:47 4,7 °C 4,7 °C 90 % 1018,0 hPa 0,0 mm 7,6 km/h (2 Bft) W-SW 248 ° 0 min 0,000 mm 0,0 UV-I 0 W/m² 3,2 °C 2,9 °C 16,1 km/h (3 Bft)
23.10.2017 00:48 4,7 °C 4,7 °C 90 % 1018,0 hPa 0,0 mm 13,6 km/h (3 Bft) W-SW 251 ° 0 min 0,000 mm 0,0 UV-I 0 W/m² 3,2 °C 1,6 °C 17,7 km/h (3 Bft)
23.10.2017 00:49 4,7 °C 4,7 °C 90 % 1017,9 hPa 0,0 mm 15,1 km/h (3 Bft) W 270 ° 0 min 0,000 mm 0,0 UV-I 0 W/m² 3,2 °C 1,4 °C 17,7 km/h (3 Bft)
23.10.2017 00:50 4,6 °C 4,7 °C 90 % 1017,9 hPa 0,0 mm 10,7 km/h (2 Bft) W-SW 248 ° 0 min 0,000 mm 0,0 UV-I 0 W/m² 3,1 °C 2,0 °C 24,1 km/h (4 Bft)
23.10.2017 00:51 4,7 °C 4,7 °C 90 % 1018,0 hPa 0,0 mm 13,5 km/h (3 Bft) W 281 ° 0 min 0,000 mm 0,0 UV-I 0 W/m² 3,2 °C 1,6 °C 22,5 km/h (4 Bft)
23.10.2017 00:52 4,7 °C 4,7 °C 90 % 1018,1 hPa 0,0 mm 12,4 km/h (3 Bft) W 266 ° 0 min 0,000 mm 0,0 UV-I 0 W/m² 3,2 °C 1,8 °C 19,3 km/h (3 Bft)
23.10.2017 00:53 4,7 °C 4,7 °C 90 % 1017,9 hPa 0,0 mm 14,4 km/h (3 Bft) W-SW 250 ° 0 min 0,000 mm 0,0 UV-I 0 W/m² 3,2 °C 1,5 °C 19,3 km/h (3 Bft)
23.10.2017 00:54 4,7 °C 4,7 °C 90 % 1018,0 hPa 0,0 mm 10,8 km/h (2 Bft) W 264 ° 0 min 0,000 mm 0,0 UV-I 0 W/m² 3,2 °C 2,1 °C 16,1 km/h (3 Bft)
23.10.2017 00:55 4,7 °C 4,7 °C 90 % 1018,0 hPa 0,0 mm 13,4 km/h (3 Bft) W 269 ° 0 min 0,000 mm 0,0 UV-I 0 W/m² 3,2 °C 1,6 °C 19,3 km/h (3 Bft)
23.10.2017 00:56 4,7 °C 4,7 °C 90 % 1018,0 hPa 0,0 mm 9,2 km/h (2 Bft) W-SW 257 ° 0 min 0,000 mm 0,0 UV-I 0 W/m² 3,2 °C 2,5 °C 16,1 km/h (3 Bft)
23.10.2017 00:57 4,7 °C 4,7 °C 90 % 1018,0 hPa 0,0 mm 4,5 km/h (1 Bft) W 261 ° 0 min 0,000 mm 0,0 UV-I 0 W/m² 3,2 °C 4,7 °C 6,4 km/h (2 Bft)
23.10.2017 00:58 4,7 °C 4,7 °C 90 % 1018,0 hPa 0,0 mm 9,7 km/h (2 Bft) NW 309 ° 0 min 0,000 mm 0,0 UV-I 0 W/m² 3,2 °C 2,4 °C 16,1 km/h (3 Bft)
23.10.2017 00:59 4,7 °C 4,7 °C 90 % 1018,0 hPa 0,0 mm 9,4 km/h (2 Bft) W-SW 241 ° 0 min 0,000 mm 0,0 UV-I 0 W/m² 3,2 °C 2,4 °C 17,7 km/h (3 Bft)
23.10.2017 01:00 4,7 °C 4,7 °C 90 % 1018,0 hPa 0,0 mm 7,3 km/h (2 Bft) W-SW 257 ° 0 min 0,000 mm 0,0 UV-I 0 W/m² 3,2 °C 3,0 °C 12,9 km/h (3 Bft)
23.10.2017 01:01 4,7 °C 4,7 °C 90 % 1018,0 hPa 0,0 mm 9,7 km/h (2 Bft) W-SW 257 ° 0 min 0,000 mm 0,0 UV-I 0 W/m² 3,2 °C 2,4 °C 14,5 km/h (3 Bft)
23.10.2017 01:02 4,7 °C 4,7 °C 90 % 1018,0 hPa 0,0 mm 9,3 km/h (2 Bft) W-SW 250 ° 0 min 0,000 mm 0,0 UV-I 0 W/m² 3,2 °C 2,5 °C 12,9 km/h (3 Bft)
23.10.2017 01:03 4,7 °C 4,7 °C 90 % 1018,0 hPa 0,0 mm 9,9 km/h (2 Bft) W-SW 243 ° 0 min 0,000 mm 0,0 UV-I 0 W/m² 3,2 °C 2,3 °C 14,5 km/h (3 Bft)
23.10.2017 01:04 4,7 °C 4,7 °C 90 % 1018,0 hPa 0,0 mm 10,1 km/h (2 Bft) W-NW 294 ° 0 min 0,000 mm 0,0 UV-I 0 W/m² 3,2 °C 2,3 °C 14,5 km/h (3 Bft)
23.10.2017 01:05 4,7 °C 4,7 °C 90 % 1017,9 hPa 0,0 mm 10,1 km/h (2 Bft) W 269 ° 0 min 0,000 mm 0,0 UV-I 0 W/m² 3,2 °C 2,3 °C 14,5 km/h (3 Bft)
23.10.2017 01:06 4,7 °C 4,7 °C 90 % 1018,0 hPa 0,0 mm 10,6 km/h (2 Bft) W 269 ° 0 min 0,000 mm 0,0 UV-I 0 W/m² 3,2 °C 2,2 °C 17,7 km/h (3 Bft)
23.10.2017 01:07 4,7 °C 4,7 °C 90 % 1018,0 hPa 0,0 mm 13,1 km/h (3 Bft) W 273 ° 0 min 0,000 mm 0,0 UV-I 0 W/m² 3,2 °C 1,7 °C 16,1 km/h (3 Bft)
23.10.2017 01:08 4,7 °C 4,7 °C 90 % 1018,0 hPa 0,0 mm 14,8 km/h (3 Bft) W-SW 244 ° 0 min 0,000 mm 0,0 UV-I 0 W/m² 3,2 °C 1,4 °C 17,7 km/h (3 Bft)
23.10.2017 01:09 4,7 °C 4,7 °C 90 % 1018,0 hPa 0,0 mm 19,8 km/h (3 Bft) W-NW 287 ° 0 min 0,000 mm 0,0 UV-I 0 W/m² 3,2 °C 0,7 °C 24,1 km/h (4 Bft)
23.10.2017 01:10 4,7 °C 4,7 °C 90 % 1018,0 hPa 0,0 mm 17,0 km/h (3 Bft) W 277 ° 0 min 0,000 mm 0,0 UV-I 0 W/m² 3,2 °C 1,1 °C 25,7 km/h (4 Bft)
23.10.2017 01:11 4,7 °C 4,7 °C 90 % 1018,0 hPa 0,0 mm 13,0 km/h (3 Bft) W-NW 287 ° 0 min 0,000 mm 0,0 UV-I 0 W/m² 3,2 °C 1,7 °C 20,9 km/h (4 Bft)
23.10.2017 01:12 4,7 °C 4,7 °C 90 % 1018,0 hPa 0,0 mm 12,5 km/h (3 Bft) W 277 ° 0 min 0,000 mm 0,0 UV-I 0 W/m² 3,2 °C 1,8 °C 20,9 km/h (4 Bft)
23.10.2017 01:13 4,7 °C 4,7 °C 90 % 1018,1 hPa 0,0 mm 9,7 km/h (2 Bft) W 261 ° 0 min 0,000 mm 0,0 UV-I 0 W/m² 3,2 °C 2,4 °C 12,9 km/h (3 Bft)
23.10.2017 01:14 4,7 °C 4,7 °C 90 % 1018,0 hPa 0,0 mm 10,6 km/h (2 Bft) W-NW 287 ° 0 min 0,000 mm 0,0 UV-I 0 W/m² 3,2 °C 2,2 °C 14,5 km/h (3 Bft)
23.10.2017 01:15 4,7 °C 4,7 °C 90 % 1018,0 hPa 0,0 mm 14,6 km/h (3 Bft) W-SW 252 ° 0 min 0,000 mm 0,0 UV-I 0 W/m² 3,2 °C 1,4 °C 25,7 km/h (4 Bft)
23.10.2017 01:16 4,7 °C 4,7 °C 90 % 1018,0 hPa 0,0 mm 17,7 km/h (3 Bft) W-SW 258 ° 0 min 0,000 mm 0,0 UV-I 0 W/m² 3,2 °C 1,0 °C 24,1 km/h (4 Bft)
23.10.2017 01:17 4,7 °C 4,7 °C 90 % 1018,0 hPa 0,0 mm 12,1 km/h (2 Bft) W 267 ° 0 min 0,000 mm 0,0 UV-I 0 W/m² 3,2 °C 1,9 °C 17,7 km/h (3 Bft)
23.10.2017 01:18 4,7 °C 4,8 °C 90 % 1018,0 hPa 0,0 mm 15,6 km/h (3 Bft) W-SW 239 ° 0 min 0,000 mm 0,0 UV-I 0 W/m² 3,2 °C 1,3 °C 27,4 km/h (4 Bft)
23.10.2017 01:19 4,7 °C 4,7 °C 90 % 1018,0 hPa 0,0 mm 12,9 km/h (3 Bft) W 262 ° 0 min 0,000 mm 0,0 UV-I 0 W/m² 3,2 °C 1,7 °C 20,9 km/h (4 Bft)
23.10.2017 01:20 4,7 °C 4,7 °C 90 % 1018,0 hPa 0,0 mm 12,9 km/h (3 Bft) W 271 ° 0 min 0,000 mm 0,0 UV-I 0 W/m² 3,2 °C 1,7 °C 19,3 km/h (3 Bft)
23.10.2017 01:21 4,7 °C 4,7 °C 90 % 1017,9 hPa 0,0 mm 12,6 km/h (3 Bft) W 275 ° 0 min 0,000 mm 0,0 UV-I 0 W/m² 3,2 °C 1,8 °C 19,3 km/h (3 Bft)
23.10.2017 01:22 4,7 °C 4,7 °C 90 % 1018,0 hPa 0,0 mm 13,7 km/h (3 Bft) W-NW 292 ° 0 min 0,000 mm 0,0 UV-I 0 W/m² 3,2 °C 1,6 °C 17,7 km/h (3 Bft)
23.10.2017 01:23 4,7 °C 4,7 °C 90 % 1018,0 hPa 0,0 mm 10,4 km/h (2 Bft) W-SW 245 ° 0 min 0,000 mm 0,0 UV-I 0 W/m² 3,2 °C 2,2 °C 19,3 km/h (3 Bft)
23.10.2017 01:24 4,7 °C 4,8 °C 90 % 1017,9 hPa 0,0 mm 15,0 km/h (3 Bft) W-SW 239 ° 0 min 0,000 mm 0,0 UV-I 0 W/m² 3,2 °C 1,4 °C 22,5 km/h (4 Bft)
23.10.2017 01:25 4,7 °C 4,7 °C 90 % 1017,9 hPa 0,0 mm 13,4 km/h (3 Bft) W 261 ° 0 min 0,000 mm 0,0 UV-I 0 W/m² 3,2 °C 1,6 °C 17,7 km/h (3 Bft)
23.10.2017 01:26 4,7 °C 4,7 °C 90 % 1017,9 hPa 0,0 mm 11,1 km/h (2 Bft) W-SW 244 ° 0 min 0,000 mm 0,0 UV-I 0 W/m² 3,2 °C 2,1 °C 17,7 km/h (3 Bft)
23.10.2017 01:27 4,7 °C 4,7 °C 90 % 1017,9 hPa 0,0 mm 12,3 km/h (3 Bft) W 264 ° 0 min 0,000 mm 0,0 UV-I 0 W/m² 3,2 °C 1,8 °C 16,1 km/h (3 Bft)
23.10.2017 01:28 4,7 °C 4,7 °C 90 % 1017,9 hPa 0,0 mm 12,5 km/h (3 Bft) W 270 ° 0 min 0,000 mm 0,0 UV-I 0 W/m² 3,2 °C 1,8 °C 16,1 km/h (3 Bft)
23.10.2017 01:29 4,7 °C 4,7 °C 90 % 1017,8 hPa 0,0 mm 9,9 km/h (2 Bft) W 268 ° 0 min 0,000 mm 0,0 UV-I 0 W/m² 3,2 °C 2,3 °C 14,5 km/h (3 Bft)
23.10.2017 01:30 4,7 °C 4,7 °C 90 % 1017,9 hPa 0,0 mm 10,0 km/h (2 Bft) W-NW 283 ° 0 min 0,000 mm 0,0 UV-I 0 W/m² 3,2 °C 2,3 °C 12,9 km/h (3 Bft)
23.10.2017 01:31 4,7 °C 4,7 °C 90 % 1017,9 hPa 0,0 mm 13,0 km/h (3 Bft) W 275 ° 0 min 0,000 mm 0,0 UV-I 0 W/m² 3,2 °C 1,7 °C 20,9 km/h (4 Bft)
23.10.2017 01:32 4,7 °C 4,7 °C 90 % 1017,9 hPa 0,0 mm 11,4 km/h (2 Bft) W-SW 257 ° 0 min 0,000 mm 0,0 UV-I 0 W/m² 3,2 °C 2,0 °C 14,5 km/h (3 Bft)
23.10.2017 01:33 4,7 °C 4,7 °C 90 % 1017,9 hPa 0,0 mm 10,0 km/h (2 Bft) W-SW 257 ° 0 min 0,000 mm 0,0 UV-I 0 W/m² 3,2 °C 2,3 °C 12,9 km/h (3 Bft)
23.10.2017 01:34 4,7 °C 4,7 °C 90 % 1017,8 hPa 0,0 mm 10,9 km/h (2 Bft) W-SW 242 ° 0 min 0,000 mm 0,0 UV-I 0 W/m² 3,2 °C 2,1 °C 19,3 km/h (3 Bft)
23.10.2017 01:35 4,7 °C 4,7 °C 90 % 1017,8 hPa 0,0 mm 13,3 km/h (3 Bft) W-SW 257 ° 0 min 0,000 mm 0,0 UV-I 0 W/m² 3,2 °C 1,7 °C 19,3 km/h (3 Bft)
23.10.2017 01:36 4,7 °C 4,7 °C 90 % 1017,8 hPa 0,0 mm 16,2 km/h (3 Bft) W 275 ° 0 min 0,000 mm 0,0 UV-I 0 W/m² 3,2 °C 1,2 °C 20,9 km/h (4 Bft)
23.10.2017 01:37 4,7 °C 4,7 °C 90 % 1017,8 hPa 0,0 mm 13,3 km/h (3 Bft) W 259 ° 0 min 0,000 mm 0,0 UV-I 0 W/m² 3,2 °C 1,7 °C 19,3 km/h (3 Bft)
23.10.2017 01:38 4,7 °C 4,7 °C 90 % 1017,8 hPa 0,0 mm 10,0 km/h (2 Bft) W 263 ° 0 min 0,000 mm 0,0 UV-I 0 W/m² 3,2 °C 2,3 °C 16,1 km/h (3 Bft)
23.10.2017 01:39 4,6 °C 4,7 °C 90 % 1017,8 hPa 0,0 mm 15,1 km/h (3 Bft) W 270 ° 0 min 0,000 mm 0,0 UV-I 0 W/m² 3,1 °C 1,2 °C 19,3 km/h (3 Bft)
23.10.2017 01:40 4,6 °C 4,6 °C 90 % 1017,7 hPa 0,0 mm 13,2 km/h (3 Bft) W 277 ° 0 min 0,000 mm 0,0 UV-I 0 W/m² 3,1 °C 1,6 °C 19,3 km/h (3 Bft)
23.10.2017 01:41 4,6 °C 4,6 °C 90 % 1017,8 hPa 0,0 mm 11,5 km/h (2 Bft) W 270 ° 0 min 0,000 mm 0,0 UV-I 0 W/m² 3,1 °C 1,9 °C 19,3 km/h (3 Bft)
23.10.2017 01:42 4,6 °C 4,6 °C 90 % 1017,8 hPa 0,0 mm 17,3 km/h (3 Bft) W 276 ° 0 min 0,000 mm 0,0 UV-I 0 W/m² 3,1 °C 0,9 °C 25,7 km/h (4 Bft)
23.10.2017 01:43 4,6 °C 4,6 °C 90 % 1017,8 hPa 0,0 mm 16,1 km/h (3 Bft) W 270 ° 0 min 0,000 mm 0,0 UV-I 0 W/m² 3,1 °C 1,1 °C 20,9 km/h (4 Bft)
23.10.2017 01:44 4,6 °C 4,6 °C 90 % 1017,8 hPa 0,0 mm 12,7 km/h (3 Bft) W 262 ° 0 min 0,000 mm 0,0 UV-I 0 W/m² 3,1 °C 1,6 °C 20,9 km/h (4 Bft)
23.10.2017 01:45 4,6 °C 4,6 °C 90 % 1017,9 hPa 0,0 mm 15,2 km/h (3 Bft) W 269 ° 0 min 0,000 mm 0,0 UV-I 0 W/m² 3,1 °C 1,2 °C 17,7 km/h (3 Bft)
23.10.2017 01:46 4,6 °C 4,6 °C 90 % 1017,9 hPa 0,0 mm 11,5 km/h (2 Bft) W-SW 257 ° 0 min 0,000 mm 0,0 UV-I 0 W/m² 3,1 °C 1,9 °C 19,3 km/h (3 Bft)
23.10.2017 01:47 4,6 °C 4,6 °C 91 % 1017,9 hPa 0,0 mm 7,6 km/h (2 Bft) W 269 ° 0 min 0,000 mm 0,0 UV-I 0 W/m² 3,3 °C 2,8 °C 12,9 km/h (3 Bft)
23.10.2017 01:48 4,6 °C 4,6 °C 91 % 1017,9 hPa 0,0 mm 10,8 km/h (2 Bft) W 268 ° 0 min 0,000 mm 0,0 UV-I 0 W/m² 3,3 °C 2,0 °C 12,9 km/h (3 Bft)
23.10.2017 01:49 4,6 °C 4,6 °C 91 % 1017,9 hPa 0,0 mm 11,6 km/h (2 Bft) W 261 ° 0 min 0,000 mm 0,0 UV-I 0 W/m² 3,3 °C 1,8 °C 16,1 km/h (3 Bft)
23.10.2017 01:50 4,6 °C 4,6 °C 91 % 1017,9 hPa 0,0 mm 12,5 km/h (3 Bft) W-SW 257 ° 0 min 0,000 mm 0,0 UV-I 0 W/m² 3,3 °C 1,7 °C 19,3 km/h (3 Bft)
23.10.2017 01:51 4,6 °C 4,6 °C 91 % 1017,9 hPa 0,0 mm 9,3 km/h (2 Bft) W-SW 251 ° 0 min 0,000 mm 0,0 UV-I 0 W/m² 3,3 °C 2,3 °C 16,1 km/h (3 Bft)
23.10.2017 01:52 4,6 °C 4,6 °C 91 % 1017,9 hPa 0,0 mm 3,8 km/h (1 Bft) W-SW 238 ° 0 min 0,000 mm 0,0 UV-I 0 W/m² 3,3 °C 4,6 °C 8,0 km/h (2 Bft)
23.10.2017 01:53 4,5 °C 4,6 °C 91 % 1017,9 hPa 0,0 mm 8,0 km/h (2 Bft) W-NW 297 ° 0 min 0,000 mm 0,0 UV-I 0 W/m² 3,2 °C 2,5 °C 12,9 km/h (3 Bft)
23.10.2017 01:54 4,5 °C 4,6 °C 91 % 1017,9 hPa 0,0 mm 4,5 km/h (1 Bft) W 275 ° 0 min 0,000 mm 0,0 UV-I 0 W/m² 3,2 °C 4,5 °C 9,7 km/h (2 Bft)
23.10.2017 01:55 4,5 °C 4,6 °C 91 % 1017,9 hPa 0,0 mm 9,0 km/h (2 Bft) W 271 ° 0 min 0,000 mm 0,0 UV-I 0 W/m² 3,2 °C 2,3 °C 12,9 km/h (3 Bft)
23.10.2017 01:56 4,5 °C 4,6 °C 91 % 1017,9 hPa 0,0 mm 14,8 km/h (3 Bft) W 259 ° 0 min 0,000 mm 0,0 UV-I 0 W/m² 3,2 °C 1,2 °C 22,5 km/h (4 Bft)
23.10.2017 01:57 4,6 °C 4,6 °C 91 % 1017,9 hPa 0,0 mm 11,3 km/h (2 Bft) W-SW 257 ° 0 min 0,000 mm 0,0 UV-I 0 W/m² 3,3 °C 1,9 °C 20,9 km/h (4 Bft)
23.10.2017 01:58 4,5 °C 4,6 °C 91 % 1017,9 hPa 0,0 mm 12,4 km/h (3 Bft) W-SW 250 ° 0 min 0,000 mm 0,0 UV-I 0 W/m² 3,2 °C 1,6 °C 19,3 km/h (3 Bft)
23.10.2017 01:59 4,6 °C 4,6 °C 91 % 1017,9 hPa 0,0 mm 10,0 km/h (2 Bft) W 266 ° 0 min 0,000 mm 0,0 UV-I 0 W/m² 3,3 °C 2,2 °C 14,5 km/h (3 Bft)
23.10.2017 02:00 4,6 °C 4,6 °C 90 % 1018,0 hPa 0,0 mm 6,8 km/h (2 Bft) W 275 ° 0 min 0,025 mm 0,0 UV-I 0 W/m² 3,1 °C 3,0 °C 11,3 km/h (2 Bft)
23.10.2017 02:01 4,6 °C 4,6 °C 90 % 1018,0 hPa 0,0 mm 12,9 km/h (3 Bft) W-SW 253 ° 0 min 0,000 mm 0,0 UV-I 0 W/m² 3,1 °C 1,6 °C 20,9 km/h (4 Bft)
23.10.2017 02:02 4,6 °C 4,6 °C 91 % 1018,0 hPa 0,0 mm 12,6 km/h (3 Bft) W 269 ° 0 min 0,000 mm 0,0 UV-I 0 W/m² 3,3 °C 1,7 °C 16,1 km/h (3 Bft)
23.10.2017 02:03 4,6 °C 4,6 °C 91 % 1018,0 hPa 0,0 mm 15,5 km/h (3 Bft) W-NW 292 ° 0 min 0,000 mm 0,0 UV-I 0 W/m² 3,3 °C 1,2 °C 17,7 km/h (3 Bft)
23.10.2017 02:04 4,6 °C 4,6 °C 91 % 1018,0 hPa 0,0 mm 8,6 km/h (2 Bft) W 267 ° 0 min 0,000 mm 0,0 UV-I 0 W/m² 3,3 °C 2,5 °C 16,1 km/h (3 Bft)
23.10.2017 02:05 4,6 °C 4,6 °C 91 % 1018,0 hPa 0,0 mm 14,2 km/h (3 Bft) W 270 ° 0 min 0,000 mm 0,0 UV-I 0 W/m² 3,3 °C 1,4 °C 17,7 km/h (3 Bft)
23.10.2017 02:06 4,6 °C 4,6 °C 90 % 1018,1 hPa 0,0 mm 14,9 km/h (3 Bft) W-NW 284 ° 0 min 0,000 mm 0,0 UV-I 0 W/m² 3,1 °C 1,3 °C 25,7 km/h (4 Bft)
23.10.2017 02:07 4,6 °C 4,6 °C 90 % 1018,2 hPa 0,0 mm 11,7 km/h (2 Bft) SW 225 ° 0 min 0,000 mm 0,0 UV-I 0 W/m² 3,1 °C 1,8 °C 17,7 km/h (3 Bft)
23.10.2017 02:08 4,6 °C 4,6 °C 90 % 1018,0 hPa 0,0 mm 15,6 km/h (3 Bft) W 279 ° 0 min 0,000 mm 0,0 UV-I 0 W/m² 3,1 °C 1,2 °C 19,3 km/h (3 Bft)
23.10.2017 02:09 4,6 °C 4,6 °C 90 % 1018,0 hPa 0,0 mm 12,0 km/h (2 Bft) W 271 ° 0 min 0,000 mm 0,0 UV-I 0 W/m² 3,1 °C 1,8 °C 17,7 km/h (3 Bft)
23.10.2017 02:10 4,6 °C 4,6 °C 90 % 1018,1 hPa 0,0 mm 12,3 km/h (3 Bft) W-NW 292 ° 0 min 0,000 mm 0,0 UV-I 0 W/m² 3,1 °C 1,7 °C 19,3 km/h (3 Bft)
23.10.2017 02:11 4,6 °C 4,6 °C 90 % 1018,2 hPa 0,0 mm 11,6 km/h (2 Bft) W-SW 258 ° 0 min 0,000 mm 0,0 UV-I 0 W/m² 3,1 °C 1,8 °C 12,9 km/h (3 Bft)
23.10.2017 02:12 4,6 °C 4,6 °C 90 % 1018,2 hPa 0,0 mm 7,6 km/h (2 Bft) W-SW 255 ° 0 min 0,000 mm 0,0 UV-I 0 W/m² 3,1 °C 2,8 °C 11,3 km/h (2 Bft)
23.10.2017 02:13 4,6 °C 4,6 °C 90 % 1018,1 hPa 0,0 mm 12,1 km/h (2 Bft) W 277 ° 0 min 0,000 mm 0,0 UV-I 0 W/m² 3,1 °C 1,8 °C 19,3 km/h (3 Bft)
23.10.2017 02:14 4,7 °C 4,7 °C 90 % 1018,1 hPa 0,0 mm 12,2 km/h (2 Bft) SW 221 ° 0 min 0,000 mm 0,0 UV-I 0 W/m² 3,2 °C 1,9 °C 19,3 km/h (3 Bft)
23.10.2017 02:15 4,7 °C 4,7 °C 90 % 1018,1 hPa 0,0 mm 10,3 km/h (2 Bft) W-SW 244 ° 0 min 0,000 mm 0,0 UV-I 0 W/m² 3,2 °C 2,2 °C 16,1 km/h (3 Bft)
23.10.2017 02:16 4,6 °C 4,7 °C 90 % 1018,1 hPa 0,0 mm 16,0 km/h (3 Bft) W-NW 282 ° 0 min 0,000 mm 0,0 UV-I 0 W/m² 3,1 °C 1,1 °C 20,9 km/h (4 Bft)
23.10.2017 02:17 4,7 °C 4,7 °C 90 % 1018,1 hPa 0,0 mm 12,0 km/h (2 Bft) W 273 ° 0 min 0,000 mm 0,0 UV-I 0 W/m² 3,2 °C 1,9 °C 17,7 km/h (3 Bft)
23.10.2017 02:18 4,6 °C 4,7 °C 90 % 1018,0 hPa 0,0 mm 10,5 km/h (2 Bft) W-SW 240 ° 0 min 0,000 mm 0,0 UV-I 0 W/m² 3,1 °C 2,1 °C 14,5 km/h (3 Bft)
23.10.2017 02:19 4,7 °C 4,7 °C 90 % 1018,0 hPa 0,0 mm 12,2 km/h (2 Bft) W-SW 248 ° 0 min 0,000 mm 0,0 UV-I 0 W/m² 3,2 °C 1,9 °C 17,7 km/h (3 Bft)
23.10.2017 02:20 4,7 °C 4,7 °C 90 % 1018,1 hPa 0,0 mm 13,5 km/h (3 Bft) W-SW 257 ° 0 min 0,000 mm 0,0 UV-I 0 W/m² 3,2 °C 1,6 °C 17,7 km/h (3 Bft)
23.10.2017 02:21 4,7 °C 4,7 °C 90 % 1018,0 hPa 0,0 mm 9,2 km/h (2 Bft) W 262 ° 0 min 0,000 mm 0,0 UV-I 0 W/m² 3,2 °C 2,5 °C 14,5 km/h (3 Bft)
23.10.2017 02:22 4,6 °C 4,7 °C 90 % 1018,1 hPa 0,0 mm 10,6 km/h (2 Bft) SW 224 ° 0 min 0,000 mm 0,0 UV-I 0 W/m² 3,1 °C 2,1 °C 16,1 km/h (3 Bft)
23.10.2017 02:23 4,6 °C 4,7 °C 90 % 1018,1 hPa 0,0 mm 10,5 km/h (2 Bft) W 269 ° 0 min 0,000 mm 0,0 UV-I 0 W/m² 3,1 °C 2,1 °C 16,1 km/h (3 Bft)
23.10.2017 02:24 4,6 °C 4,7 °C 90 % 1018,1 hPa 0,0 mm 8,0 km/h (2 Bft) SW 229 ° 0 min 0,000 mm 0,0 UV-I 0 W/m² 3,1 °C 2,7 °C 12,9 km/h (3 Bft)
23.10.2017 02:25 4,6 °C 4,7 °C 90 % 1018,1 hPa 0,0 mm 8,0 km/h (2 Bft) W-NW 298 ° 0 min 0,000 mm 0,0 UV-I 0 W/m² 3,1 °C 2,7 °C 16,1 km/h (3 Bft)
23.10.2017 02:26 4,7 °C 4,7 °C 90 % 1018,2 hPa 0,0 mm 8,3 km/h (2 Bft) SW 229 ° 0 min 0,000 mm 0,0 UV-I 0 W/m² 3,2 °C 2,7 °C 12,9 km/h (3 Bft)
23.10.2017 02:27 4,7 °C 4,7 °C 90 % 1018,2 hPa 0,0 mm 7,7 km/h (2 Bft) W 275 ° 0 min 0,000 mm 0,0 UV-I 0 W/m² 3,2 °C 2,9 °C 11,3 km/h (2 Bft)
23.10.2017 02:28 4,6 °C 4,7 °C 90 % 1018,2 hPa 0,0 mm 12,8 km/h (3 Bft) W-SW 252 ° 0 min 0,000 mm 0,0 UV-I 0 W/m² 3,1 °C 1,6 °C 17,7 km/h (3 Bft)
23.10.2017 02:29 4,6 °C 4,6 °C 90 % 1018,3 hPa 0,0 mm 8,4 km/h (2 Bft) W-SW 255 ° 0 min 0,000 mm 0,0 UV-I 0 W/m² 3,1 °C 2,6 °C 14,5 km/h (3 Bft)
23.10.2017 02:30 4,6 °C 4,6 °C 90 % 1018,2 hPa 0,0 mm 10,8 km/h (2 Bft) W 266 ° 0 min 0,000 mm 0,0 UV-I 0 W/m² 3,1 °C 2,0 °C 16,1 km/h (3 Bft)
23.10.2017 02:31 4,6 °C 4,6 °C 90 % 1018,2 hPa 0,0 mm 13,7 km/h (3 Bft) W 261 ° 0 min 0,000 mm 0,0 UV-I 0 W/m² 3,1 °C 1,5 °C 17,7 km/h (3 Bft)
23.10.2017 02:32 4,6 °C 4,7 °C 90 % 1018,2 hPa 0,0 mm 7,1 km/h (2 Bft) W 271 ° 0 min 0,000 mm 0,0 UV-I 0 W/m² 3,1 °C 2,9 °C 14,5 km/h (3 Bft)
23.10.2017 02:33 4,7 °C 4,7 °C 90 % 1018,3 hPa 0,0 mm 10,1 km/h (2 Bft) W-NW 301 ° 0 min 0,000 mm 0,0 UV-I 0 W/m² 3,2 °C 2,3 °C 14,5 km/h (3 Bft)
23.10.2017 02:34 4,6 °C 4,7 °C 90 % 1018,3 hPa 0,0 mm 11,1 km/h (2 Bft) W 259 ° 0 min 0,000 mm 0,0 UV-I 0 W/m² 3,1 °C 1,9 °C 16,1 km/h (3 Bft)
23.10.2017 02:35 4,7 °C 4,7 °C 90 % 1018,3 hPa 0,0 mm 11,7 km/h (2 Bft) W 277 ° 0 min 0,000 mm 0,0 UV-I 0 W/m² 3,2 °C 2,0 °C 19,3 km/h (3 Bft)
23.10.2017 02:36 4,7 °C 4,7 °C 90 % 1018,2 hPa 0,0 mm 7,9 km/h (2 Bft) W 273 ° 0 min 0,000 mm 0,0 UV-I 0 W/m² 3,2 °C 2,8 °C 12,9 km/h (3 Bft)
23.10.2017 02:37 4,6 °C 4,7 °C 90 % 1018,2 hPa 0,0 mm 3,7 km/h (1 Bft) W 267 ° 0 min 0,000 mm 0,0 UV-I 0 W/m² 3,1 °C 4,6 °C 9,7 km/h (2 Bft)
23.10.2017 02:38 4,7 °C 4,7 °C 90 % 1018,2 hPa 0,0 mm 8,0 km/h (2 Bft) W-SW 246 ° 0 min 0,000 mm 0,0 UV-I 0 W/m² 3,2 °C 2,8 °C 11,3 km/h (2 Bft)
23.10.2017 02:39 4,6 °C 4,7 °C 90 % 1018,3 hPa 0,0 mm 12,3 km/h (3 Bft) W 269 ° 0 min 0,000 mm 0,0 UV-I 0 W/m² 3,1 °C 1,7 °C 17,7 km/h (3 Bft)
23.10.2017 02:40 4,7 °C 4,7 °C 90 % 1018,3 hPa 0,0 mm 8,8 km/h (2 Bft) W-SW 238 ° 0 min 0,000 mm 0,0 UV-I 0 W/m² 3,2 °C 2,6 °C 12,9 km/h (3 Bft)
23.10.2017 02:41 4,7 °C 4,7 °C 90 % 1018,2 hPa 0,0 mm 14,1 km/h (3 Bft) W 281 ° 0 min 0,000 mm 0,0 UV-I 0 W/m² 3,2 °C 1,5 °C 19,3 km/h (3 Bft)
23.10.2017 02:42 4,7 °C 4,7 °C 90 % 1018,3 hPa 0,0 mm 6,8 km/h (2 Bft) W-NW 288 ° 0 min 0,000 mm 0,0 UV-I 0 W/m² 3,2 °C 3,1 °C 9,7 km/h (2 Bft)
23.10.2017 02:43 4,7 °C 4,7 °C 90 % 1018,3 hPa 0,0 mm 8,6 km/h (2 Bft) W-SW 257 ° 0 min 0,000 mm 0,0 UV-I 0 W/m² 3,2 °C 2,6 °C 14,5 km/h (3 Bft)
23.10.2017 02:44 4,7 °C 4,7 °C 90 % 1018,3 hPa 0,0 mm 9,5 km/h (2 Bft) W 273 ° 0 min 0,000 mm 0,0 UV-I 0 W/m² 3,2 °C 2,4 °C 17,7 km/h (3 Bft)
23.10.2017 02:45 4,7 °C 4,7 °C 90 % 1018,2 hPa 0,0 mm 8,6 km/h (2 Bft) W 263 ° 0 min 0,000 mm 0,0 UV-I 0 W/m² 3,2 °C 2,6 °C 14,5 km/h (3 Bft)
23.10.2017 02:46 4,7 °C 4,7 °C 90 % 1018,2 hPa 0,0 mm 13,7 km/h (3 Bft) W 273 ° 0 min 0,000 mm 0,0 UV-I 0 W/m² 3,2 °C 1,6 °C 16,1 km/h (3 Bft)
23.10.2017 02:47 4,7 °C 4,7 °C 90 % 1018,2 hPa 0,0 mm 14,0 km/h (3 Bft) W-SW 256 ° 0 min 0,000 mm 0,0 UV-I 0 W/m² 3,2 °C 1,5 °C 19,3 km/h (3 Bft)
23.10.2017 02:48 4,7 °C 4,7 °C 90 % 1018,1 hPa 0,0 mm 12,5 km/h (3 Bft) W-NW 282 ° 0 min 0,000 mm 0,0 UV-I 0 W/m² 3,2 °C 1,8 °C 17,7 km/h (3 Bft)
23.10.2017 02:49 4,7 °C 4,7 °C 90 % 1018,2 hPa 0,0 mm 8,1 km/h (2 Bft) W 265 ° 0 min 0,000 mm 0,0 UV-I 0 W/m² 3,2 °C 2,8 °C 12,9 km/h (3 Bft)
23.10.2017 02:50 4,7 °C 4,7 °C 90 % 1018,2 hPa 0,0 mm 12,0 km/h (2 Bft) W-SW 251 ° 0 min 0,000 mm 0,0 UV-I 0 W/m² 3,2 °C 1,9 °C 22,5 km/h (4 Bft)
23.10.2017 02:51 4,7 °C 4,7 °C 90 % 1018,2 hPa 0,0 mm 10,1 km/h (2 Bft) W 273 ° 0 min 0,000 mm 0,0 UV-I 0 W/m² 3,2 °C 2,3 °C 17,7 km/h (3 Bft)
23.10.2017 02:52 4,7 °C 4,7 °C 90 % 1018,2 hPa 0,0 mm 8,0 km/h (2 Bft) W 262 ° 0 min 0,000 mm 0,0 UV-I 0 W/m² 3,2 °C 2,8 °C 12,9 km/h (3 Bft)
23.10.2017 02:53 4,7 °C 4,7 °C 90 % 1018,2 hPa 0,0 mm 13,1 km/h (3 Bft) W-SW 252 ° 0 min 0,000 mm 0,0 UV-I 0 W/m² 3,2 °C 1,7 °C 20,9 km/h (4 Bft)
23.10.2017 02:54 4,7 °C 4,7 °C 90 % 1018,2 hPa 0,0 mm 7,4 km/h (2 Bft) W 280 ° 0 min 0,000 mm 0,0 UV-I 0 W/m² 3,2 °C 2,9 °C 12,9 km/h (3 Bft)
23.10.2017 02:55 4,7 °C 4,7 °C 90 % 1018,2 hPa 0,0 mm 11,6 km/h (2 Bft) W-SW 255 ° 0 min 0,000 mm 0,0 UV-I 0 W/m² 3,2 °C 2,0 °C 17,7 km/h (3 Bft)
23.10.2017 02:56 4,7 °C 4,7 °C 90 % 1018,2 hPa 0,0 mm 12,6 km/h (3 Bft) SW 235 ° 0 min 0,000 mm 0,0 UV-I 0 W/m² 3,2 °C 1,8 °C 19,3 km/h (3 Bft)
23.10.2017 02:57 4,7 °C 4,7 °C 90 % 1018,1 hPa 0,0 mm 7,8 km/h (2 Bft) W-NW 288 ° 0 min 0,000 mm 0,0 UV-I 0 W/m² 3,2 °C 2,8 °C 14,5 km/h (3 Bft)
23.10.2017 02:58 4,7 °C 4,7 °C 90 % 1018,1 hPa 0,0 mm 8,3 km/h (2 Bft) SW 223 ° 0 min 0,000 mm 0,0 UV-I 0 W/m² 3,2 °C 2,7 °C 12,9 km/h (3 Bft)
23.10.2017 02:59 4,7 °C 4,7 °C 90 % 1018,1 hPa 0,0 mm 8,2 km/h (2 Bft) W 273 ° 0 min 0,000 mm 0,0 UV-I 0 W/m² 3,2 °C 2,7 °C 14,5 km/h (3 Bft)
23.10.2017 03:00 4,7 °C 4,7 °C 90 % 1018,2 hPa 0,0 mm 10,4 km/h (2 Bft) W 273 ° 0 min 0,000 mm 0,0 UV-I 0 W/m² 3,2 °C 2,2 °C 16,1 km/h (3 Bft)
23.10.2017 03:01 4,7 °C 4,7 °C 90 % 1018,1 hPa 0,0 mm 10,9 km/h (2 Bft) W-SW 253 ° 0 min 0,000 mm 0,0 UV-I 0 W/m² 3,2 °C 2,1 °C 16,1 km/h (3 Bft)
23.10.2017 03:02 4,7 °C 4,7 °C 90 % 1018,1 hPa 0,0 mm 10,1 km/h (2 Bft) W 267 ° 0 min 0,000 mm 0,0 UV-I 0 W/m² 3,2 °C 2,3 °C 16,1 km/h (3 Bft)
23.10.2017 03:03 4,7 °C 4,7 °C 90 % 1018,1 hPa 0,0 mm 17,2 km/h (3 Bft) W-SW 248 ° 0 min 0,000 mm 0,0 UV-I 0 W/m² 3,2 °C 1,1 °C 25,7 km/h (4 Bft)
23.10.2017 03:04 4,7 °C 4,7 °C 90 % 1018,2 hPa 0,0 mm 9,7 km/h (2 Bft) W-SW 257 ° 0 min 0,000 mm 0,0 UV-I 0 W/m² 3,2 °C 2,4 °C 14,5 km/h (3 Bft)
23.10.2017 03:05 4,7 °C 4,7 °C 90 % 1018,2 hPa 0,0 mm 14,8 km/h (3 Bft) W 267 ° 0 min 0,000 mm 0,0 UV-I 0 W/m² 3,2 °C 1,4 °C 20,9 km/h (4 Bft)
23.10.2017 03:06 4,6 °C 4,7 °C 90 % 1018,2 hPa 0,0 mm 15,4 km/h (3 Bft) SW 234 ° 0 min 0,000 mm 0,0 UV-I 0 W/m² 3,1 °C 1,2 °C 25,7 km/h (4 Bft)
23.10.2017 03:07 4,6 °C 4,7 °C 90 % 1018,2 hPa 0,0 mm 17,5 km/h (3 Bft) W-SW 256 ° 0 min 0,000 mm 0,0 UV-I 0 W/m² 3,1 °C 0,9 °C 25,7 km/h (4 Bft)
23.10.2017 03:08 4,6 °C 4,7 °C 90 % 1018,1 hPa 0,0 mm 14,8 km/h (3 Bft) W 261 ° 0 min 0,000 mm 0,0 UV-I 0 W/m² 3,1 °C 1,3 °C 20,9 km/h (4 Bft)
23.10.2017 03:09 4,7 °C 4,7 °C 90 % 1018,2 hPa 0,0 mm 10,0 km/h (2 Bft) W 263 ° 0 min 0,000 mm 0,0 UV-I 0 W/m² 3,2 °C 2,3 °C 14,5 km/h (3 Bft)
23.10.2017 03:10 4,7 °C 4,7 °C 90 % 1018,2 hPa 0,0 mm 13,2 km/h (3 Bft) SW 229 ° 0 min 0,000 mm 0,0 UV-I 0 W/m² 3,2 °C 1,7 °C 17,7 km/h (3 Bft)
23.10.2017 03:11 4,7 °C 4,7 °C 90 % 1018,2 hPa 0,0 mm 11,9 km/h (2 Bft) S-SW 211 ° 0 min 0,000 mm 0,0 UV-I 0 W/m² 3,2 °C 1,9 °C 17,7 km/h (3 Bft)
23.10.2017 03:12 4,7 °C 4,7 °C 90 % 1018,1 hPa 0,0 mm 12,5 km/h (3 Bft) W-SW 252 ° 0 min 0,000 mm 0,0 UV-I 0 W/m² 3,2 °C 1,8 °C 16,1 km/h (3 Bft)
23.10.2017 03:13 4,7 °C 4,7 °C 90 % 1018,1 hPa 0,0 mm 13,1 km/h (3 Bft) W-SW 253 ° 0 min 0,000 mm 0,0 UV-I 0 W/m² 3,2 °C 1,7 °C 25,7 km/h (4 Bft)
23.10.2017 03:14 4,7 °C 4,7 °C 90 % 1018,1 hPa 0,0 mm 12,2 km/h (2 Bft) W 260 ° 0 min 0,000 mm 0,0 UV-I 0 W/m² 3,2 °C 1,9 °C 14,5 km/h (3 Bft)
23.10.2017 03:15 4,7 °C 4,7 °C 90 % 1018,2 hPa 0,0 mm 12,8 km/h (3 Bft) W-SW 254 ° 0 min 0,000 mm 0,0 UV-I 0 W/m² 3,2 °C 1,7 °C 24,1 km/h (4 Bft)
23.10.2017 03:16 4,7 °C 4,7 °C 90 % 1018,1 hPa 0,0 mm 12,8 km/h (3 Bft) W 261 ° 0 min 0,000 mm 0,0 UV-I 0 W/m² 3,2 °C 1,7 °C 17,7 km/h (3 Bft)
23.10.2017 03:17 4,7 °C 4,7 °C 90 % 1018,1 hPa 0,0 mm 12,5 km/h (3 Bft) W 262 ° 0 min 0,000 mm 0,0 UV-I 0 W/m² 3,2 °C 1,8 °C 16,1 km/h (3 Bft)
23.10.2017 03:18 4,7 °C 4,7 °C 90 % 1018,1 hPa 0,0 mm 9,0 km/h (2 Bft) W-SW 257 ° 0 min 0,000 mm 0,0 UV-I 0 W/m² 3,2 °C 2,5 °C 12,9 km/h (3 Bft)
23.10.2017 03:19 4,7 °C 4,7 °C 90 % 1018,1 hPa 0,0 mm 8,4 km/h (2 Bft) SW 236 ° 0 min 0,000 mm 0,0 UV-I 0 W/m² 3,2 °C 2,7 °C 14,5 km/h (3 Bft)
23.10.2017 03:20 4,7 °C 4,7 °C 90 % 1018,1 hPa 0,0 mm 14,1 km/h (3 Bft) W 262 ° 0 min 0,000 mm 0,0 UV-I 0 W/m² 3,2 °C 1,5 °C 17,7 km/h (3 Bft)
23.10.2017 03:21 4,7 °C 4,7 °C 90 % 1018,1 hPa 0,0 mm 6,4 km/h (2 Bft) W-NW 294 ° 0 min 0,000 mm 0,0 UV-I 0 W/m² 3,2 °C 3,2 °C 12,9 km/h (3 Bft)
23.10.2017 03:22 4,6 °C 4,7 °C 90 % 1018,1 hPa 0,0 mm 9,3 km/h (2 Bft) W 269 ° 0 min 0,000 mm 0,0 UV-I 0 W/m² 3,1 °C 2,3 °C 12,9 km/h (3 Bft)
23.10.2017 03:23 4,6 °C 4,6 °C 90 % 1018,1 hPa 0,0 mm 9,0 km/h (2 Bft) W 277 ° 0 min 0,000 mm 0,0 UV-I 0 W/m² 3,1 °C 2,4 °C 12,9 km/h (3 Bft)
23.10.2017 03:24 4,6 °C 4,6 °C 90 % 1018,1 hPa 0,0 mm 8,3 km/h (2 Bft) W 269 ° 0 min 0,000 mm 0,0 UV-I 0 W/m² 3,1 °C 2,6 °C 11,3 km/h (2 Bft)
23.10.2017 03:25 4,6 °C 4,6 °C 90 % 1018,0 hPa 0,0 mm 7,9 km/h (2 Bft) W 270 ° 0 min 0,000 mm 0,0 UV-I 0 W/m² 3,1 °C 2,7 °C 16,1 km/h (3 Bft)
23.10.2017 03:26 4,6 °C 4,6 °C 90 % 1018,1 hPa 0,0 mm 9,2 km/h (2 Bft) W-NW 290 ° 0 min 0,000 mm 0,0 UV-I 0 W/m² 3,1 °C 2,4 °C 16,1 km/h (3 Bft)
23.10.2017 03:27 4,6 °C 4,6 °C 90 % 1018,1 hPa 0,0 mm 12,6 km/h (3 Bft) W 278 ° 0 min 0,000 mm 0,0 UV-I 0 W/m² 3,1 °C 1,7 °C 19,3 km/h (3 Bft)
23.10.2017 03:28 4,6 °C 4,6 °C 90 % 1018,0 hPa 0,0 mm 10,7 km/h (2 Bft) W 280 ° 0 min 0,000 mm 0,0 UV-I 0 W/m² 3,1 °C 2,0 °C 16,1 km/h (3 Bft)
23.10.2017 03:29 4,6 °C 4,6 °C 90 % 1018,1 hPa 0,0 mm 4,5 km/h (1 Bft) W 278 ° 0 min 0,000 mm 0,0 UV-I 0 W/m² 3,1 °C 4,6 °C 6,4 km/h (2 Bft)
23.10.2017 03:30 4,6 °C 4,6 °C 90 % 1018,1 hPa 0,0 mm 11,2 km/h (2 Bft) W-SW 258 ° 0 min 0,000 mm 0,0 UV-I 0 W/m² 3,1 °C 1,9 °C 16,1 km/h (3 Bft)
23.10.2017 03:31 4,6 °C 4,6 °C 90 % 1018,1 hPa 0,0 mm 10,1 km/h (2 Bft) W-SW 256 ° 0 min 0,000 mm 0,0 UV-I 0 W/m² 3,1 °C 2,2 °C 19,3 km/h (3 Bft)
23.10.2017 03:32 4,6 °C 4,6 °C 90 % 1018,0 hPa 0,0 mm 11,9 km/h (2 Bft) SW 235 ° 0 min 0,000 mm 0,0 UV-I 0 W/m² 3,1 °C 1,8 °C 20,9 km/h (4 Bft)
23.10.2017 03:33 4,6 °C 4,6 °C 90 % 1018,0 hPa 0,0 mm 10,0 km/h (2 Bft) W-NW 296 ° 0 min 0,000 mm 0,0 UV-I 0 W/m² 3,1 °C 2,2 °C 19,3 km/h (3 Bft)
23.10.2017 03:34 4,6 °C 4,6 °C 90 % 1017,9 hPa 0,0 mm 11,1 km/h (2 Bft) W 273 ° 0 min 0,000 mm 0,0 UV-I 0 W/m² 3,1 °C 1,9 °C 20,9 km/h (4 Bft)
23.10.2017 03:35 4,6 °C 4,6 °C 90 % 1017,9 hPa 0,0 mm 12,2 km/h (2 Bft) W-SW 257 ° 0 min 0,000 mm 0,0 UV-I 0 W/m² 3,1 °C 1,7 °C 17,7 km/h (3 Bft)
23.10.2017 03:36 4,6 °C 4,6 °C 90 % 1017,9 hPa 0,0 mm 8,2 km/h (2 Bft) W 262 ° 0 min 0,000 mm 0,0 UV-I 0 W/m² 3,1 °C 2,6 °C 14,5 km/h (3 Bft)
23.10.2017 03:37 4,6 °C 4,6 °C 90 % 1018,0 hPa 0,0 mm 11,0 km/h (2 Bft) W 263 ° 0 min 0,000 mm 0,0 UV-I 0 W/m² 3,1 °C 2,0 °C 14,5 km/h (3 Bft)
23.10.2017 03:38 4,5 °C 4,6 °C 90 % 1018,0 hPa 0,0 mm 9,7 km/h (2 Bft) W 274 ° 0 min 0,000 mm 0,0 UV-I 0 W/m² 3,0 °C 2,1 °C 14,5 km/h (3 Bft)
23.10.2017 03:39 4,5 °C 4,5 °C 91 % 1018,0 hPa 0,0 mm 9,0 km/h (2 Bft) W 263 ° 0 min 0,000 mm 0,0 UV-I 0 W/m² 3,2 °C 2,3 °C 11,3 km/h (2 Bft)
23.10.2017 03:40 4,5 °C 4,5 °C 91 % 1017,9 hPa 0,0 mm 11,3 km/h (2 Bft) W-SW 248 ° 0 min 0,000 mm 0,0 UV-I 0 W/m² 3,2 °C 1,8 °C 16,1 km/h (3 Bft)
23.10.2017 03:41 4,4 °C 4,5 °C 91 % 1017,9 hPa 0,0 mm 8,0 km/h (2 Bft) W 265 ° 0 min 0,000 mm 0,0 UV-I 0 W/m² 3,1 °C 2,4 °C 12,9 km/h (3 Bft)
23.10.2017 03:42 4,4 °C 4,4 °C 91 % 1017,9 hPa 0,0 mm 7,1 km/h (2 Bft) W-NW 290 ° 0 min 0,000 mm 0,0 UV-I 0 W/m² 3,1 °C 2,7 °C 11,3 km/h (2 Bft)
23.10.2017 03:43 4,4 °C 4,4 °C 91 % 1017,9 hPa 0,0 mm 7,2 km/h (2 Bft) W 259 ° 0 min 0,000 mm 0,0 UV-I 0 W/m² 3,1 °C 2,7 °C 12,9 km/h (3 Bft)
23.10.2017 03:44 4,4 °C 4,4 °C 91 % 1017,9 hPa 0,0 mm 12,5 km/h (3 Bft) W-SW 246 ° 0 min 0,000 mm 0,0 UV-I 0 W/m² 3,1 °C 1,4 °C 17,7 km/h (3 Bft)
23.10.2017 03:45 4,4 °C 4,4 °C 91 % 1017,9 hPa 0,0 mm 11,5 km/h (2 Bft) W 259 ° 0 min 0,000 mm 0,0 UV-I 0 W/m² 3,1 °C 1,6 °C 17,7 km/h (3 Bft)
23.10.2017 03:46 4,4 °C 4,4 °C 91 % 1017,9 hPa 0,0 mm 12,6 km/h (3 Bft) W 276 ° 0 min 0,000 mm 0,0 UV-I 0 W/m² 3,1 °C 1,4 °C 17,7 km/h (3 Bft)
23.10.2017 03:47 4,4 °C 4,4 °C 91 % 1018,0 hPa 0,0 mm 6,0 km/h (2 Bft) W-SW 237 ° 0 min 0,000 mm 0,0 UV-I 0 W/m² 3,1 °C 3,0 °C 9,7 km/h (2 Bft)
23.10.2017 03:48 4,4 °C 4,4 °C 91 % 1018,0 hPa 0,0 mm 9,7 km/h (2 Bft) W 263 ° 0 min 0,000 mm 0,0 UV-I 0 W/m² 3,1 °C 2,0 °C 16,1 km/h (3 Bft)
23.10.2017 03:49 4,4 °C 4,4 °C 91 % 1018,0 hPa 0,0 mm 9,0 km/h (2 Bft) W-SW 250 ° 0 min 0,000 mm 0,0 UV-I 0 W/m² 3,1 °C 2,2 °C 14,5 km/h (3 Bft)
23.10.2017 03:50 4,3 °C 4,4 °C 91 % 1018,0 hPa 0,0 mm 10,1 km/h (2 Bft) W 275 ° 0 min 0,000 mm 0,0 UV-I 0 W/m² 3,0 °C 1,8 °C 14,5 km/h (3 Bft)
23.10.2017 03:51 4,3 °C 4,4 °C 91 % 1018,0 hPa 0,0 mm 13,6 km/h (3 Bft) W 281 ° 0 min 0,000 mm 0,0 UV-I 0 W/m² 3,0 °C 1,1 °C 17,7 km/h (3 Bft)
23.10.2017 03:52 4,3 °C 4,3 °C 91 % 1018,0 hPa 0,0 mm 12,1 km/h (2 Bft) W 275 ° 0 min 0,000 mm 0,0 UV-I 0 W/m² 3,0 °C 1,4 °C 19,3 km/h (3 Bft)
23.10.2017 03:53 4,3 °C 4,4 °C 91 % 1017,9 hPa 0,0 mm 12,9 km/h (3 Bft) W-NW 292 ° 0 min 0,000 mm 0,0 UV-I 0 W/m² 3,0 °C 1,2 °C 17,7 km/h (3 Bft)
23.10.2017 03:54 4,3 °C 4,3 °C 91 % 1018,0 hPa 0,0 mm 7,9 km/h (2 Bft) W 259 ° 0 min 0,000 mm 0,0 UV-I 0 W/m² 3,0 °C 2,3 °C 14,5 km/h (3 Bft)
23.10.2017 03:55 4,3 °C 4,3 °C 91 % 1018,0 hPa 0,0 mm 15,8 km/h (3 Bft) W 263 ° 0 min 0,000 mm 0,0 UV-I 0 W/m² 3,0 °C 0,8 °C 20,9 km/h (4 Bft)
23.10.2017 03:56 4,3 °C 4,3 °C 91 % 1018,0 hPa 0,0 mm 15,1 km/h (3 Bft) W 261 ° 0 min 0,000 mm 0,0 UV-I 0 W/m² 3,0 °C 0,9 °C 17,7 km/h (3 Bft)
23.10.2017 03:57 4,4 °C 4,4 °C 91 % 1018,0 hPa 0,0 mm 9,4 km/h (2 Bft) W-SW 258 ° 0 min 0,000 mm 0,0 UV-I 0 W/m² 3,1 °C 2,1 °C 16,1 km/h (3 Bft)
23.10.2017 03:58 4,3 °C 4,4 °C 91 % 1018,0 hPa 0,0 mm 13,6 km/h (3 Bft) W-SW 241 ° 0 min 0,000 mm 0,0 UV-I 0 W/m² 3,0 °C 1,1 °C 20,9 km/h (4 Bft)
23.10.2017 03:59 4,3 °C 4,4 °C 91 % 1018,0 hPa 0,0 mm 15,8 km/h (3 Bft) W-SW 250 ° 0 min 0,000 mm 0,0 UV-I 0 W/m² 3,0 °C 0,8 °C 24,1 km/h (4 Bft)
23.10.2017 04:00 4,3 °C 4,3 °C 91 % 1018,0 hPa 0,0 mm 16,5 km/h (3 Bft) W 266 ° 0 min 0,000 mm 0,0 UV-I 0 W/m² 3,0 °C 0,7 °C 22,5 km/h (4 Bft)
23.10.2017 04:01 4,3 °C 4,3 °C 91 % 1018,0 hPa 0,0 mm 12,7 km/h (3 Bft) S-SW 208 ° 0 min 0,000 mm 0,0 UV-I 0 W/m² 3,0 °C 1,3 °C 17,7 km/h (3 Bft)
23.10.2017 04:02 4,3 °C 4,4 °C 91 % 1018,0 hPa 0,0 mm 9,0 km/h (2 Bft) W 269 ° 0 min 0,000 mm 0,0 UV-I 0 W/m² 3,0 °C 2,1 °C 12,9 km/h (3 Bft)
23.10.2017 04:03 4,4 °C 4,4 °C 91 % 1018,0 hPa 0,0 mm 9,7 km/h (2 Bft) W-NW 285 ° 0 min 0,000 mm 0,0 UV-I 0 W/m² 3,1 °C 2,0 °C 12,9 km/h (3 Bft)
23.10.2017 04:04 4,4 °C 4,4 °C 91 % 1018,1 hPa 0,0 mm 15,5 km/h (3 Bft) W 271 ° 0 min 0,000 mm 0,0 UV-I 0 W/m² 3,1 °C 0,9 °C 20,9 km/h (4 Bft)
23.10.2017 04:05 4,4 °C 4,4 °C 91 % 1018,1 hPa 0,0 mm 14,8 km/h (3 Bft) W 259 ° 0 min 0,000 mm 0,0 UV-I 0 W/m² 3,1 °C 1,0 °C 19,3 km/h (3 Bft)
23.10.2017 04:06 4,4 °C 4,4 °C 91 % 1018,0 hPa 0,0 mm 17,4 km/h (3 Bft) W 272 ° 0 min 0,000 mm 0,0 UV-I 0 W/m² 3,1 °C 0,7 °C 24,1 km/h (4 Bft)
23.10.2017 04:07 4,4 °C 4,4 °C 91 % 1018,0 hPa 0,0 mm 13,1 km/h (3 Bft) W 275 ° 0 min 0,000 mm 0,0 UV-I 0 W/m² 3,1 °C 1,3 °C 16,1 km/h (3 Bft)
23.10.2017 04:08 4,4 °C 4,4 °C 91 % 1018,0 hPa 0,0 mm 10,4 km/h (2 Bft) W-SW 253 ° 0 min 0,000 mm 0,0 UV-I 0 W/m² 3,1 °C 1,9 °C 17,7 km/h (3 Bft)
23.10.2017 04:09 4,3 °C 4,4 °C 91 % 1018,0 hPa 0,0 mm 13,0 km/h (3 Bft) SW 225 ° 0 min 0,000 mm 0,0 UV-I 0 W/m² 3,0 °C 1,2 °C 19,3 km/h (3 Bft)
23.10.2017 04:10 4,3 °C 4,4 °C 91 % 1018,0 hPa 0,0 mm 12,0 km/h (2 Bft) W-SW 252 ° 0 min 0,000 mm 0,0 UV-I 0 W/m² 3,0 °C 1,4 °C 17,7 km/h (3 Bft)
23.10.2017 04:11 4,4 °C 4,4 °C 91 % 1018,0 hPa 0,0 mm 15,9 km/h (3 Bft) W-SW 258 ° 0 min 0,000 mm 0,0 UV-I 0 W/m² 3,1 °C 0,9 °C 20,9 km/h (4 Bft)
23.10.2017 04:12 4,4 °C 4,4 °C 91 % 1018,0 hPa 0,0 mm 10,9 km/h (2 Bft) W-SW 242 ° 0 min 0,000 mm 0,0 UV-I 0 W/m² 3,1 °C 1,7 °C 12,9 km/h (3 Bft)
23.10.2017 04:13 4,3 °C 4,4 °C 91 % 1018,0 hPa 0,0 mm 13,3 km/h (3 Bft) W-SW 247 ° 0 min 0,000 mm 0,0 UV-I 0 W/m² 3,0 °C 1,2 °C 20,9 km/h (4 Bft)
23.10.2017 04:14 4,4 °C 4,4 °C 91 % 1018,0 hPa 0,0 mm 15,2 km/h (3 Bft) W-NW 286 ° 0 min 0,000 mm 0,0 UV-I 0 W/m² 3,1 °C 1,0 °C 19,3 km/h (3 Bft)
23.10.2017 04:15 4,4 °C 4,4 °C 91 % 1018,0 hPa 0,0 mm 14,2 km/h (3 Bft) W 277 ° 0 min 0,000 mm 0,0 UV-I 0 W/m² 3,1 °C 1,1 °C 19,3 km/h (3 Bft)
23.10.2017 04:16 4,4 °C 4,4 °C 92 % 1018,1 hPa 0,0 mm 14,9 km/h (3 Bft) W-SW 252 ° 0 min 0,000 mm 0,0 UV-I 0 W/m² 3,2 °C 1,0 °C 19,3 km/h (3 Bft)
23.10.2017 04:17 4,4 °C 4,4 °C 92 % 1018,1 hPa 0,0 mm 11,7 km/h (2 Bft) W-SW 242 ° 0 min 0,000 mm 0,0 UV-I 0 W/m² 3,2 °C 1,6 °C 16,1 km/h (3 Bft)
23.10.2017 04:18 4,4 °C 4,4 °C 92 % 1018,1 hPa 0,0 mm 13,3 km/h (3 Bft) W-NW 286 ° 0 min 0,000 mm 0,0 UV-I 0 W/m² 3,2 °C 1,3 °C 22,5 km/h (4 Bft)
23.10.2017 04:19 4,4 °C 4,4 °C 92 % 1018,1 hPa 0,0 mm 11,3 km/h (2 Bft) W 274 ° 0 min 0,000 mm 0,0 UV-I 0 W/m² 3,2 °C 1,7 °C 14,5 km/h (3 Bft)
23.10.2017 04:20 4,4 °C 4,4 °C 92 % 1018,1 hPa 0,0 mm 9,3 km/h (2 Bft) W 271 ° 0 min 0,000 mm 0,0 UV-I 0 W/m² 3,2 °C 2,1 °C 14,5 km/h (3 Bft)
23.10.2017 04:21 4,4 °C 4,4 °C 92 % 1018,1 hPa 0,0 mm 7,7 km/h (2 Bft) W-SW 242 ° 0 min 0,000 mm 0,0 UV-I 0 W/m² 3,2 °C 2,5 °C 17,7 km/h (3 Bft)
23.10.2017 04:22 4,4 °C 4,4 °C 92 % 1018,1 hPa 0,0 mm 8,2 km/h (2 Bft) W 271 ° 0 min 0,000 mm 0,0 UV-I 0 W/m² 3,2 °C 2,4 °C 16,1 km/h (3 Bft)
23.10.2017 04:23 4,4 °C 4,4 °C 91 % 1018,1 hPa 0,0 mm 10,5 km/h (2 Bft) W 267 ° 0 min 0,000 mm 0,0 UV-I 0 W/m² 3,1 °C 1,8 °C 12,9 km/h (3 Bft)
23.10.2017 04:24 4,3 °C 4,4 °C 91 % 1018,1 hPa 0,0 mm 11,3 km/h (2 Bft) W 275 ° 0 min 0,000 mm 0,0 UV-I 0 W/m² 3,0 °C 1,5 °C 17,7 km/h (3 Bft)
23.10.2017 04:25 4,3 °C 4,3 °C 91 % 1018,0 hPa 0,0 mm 13,4 km/h (3 Bft) SW 231 ° 0 min 0,000 mm 0,0 UV-I 0 W/m² 3,0 °C 1,2 °C 19,3 km/h (3 Bft)
23.10.2017 04:26 4,3 °C 4,3 °C 91 % 1018,0 hPa 0,0 mm 7,6 km/h (2 Bft) W-SW 251 ° 0 min 0,000 mm 0,0 UV-I 0 W/m² 3,0 °C 2,4 °C 12,9 km/h (3 Bft)
23.10.2017 04:27 4,3 °C 4,3 °C 91 % 1018,1 hPa 0,0 mm 13,2 km/h (3 Bft) W 261 ° 0 min 0,000 mm 0,0 UV-I 0 W/m² 3,0 °C 1,2 °C 16,1 km/h (3 Bft)
23.10.2017 04:28 4,3 °C 4,3 °C 91 % 1018,0 hPa 0,0 mm 12,6 km/h (3 Bft) W 259 ° 0 min 0,000 mm 0,0 UV-I 0 W/m² 3,0 °C 1,3 °C 19,3 km/h (3 Bft)
23.10.2017 04:29 4,3 °C 4,3 °C 91 % 1018,2 hPa 0,0 mm 6,5 km/h (2 Bft) W-NW 288 ° 0 min 0,000 mm 0,0 UV-I 0 W/m² 3,0 °C 2,8 °C 14,5 km/h (3 Bft)
23.10.2017 04:30 4,3 °C 4,3 °C 91 % 1018,2 hPa 0,0 mm 8,7 km/h (2 Bft) W 263 ° 0 min 0,000 mm 0,0 UV-I 0 W/m² 3,0 °C 2,1 °C 12,9 km/h (3 Bft)
23.10.2017 04:31 4,3 °C 4,3 °C 91 % 1018,2 hPa 0,0 mm 9,3 km/h (2 Bft) W 267 ° 0 min 0,000 mm 0,0 UV-I 0 W/m² 3,0 °C 2,0 °C 14,5 km/h (3 Bft)
23.10.2017 04:32 4,3 °C 4,3 °C 91 % 1018,2 hPa 0,0 mm 13,1 km/h (3 Bft) W 273 ° 0 min 0,000 mm 0,0 UV-I 0 W/m² 3,0 °C 1,2 °C 19,3 km/h (3 Bft)
23.10.2017 04:33 4,3 °C 4,3 °C 91 % 1018,2 hPa 0,0 mm 12,5 km/h (3 Bft) W-SW 254 ° 0 min 0,000 mm 0,0 UV-I 0 W/m² 3,0 °C 1,3 °C 19,3 km/h (3 Bft)
23.10.2017 04:34 4,3 °C 4,3 °C 91 % 1018,2 hPa 0,0 mm 9,1 km/h (2 Bft) W-SW 255 ° 0 min 0,000 mm 0,0 UV-I 0 W/m² 3,0 °C 2,0 °C 12,9 km/h (3 Bft)
23.10.2017 04:35 4,3 °C 4,3 °C 91 % 1018,2 hPa 0,0 mm 10,9 km/h (2 Bft) W 275 ° 0 min 0,000 mm 0,0 UV-I 0 W/m² 3,0 °C 1,6 °C 16,1 km/h (3 Bft)
23.10.2017 04:36 4,3 °C 4,3 °C 91 % 1018,2 hPa 0,0 mm 11,9 km/h (2 Bft) W-SW 249 ° 0 min 0,000 mm 0,0 UV-I 0 W/m² 3,0 °C 1,4 °C 16,1 km/h (3 Bft)
23.10.2017 04:37 4,3 °C 4,3 °C 91 % 1018,2 hPa 0,0 mm 8,3 km/h (2 Bft) SW 225 ° 0 min 0,000 mm 0,0 UV-I 0 W/m² 3,0 °C 2,2 °C 12,9 km/h (3 Bft)
23.10.2017 04:38 4,3 °C 4,3 °C 92 % 1018,2 hPa 0,0 mm 11,2 km/h (2 Bft) W-SW 246 ° 0 min 0,000 mm 0,0 UV-I 0 W/m² 3,1 °C 1,6 °C 17,7 km/h (3 Bft)
23.10.2017 04:39 4,3 °C 4,4 °C 92 % 1018,2 hPa 0,0 mm 12,1 km/h (2 Bft) W 273 ° 0 min 0,000 mm 0,0 UV-I 0 W/m² 3,1 °C 1,4 °C 16,1 km/h (3 Bft)
23.10.2017 04:40 4,3 °C 4,4 °C 92 % 1018,2 hPa 0,0 mm 10,3 km/h (2 Bft) W-SW 251 ° 0 min 0,000 mm 0,0 UV-I 0 W/m² 3,1 °C 1,8 °C 20,9 km/h (4 Bft)
23.10.2017 04:41 4,3 °C 4,4 °C 92 % 1018,3 hPa 0,0 mm 18,1 km/h (3 Bft) W-SW 250 ° 0 min 0,000 mm 0,0 UV-I 0 W/m² 3,1 °C 0,4 °C 27,4 km/h (4 Bft)
23.10.2017 04:42 4,4 °C 4,4 °C 92 % 1018,3 hPa 0,0 mm 9,4 km/h (2 Bft) W-SW 248 ° 0 min 0,000 mm 0,0 UV-I 0 W/m² 3,2 °C 2,1 °C 14,5 km/h (3 Bft)
23.10.2017 04:43 4,4 °C 4,4 °C 92 % 1018,2 hPa 0,0 mm 8,9 km/h (2 Bft) W-NW 286 ° 0 min 0,000 mm 0,0 UV-I 0 W/m² 3,2 °C 2,2 °C 16,1 km/h (3 Bft)
23.10.2017 04:44 4,4 °C 4,4 °C 92 % 1018,2 hPa 0,0 mm 9,9 km/h (2 Bft) W 262 ° 0 min 0,000 mm 0,0 UV-I 0 W/m² 3,2 °C 2,0 °C 12,9 km/h (3 Bft)
23.10.2017 04:45 4,4 °C 4,4 °C 92 % 1018,3 hPa 0,0 mm 10,7 km/h (2 Bft) W 279 ° 0 min 0,000 mm 0,0 UV-I 0 W/m² 3,2 °C 1,8 °C 12,9 km/h (3 Bft)
23.10.2017 04:46 4,4 °C 4,4 °C 92 % 1018,3 hPa 0,0 mm 9,3 km/h (2 Bft) W 264 ° 0 min 0,000 mm 0,0 UV-I 0 W/m² 3,2 °C 2,1 °C 19,3 km/h (3 Bft)
23.10.2017 04:47 4,4 °C 4,4 °C 92 % 1018,3 hPa 0,0 mm 14,0 km/h (3 Bft) W-SW 246 ° 0 min 0,000 mm 0,0 UV-I 0 W/m² 3,2 °C 1,2 °C 24,1 km/h (4 Bft)
23.10.2017 04:48 4,4 °C 4,4 °C 92 % 1018,3 hPa 0,2 mm 7,5 km/h (2 Bft) W 261 ° 0 min 0,000 mm 0,0 UV-I 0 W/m² 3,2 °C 2,6 °C 12,9 km/h (3 Bft)
23.10.2017 04:49 4,4 °C 4,5 °C 92 % 1018,3 hPa 0,0 mm 9,4 km/h (2 Bft) W-SW 240 ° 0 min 0,000 mm 0,0 UV-I 0 W/m² 3,2 °C 2,1 °C 14,5 km/h (3 Bft)
23.10.2017 04:50 4,5 °C 4,5 °C 92 % 1018,3 hPa 0,0 mm 14,1 km/h (3 Bft) W-NW 284 ° 0 min 0,000 mm 0,0 UV-I 0 W/m² 3,3 °C 1,3 °C 29,0 km/h (5 Bft)
23.10.2017 04:51 4,5 °C 4,5 °C 92 % 1018,3 hPa 0,0 mm 12,8 km/h (3 Bft) W-SW 251 ° 0 min 0,000 mm 0,0 UV-I 0 W/m² 3,3 °C 1,5 °C 19,3 km/h (3 Bft)
23.10.2017 04:52 4,6 °C 4,6 °C 92 % 1018,3 hPa 0,0 mm 12,3 km/h (3 Bft) W 261 ° 0 min 0,000 mm 0,0 UV-I 0 W/m² 3,4 °C 1,7 °C 16,1 km/h (3 Bft)
23.10.2017 04:53 4,6 °C 4,6 °C 92 % 1018,4 hPa 0,0 mm 15,8 km/h (3 Bft) W-SW 247 ° 0 min 0,000 mm 0,0 UV-I 0 W/m² 3,4 °C 1,1 °C 20,9 km/h (4 Bft)
23.10.2017 04:54 4,6 °C 4,6 °C 91 % 1018,4 hPa 0,0 mm 17,8 km/h (3 Bft) W-SW 250 ° 0 min 0,000 mm 0,0 UV-I 0 W/m² 3,3 °C 0,8 °C 27,4 km/h (4 Bft)
23.10.2017 04:55 4,6 °C 4,6 °C 91 % 1018,4 hPa 0,0 mm 12,6 km/h (3 Bft) W 272 ° 0 min 0,000 mm 0,0 UV-I 0 W/m² 3,3 °C 1,7 °C 19,3 km/h (3 Bft)
23.10.2017 04:56 4,6 °C 4,6 °C 91 % 1018,4 hPa 0,0 mm 8,3 km/h (2 Bft) W-SW 248 ° 0 min 0,000 mm 0,0 UV-I 0 W/m² 3,3 °C 2,6 °C 14,5 km/h (3 Bft)
23.10.2017 04:57 4,6 °C 4,6 °C 91 % 1018,3 hPa 0,0 mm 11,0 km/h (2 Bft) NW 309 ° 0 min 0,000 mm 0,0 UV-I 0 W/m² 3,3 °C 2,0 °C 14,5 km/h (3 Bft)
23.10.2017 04:58 4,6 °C 4,6 °C 91 % 1018,3 hPa 0,0 mm 7,7 km/h (2 Bft) SW 235 ° 0 min 0,000 mm 0,0 UV-I 0 W/m² 3,3 °C 2,7 °C 14,5 km/h (3 Bft)
23.10.2017 04:59 4,6 °C 4,6 °C 91 % 1018,3 hPa 0,0 mm 9,7 km/h (2 Bft) W 271 ° 0 min 0,000 mm 0,0 UV-I 0 W/m² 3,3 °C 2,2 °C 14,5 km/h (3 Bft)
23.10.2017 05:00 4,6 °C 4,6 °C 91 % 1018,4 hPa 0,0 mm 8,8 km/h (2 Bft) W-SW 240 ° 0 min 0,000 mm 0,0 UV-I 0 W/m² 3,3 °C 2,5 °C 12,9 km/h (3 Bft)
23.10.2017 05:01 4,5 °C 4,6 °C 91 % 1018,3 hPa 0,0 mm 8,3 km/h (2 Bft) W-SW 257 ° 0 min 0,000 mm 0,0 UV-I 0 W/m² 3,2 °C 2,5 °C 16,1 km/h (3 Bft)
23.10.2017 05:02 4,5 °C 4,5 °C 91 % 1018,3 hPa 0,0 mm 13,0 km/h (3 Bft) SW 234 ° 0 min 0,000 mm 0,0 UV-I 0 W/m² 3,2 °C 1,5 °C 25,7 km/h (4 Bft)
23.10.2017 05:03 4,5 °C 4,5 °C 91 % 1018,3 hPa 0,0 mm 9,7 km/h (2 Bft) W 265 ° 0 min 0,000 mm 0,0 UV-I 0 W/m² 3,2 °C 2,1 °C 12,9 km/h (3 Bft)
23.10.2017 05:04 4,5 °C 4,5 °C 91 % 1018,3 hPa 0,0 mm 13,3 km/h (3 Bft) S-SW 209 ° 0 min 0,000 mm 0,0 UV-I 0 W/m² 3,2 °C 1,4 °C 22,5 km/h (4 Bft)
23.10.2017 05:05 4,5 °C 4,5 °C 91 % 1018,4 hPa 0,0 mm 17,8 km/h (3 Bft) S-SW 211 ° 0 min 0,000 mm 0,0 UV-I 0 W/m² 3,2 °C 0,7 °C 25,7 km/h (4 Bft)
23.10.2017 05:06 4,4 °C 4,5 °C 91 % 1018,3 hPa 0,0 mm 12,8 km/h (3 Bft) W-SW 247 ° 0 min 0,000 mm 0,0 UV-I 0 W/m² 3,1 °C 1,4 °C 20,9 km/h (4 Bft)
23.10.2017 05:07 4,5 °C 4,5 °C 91 % 1018,4 hPa 0,0 mm 16,1 km/h (3 Bft) W-SW 257 ° 0 min 0,000 mm 0,0 UV-I 0 W/m² 3,2 °C 1,0 °C 24,1 km/h (4 Bft)
23.10.2017 05:08 4,4 °C 4,5 °C 91 % 1018,4 hPa 0,0 mm 8,6 km/h (2 Bft) W-SW 246 ° 0 min 0,000 mm 0,0 UV-I 0 W/m² 3,1 °C 2,3 °C 14,5 km/h (3 Bft)
23.10.2017 05:09 4,4 °C 4,4 °C 91 % 1018,4 hPa 0,0 mm 7,5 km/h (2 Bft) W 271 ° 0 min 0,000 mm 0,0 UV-I 0 W/m² 3,1 °C 2,6 °C 12,9 km/h (3 Bft)
23.10.2017 05:10 4,4 °C 4,4 °C 91 % 1018,4 hPa 0,0 mm 5,1 km/h (1 Bft) W-NW 296 ° 0 min 0,000 mm 0,0 UV-I 0 W/m² 3,1 °C 3,4 °C 11,3 km/h (2 Bft)
23.10.2017 05:11 4,4 °C 4,4 °C 91 % 1018,4 hPa 0,0 mm 9,3 km/h (2 Bft) W-SW 242 ° 0 min 0,000 mm 0,0 UV-I 0 W/m² 3,1 °C 2,1 °C 14,5 km/h (3 Bft)
23.10.2017 05:12 4,4 °C 4,4 °C 91 % 1018,5 hPa 0,0 mm 14,3 km/h (3 Bft) W-SW 257 ° 0 min 0,000 mm 0,0 UV-I 0 W/m² 3,1 °C 1,1 °C 19,3 km/h (3 Bft)
23.10.2017 05:13 4,3 °C 4,4 °C 91 % 1018,5 hPa 0,0 mm 7,4 km/h (2 Bft) S-SW 212 ° 0 min 0,000 mm 0,0 UV-I 0 W/m² 3,0 °C 2,5 °C 12,9 km/h (3 Bft)
23.10.2017 05:14 4,3 °C 4,3 °C 91 % 1018,5 hPa 0,0 mm 6,8 km/h (2 Bft) W-SW 258 ° 0 min 0,000 mm 0,0 UV-I 0 W/m² 3,0 °C 2,7 °C 12,9 km/h (3 Bft)
23.10.2017 05:15 4,3 °C 4,3 °C 91 % 1018,5 hPa 0,0 mm 15,0 km/h (3 Bft) W-SW 244 ° 0 min 0,000 mm 0,0 UV-I 0 W/m² 3,0 °C 0,9 °C 19,3 km/h (3 Bft)
23.10.2017 05:16 4,3 °C 4,3 °C 91 % 1018,5 hPa 0,0 mm 10,0 km/h (2 Bft) W 263 ° 0 min 0,000 mm 0,0 UV-I 0 W/m² 3,0 °C 1,8 °C 16,1 km/h (3 Bft)
23.10.2017 05:17 4,3 °C 4,3 °C 91 % 1018,5 hPa 0,0 mm 13,7 km/h (3 Bft) W-SW 254 ° 0 min 0,000 mm 0,0 UV-I 0 W/m² 3,0 °C 1,1 °C 19,3 km/h (3 Bft)
23.10.2017 05:18 4,3 °C 4,3 °C 91 % 1018,6 hPa 0,2 mm 10,1 km/h (2 Bft) W 261 ° 0 min 0,000 mm 0,0 UV-I 0 W/m² 3,0 °C 1,8 °C 16,1 km/h (3 Bft)
23.10.2017 05:19 4,3 °C 4,3 °C 91 % 1018,6 hPa 0,0 mm 12,2 km/h (2 Bft) W-NW 299 ° 0 min 0,000 mm 0,0 UV-I 0 W/m² 3,0 °C 1,4 °C 25,7 km/h (4 Bft)
23.10.2017 05:20 4,3 °C 4,3 °C 91 % 1018,6 hPa 0,0 mm 15,2 km/h (3 Bft) W 261 ° 0 min 0,000 mm 0,0 UV-I 0 W/m² 3,0 °C 0,9 °C 25,7 km/h (4 Bft)
23.10.2017 05:21 4,2 °C 4,3 °C 91 % 1018,6 hPa 0,0 mm 9,9 km/h (2 Bft) W 263 ° 0 min 0,000 mm 0,0 UV-I 0 W/m² 2,9 °C 1,7 °C 17,7 km/h (3 Bft)
23.10.2017 05:22 4,2 °C 4,2 °C 91 % 1018,7 hPa 0,0 mm 13,4 km/h (3 Bft) W 269 ° 0 min 0,000 mm 0,0 UV-I 0 W/m² 2,9 °C 1,0 °C 20,9 km/h (4 Bft)
23.10.2017 05:23 4,2 °C 4,2 °C 91 % 1018,7 hPa 0,0 mm 11,3 km/h (2 Bft) W-SW 257 ° 0 min 0,000 mm 0,0 UV-I 0 W/m² 2,9 °C 1,4 °C 19,3 km/h (3 Bft)
23.10.2017 05:24 4,1 °C 4,2 °C 91 % 1018,7 hPa 0,0 mm 9,6 km/h (2 Bft) W-NW 291 ° 0 min 0,000 mm 0,0 UV-I 0 W/m² 2,8 °C 1,7 °C 12,9 km/h (3 Bft)
23.10.2017 05:25 4,1 °C 4,2 °C 91 % 1018,6 hPa 0,0 mm 7,5 km/h (2 Bft) W-SW 250 ° 0 min 0,000 mm 0,0 UV-I 0 W/m² 2,8 °C 2,2 °C 11,3 km/h (2 Bft)
23.10.2017 05:26 4,1 °C 4,1 °C 91 % 1018,6 hPa 0,0 mm 4,8 km/h (1 Bft) W 263 ° 0 min 0,000 mm 0,0 UV-I 0 W/m² 2,8 °C 3,1 °C 11,3 km/h (2 Bft)
23.10.2017 05:27 4,1 °C 4,1 °C 91 % 1018,6 hPa 0,0 mm 9,3 km/h (2 Bft) W-SW 254 ° 0 min 0,000 mm 0,0 UV-I 0 W/m² 2,8 °C 1,7 °C 16,1 km/h (3 Bft)
23.10.2017 05:28 4,1 °C 4,1 °C 91 % 1018,7 hPa 0,0 mm 10,1 km/h (2 Bft) SW 236 ° 0 min 0,000 mm 0,0 UV-I 0 W/m² 2,8 °C 1,6 °C 16,1 km/h (3 Bft)
23.10.2017 05:29 4,0 °C 4,1 °C 92 % 1018,6 hPa 0,0 mm 7,0 km/h (2 Bft) W 261 ° 0 min 0,000 mm 0,0 UV-I 0 W/m² 2,8 °C 2,2 °C 12,9 km/h (3 Bft)
23.10.2017 05:30 4,0 °C 4,0 °C 92 % 1018,7 hPa 0,0 mm 7,4 km/h (2 Bft) W-SW 245 ° 0 min 0,000 mm 0,0 UV-I 0 W/m² 2,8 °C 2,1 °C 9,7 km/h (2 Bft)
23.10.2017 05:31 4,0 °C 4,0 °C 91 % 1018,7 hPa 0,0 mm 6,5 km/h (2 Bft) W 267 ° 0 min 0,000 mm 0,0 UV-I 0 W/m² 2,7 °C 2,4 °C 11,3 km/h (2 Bft)
23.10.2017 05:32 3,9 °C 4,0 °C 91 % 1018,7 hPa 0,0 mm 5,6 km/h (1 Bft) W-SW 237 ° 0 min 0,000 mm 0,0 UV-I 0 W/m² 2,6 °C 2,6 °C 9,7 km/h (2 Bft)
23.10.2017 05:33 4,0 °C 4,0 °C 92 % 1018,7 hPa 0,0 mm 9,4 km/h (2 Bft) W 274 ° 0 min 0,000 mm 0,0 UV-I 0 W/m² 2,8 °C 1,6 °C 17,7 km/h (3 Bft)
23.10.2017 05:34 3,9 °C 4,0 °C 92 % 1018,7 hPa 0,0 mm 9,3 km/h (2 Bft) SW 223 ° 0 min 0,000 mm 0,0 UV-I 0 W/m² 2,7 °C 1,5 °C 12,9 km/h (3 Bft)
23.10.2017 05:35 3,9 °C 3,9 °C 92 % 1018,7 hPa 0,0 mm 12,2 km/h (2 Bft) W 279 ° 0 min 0,000 mm 0,0 UV-I 0 W/m² 2,7 °C 0,9 °C 17,7 km/h (3 Bft)
23.10.2017 05:36 3,9 °C 3,9 °C 92 % 1018,7 hPa 0,0 mm 15,4 km/h (3 Bft) W 275 ° 0 min 0,000 mm 0,0 UV-I 0 W/m² 2,7 °C 0,3 °C 17,7 km/h (3 Bft)
23.10.2017 05:37 3,9 °C 3,9 °C 92 % 1018,7 hPa 0,0 mm 12,6 km/h (3 Bft) W-SW 251 ° 0 min 0,000 mm 0,0 UV-I 0 W/m² 2,7 °C 0,8 °C 19,3 km/h (3 Bft)
23.10.2017 05:38 3,9 °C 3,9 °C 92 % 1018,7 hPa 0,0 mm 8,0 km/h (2 Bft) W-SW 253 ° 0 min 0,000 mm 0,0 UV-I 0 W/m² 2,7 °C 1,8 °C 12,9 km/h (3 Bft)
23.10.2017 05:39 3,9 °C 3,9 °C 92 % 1018,7 hPa 0,0 mm 8,5 km/h (2 Bft) W-SW 253 ° 0 min 0,000 mm 0,0 UV-I 0 W/m² 2,7 °C 1,7 °C 12,9 km/h (3 Bft)
23.10.2017 05:40 3,9 °C 3,9 °C 92 % 1018,8 hPa 0,0 mm 5,8 km/h (2 Bft) W 279 ° 0 min 0,000 mm 0,0 UV-I 0 W/m² 2,7 °C 2,5 °C 9,7 km/h (2 Bft)
23.10.2017 05:41 3,9 °C 3,9 °C 92 % 1018,8 hPa 0,0 mm 11,0 km/h (2 Bft) S-SW 212 ° 0 min 0,000 mm 0,0 UV-I 0 W/m² 2,7 °C 1,1 °C 20,9 km/h (4 Bft)
23.10.2017 05:42 3,9 °C 3,9 °C 92 % 1018,8 hPa 0,0 mm 10,9 km/h (2 Bft) W-SW 246 ° 0 min 0,000 mm 0,0 UV-I 0 W/m² 2,7 °C 1,1 °C 17,7 km/h (3 Bft)
23.10.2017 05:43 3,9 °C 3,9 °C 92 % 1018,9 hPa 0,0 mm 13,5 km/h (3 Bft) W 272 ° 0 min 0,000 mm 0,0 UV-I 0 W/m² 2,7 °C 0,6 °C 20,9 km/h (4 Bft)
23.10.2017 05:44 3,9 °C 3,9 °C 92 % 1018,8 hPa 0,0 mm 14,4 km/h (3 Bft) W 259 ° 0 min 0,000 mm 0,0 UV-I 0 W/m² 2,7 °C 0,5 °C 16,1 km/h (3 Bft)
23.10.2017 05:45 3,9 °C 3,9 °C 92 % 1018,8 hPa 0,0 mm 12,6 km/h (3 Bft) W-SW 242 ° 0 min 0,000 mm 0,0 UV-I 0 W/m² 2,7 °C 0,8 °C 17,7 km/h (3 Bft)
23.10.2017 05:46 3,9 °C 3,9 °C 92 % 1018,8 hPa 0,0 mm 11,1 km/h (2 Bft) W 259 ° 0 min 0,000 mm 0,0 UV-I 0 W/m² 2,7 °C 1,1 °C 14,5 km/h (3 Bft)
23.10.2017 05:47 3,9 °C 3,9 °C 92 % 1018,9 hPa 0,0 mm 10,2 km/h (2 Bft) W-SW 254 ° 0 min 0,000 mm 0,0 UV-I 0 W/m² 2,7 °C 1,3 °C 14,5 km/h (3 Bft)
23.10.2017 05:48 3,8 °C 3,9 °C 91 % 1018,9 hPa 0,0 mm 11,6 km/h (2 Bft) W 266 ° 0 min 0,000 mm 0,0 UV-I 0 W/m² 2,5 °C 0,9 °C 17,7 km/h (3 Bft)
23.10.2017 05:49 3,8 °C 3,9 °C 91 % 1018,9 hPa 0,0 mm 10,1 km/h (2 Bft) W 260 ° 0 min 0,000 mm 0,0 UV-I 0 W/m² 2,5 °C 1,2 °C 14,5 km/h (3 Bft)
23.10.2017 05:50 3,8 °C 3,8 °C 91 % 1018,8 hPa 0,0 mm 12,0 km/h (2 Bft) W 269 ° 0 min 0,000 mm 0,0 UV-I 0 W/m² 2,5 °C 0,8 °C 14,5 km/h (3 Bft)
23.10.2017 05:51 3,8 °C 3,8 °C 91 % 1018,8 hPa 0,0 mm 6,8 km/h (2 Bft) W-SW 249 ° 0 min 0,000 mm 0,0 UV-I 0 W/m² 2,5 °C 2,1 °C 11,3 km/h (2 Bft)
23.10.2017 05:52 3,8 °C 3,8 °C 91 % 1018,8 hPa 0,0 mm 10,4 km/h (2 Bft) SW 223 ° 0 min 0,000 mm 0,0 UV-I 0 W/m² 2,5 °C 1,1 °C 14,5 km/h (3 Bft)
23.10.2017 05:53 3,8 °C 3,8 °C 91 % 1018,9 hPa 0,0 mm 7,3 km/h (2 Bft) SW 232 ° 0 min 0,000 mm 0,0 UV-I 0 W/m² 2,5 °C 1,9 °C 14,5 km/h (3 Bft)
23.10.2017 05:54 3,7 °C 3,8 °C 92 % 1018,9 hPa 0,0 mm 6,8 km/h (2 Bft) W 263 ° 0 min 0,000 mm 0,0 UV-I 0 W/m² 2,5 °C 2,0 °C 12,9 km/h (3 Bft)
23.10.2017 05:55 3,7 °C 3,8 °C 92 % 1018,9 hPa 0,0 mm 12,3 km/h (3 Bft) W 264 ° 0 min 0,000 mm 0,0 UV-I 0 W/m² 2,5 °C 0,6 °C 16,1 km/h (3 Bft)
23.10.2017 05:56 3,7 °C 3,8 °C 92 % 1018,9 hPa 0,0 mm 11,3 km/h (2 Bft) W 270 ° 0 min 0,000 mm 0,0 UV-I 0 W/m² 2,5 °C 0,8 °C 14,5 km/h (3 Bft)
23.10.2017 05:57 3,7 °C 3,7 °C 92 % 1018,9 hPa 0,0 mm 11,0 km/h (2 Bft) W-SW 254 ° 0 min 0,000 mm 0,0 UV-I 0 W/m² 2,5 °C 0,9 °C 14,5 km/h (3 Bft)
23.10.2017 05:58 3,7 °C 3,7 °C 92 % 1018,9 hPa 0,0 mm 10,8 km/h (2 Bft) W 265 ° 0 min 0,000 mm 0,0 UV-I 0 W/m² 2,5 °C 0,9 °C 16,1 km/h (3 Bft)
23.10.2017 05:59 3,7 °C 3,7 °C 92 % 1018,9 hPa 0,0 mm 15,5 km/h (3 Bft) W 272 ° 0 min 0,000 mm 0,0 UV-I 0 W/m² 2,5 °C 0,1 °C 22,5 km/h (4 Bft)
23.10.2017 06:00 3,7 °C 3,7 °C 92 % 1019,0 hPa 0,0 mm 12,7 km/h (3 Bft) W 265 ° 0 min 0,000 mm 0,0 UV-I 0 W/m² 2,5 °C 0,5 °C 17,7 km/h (3 Bft)
23.10.2017 06:01 3,7 °C 3,7 °C 92 % 1019,0 hPa 0,0 mm 7,6 km/h (2 Bft) W 269 ° 0 min 0,000 mm 0,0 UV-I 0 W/m² 2,5 °C 1,7 °C 19,3 km/h (3 Bft)
23.10.2017 06:02 3,7 °C 3,7 °C 92 % 1019,0 hPa 0,0 mm 8,0 km/h (2 Bft) W 275 ° 0 min 0,000 mm 0,0 UV-I 0 W/m² 2,5 °C 1,6 °C 12,9 km/h (3 Bft)
23.10.2017 06:03 3,7 °C 3,7 °C 92 % 1019,1 hPa 0,0 mm 7,0 km/h (2 Bft) NW 307 ° 0 min 0,000 mm 0,0 UV-I 0 W/m² 2,5 °C 1,9 °C 9,7 km/h (2 Bft)
23.10.2017 06:04 3,7 °C 3,7 °C 92 % 1019,0 hPa 0,0 mm 7,1 km/h (2 Bft) W-NW 298 ° 0 min 0,000 mm 0,0 UV-I 0 W/m² 2,5 °C 1,9 °C 12,9 km/h (3 Bft)
23.10.2017 06:05 3,7 °C 3,7 °C 92 % 1019,0 hPa 0,0 mm 6,8 km/h (2 Bft) W-NW 296 ° 0 min 0,000 mm 0,0 UV-I 0 W/m² 2,5 °C 2,0 °C 8,0 km/h (2 Bft)
23.10.2017 06:06 3,7 °C 3,7 °C 92 % 1019,0 hPa 0,0 mm 6,4 km/h (2 Bft) W-SW 253 ° 0 min 0,000 mm 0,0 UV-I 0 W/m² 2,5 °C 2,1 °C 9,7 km/h (2 Bft)
23.10.2017 06:07 3,7 °C 3,7 °C 92 % 1019,1 hPa 0,0 mm 6,0 km/h (2 Bft) W 264 ° 0 min 0,000 mm 0,0 UV-I 0 W/m² 2,5 °C 2,2 °C 9,7 km/h (2 Bft)
23.10.2017 06:08 3,7 °C 3,8 °C 92 % 1019,1 hPa 0,0 mm 8,9 km/h (2 Bft) W-SW 257 ° 0 min 0,000 mm 0,0 UV-I 0 W/m² 2,5 °C 1,4 °C 14,5 km/h (3 Bft)
23.10.2017 06:09 3,7 °C 3,8 °C 92 % 1019,1 hPa 0,0 mm 6,3 km/h (2 Bft) W-SW 255 ° 0 min 0,000 mm 0,0 UV-I 0 W/m² 2,5 °C 2,1 °C 14,5 km/h (3 Bft)
23.10.2017 06:10 3,7 °C 3,8 °C 92 % 1019,1 hPa 0,0 mm 8,0 km/h (2 Bft) W-SW 248 ° 0 min 0,000 mm 0,0 UV-I 0 W/m² 2,5 °C 1,6 °C 16,1 km/h (3 Bft)
23.10.2017 06:11 3,7 °C 3,7 °C 92 % 1019,1 hPa 0,0 mm 7,0 km/h (2 Bft) W 263 ° 0 min 0,000 mm 0,0 UV-I 0 W/m² 2,5 °C 1,9 °C 12,9 km/h (3 Bft)
23.10.2017 06:12 3,7 °C 3,7 °C 92 % 1019,1 hPa 0,0 mm 11,4 km/h (2 Bft) W 271 ° 0 min 0,000 mm 0,0 UV-I 0 W/m² 2,5 °C 0,8 °C 14,5 km/h (3 Bft)
23.10.2017 06:13 3,7 °C 3,7 °C 92 % 1019,1 hPa 0,0 mm 14,4 km/h (3 Bft) W-SW 247 ° 0 min 0,000 mm 0,0 UV-I 0 W/m² 2,5 °C 0,2 °C 17,7 km/h (3 Bft)
23.10.2017 06:14 3,7 °C 3,8 °C 92 % 1019,1 hPa 0,0 mm 9,9 km/h (2 Bft) SW 236 ° 0 min 0,000 mm 0,0 UV-I 0 W/m² 2,5 °C 1,1 °C 17,7 km/h (3 Bft)
23.10.2017 06:15 3,7 °C 3,8 °C 92 % 1019,1 hPa 0,0 mm 11,9 km/h (2 Bft) W 273 ° 0 min 0,000 mm 0,0 UV-I 0 W/m² 2,5 °C 0,7 °C 19,3 km/h (3 Bft)
23.10.2017 06:16 3,7 °C 3,7 °C 92 % 1019,1 hPa 0,0 mm 13,4 km/h (3 Bft) W-SW 258 ° 0 min 0,000 mm 0,0 UV-I 0 W/m² 2,5 °C 0,4 °C 17,7 km/h (3 Bft)
23.10.2017 06:17 3,7 °C 3,8 °C 92 % 1019,1 hPa 0,0 mm 9,0 km/h (2 Bft) W 269 ° 0 min 0,000 mm 0,0 UV-I 0 W/m² 2,5 °C 1,3 °C 16,1 km/h (3 Bft)
23.10.2017 06:18 3,8 °C 3,8 °C 92 % 1019,0 hPa 0,0 mm 5,2 km/h (1 Bft) W-SW 248 ° 0 min 0,000 mm 0,0 UV-I 0 W/m² 2,6 °C 2,6 °C 6,4 km/h (2 Bft)
23.10.2017 06:19 3,8 °C 3,8 °C 92 % 1019,0 hPa 0,0 mm 6,6 km/h (2 Bft) W-SW 254 ° 0 min 0,000 mm 0,0 UV-I 0 W/m² 2,6 °C 2,1 °C 11,3 km/h (2 Bft)
23.10.2017 06:20 3,8 °C 3,8 °C 92 % 1018,9 hPa 0,0 mm 5,7 km/h (1 Bft) W-SW 245 ° 0 min 0,000 mm 0,0 UV-I 0 W/m² 2,6 °C 2,5 °C 11,3 km/h (2 Bft)
23.10.2017 06:21 3,8 °C 3,8 °C 92 % 1019,1 hPa 0,0 mm 7,9 km/h (2 Bft) S-SW 197 ° 0 min 0,000 mm 0,0 UV-I 0 W/m² 2,6 °C 1,8 °C 12,9 km/h (3 Bft)
23.10.2017 06:22 3,8 °C 3,8 °C 92 % 1019,1 hPa 0,0 mm 6,8 km/h (2 Bft) W 267 ° 0 min 0,000 mm 0,0 UV-I 0 W/m² 2,6 °C 2,1 °C 8,0 km/h (2 Bft)
23.10.2017 06:23 3,8 °C 3,8 °C 92 % 1019,1 hPa 0,0 mm 6,9 km/h (2 Bft) W 261 ° 0 min 0,000 mm 0,0 UV-I 0 W/m² 2,6 °C 2,0 °C 11,3 km/h (2 Bft)
23.10.2017 06:24 3,8 °C 3,8 °C 92 % 1019,1 hPa 0,0 mm 8,5 km/h (2 Bft) W 281 ° 0 min 0,000 mm 0,0 UV-I 0 W/m² 2,6 °C 1,6 °C 14,5 km/h (3 Bft)
23.10.2017 06:25 3,8 °C 3,8 °C 92 % 1019,1 hPa 0,0 mm 6,9 km/h (2 Bft) W-SW 258 ° 0 min 0,000 mm 0,0 UV-I 0 W/m² 2,6 °C 2,0 °C 16,1 km/h (3 Bft)
23.10.2017 06:26 3,8 °C 3,8 °C 91 % 1019,1 hPa 0,0 mm 10,9 km/h (2 Bft) W 278 ° 0 min 0,000 mm 0,0 UV-I 0 W/m² 2,5 °C 1,0 °C 16,1 km/h (3 Bft)
23.10.2017 06:27 3,8 °C 3,8 °C 91 % 1019,1 hPa 0,0 mm 6,9 km/h (2 Bft) W 261 ° 0 min 0,000 mm 0,0 UV-I 0 W/m² 2,5 °C 2,0 °C 11,3 km/h (2 Bft)
23.10.2017 06:28 3,8 °C 3,8 °C 91 % 1019,1 hPa 0,0 mm 5,1 km/h (1 Bft) S-SW 210 ° 0 min 0,000 mm 0,0 UV-I 0 W/m² 2,5 °C 2,7 °C 9,7 km/h (2 Bft)
23.10.2017 06:29 3,8 °C 3,8 °C 91 % 1019,1 hPa 0,0 mm 6,0 km/h (2 Bft) W-SW 252 ° 0 min 0,000 mm 0,0 UV-I 0 W/m² 2,5 °C 2,3 °C 14,5 km/h (3 Bft)
23.10.2017 06:30 3,9 °C 3,9 °C 91 % 1019,1 hPa 0,0 mm 6,0 km/h (2 Bft) W-SW 249 ° 0 min 0,000 mm 0,0 UV-I 0 W/m² 2,6 °C 2,5 °C 12,9 km/h (3 Bft)
23.10.2017 06:31 3,8 °C 3,9 °C 91 % 1019,1 hPa 0,0 mm 3,8 km/h (1 Bft) SW 236 ° 0 min 0,000 mm 0,0 UV-I 0 W/m² 2,5 °C 3,8 °C 4,8 km/h (1 Bft)
23.10.2017 06:32 3,9 °C 3,9 °C 91 % 1019,0 hPa 0,0 mm 7,7 km/h (2 Bft) W-SW 253 ° 0 min 0,000 mm 0,0 UV-I 0 W/m² 2,6 °C 1,9 °C 16,1 km/h (3 Bft)
23.10.2017 06:33 3,9 °C 3,9 °C 91 % 1019,1 hPa 0,0 mm 11,1 km/h (2 Bft) SW 217 ° 0 min 0,000 mm 0,0 UV-I 0 W/m² 2,6 °C 1,1 °C 19,3 km/h (3 Bft)
23.10.2017 06:34 3,9 °C 3,9 °C 91 % 1019,0 hPa 0,0 mm 5,6 km/h (1 Bft) W-SW 237 ° 0 min 0,000 mm 0,0 UV-I 0 W/m² 2,6 °C 2,6 °C 14,5 km/h (3 Bft)
23.10.2017 06:35 3,9 °C 3,9 °C 91 % 1019,1 hPa 0,0 mm 8,1 km/h (2 Bft) W-SW 257 ° 0 min 0,000 mm 0,0 UV-I 0 W/m² 2,6 °C 1,8 °C 14,5 km/h (3 Bft)
23.10.2017 06:36 3,9 °C 3,9 °C 91 % 1019,1 hPa 0,0 mm 9,8 km/h (2 Bft) W 263 ° 0 min 0,000 mm 0,0 UV-I 0 W/m² 2,6 °C 1,4 °C 12,9 km/h (3 Bft)
23.10.2017 06:37 3,9 °C 3,9 °C 91 % 1019,0 hPa 0,0 mm 12,9 km/h (3 Bft) W 271 ° 0 min 0,000 mm 0,0 UV-I 0 W/m² 2,6 °C 0,8 °C 17,7 km/h (3 Bft)
23.10.2017 06:38 3,9 °C 3,9 °C 91 % 1019,0 hPa 0,0 mm 11,9 km/h (2 Bft) W-SW 256 ° 0 min 0,000 mm 0,0 UV-I 0 W/m² 2,6 °C 0,9 °C 14,5 km/h (3 Bft)
23.10.2017 06:39 3,9 °C 3,9 °C 91 % 1019,1 hPa 0,0 mm 10,5 km/h (2 Bft) W 278 ° 0 min 0,000 mm 0,0 UV-I 0 W/m² 2,6 °C 1,2 °C 14,5 km/h (3 Bft)
23.10.2017 06:40 3,9 °C 3,9 °C 91 % 1019,1 hPa 0,0 mm 3,7 km/h (1 Bft) W 277 ° 0 min 0,000 mm 0,0 UV-I 0 W/m² 2,6 °C 3,9 °C 6,4 km/h (2 Bft)
23.10.2017 06:41 3,9 °C 3,9 °C 91 % 1019,1 hPa 0,0 mm 4,2 km/h (1 Bft) W-SW 258 ° 0 min 0,000 mm 0,0 UV-I 0 W/m² 2,6 °C 3,9 °C 9,7 km/h (2 Bft)
23.10.2017 06:42 3,9 °C 3,9 °C 91 % 1019,0 hPa 0,0 mm 6,3 km/h (2 Bft) SW 234 ° 0 min 0,000 mm 0,0 UV-I 0 W/m² 2,6 °C 2,4 °C 11,3 km/h (2 Bft)
23.10.2017 06:43 3,9 °C 3,9 °C 91 % 1019,0 hPa 0,0 mm 7,2 km/h (2 Bft) W 268 ° 0 min 0,000 mm 0,0 UV-I 0 W/m² 2,6 °C 2,1 °C 11,3 km/h (2 Bft)
23.10.2017 06:44 3,9 °C 3,9 °C 91 % 1019,1 hPa 0,0 mm 4,8 km/h (1 Bft) W 260 ° 0 min 0,000 mm 0,0 UV-I 0 W/m² 2,6 °C 2,9 °C 6,4 km/h (2 Bft)
23.10.2017 06:45 3,9 °C 3,9 °C 91 % 1019,1 hPa 0,0 mm 6,8 km/h (2 Bft) W 276 ° 0 min 0,000 mm 0,0 UV-I 0 W/m² 2,6 °C 2,2 °C 9,7 km/h (2 Bft)
23.10.2017 06:46 3,9 °C 3,9 °C 91 % 1019,1 hPa 0,0 mm 9,0 km/h (2 Bft) W 263 ° 0 min 0,000 mm 0,0 UV-I 0 W/m² 2,6 °C 1,6 °C 12,9 km/h (3 Bft)
23.10.2017 06:47 3,9 °C 3,9 °C 91 % 1019,1 hPa 0,0 mm 6,4 km/h (2 Bft) W 264 ° 0 min 0,000 mm 0,0 UV-I 0 W/m² 2,6 °C 2,3 °C 11,3 km/h (2 Bft)
23.10.2017 06:48 3,9 °C 3,9 °C 91 % 1019,1 hPa 0,0 mm 4,0 km/h (1 Bft) W 273 ° 0 min 0,000 mm 0,0 UV-I 0 W/m² 2,6 °C 3,9 °C 6,4 km/h (2 Bft)
23.10.2017 06:49 3,9 °C 3,9 °C 91 % 1019,1 hPa 0,0 mm 8,4 km/h (2 Bft) W 271 ° 0 min 0,000 mm 0,0 UV-I 0 W/m² 2,6 °C 1,7 °C 12,9 km/h (3 Bft)
23.10.2017 06:50 3,9 °C 3,9 °C 91 % 1019,0 hPa 0,0 mm 9,1 km/h (2 Bft) W 259 ° 0 min 0,000 mm 0,0 UV-I 0 W/m² 2,6 °C 1,6 °C 12,9 km/h (3 Bft)
23.10.2017 06:51 3,9 °C 3,9 °C 91 % 1019,1 hPa 0,0 mm 9,4 km/h (2 Bft) W 269 ° 0 min 0,000 mm 0,0 UV-I 0 W/m² 2,6 °C 1,5 °C 12,9 km/h (3 Bft)
23.10.2017 06:52 3,9 °C 3,9 °C 91 % 1019,0 hPa 0,0 mm 4,9 km/h (1 Bft) W 269 ° 0 min 0,000 mm 0,0 UV-I 0 W/m² 2,6 °C 2,9 °C 9,7 km/h (2 Bft)
23.10.2017 06:53 3,9 °C 3,9 °C 91 % 1019,0 hPa 0,0 mm 5,4 km/h (1 Bft) W 268 ° 0 min 0,000 mm 0,0 UV-I 0 W/m² 2,6 °C 2,7 °C 12,9 km/h (3 Bft)
23.10.2017 06:54 3,9 °C 3,9 °C 91 % 1019,1 hPa 0,0 mm 4,3 km/h (1 Bft) W 265 ° 0 min 0,000 mm 0,0 UV-I 0 W/m² 2,6 °C 3,9 °C 9,7 km/h (2 Bft)
23.10.2017 06:55 3,8 °C 3,9 °C 91 % 1019,1 hPa 0,0 mm 3,8 km/h (1 Bft) W-SW 242 ° 0 min 0,000 mm 0,0 UV-I 0 W/m² 2,5 °C 3,8 °C 6,4 km/h (2 Bft)
23.10.2017 06:56 3,9 °C 3,9 °C 92 % 1019,0 hPa 0,0 mm 7,6 km/h (2 Bft) W 263 ° 0 min 0,000 mm 0,0 UV-I 0 W/m² 2,7 °C 2,0 °C 11,3 km/h (2 Bft)
23.10.2017 06:57 3,8 °C 3,9 °C 92 % 1018,9 hPa 0,0 mm 5,0 km/h (1 Bft) W 262 ° 0 min 0,000 mm 0,0 UV-I 0 W/m² 2,6 °C 2,7 °C 9,7 km/h (2 Bft)
23.10.2017 06:58 3,8 °C 3,9 °C 92 % 1018,9 hPa 0,0 mm 11,0 km/h (2 Bft) W 269 ° 0 min 0,000 mm 0,0 UV-I 0 W/m² 2,6 °C 1,0 °C 17,7 km/h (3 Bft)
23.10.2017 06:59 3,9 °C 3,9 °C 92 % 1018,9 hPa 0,0 mm 11,3 km/h (2 Bft) W-SW 258 ° 0 min 0,000 mm 0,0 UV-I 0 W/m² 2,7 °C 1,1 °C 17,7 km/h (3 Bft)
23.10.2017 07:00 3,9 °C 3,9 °C 92 % 1019,0 hPa 0,0 mm 8,4 km/h (2 Bft) W 261 ° 0 min 0,000 mm 0,0 UV-I 0 W/m² 2,7 °C 1,7 °C 14,5 km/h (3 Bft)
23.10.2017 07:01 3,9 °C 3,9 °C 92 % 1018,9 hPa 0,0 mm 9,1 km/h (2 Bft) W 265 ° 0 min 0,000 mm 0,0 UV-I 0 W/m² 2,7 °C 1,6 °C 16,1 km/h (3 Bft)
23.10.2017 07:02 3,9 °C 3,9 °C 91 % 1018,9 hPa 0,0 mm 10,9 km/h (2 Bft) W-NW 295 ° 0 min 0,000 mm 0,0 UV-I 0 W/m² 2,6 °C 1,1 °C 14,5 km/h (3 Bft)
23.10.2017 07:03 3,9 °C 3,9 °C 91 % 1018,9 hPa 0,0 mm 10,1 km/h (2 Bft) W 271 ° 0 min 0,000 mm 0,0 UV-I 0 W/m² 2,6 °C 1,3 °C 16,1 km/h (3 Bft)
23.10.2017 07:04 3,9 °C 3,9 °C 91 % 1019,0 hPa 0,0 mm 12,6 km/h (3 Bft) W-SW 253 ° 0 min 0,000 mm 0,0 UV-I 0 W/m² 2,6 °C 0,8 °C 19,3 km/h (3 Bft)
23.10.2017 07:05 3,9 °C 3,9 °C 91 % 1019,0 hPa 0,0 mm 6,4 km/h (2 Bft) SW 219 ° 0 min 0,000 mm 0,0 UV-I 0 W/m² 2,6 °C 2,3 °C 11,3 km/h (2 Bft)
23.10.2017 07:06 3,9 °C 3,9 °C 91 % 1019,0 hPa 0,0 mm 8,1 km/h (2 Bft) W-NW 288 ° 0 min 0,000 mm 0,0 UV-I 0 W/m² 2,6 °C 1,8 °C 11,3 km/h (2 Bft)
23.10.2017 07:07 3,9 °C 3,9 °C 91 % 1019,0 hPa 0,0 mm 16,5 km/h (3 Bft) W 267 ° 0 min 0,000 mm 0,0 UV-I 0 W/m² 2,6 °C 0,2 °C 24,1 km/h (4 Bft)
23.10.2017 07:08 3,9 °C 3,9 °C 91 % 1019,0 hPa 0,0 mm 17,6 km/h (3 Bft) W-NW 285 ° 0 min 0,000 mm 0,0 UV-I 0 W/m² 2,6 °C 0,0 °C 24,1 km/h (4 Bft)
23.10.2017 07:09 3,8 °C 3,9 °C 91 % 1019,0 hPa 0,0 mm 15,7 km/h (3 Bft) W 265 ° 0 min 0,000 mm 0,0 UV-I 0 W/m² 2,5 °C 0,2 °C 27,4 km/h (4 Bft)
23.10.2017 07:10 3,8 °C 3,8 °C 91 % 1019,1 hPa 0,0 mm 16,3 km/h (3 Bft) SW 236 ° 0 min 0,000 mm 0,0 UV-I 0 W/m² 2,5 °C 0,1 °C 29,0 km/h (5 Bft)
23.10.2017 07:11 3,8 °C 3,8 °C 91 % 1019,1 hPa 0,2 mm 13,0 km/h (3 Bft) S-SW 210 ° 0 min 0,000 mm 0,0 UV-I 0 W/m² 2,5 °C 0,6 °C 20,9 km/h (4 Bft)
23.10.2017 07:12 3,8 °C 3,8 °C 91 % 1019,1 hPa 0,0 mm 13,3 km/h (3 Bft) SW 218 ° 0 min 0,000 mm 0,0 UV-I 0 W/m² 2,5 °C 0,6 °C 17,7 km/h (3 Bft)
23.10.2017 07:13 3,8 °C 3,8 °C 91 % 1019,1 hPa 0,0 mm 12,9 km/h (3 Bft) NW 307 ° 0 min 0,000 mm 0,0 UV-I 0 W/m² 2,5 °C 0,6 °C 19,3 km/h (3 Bft)
23.10.2017 07:14 3,7 °C 3,8 °C 91 % 1019,1 hPa 0,0 mm 10,8 km/h (2 Bft) W 262 ° 0 min 0,000 mm 0,0 UV-I 0 W/m² 2,4 °C 0,9 °C 16,1 km/h (3 Bft)
23.10.2017 07:15 3,7 °C 3,8 °C 91 % 1019,1 hPa 0,0 mm 9,5 km/h (2 Bft) W 263 ° 0 min 0,000 mm 0,0 UV-I 0 W/m² 2,4 °C 1,2 °C 16,1 km/h (3 Bft)
23.10.2017 07:16 3,7 °C 3,7 °C 91 % 1019,2 hPa 0,0 mm 13,0 km/h (3 Bft) W 270 ° 0 min 0,000 mm 0,0 UV-I 0 W/m² 2,4 °C 0,5 °C 19,3 km/h (3 Bft)
23.10.2017 07:17 3,7 °C 3,7 °C 91 % 1019,2 hPa 0,0 mm 10,9 km/h (2 Bft) W-SW 257 ° 0 min 0,000 mm 0,0 UV-I 0 W/m² 2,4 °C 0,9 °C 14,5 km/h (3 Bft)
23.10.2017 07:18 3,7 °C 3,7 °C 91 % 1019,2 hPa 0,0 mm 12,2 km/h (2 Bft) W 261 ° 0 min 0,000 mm 0,0 UV-I 0 W/m² 2,4 °C 0,6 °C 20,9 km/h (4 Bft)
23.10.2017 07:19 3,7 °C 3,7 °C 91 % 1019,2 hPa 0,0 mm 16,7 km/h (3 Bft) W 263 ° 0 min 0,000 mm 0,0 UV-I 0 W/m² 2,4 °C -0,1 °C 20,9 km/h (4 Bft)
23.10.2017 07:20 3,7 °C 3,7 °C 91 % 1019,2 hPa 0,0 mm 10,3 km/h (2 Bft) W 275 ° 0 min 0,000 mm 0,0 UV-I 0 W/m² 2,4 °C 1,0 °C 16,1 km/h (3 Bft)
23.10.2017 07:21 3,7 °C 3,7 °C 91 % 1019,2 hPa 0,0 mm 8,0 km/h (2 Bft) SW 236 ° 0 min 0,000 mm 0,0 UV-I 0 W/m² 2,4 °C 1,6 °C 12,9 km/h (3 Bft)
23.10.2017 07:22 3,6 °C 3,7 °C 91 % 1019,2 hPa 0,0 mm 13,1 km/h (3 Bft) W 260 ° 0 min 0,000 mm 0,0 UV-I 0 W/m² 2,3 °C 0,4 °C 16,1 km/h (3 Bft)
23.10.2017 07:23 3,6 °C 3,6 °C 91 % 1019,2 hPa 0,0 mm 7,9 km/h (2 Bft) W 263 ° 0 min 0,000 mm 0,0 UV-I 0 W/m² 2,3 °C 1,5 °C 12,9 km/h (3 Bft)
23.10.2017 07:24 3,6 °C 3,6 °C 91 % 1019,2 hPa 0,0 mm 9,5 km/h (2 Bft) W-SW 244 ° 0 min 0,000 mm 0,0 UV-I 0 W/m² 2,3 °C 1,1 °C 17,7 km/h (3 Bft)
23.10.2017 07:25 3,6 °C 3,6 °C 91 % 1019,2 hPa 0,0 mm 7,3 km/h (2 Bft) W 261 ° 0 min 0,000 mm 0,0 UV-I 0 W/m² 2,3 °C 1,7 °C 14,5 km/h (3 Bft)
23.10.2017 07:26 3,6 °C 3,6 °C 91 % 1019,2 hPa 0,0 mm 10,1 km/h (2 Bft) W-NW 296 ° 0 min 0,000 mm 0,0 UV-I 0 W/m² 2,3 °C 1,0 °C 12,9 km/h (3 Bft)
23.10.2017 07:27 3,6 °C 3,6 °C 91 % 1019,2 hPa 0,0 mm 15,1 km/h (3 Bft) W 261 ° 0 min 0,000 mm 0,0 UV-I 0 W/m² 2,3 °C 0,0 °C 20,9 km/h (4 Bft)
23.10.2017 07:28 3,6 °C 3,6 °C 91 % 1019,3 hPa 0,0 mm 9,8 km/h (2 Bft) W-SW 242 ° 0 min 0,000 mm 0,0 UV-I 0 W/m² 2,3 °C 1,0 °C 12,9 km/h (3 Bft)
23.10.2017 07:29 3,5 °C 3,6 °C 91 % 1019,3 hPa 0,0 mm 5,9 km/h (2 Bft) W 260 ° 0 min 0,000 mm 0,0 UV-I 0 W/m² 2,2 °C 2,0 °C 11,3 km/h (2 Bft)
23.10.2017 07:30 3,5 °C 3,5 °C 91 % 1019,3 hPa 0,0 mm 12,1 km/h (2 Bft) W 273 ° 0 min 0,000 mm 0,0 UV-I 0 W/m² 2,2 °C 0,4 °C 20,9 km/h (4 Bft)
23.10.2017 07:31 3,5 °C 3,5 °C 91 % 1019,3 hPa 0,0 mm 10,0 km/h (2 Bft) W-SW 249 ° 0 min 0,000 mm 0,0 UV-I 0 W/m² 2,2 °C 0,9 °C 12,9 km/h (3 Bft)
23.10.2017 07:32 3,5 °C 3,5 °C 91 % 1019,3 hPa 0,0 mm 12,9 km/h (3 Bft) W 267 ° 0 min 0,000 mm 0,0 UV-I 0 W/m² 2,2 °C 0,3 °C 16,1 km/h (3 Bft)
23.10.2017 07:33 3,5 °C 3,5 °C 91 % 1019,3 hPa 0,0 mm 13,6 km/h (3 Bft) W 261 ° 0 min 0,000 mm 0,0 UV-I 0 W/m² 2,2 °C 0,1 °C 19,3 km/h (3 Bft)
23.10.2017 07:34 3,4 °C 3,5 °C 91 % 1019,3 hPa 0,0 mm 10,4 km/h (2 Bft) W 281 ° 0 min 0,000 mm 0,0 UV-I 0 W/m² 2,1 °C 0,7 °C 16,1 km/h (3 Bft)
23.10.2017 07:35 3,4 °C 3,4 °C 91 % 1019,4 hPa 0,0 mm 10,6 km/h (2 Bft) W 269 ° 0 min 0,000 mm 0,0 UV-I 0 W/m² 2,1 °C 0,6 °C 17,7 km/h (3 Bft)
23.10.2017 07:36 3,4 °C 3,4 °C 91 % 1019,4 hPa 0,0 mm 6,4 km/h (2 Bft) W-NW 283 ° 0 min 0,000 mm 0,0 UV-I 0 W/m² 2,1 °C 1,7 °C 11,3 km/h (2 Bft)
23.10.2017 07:37 3,4 °C 3,4 °C 91 % 1019,4 hPa 0,0 mm 11,7 km/h (2 Bft) W 281 ° 0 min 0,000 mm 0,0 UV-I 0 W/m² 2,1 °C 0,4 °C 19,3 km/h (3 Bft)
23.10.2017 07:38 3,4 °C 3,4 °C 91 % 1019,4 hPa 0,0 mm 8,0 km/h (2 Bft) W 271 ° 0 min 0,000 mm 0,0 UV-I 0 W/m² 2,1 °C 1,3 °C 11,3 km/h (2 Bft)
23.10.2017 07:39 3,4 °C 3,4 °C 91 % 1019,4 hPa 0,0 mm 4,0 km/h (1 Bft) W 281 ° 0 min 0,000 mm 0,0 UV-I 0 W/m² 2,1 °C 3,4 °C 6,4 km/h (2 Bft)
23.10.2017 07:40 3,4 °C 3,4 °C 91 % 1019,4 hPa 0,0 mm 8,3 km/h (2 Bft) W 273 ° 0 min 0,000 mm 0,0 UV-I 0 W/m² 2,1 °C 1,2 °C 12,9 km/h (3 Bft)
23.10.2017 07:41 3,4 °C 3,4 °C 91 % 1019,4 hPa 0,0 mm 15,8 km/h (3 Bft) W 275 ° 0 min 0,000 mm 0,0 UV-I 0 W/m² 2,1 °C -0,4 °C 20,9 km/h (4 Bft)
23.10.2017 07:42 3,4 °C 3,4 °C 91 % 1019,4 hPa 0,0 mm 7,8 km/h (2 Bft) W-NW 288 ° 0 min 0,000 mm 0,0 UV-I 0 W/m² 2,1 °C 1,3 °C 12,9 km/h (3 Bft)
23.10.2017 07:43 3,4 °C 3,4 °C 91 % 1019,4 hPa 0,0 mm 14,0 km/h (3 Bft) W-SW 252 ° 0 min 0,000 mm 0,0 UV-I 0 W/m² 2,1 °C -0,1 °C 17,7 km/h (3 Bft)
23.10.2017 07:44 3,4 °C 3,4 °C 91 % 1019,4 hPa 0,0 mm 10,1 km/h (2 Bft) W 261 ° 0 min 0,000 mm 0,0 UV-I 0 W/m² 2,1 °C 0,7 °C 16,1 km/h (3 Bft)
23.10.2017 07:45 3,4 °C 3,4 °C 91 % 1019,4 hPa 0,0 mm 9,8 km/h (2 Bft) W-SW 240 ° 0 min 0,000 mm 0,0 UV-I 0 W/m² 2,1 °C 0,8 °C 16,1 km/h (3 Bft)
23.10.2017 07:46 3,4 °C 3,4 °C 91 % 1019,4 hPa 0,0 mm 8,3 km/h (2 Bft) W 267 ° 0 min 0,000 mm 0,0 UV-I 0 W/m² 2,1 °C 1,2 °C 12,9 km/h (3 Bft)
23.10.2017 07:47 3,4 °C 3,4 °C 91 % 1019,4 hPa 0,0 mm 10,2 km/h (2 Bft) W 269 ° 0 min 0,000 mm 0,0 UV-I 0 W/m² 2,1 °C 0,7 °C 12,9 km/h (3 Bft)
23.10.2017 07:48 3,4 °C 3,4 °C 91 % 1019,4 hPa 0,0 mm 16,0 km/h (3 Bft) W 267 ° 0 min 0,000 mm 0,0 UV-I 0 W/m² 2,1 °C -0,4 °C 22,5 km/h (4 Bft)
23.10.2017 07:49 3,4 °C 3,4 °C 91 % 1019,4 hPa 0,0 mm 9,7 km/h (2 Bft) W-NW 290 ° 0 min 0,000 mm 0,0 UV-I 0 W/m² 2,1 °C 0,8 °C 16,1 km/h (3 Bft)
23.10.2017 07:50 3,4 °C 3,5 °C 91 % 1019,4 hPa 0,0 mm 11,9 km/h (2 Bft) W 278 ° 0 min 0,000 mm 0,0 UV-I 0 W/m² 2,1 °C 0,3 °C 17,7 km/h (3 Bft)
23.10.2017 07:51 3,4 °C 3,5 °C 91 % 1019,5 hPa 0,0 mm 7,6 km/h (2 Bft) W 263 ° 0 min 0,000 mm 0,0 UV-I 0 W/m² 2,1 °C 1,4 °C 14,5 km/h (3 Bft)
23.10.2017 07:52 3,4 °C 3,5 °C 91 % 1019,5 hPa 0,0 mm 12,3 km/h (3 Bft) W 263 ° 0 min 0,000 mm 0,0 UV-I 0 W/m² 2,1 °C 0,3 °C 17,7 km/h (3 Bft)
23.10.2017 07:53 3,4 °C 3,4 °C 91 % 1019,5 hPa 0,0 mm 8,7 km/h (2 Bft) W 264 ° 0 min 0,000 mm 0,0 UV-I 0 W/m² 2,1 °C 1,1 °C 11,3 km/h (2 Bft)
23.10.2017 07:54 3,4 °C 3,4 °C 91 % 1019,5 hPa 0,0 mm 9,9 km/h (2 Bft) W 259 ° 0 min 0,000 mm 0,0 UV-I 0 W/m² 2,1 °C 0,8 °C 12,9 km/h (3 Bft)
23.10.2017 07:55 3,4 °C 3,4 °C 91 % 1019,5 hPa 0,0 mm 10,6 km/h (2 Bft) W 259 ° 0 min 0,000 mm 0,0 UV-I 0 W/m² 2,1 °C 0,6 °C 16,1 km/h (3 Bft)
23.10.2017 07:56 3,4 °C 3,4 °C 91 % 1019,5 hPa 0,0 mm 8,4 km/h (2 Bft) W 259 ° 0 min 0,000 mm 0,0 UV-I 0 W/m² 2,1 °C 1,1 °C 14,5 km/h (3 Bft)
23.10.2017 07:57 3,4 °C 3,4 °C 91 % 1019,5 hPa 0,0 mm 7,7 km/h (2 Bft) W-SW 254 ° 0 min 0,000 mm 0,0 UV-I 0 W/m² 2,1 °C 1,3 °C 14,5 km/h (3 Bft)
23.10.2017 07:58 3,4 °C 3,5 °C 91 % 1019,5 hPa 0,0 mm 12,3 km/h (3 Bft) W-SW 250 ° 0 min 0,000 mm 0,0 UV-I 0 W/m² 2,1 °C 0,3 °C 16,1 km/h (3 Bft)
23.10.2017 07:59 3,5 °C 3,5 °C 91 % 1019,5 hPa 0,0 mm 9,1 km/h (2 Bft) W 259 ° 0 min 0,000 mm 0,0 UV-I 0 W/m² 2,2 °C 1,1 °C 11,3 km/h (2 Bft)
23.10.2017 08:00 3,5 °C 3,5 °C 91 % 1019,5 hPa 0,0 mm 6,3 km/h (2 Bft) W-SW 257 ° 0 min 0,000 mm 0,0 UV-I 0 W/m² 2,2 °C 1,9 °C 9,7 km/h (2 Bft)
23.10.2017 08:01 3,5 °C 3,5 °C 91 % 1019,5 hPa 0,0 mm 4,9 km/h (1 Bft) W 270 ° 0 min 0,000 mm 0,0 UV-I 0 W/m² 2,2 °C 2,4 °C 9,7 km/h (2 Bft)
23.10.2017 08:02 3,5 °C 3,5 °C 91 % 1019,5 hPa 0,0 mm 8,7 km/h (2 Bft) W 267 ° 0 min 0,000 mm 0,0 UV-I 0 W/m² 2,2 °C 1,2 °C 14,5 km/h (3 Bft)
23.10.2017 08:03 3,5 °C 3,6 °C 91 % 1019,5 hPa 0,0 mm 11,3 km/h (2 Bft) W 268 ° 0 min 0,000 mm 0,0 UV-I 0 W/m² 2,2 °C 0,6 °C 16,1 km/h (3 Bft)
23.10.2017 08:04 3,6 °C 3,6 °C 91 % 1019,5 hPa 0,0 mm 10,8 km/h (2 Bft) W 268 ° 0 min 0,000 mm 0,0 UV-I 0 W/m² 2,3 °C 0,8 °C 19,3 km/h (3 Bft)
23.10.2017 08:05 3,6 °C 3,6 °C 91 % 1019,5 hPa 0,0 mm 11,1 km/h (2 Bft) W-SW 254 ° 0 min 0,000 mm 0,0 UV-I 5 W/m² 2,3 °C 0,7 °C 12,9 km/h (3 Bft)
23.10.2017 08:06 3,6 °C 3,6 °C 91 % 1019,6 hPa 0,0 mm 6,9 km/h (2 Bft) SW 227 ° 0 min 0,000 mm 0,0 UV-I 5 W/m² 2,3 °C 1,8 °C 11,3 km/h (2 Bft)
23.10.2017 08:07 3,6 °C 3,6 °C 91 % 1019,5 hPa 0,0 mm 6,1 km/h (2 Bft) W-NW 298 ° 0 min 0,000 mm 0,0 UV-I 5 W/m² 2,3 °C 2,1 °C 11,3 km/h (2 Bft)
23.10.2017 08:08 3,6 °C 3,6 °C 91 % 1019,6 hPa 0,0 mm 7,5 km/h (2 Bft) W 262 ° 0 min 0,000 mm 0,0 UV-I 7 W/m² 2,3 °C 1,6 °C 12,9 km/h (3 Bft)
23.10.2017 08:09 3,6 °C 3,6 °C 91 % 1019,6 hPa 0,0 mm 5,4 km/h (1 Bft) W 278 ° 0 min 0,000 mm 0,0 UV-I 7 W/m² 2,3 °C 2,3 °C 11,3 km/h (2 Bft)
23.10.2017 08:10 3,6 °C 3,6 °C 91 % 1019,6 hPa 0,0 mm 6,9 km/h (2 Bft) W 263 ° 0 min 0,000 mm 0,0 UV-I 7 W/m² 2,3 °C 1,8 °C 12,9 km/h (3 Bft)
23.10.2017 08:11 3,6 °C 3,6 °C 91 % 1019,6 hPa 0,0 mm 9,8 km/h (2 Bft) W 268 ° 0 min 0,000 mm 0,0 UV-I 7 W/m² 2,3 °C 1,0 °C 14,5 km/h (3 Bft)
23.10.2017 08:12 3,7 °C 3,7 °C 91 % 1019,6 hPa 0,0 mm 5,7 km/h (1 Bft) W 260 ° 0 min 0,000 mm 0,0 UV-I 9 W/m² 2,4 °C 2,3 °C 6,4 km/h (2 Bft)
23.10.2017 08:13 3,6 °C 3,7 °C 91 % 1019,6 hPa 0,0 mm 8,7 km/h (2 Bft) W-SW 252 ° 0 min 0,000 mm 0,0 UV-I 9 W/m² 2,3 °C 1,3 °C 14,5 km/h (3 Bft)
23.10.2017 08:14 3,7 °C 3,7 °C 91 % 1019,6 hPa 0,0 mm 9,5 km/h (2 Bft) W-SW 250 ° 0 min 0,000 mm 0,0 UV-I 9 W/m² 2,4 °C 1,2 °C 16,1 km/h (3 Bft)
23.10.2017 08:15 3,7 °C 3,7 °C 91 % 1019,6 hPa 0,0 mm 10,5 km/h (2 Bft) W-SW 254 ° 0 min 0,000 mm 0,0 UV-I 9 W/m² 2,4 °C 1,0 °C 12,9 km/h (3 Bft)
23.10.2017 08:16 3,7 °C 3,7 °C 91 % 1019,6 hPa 0,0 mm 13,5 km/h (3 Bft) W 280 ° 0 min 0,000 mm 0,0 UV-I 9 W/m² 2,4 °C 0,4 °C 20,9 km/h (4 Bft)
23.10.2017 08:17 3,7 °C 3,7 °C 91 % 1019,6 hPa 0,0 mm 11,9 km/h (2 Bft) W-SW 255 ° 0 min 0,000 mm 0,0 UV-I 7 W/m² 2,4 °C 0,7 °C 19,3 km/h (3 Bft)
23.10.2017 08:18 3,7 °C 3,7 °C 91 % 1019,8 hPa 0,0 mm 12,4 km/h (3 Bft) W-SW 253 ° 0 min 0,000 mm 0,0 UV-I 7 W/m² 2,4 °C 0,6 °C 19,3 km/h (3 Bft)
23.10.2017 08:19 3,7 °C 3,7 °C 91 % 1019,8 hPa 0,0 mm 9,0 km/h (2 Bft) W-SW 257 ° 0 min 0,000 mm 0,0 UV-I 5 W/m² 2,4 °C 1,3 °C 12,9 km/h (3 Bft)
23.10.2017 08:20 3,7 °C 3,7 °C 91 % 1019,8 hPa 0,0 mm 11,3 km/h (2 Bft) W-SW 257 ° 0 min 0,000 mm 0,0 UV-I 5 W/m² 2,4 °C 0,8 °C 14,5 km/h (3 Bft)
23.10.2017 08:21 3,7 °C 3,7 °C 91 % 1019,9 hPa 0,0 mm 10,7 km/h (2 Bft) W 268 ° 0 min 0,000 mm 0,0 UV-I 5 W/m² 2,4 °C 0,9 °C 16,1 km/h (3 Bft)
23.10.2017 08:22 3,7 °C 3,7 °C 91 % 1019,8 hPa 0,0 mm 12,9 km/h (3 Bft) W 263 ° 0 min 0,000 mm 0,0 UV-I 5 W/m² 2,4 °C 0,5 °C 19,3 km/h (3 Bft)
23.10.2017 08:23 3,7 °C 3,7 °C 91 % 1019,9 hPa 0,2 mm 8,9 km/h (2 Bft) W-NW 283 ° 0 min 0,000 mm 0,0 UV-I 5 W/m² 2,4 °C 1,4 °C 14,5 km/h (3 Bft)
23.10.2017 08:24 3,7 °C 3,7 °C 91 % 1019,9 hPa 0,0 mm 9,4 km/h (2 Bft) W 273 ° 0 min 0,000 mm 0,0 UV-I 5 W/m² 2,4 °C 1,2 °C 12,9 km/h (3 Bft)
23.10.2017 08:25 3,7 °C 3,7 °C 91 % 1019,9 hPa 0,0 mm 10,2 km/h (2 Bft) W-SW 257 ° 0 min 0,000 mm 0,0 UV-I 5 W/m² 2,4 °C 1,1 °C 14,5 km/h (3 Bft)
23.10.2017 08:26 3,7 °C 3,7 °C 91 % 1019,9 hPa 0,2 mm 7,6 km/h (2 Bft) W 278 ° 0 min 0,000 mm 0,0 UV-I 5 W/m² 2,4 °C 1,7 °C 12,9 km/h (3 Bft)
23.10.2017 08:27 3,6 °C 3,7 °C 91 % 1019,9 hPa 0,0 mm 10,6 km/h (2 Bft) SW 234 ° 0 min 0,000 mm 0,0 UV-I 5 W/m² 2,3 °C 0,9 °C 16,1 km/h (3 Bft)
23.10.2017 08:28 3,6 °C 3,6 °C 91 % 1019,9 hPa 0,0 mm 13,9 km/h (3 Bft) W 267 ° 0 min 0,000 mm 0,0 UV-I 0 W/m² 2,3 °C 0,2 °C 16,1 km/h (3 Bft)
23.10.2017 08:29 3,6 °C 3,6 °C 92 % 1019,9 hPa 0,0 mm 10,7 km/h (2 Bft) W 280 ° 0 min 0,000 mm 0,0 UV-I 5 W/m² 2,4 °C 0,8 °C 14,5 km/h (3 Bft)
23.10.2017 08:30 3,6 °C 3,6 °C 91 % 1020,0 hPa 0,2 mm 7,3 km/h (2 Bft) W-NW 283 ° 0 min 0,000 mm 0,0 UV-I 5 W/m² 2,3 °C 1,7 °C 12,9 km/h (3 Bft)
23.10.2017 08:31 3,6 °C 3,6 °C 91 % 1019,9 hPa 0,0 mm 5,4 km/h (1 Bft) W 271 ° 0 min 0,000 mm 0,0 UV-I 5 W/m² 2,3 °C 2,3 °C 8,0 km/h (2 Bft)
23.10.2017 08:32 3,6 °C 3,6 °C 91 % 1019,9 hPa 0,0 mm 5,2 km/h (1 Bft) W-SW 255 ° 0 min 0,000 mm 0,0 UV-I 5 W/m² 2,3 °C 2,4 °C 11,3 km/h (2 Bft)
23.10.2017 08:33 3,6 °C 3,6 °C 91 % 1020,0 hPa 0,0 mm 10,5 km/h (2 Bft) W 277 ° 0 min 0,000 mm 0,0 UV-I 7 W/m² 2,3 °C 0,9 °C 12,9 km/h (3 Bft)
23.10.2017 08:34 3,6 °C 3,6 °C 92 % 1020,0 hPa 0,2 mm 7,7 km/h (2 Bft) W 269 ° 0 min 0,000 mm 0,0 UV-I 7 W/m² 2,4 °C 1,6 °C 11,3 km/h (2 Bft)
23.10.2017 08:35 3,5 °C 3,6 °C 92 % 1020,0 hPa 0,0 mm 4,7 km/h (1 Bft) W-NW 285 ° 0 min 0,000 mm 0,0 UV-I 7 W/m² 2,3 °C 2,5 °C 9,7 km/h (2 Bft)
23.10.2017 08:36 3,5 °C 3,6 °C 92 % 1020,0 hPa 0,0 mm 2,5 km/h (1 Bft) W-NW 294 ° 0 min 0,000 mm 0,0 UV-I 7 W/m² 2,3 °C 3,5 °C 6,4 km/h (2 Bft)
23.10.2017 08:37 3,6 °C 3,6 °C 92 % 1020,1 hPa 0,0 mm 3,6 km/h (1 Bft) W-NW 285 ° 0 min 0,000 mm 0,0 UV-I 7 W/m² 2,4 °C 3,6 °C 6,4 km/h (2 Bft)
23.10.2017 08:38 3,5 °C 3,6 °C 92 % 1020,0 hPa 0,0 mm 5,2 km/h (1 Bft) W 271 ° 0 min 0,000 mm 0,0 UV-I 7 W/m² 2,3 °C 2,3 °C 6,4 km/h (2 Bft)
23.10.2017 08:39 3,6 °C 3,6 °C 92 % 1020,0 hPa 0,0 mm 3,8 km/h (1 Bft) W-NW 283 ° 0 min 0,000 mm 0,0 UV-I 7 W/m² 2,4 °C 3,6 °C 6,4 km/h (2 Bft)
23.10.2017 08:40 3,5 °C 3,6 °C 92 % 1020,0 hPa 0,0 mm 2,1 km/h (1 Bft) W-NW 283 ° 0 min 0,000 mm 0,0 UV-I 7 W/m² 2,3 °C 3,5 °C 3,2 km/h (1 Bft)
23.10.2017 08:41 3,5 °C 3,5 °C 92 % 1020,0 hPa 0,0 mm 1,9 km/h (1 Bft) W-NW 283 ° 0 min 0,000 mm 0,0 UV-I 7 W/m² 2,3 °C 3,5 °C 3,2 km/h (1 Bft)
23.10.2017 08:42 3,5 °C 3,5 °C 92 % 1020,1 hPa 0,0 mm 2,7 km/h (1 Bft) W-NW 298 ° 0 min 0,000 mm 0,0 UV-I 7 W/m² 2,3 °C 3,5 °C 4,8 km/h (1 Bft)
23.10.2017 08:44 3,5 °C 3,5 °C 93 % 1020,1 hPa 0,0 mm 3,5 km/h (1 Bft) W-NW 285 ° 0 min 0,000 mm 0,0 UV-I 11 W/m² 2,5 °C 3,5 °C 6,4 km/h (2 Bft)
23.10.2017 08:45 3,5 °C 3,6 °C 92 % 1020,1 hPa 0,0 mm 5,6 km/h (1 Bft) W 271 ° 0 min 0,000 mm 0,0 UV-I 11 W/m² 2,3 °C 2,1 °C 9,7 km/h (2 Bft)
23.10.2017 08:46 3,5 °C 3,6 °C 92 % 1020,1 hPa 0,0 mm 4,6 km/h (1 Bft) W-NW 294 ° 0 min 0,000 mm 0,0 UV-I 9 W/m² 2,3 °C 2,6 °C 6,4 km/h (2 Bft)
23.10.2017 08:47 3,6 °C 3,6 °C 92 % 1020,0 hPa 0,0 mm 3,5 km/h (1 Bft) W 280 ° 0 min 0,000 mm 0,0 UV-I 9 W/m² 2,4 °C 3,6 °C 6,4 km/h (2 Bft)
23.10.2017 08:48 3,6 °C 3,6 °C 92 % 1020,0 hPa 0,0 mm 1,9 km/h (1 Bft) W 275 ° 0 min 0,000 mm 0,0 UV-I 11 W/m² 2,4 °C 3,6 °C 4,8 km/h (1 Bft)
23.10.2017 08:49 3,6 °C 3,6 °C 92 % 1020,0 hPa 0,0 mm 2,8 km/h (1 Bft) W-NW 296 ° 0 min 0,000 mm 0,0 UV-I 11 W/m² 2,4 °C 3,6 °C 4,8 km/h (1 Bft)
23.10.2017 08:50 3,6 °C 3,6 °C 93 % 1020,0 hPa 0,2 mm 2,5 km/h (1 Bft) W-NW 284 ° 0 min 0,000 mm 0,0 UV-I 9 W/m² 2,6 °C 3,6 °C 6,4 km/h (2 Bft)
23.10.2017 08:51 3,6 °C 3,6 °C 93 % 1020,1 hPa 0,0 mm 4,5 km/h (1 Bft) W 277 ° 0 min 0,000 mm 0,0 UV-I 9 W/m² 2,6 °C 3,6 °C 6,4 km/h (2 Bft)
23.10.2017 08:52 3,6 °C 3,6 °C 93 % 1020,1 hPa 0,0 mm 10,3 km/h (2 Bft) W 271 ° 0 min 0,000 mm 0,0 UV-I 9 W/m² 2,6 °C 0,9 °C 12,9 km/h (3 Bft)
23.10.2017 08:54 3,6 °C 3,6 °C 93 % 1020,1 hPa 0,0 mm 4,8 km/h (1 Bft) W-SW 258 ° 0 min 0,000 mm 0,0 UV-I 9 W/m² 2,6 °C 2,6 °C 11,3 km/h (2 Bft)
23.10.2017 08:55 3,6 °C 3,6 °C 93 % 1020,1 hPa 0,0 mm 7,1 km/h (2 Bft) NW 313 ° 0 min 0,000 mm 0,0 UV-I 9 W/m² 2,6 °C 1,8 °C 11,3 km/h (2 Bft)
23.10.2017 08:56 3,6 °C 3,6 °C 93 % 1020,1 hPa 0,0 mm 6,0 km/h (2 Bft) W-NW 291 ° 0 min 0,000 mm 0,0 UV-I 9 W/m² 2,6 °C 2,1 °C 11,3 km/h (2 Bft)
23.10.2017 08:57 3,6 °C 3,6 °C 93 % 1020,2 hPa 0,0 mm 2,7 km/h (1 Bft) W-NW 296 ° 0 min 0,000 mm 0,0 UV-I 9 W/m² 2,6 °C 3,6 °C 4,8 km/h (1 Bft)
23.10.2017 08:58 3,6 °C 3,6 °C 93 % 1020,1 hPa 0,0 mm 2,7 km/h (1 Bft) W-NW 303 ° 0 min 0,000 mm 0,0 UV-I 11 W/m² 2,6 °C 3,6 °C 4,8 km/h (1 Bft)
23.10.2017 08:59 3,6 °C 3,6 °C 93 % 1020,2 hPa 0,2 mm 3,5 km/h (1 Bft) W-NW 284 ° 0 min 0,000 mm 0,0 UV-I 11 W/m² 2,6 °C 3,6 °C 4,8 km/h (1 Bft)
23.10.2017 09:00 3,6 °C 3,6 °C 93 % 1020,2 hPa 0,0 mm 4,3 km/h (1 Bft) W 269 ° 0 min 0,000 mm 0,0 UV-I 11 W/m² 2,6 °C 3,6 °C 6,4 km/h (2 Bft)
23.10.2017 09:01 3,6 °C 3,6 °C 93 % 1020,2 hPa 0,0 mm 2,3 km/h (1 Bft) W 271 ° 0 min 0,000 mm 0,0 UV-I 9 W/m² 2,6 °C 3,6 °C 4,8 km/h (1 Bft)
23.10.2017 09:02 3,6 °C 3,6 °C 93 % 1020,2 hPa 0,0 mm 0,9 km/h (0 Bft) W 273 ° 0 min 0,000 mm 0,0 UV-I 9 W/m² 2,6 °C 3,6 °C 4,8 km/h (1 Bft)
23.10.2017 09:03 3,6 °C 3,6 °C 93 % 1020,2 hPa 0,2 mm 2,6 km/h (1 Bft) W-NW 289 ° 0 min 0,000 mm 0,0 UV-I 9 W/m² 2,6 °C 3,6 °C 3,2 km/h (1 Bft)
23.10.2017 09:04 3,6 °C 3,6 °C 93 % 1020,2 hPa 0,0 mm 2,6 km/h (1 Bft) W-NW 296 ° 0 min 0,000 mm 0,0 UV-I 11 W/m² 2,6 °C 3,6 °C 4,8 km/h (1 Bft)
23.10.2017 09:05 3,6 °C 3,6 °C 93 % 1020,2 hPa 0,0 mm 3,0 km/h (1 Bft) W-NW 296 ° 0 min 0,000 mm 0,0 UV-I 11 W/m² 2,6 °C 3,6 °C 4,8 km/h (1 Bft)
23.10.2017 09:06 3,6 °C 3,6 °C 93 % 1020,2 hPa 0,0 mm 4,2 km/h (1 Bft) W-NW 288 ° 0 min 0,000 mm 0,0 UV-I 12 W/m² 2,6 °C 3,6 °C 6,4 km/h (2 Bft)
23.10.2017 09:07 3,6 °C 3,6 °C 93 % 1020,2 hPa 0,0 mm 0,7 km/h (0 Bft) W-NW 288 ° 0 min 0,000 mm 0,0 UV-I 16 W/m² 2,6 °C 3,6 °C 4,8 km/h (1 Bft)
23.10.2017 09:08 3,5 °C 3,6 °C 93 % 1020,2 hPa 0,0 mm 0,8 km/h (0 Bft) N-NO 12 ° 0 min 0,000 mm 0,0 UV-I 16 W/m² 2,5 °C 3,5 °C 3,2 km/h (1 Bft)
23.10.2017 09:09 3,5 °C 3,6 °C 93 % 1020,3 hPa 0,0 mm 2,5 km/h (1 Bft) W 276 ° 0 min 0,000 mm 0,0 UV-I 18 W/m² 2,5 °C 3,5 °C 4,8 km/h (1 Bft)
23.10.2017 09:10 3,5 °C 3,5 °C 93 % 1020,2 hPa 0,0 mm 1,4 km/h (1 Bft) W 276 ° 0 min 0,000 mm 0,0 UV-I 16 W/m² 2,5 °C 3,5 °C 3,2 km/h (1 Bft)
23.10.2017 09:11 3,5 °C 3,5 °C 93 % 1020,3 hPa 0,0 mm 4,0 km/h (1 Bft) W-NW 296 ° 0 min 0,000 mm 0,0 UV-I 16 W/m² 2,5 °C 3,5 °C 4,8 km/h (1 Bft)
23.10.2017 09:12 3,5 °C 3,5 °C 93 % 1020,3 hPa 0,2 mm 2,4 km/h (1 Bft) W-NW 301 ° 0 min 0,000 mm 0,0 UV-I 18 W/m² 2,5 °C 3,5 °C 4,8 km/h (1 Bft)
23.10.2017 09:13 3,5 °C 3,6 °C 93 % 1020,3 hPa 0,0 mm 2,1 km/h (1 Bft) W 273 ° 0 min 0,000 mm 0,0 UV-I 18 W/m² 2,5 °C 3,5 °C 4,8 km/h (1 Bft)
23.10.2017 09:14 3,5 °C 3,6 °C 93 % 1020,3 hPa 0,0 mm 4,5 km/h (1 Bft) W 259 ° 0 min 0,000 mm 0,0 UV-I 16 W/m² 2,5 °C 3,5 °C 4,8 km/h (1 Bft)
23.10.2017 09:15 3,6 °C 3,6 °C 93 % 1020,3 hPa 0,0 mm 5,1 km/h (1 Bft) W-NW 298 ° 0 min 0,000 mm 0,0 UV-I 16 W/m² 2,6 °C 2,5 °C 6,4 km/h (2 Bft)
23.10.2017 09:16 3,6 °C 3,6 °C 93 % 1020,3 hPa 0,0 mm 4,0 km/h (1 Bft) W 271 ° 0 min 0,000 mm 0,0 UV-I 16 W/m² 2,6 °C 3,6 °C 6,4 km/h (2 Bft)
23.10.2017 09:17 3,6 °C 3,6 °C 93 % 1020,3 hPa 0,0 mm 3,8 km/h (1 Bft) W 262 ° 0 min 0,000 mm 0,0 UV-I 14 W/m² 2,6 °C 3,6 °C 9,7 km/h (2 Bft)
23.10.2017 09:18 3,6 °C 3,6 °C 93 % 1020,3 hPa 0,0 mm 6,1 km/h (2 Bft) W-NW 294 ° 0 min 0,000 mm 0,0 UV-I 18 W/m² 2,6 °C 2,1 °C 9,7 km/h (2 Bft)
23.10.2017 09:19 3,6 °C 3,6 °C 93 % 1020,3 hPa 0,0 mm 6,6 km/h (2 Bft) W 275 ° 0 min 0,000 mm 0,0 UV-I 21 W/m² 2,6 °C 1,9 °C 9,7 km/h (2 Bft)
23.10.2017 09:20 3,6 °C 3,6 °C 93 % 1020,3 hPa 0,0 mm 5,8 km/h (2 Bft) W-NW 283 ° 0 min 0,000 mm 0,0 UV-I 23 W/m² 2,6 °C 2,2 °C 9,7 km/h (2 Bft)
23.10.2017 09:21 3,6 °C 3,6 °C 93 % 1020,4 hPa 0,2 mm 3,3 km/h (1 Bft) W 271 ° 0 min 0,000 mm 0,0 UV-I 18 W/m² 2,6 °C 3,6 °C 4,8 km/h (1 Bft)
23.10.2017 09:22 3,6 °C 3,6 °C 93 % 1020,4 hPa 0,0 mm 6,2 km/h (2 Bft) W-SW 252 ° 0 min 0,000 mm 0,0 UV-I 16 W/m² 2,6 °C 2,0 °C 11,3 km/h (2 Bft)
23.10.2017 09:23 3,7 °C 3,7 °C 93 % 1020,4 hPa 0,0 mm 1,2 km/h (1 Bft) W-SW 252 ° 0 min 0,000 mm 0,0 UV-I 18 W/m² 2,7 °C 3,7 °C 3,2 km/h (1 Bft)
23.10.2017 09:24 3,6 °C 3,7 °C 93 % 1020,4 hPa 0,0 mm 7,7 km/h (2 Bft) W-NW 282 ° 0 min 0,000 mm 0,0 UV-I 18 W/m² 2,6 °C 1,6 °C 11,3 km/h (2 Bft)
23.10.2017 09:25 3,6 °C 3,7 °C 93 % 1020,4 hPa 0,2 mm 10,2 km/h (2 Bft) NW 304 ° 0 min 0,000 mm 0,0 UV-I 16 W/m² 2,6 °C 0,9 °C 17,7 km/h (3 Bft)
23.10.2017 09:26 3,7 °C 3,7 °C 93 % 1020,4 hPa 0,0 mm 9,0 km/h (2 Bft) W 280 ° 0 min 0,000 mm 0,0 UV-I 14 W/m² 2,7 °C 1,3 °C 14,5 km/h (3 Bft)
23.10.2017 09:27 3,7 °C 3,7 °C 93 % 1020,4 hPa 0,0 mm 5,1 km/h (1 Bft) W-NW 292 ° 0 min 0,000 mm 0,0 UV-I 18 W/m² 2,7 °C 2,6 °C 11,3 km/h (2 Bft)
23.10.2017 09:28 3,7 °C 3,7 °C 93 % 1020,4 hPa 0,0 mm 4,0 km/h (1 Bft) W-NW 302 ° 0 min 0,000 mm 0,0 UV-I 18 W/m² 2,7 °C 3,7 °C 6,4 km/h (2 Bft)
23.10.2017 09:29 3,7 °C 3,7 °C 93 % 1020,4 hPa 0,0 mm 5,0 km/h (1 Bft) W 280 ° 0 min 0,000 mm 0,0 UV-I 18 W/m² 2,7 °C 2,6 °C 6,4 km/h (2 Bft)
23.10.2017 09:30 3,7 °C 3,7 °C 93 % 1020,4 hPa 0,0 mm 4,5 km/h (1 Bft) W-NW 292 ° 0 min 0,000 mm 0,0 UV-I 19 W/m² 2,7 °C 3,7 °C 8,0 km/h (2 Bft)
23.10.2017 09:31 3,7 °C 3,7 °C 93 % 1020,4 hPa 0,0 mm 7,7 km/h (2 Bft) W-NW 288 ° 0 min 0,000 mm 0,0 UV-I 19 W/m² 2,7 °C 1,7 °C 12,9 km/h (3 Bft)
23.10.2017 09:32 3,7 °C 3,7 °C 93 % 1020,5 hPa 0,2 mm 4,1 km/h (1 Bft) W 269 ° 0 min 0,000 mm 0,0 UV-I 19 W/m² 2,7 °C 3,7 °C 8,0 km/h (2 Bft)
23.10.2017 09:33 3,7 °C 3,7 °C 93 % 1020,6 hPa 0,0 mm 10,5 km/h (2 Bft) W-NW 297 ° 0 min 0,000 mm 0,0 UV-I 19 W/m² 2,7 °C 1,0 °C 14,5 km/h (3 Bft)
23.10.2017 09:34 3,7 °C 3,7 °C 93 % 1020,6 hPa 0,0 mm 5,0 km/h (1 Bft) W-NW 293 ° 0 min 0,000 mm 0,0 UV-I 21 W/m² 2,7 °C 2,6 °C 6,4 km/h (2 Bft)
23.10.2017 09:35 3,7 °C 3,7 °C 93 % 1020,5 hPa 0,0 mm 8,9 km/h (2 Bft) W-SW 258 ° 0 min 0,000 mm 0,0 UV-I 23 W/m² 2,7 °C 1,4 °C 14,5 km/h (3 Bft)
23.10.2017 09:36 3,7 °C 3,7 °C 93 % 1020,5 hPa 0,0 mm 9,3 km/h (2 Bft) W 274 ° 0 min 0,000 mm 0,0 UV-I 23 W/m² 2,7 °C 1,3 °C 14,5 km/h (3 Bft)
23.10.2017 09:37 3,7 °C 3,7 °C 93 % 1020,5 hPa 0,0 mm 8,8 km/h (2 Bft) NW 311 ° 0 min 0,000 mm 0,0 UV-I 25 W/m² 2,7 °C 1,4 °C 12,9 km/h (3 Bft)
23.10.2017 09:38 3,7 °C 3,7 °C 93 % 1020,5 hPa 0,2 mm 7,1 km/h (2 Bft) W 275 ° 0 min 0,000 mm 0,0 UV-I 33 W/m² 2,7 °C 1,9 °C 11,3 km/h (2 Bft)
23.10.2017 09:39 3,7 °C 3,7 °C 93 % 1020,5 hPa 0,0 mm 4,4 km/h (1 Bft) W-NW 284 ° 0 min 0,000 mm 0,0 UV-I 39 W/m² 2,7 °C 3,7 °C 8,0 km/h (2 Bft)
23.10.2017 09:40 3,8 °C 3,8 °C 93 % 1020,5 hPa 0,0 mm 3,0 km/h (1 Bft) W-SW 249 ° 0 min 0,000 mm 0,0 UV-I 42 W/m² 2,8 °C 3,8 °C 4,8 km/h (1 Bft)
23.10.2017 09:41 3,8 °C 3,8 °C 93 % 1020,5 hPa 0,0 mm 4,4 km/h (1 Bft) W 268 ° 0 min 0,000 mm 0,0 UV-I 42 W/m² 2,8 °C 3,8 °C 6,4 km/h (2 Bft)
23.10.2017 09:42 3,8 °C 3,8 °C 93 % 1020,5 hPa 0,0 mm 6,3 km/h (2 Bft) W 269 ° 0 min 0,000 mm 0,0 UV-I 40 W/m² 2,8 °C 2,2 °C 11,3 km/h (2 Bft)
23.10.2017 09:43 3,8 °C 3,8 °C 93 % 1020,5 hPa 0,0 mm 8,9 km/h (2 Bft) W 274 ° 0 min 0,000 mm 0,0 UV-I 40 W/m² 2,8 °C 1,5 °C 14,5 km/h (3 Bft)
23.10.2017 09:44 3,8 °C 3,8 °C 93 % 1020,5 hPa 0,0 mm 10,1 km/h (2 Bft) W 268 ° 0 min 0,000 mm 0,0 UV-I 40 W/m² 2,8 °C 1,2 °C 12,9 km/h (3 Bft)
23.10.2017 09:45 3,8 °C 3,8 °C 93 % 1020,5 hPa 0,0 mm 6,8 km/h (2 Bft) W-NW 294 ° 0 min 0,000 mm 0,0 UV-I 44 W/m² 2,8 °C 2,1 °C 12,9 km/h (3 Bft)
23.10.2017 09:46 3,8 °C 3,9 °C 93 % 1020,5 hPa 0,0 mm 9,5 km/h (2 Bft) W-SW 258 ° 0 min 0,000 mm 0,0 UV-I 46 W/m² 2,8 °C 1,3 °C 16,1 km/h (3 Bft)
23.10.2017 09:47 3,9 °C 3,9 °C 93 % 1020,5 hPa 0,2 mm 11,9 km/h (2 Bft) W 275 ° 0 min 0,000 mm 0,0 UV-I 46 W/m² 2,9 °C 0,9 °C 14,5 km/h (3 Bft)
23.10.2017 09:49 3,9 °C 3,9 °C 93 % 1020,5 hPa 0,0 mm 8,9 km/h (2 Bft) W-SW 256 ° 0 min 0,000 mm 0,0 UV-I 47 W/m² 2,9 °C 1,6 °C 16,1 km/h (3 Bft)
23.10.2017 09:50 3,9 °C 3,9 °C 93 % 1020,5 hPa 0,0 mm 8,0 km/h (2 Bft) SW 236 ° 0 min 0,000 mm 0,0 UV-I 46 W/m² 2,9 °C 1,8 °C 12,9 km/h (3 Bft)
23.10.2017 09:51 3,9 °C 3,9 °C 93 % 1020,5 hPa 0,0 mm 8,9 km/h (2 Bft) W-SW 238 ° 0 min 0,000 mm 0,0 UV-I 49 W/m² 2,9 °C 1,6 °C 16,1 km/h (3 Bft)
23.10.2017 09:52 3,9 °C 3,9 °C 93 % 1020,5 hPa 0,0 mm 8,9 km/h (2 Bft) SW 234 ° 0 min 0,000 mm 0,0 UV-I 49 W/m² 2,9 °C 1,6 °C 12,9 km/h (3 Bft)
23.10.2017 09:53 3,9 °C 3,9 °C 93 % 1020,5 hPa 0,0 mm 7,1 km/h (2 Bft) W-SW 255 ° 0 min 0,000 mm 0,0 UV-I 44 W/m² 2,9 °C 2,1 °C 14,5 km/h (3 Bft)
23.10.2017 09:54 4,0 °C 4,0 °C 93 % 1020,6 hPa 0,0 mm 11,2 km/h (2 Bft) W 274 ° 0 min 0,000 mm 0,0 UV-I 47 W/m² 3,0 °C 1,2 °C 14,5 km/h (3 Bft)
23.10.2017 09:55 4,0 °C 4,0 °C 93 % 1020,6 hPa 0,0 mm 8,4 km/h (2 Bft) W-NW 282 ° 0 min 0,000 mm 0,0 UV-I 49 W/m² 3,0 °C 1,9 °C 11,3 km/h (2 Bft)
23.10.2017 09:56 4,0 °C 4,0 °C 93 % 1020,6 hPa 0,0 mm 9,3 km/h (2 Bft) W-NW 291 ° 0 min 0,000 mm 0,0 UV-I 54 W/m² 3,0 °C 1,6 °C 11,3 km/h (2 Bft)
23.10.2017 09:57 4,0 °C 4,0 °C 93 % 1020,6 hPa 0,0 mm 10,1 km/h (2 Bft) W 281 ° 0 min 0,000 mm 0,0 UV-I 58 W/m² 3,0 °C 1,4 °C 12,9 km/h (3 Bft)
23.10.2017 09:58 4,0 °C 4,0 °C 93 % 1020,7 hPa 0,0 mm 12,2 km/h (2 Bft) W 275 ° 0 min 0,000 mm 0,0 UV-I 54 W/m² 3,0 °C 1,0 °C 17,7 km/h (3 Bft)
23.10.2017 09:59 4,1 °C 4,1 °C 93 % 1020,6 hPa 0,0 mm 9,2 km/h (2 Bft) W-SW 250 ° 0 min 0,000 mm 0,0 UV-I 49 W/m² 3,1 °C 1,8 °C 14,5 km/h (3 Bft)
23.10.2017 10:00 4,1 °C 4,1 °C 93 % 1020,7 hPa 0,0 mm 7,8 km/h (2 Bft) W-SW 244 ° 0 min 0,000 mm 0,0 UV-I 49 W/m² 3,1 °C 2,1 °C 12,9 km/h (3 Bft)
23.10.2017 10:01 4,1 °C 4,1 °C 93 % 1020,6 hPa 0,0 mm 14,5 km/h (3 Bft) W 267 ° 0 min 0,026 mm 0,0 UV-I 49 W/m² 3,1 °C 0,7 °C 19,3 km/h (3 Bft)
23.10.2017 10:02 4,1 °C 4,1 °C 93 % 1020,6 hPa 0,0 mm 8,4 km/h (2 Bft) W 261 ° 0 min 0,000 mm 0,0 UV-I 54 W/m² 3,1 °C 2,0 °C 14,5 km/h (3 Bft)
23.10.2017 10:03 4,1 °C 4,1 °C 93 % 1020,6 hPa 0,0 mm 14,9 km/h (3 Bft) W-NW 290 ° 0 min 0,000 mm 0,0 UV-I 51 W/m² 3,1 °C 0,7 °C 24,1 km/h (4 Bft)
23.10.2017 10:04 4,1 °C 4,1 °C 93 % 1020,6 hPa 0,0 mm 10,0 km/h (2 Bft) W-SW 252 ° 0 min 0,000 mm 0,0 UV-I 46 W/m² 3,1 °C 1,6 °C 16,1 km/h (3 Bft)
23.10.2017 10:05 4,1 °C 4,1 °C 93 % 1020,6 hPa 0,0 mm 10,0 km/h (2 Bft) W-NW 295 ° 0 min 0,000 mm 0,0 UV-I 46 W/m² 3,1 °C 1,6 °C 12,9 km/h (3 Bft)
23.10.2017 10:06 4,1 °C 4,1 °C 93 % 1020,6 hPa 0,0 mm 12,2 km/h (2 Bft) W-SW 252 ° 0 min 0,000 mm 0,0 UV-I 49 W/m² 3,1 °C 1,1 °C 16,1 km/h (3 Bft)
23.10.2017 10:07 4,1 °C 4,1 °C 93 % 1020,6 hPa 0,0 mm 13,6 km/h (3 Bft) W 265 ° 0 min 0,000 mm 0,0 UV-I 58 W/m² 3,1 °C 0,9 °C 20,9 km/h (4 Bft)
23.10.2017 10:08 4,1 °C 4,1 °C 92 % 1020,7 hPa 0,0 mm 11,7 km/h (2 Bft) W 263 ° 0 min 0,000 mm 0,0 UV-I 47 W/m² 2,9 °C 1,2 °C 14,5 km/h (3 Bft)
23.10.2017 10:09 4,2 °C 4,2 °C 92 % 1020,6 hPa 0,0 mm 10,7 km/h (2 Bft) W-NW 296 ° 0 min 0,000 mm 0,0 UV-I 44 W/m² 3,0 °C 1,6 °C 16,1 km/h (3 Bft)
23.10.2017 10:10 4,1 °C 4,2 °C 92 % 1020,6 hPa 0,0 mm 6,1 km/h (2 Bft) W 278 ° 0 min 0,000 mm 0,0 UV-I 46 W/m² 2,9 °C 2,7 °C 9,7 km/h (2 Bft)
23.10.2017 10:11 4,2 °C 4,2 °C 92 % 1020,7 hPa 0,0 mm 7,8 km/h (2 Bft) W-NW 300 ° 0 min 0,000 mm 0,0 UV-I 53 W/m² 3,0 °C 2,2 °C 11,3 km/h (2 Bft)
23.10.2017 10:12 4,2 °C 4,2 °C 92 % 1020,7 hPa 0,0 mm 6,9 km/h (2 Bft) W 265 ° 0 min 0,000 mm 0,0 UV-I 51 W/m² 3,0 °C 2,5 °C 12,9 km/h (3 Bft)
23.10.2017 10:13 4,2 °C 4,2 °C 92 % 1020,7 hPa 0,0 mm 12,5 km/h (3 Bft) W-SW 246 ° 0 min 0,000 mm 0,0 UV-I 54 W/m² 3,0 °C 1,2 °C 17,7 km/h (3 Bft)
23.10.2017 10:14 4,2 °C 4,2 °C 92 % 1020,7 hPa 0,0 mm 10,2 km/h (2 Bft) W-NW 289 ° 0 min 0,000 mm 0,0 UV-I 54 W/m² 3,0 °C 1,7 °C 17,7 km/h (3 Bft)
23.10.2017 10:15 4,2 °C 4,2 °C 92 % 1020,7 hPa 0,0 mm 10,0 km/h (2 Bft) W-SW 248 ° 0 min 0,000 mm 0,0 UV-I 54 W/m² 3,0 °C 1,7 °C 16,1 km/h (3 Bft)
23.10.2017 10:16 4,2 °C 4,2 °C 92 % 1020,7 hPa 0,0 mm 9,1 km/h (2 Bft) W-SW 240 ° 0 min 0,000 mm 0,0 UV-I 47 W/m² 3,0 °C 1,9 °C 17,7 km/h (3 Bft)
23.10.2017 10:17 4,2 °C 4,2 °C 92 % 1020,8 hPa 0,0 mm 8,4 km/h (2 Bft) W 259 ° 0 min 0,000 mm 0,0 UV-I 49 W/m² 3,0 °C 2,1 °C 12,9 km/h (3 Bft)
23.10.2017 10:18 4,2 °C 4,2 °C 92 % 1020,7 hPa 0,0 mm 7,9 km/h (2 Bft) W 260 ° 0 min 0,000 mm 0,0 UV-I 53 W/m² 3,0 °C 2,2 °C 14,5 km/h (3 Bft)
23.10.2017 10:19 4,2 °C 4,2 °C 92 % 1020,7 hPa 0,0 mm 9,8 km/h (2 Bft) W 263 ° 0 min 0,000 mm 0,0 UV-I 53 W/m² 3,0 °C 1,7 °C 14,5 km/h (3 Bft)
23.10.2017 10:20 4,2 °C 4,2 °C 92 % 1020,8 hPa 0,0 mm 9,5 km/h (2 Bft) SW 229 ° 0 min 0,000 mm 0,0 UV-I 54 W/m² 3,0 °C 1,8 °C 19,3 km/h (3 Bft)
23.10.2017 10:21 4,2 °C 4,2 °C 92 % 1020,7 hPa 0,0 mm 12,3 km/h (3 Bft) W-SW 255 ° 0 min 0,000 mm 0,0 UV-I 54 W/m² 3,0 °C 1,2 °C 16,1 km/h (3 Bft)
23.10.2017 10:22 4,2 °C 4,2 °C 92 % 1020,7 hPa 0,0 mm 6,8 km/h (2 Bft) W-NW 287 ° 0 min 0,000 mm 0,5 UV-I 63 W/m² 3,0 °C 2,5 °C 12,9 km/h (3 Bft)
23.10.2017 10:23 4,2 °C 4,2 °C 92 % 1020,7 hPa 0,0 mm 12,4 km/h (3 Bft) W 275 ° 0 min 0,000 mm 0,5 UV-I 70 W/m² 3,0 °C 1,2 °C 16,1 km/h (3 Bft)
23.10.2017 10:24 4,2 °C 4,2 °C 92 % 1020,8 hPa 0,0 mm 13,2 km/h (3 Bft) W-NW 295 ° 0 min 0,000 mm 0,5 UV-I 65 W/m² 3,0 °C 1,1 °C 19,3 km/h (3 Bft)
23.10.2017 10:25 4,2 °C 4,2 °C 92 % 1020,7 hPa 0,2 mm 10,8 km/h (2 Bft) W 266 ° 0 min 0,000 mm 0,0 UV-I 63 W/m² 3,0 °C 1,5 °C 12,9 km/h (3 Bft)
23.10.2017 10:26 4,2 °C 4,2 °C 92 % 1020,7 hPa 0,0 mm 13,3 km/h (3 Bft) W 280 ° 0 min 0,000 mm 0,5 UV-I 56 W/m² 3,0 °C 1,0 °C 19,3 km/h (3 Bft)
23.10.2017 10:27 4,2 °C 4,2 °C 92 % 1020,8 hPa 0,0 mm 15,9 km/h (3 Bft) W-SW 252 ° 0 min 0,000 mm 0,0 UV-I 53 W/m² 3,0 °C 0,6 °C 24,1 km/h (4 Bft)
23.10.2017 10:28 4,2 °C 4,2 °C 92 % 1020,7 hPa 0,0 mm 12,5 km/h (3 Bft) W-SW 257 ° 0 min 0,000 mm 0,0 UV-I 49 W/m² 3,0 °C 1,2 °C 19,3 km/h (3 Bft)
23.10.2017 10:29 4,2 °C 4,2 °C 92 % 1020,8 hPa 0,0 mm 9,1 km/h (2 Bft) W 279 ° 0 min 0,000 mm 0,0 UV-I 44 W/m² 3,0 °C 1,9 °C 16,1 km/h (3 Bft)
23.10.2017 10:30 4,2 °C 4,2 °C 92 % 1020,7 hPa 0,0 mm 13,4 km/h (3 Bft) W 264 ° 0 min 0,000 mm 0,0 UV-I 44 W/m² 3,0 °C 1,0 °C 19,3 km/h (3 Bft)
23.10.2017 10:31 4,2 °C 4,2 °C 92 % 1020,8 hPa 0,0 mm 16,4 km/h (3 Bft) W-SW 258 ° 0 min 0,000 mm 0,0 UV-I 47 W/m² 3,0 °C 0,5 °C 20,9 km/h (4 Bft)
23.10.2017 10:32 4,2 °C 4,2 °C 92 % 1020,8 hPa 0,0 mm 14,3 km/h (3 Bft) W 270 ° 0 min 0,000 mm 0,0 UV-I 53 W/m² 3,0 °C 0,9 °C 17,7 km/h (3 Bft)
23.10.2017 10:33 4,2 °C 4,2 °C 92 % 1020,8 hPa 0,0 mm 7,0 km/h (2 Bft) W 265 ° 0 min 0,000 mm 0,0 UV-I 56 W/m² 3,0 °C 2,5 °C 11,3 km/h (2 Bft)
23.10.2017 10:34 4,1 °C 4,2 °C 92 % 1020,8 hPa 0,0 mm 6,2 km/h (2 Bft) W-SW 258 ° 0 min 0,000 mm 0,0 UV-I 62 W/m² 2,9 °C 2,6 °C 12,9 km/h (3 Bft)
23.10.2017 10:35 4,2 °C 4,2 °C 92 % 1020,8 hPa 0,0 mm 4,5 km/h (1 Bft) W 263 ° 0 min 0,000 mm 0,5 UV-I 69 W/m² 3,0 °C 4,2 °C 11,3 km/h (2 Bft)
23.10.2017 10:36 4,2 °C 4,2 °C 92 % 1020,8 hPa 0,0 mm 11,1 km/h (2 Bft) W 278 ° 0 min 0,000 mm 0,5 UV-I 74 W/m² 3,0 °C 1,5 °C 16,1 km/h (3 Bft)
23.10.2017 10:37 4,2 °C 4,2 °C 92 % 1020,8 hPa 0,0 mm 14,0 km/h (3 Bft) W-SW 258 ° 0 min 0,000 mm 0,5 UV-I 74 W/m² 3,0 °C 0,9 °C 17,7 km/h (3 Bft)
23.10.2017 10:38 4,2 °C 4,2 °C 92 % 1020,8 hPa 0,0 mm 11,1 km/h (2 Bft) W-NW 292 ° 0 min 0,000 mm 0,5 UV-I 69 W/m² 3,0 °C 1,5 °C 14,5 km/h (3 Bft)
23.10.2017 10:39 4,2 °C 4,2 °C 92 % 1020,8 hPa 0,0 mm 7,1 km/h (2 Bft) W-SW 244 ° 0 min 0,000 mm 0,5 UV-I 70 W/m² 3,0 °C 2,5 °C 12,9 km/h (3 Bft)
23.10.2017 10:40 4,2 °C 4,2 °C 92 % 1020,8 hPa 0,0 mm 8,2 km/h (2 Bft) W 260 ° 0 min 0,000 mm 0,5 UV-I 74 W/m² 3,0 °C 2,1 °C 12,9 km/h (3 Bft)
23.10.2017 10:41 4,2 °C 4,2 °C 92 % 1020,9 hPa 0,0 mm 13,5 km/h (3 Bft) W-NW 284 ° 0 min 0,000 mm 0,5 UV-I 77 W/m² 3,0 °C 1,0 °C 16,1 km/h (3 Bft)
23.10.2017 10:42 4,2 °C 4,2 °C 92 % 1020,9 hPa 0,0 mm 11,5 km/h (2 Bft) W-SW 257 ° 0 min 0,000 mm 0,6 UV-I 77 W/m² 3,0 °C 1,4 °C 17,7 km/h (3 Bft)
23.10.2017 10:43 4,2 °C 4,2 °C 92 % 1020,9 hPa 0,0 mm 14,2 km/h (3 Bft) W 265 ° 0 min 0,000 mm 0,6 UV-I 77 W/m² 3,0 °C 0,9 °C 19,3 km/h (3 Bft)
23.10.2017 10:44 4,3 °C 4,3 °C 92 % 1020,9 hPa 0,0 mm 6,2 km/h (2 Bft) SW 233 ° 0 min 0,000 mm 0,6 UV-I 77 W/m² 3,1 °C 2,9 °C 9,7 km/h (2 Bft)
23.10.2017 10:45 4,2 °C 4,3 °C 92 % 1020,9 hPa 0,0 mm 10,1 km/h (2 Bft) W-SW 250 ° 0 min 0,000 mm 0,6 UV-I 83 W/m² 3,0 °C 1,7 °C 14,5 km/h (3 Bft)
23.10.2017 10:46 4,3 °C 4,3 °C 92 % 1020,9 hPa 0,0 mm 12,3 km/h (3 Bft) W 268 ° 0 min 0,000 mm 0,7 UV-I 93 W/m² 3,1 °C 1,4 °C 17,7 km/h (3 Bft)
23.10.2017 10:47 4,3 °C 4,3 °C 92 % 1020,9 hPa 0,0 mm 12,2 km/h (2 Bft) W-NW 284 ° 0 min 0,000 mm 0,8 UV-I 102 W/m² 3,1 °C 1,4 °C 16,1 km/h (3 Bft)
23.10.2017 10:48 4,3 °C 4,3 °C 92 % 1021,0 hPa 0,0 mm 9,9 km/h (2 Bft) W 261 ° 0 min 0,000 mm 0,8 UV-I 107 W/m² 3,1 °C 1,8 °C 16,1 km/h (3 Bft)
23.10.2017 10:49 4,3 °C 4,3 °C 92 % 1021,0 hPa 0,0 mm 13,6 km/h (3 Bft) W 263 ° 0 min 0,000 mm 0,8 UV-I 105 W/m² 3,1 °C 1,1 °C 19,3 km/h (3 Bft)
23.10.2017 10:50 4,4 °C 4,4 °C 92 % 1021,0 hPa 0,0 mm 12,4 km/h (3 Bft) W-NW 282 ° 0 min 0,000 mm 0,8 UV-I 104 W/m² 3,2 °C 1,5 °C 17,7 km/h (3 Bft)
23.10.2017 10:51 4,4 °C 4,4 °C 92 % 1021,0 hPa 0,0 mm 10,7 km/h (2 Bft) W-SW 254 ° 0 min 0,000 mm 0,7 UV-I 102 W/m² 3,2 °C 1,8 °C 14,5 km/h (3 Bft)
23.10.2017 10:52 4,4 °C 4,4 °C 92 % 1020,9 hPa 0,0 mm 3,2 km/h (1 Bft) W-SW 251 ° 0 min 0,000 mm 0,7 UV-I 98 W/m² 3,2 °C 4,4 °C 8,0 km/h (2 Bft)
23.10.2017 10:53 4,3 °C 4,4 °C 92 % 1021,0 hPa 0,0 mm 11,7 km/h (2 Bft) SW 236 ° 0 min 0,000 mm 0,7 UV-I 97 W/m² 3,1 °C 1,5 °C 19,3 km/h (3 Bft)
23.10.2017 10:54 4,4 °C 4,4 °C 92 % 1021,0 hPa 0,0 mm 9,3 km/h (2 Bft) S 175 ° 0 min 0,000 mm 0,7 UV-I 97 W/m² 3,2 °C 2,1 °C 17,7 km/h (3 Bft)
23.10.2017 10:55 4,4 °C 4,4 °C 92 % 1021,0 hPa 0,0 mm 7,6 km/h (2 Bft) W-SW 254 ° 0 min 0,000 mm 0,8 UV-I 105 W/m² 3,2 °C 2,5 °C 14,5 km/h (3 Bft)
23.10.2017 10:56 4,4 °C 4,4 °C 92 % 1021,0 hPa 0,0 mm 9,9 km/h (2 Bft) W 268 ° 0 min 0,000 mm 0,8 UV-I 109 W/m² 3,2 °C 2,0 °C 16,1 km/h (3 Bft)
23.10.2017 10:57 4,4 °C 4,4 °C 92 % 1021,0 hPa 0,0 mm 10,7 km/h (2 Bft) W 275 ° 0 min 0,000 mm 0,8 UV-I 111 W/m² 3,2 °C 1,8 °C 16,1 km/h (3 Bft)
23.10.2017 10:58 4,4 °C 4,4 °C 92 % 1021,0 hPa 0,0 mm 10,6 km/h (2 Bft) W 262 ° 0 min 0,000 mm 0,8 UV-I 113 W/m² 3,2 °C 1,8 °C 16,1 km/h (3 Bft)
23.10.2017 10:59 4,5 °C 4,5 °C 92 % 1021,0 hPa 0,0 mm 9,9 km/h (2 Bft) SW 216 ° 0 min 0,000 mm 0,8 UV-I 113 W/m² 3,3 °C 2,1 °C 12,9 km/h (3 Bft)
23.10.2017 11:00 4,5 °C 4,5 °C 92 % 1021,0 hPa 0,0 mm 6,0 km/h (2 Bft) W-NW 284 ° 0 min 0,000 mm 0,8 UV-I 114 W/m² 3,3 °C 3,1 °C 11,3 km/h (2 Bft)
23.10.2017 11:01 4,5 °C 4,5 °C 92 % 1021,0 hPa 0,0 mm 8,8 km/h (2 Bft) W 264 ° 0 min 0,025 mm 0,9 UV-I 114 W/m² 3,3 °C 2,3 °C 12,9 km/h (3 Bft)
23.10.2017 11:02 4,5 °C 4,5 °C 92 % 1021,0 hPa 0,0 mm 8,0 km/h (2 Bft) W-SW 253 ° 0 min 0,000 mm 0,9 UV-I 114 W/m² 3,3 °C 2,5 °C 11,3 km/h (2 Bft)
23.10.2017 11:03 4,6 °C 4,6 °C 92 % 1021,0 hPa 0,0 mm 9,1 km/h (2 Bft) W 279 ° 0 min 0,000 mm 0,9 UV-I 114 W/m² 3,4 °C 2,4 °C 12,9 km/h (3 Bft)
23.10.2017 11:04 4,6 °C 4,6 °C 92 % 1021,0 hPa 0,0 mm 12,8 km/h (3 Bft) SW 233 ° 0 min 0,000 mm 0,9 UV-I 121 W/m² 3,4 °C 1,6 °C 17,7 km/h (3 Bft)
23.10.2017 11:05 4,6 °C 4,6 °C 92 % 1021,1 hPa 0,0 mm 7,3 km/h (2 Bft) W-SW 245 ° 0 min 0,000 mm 0,9 UV-I 125 W/m² 3,4 °C 2,9 °C 12,9 km/h (3 Bft)
23.10.2017 11:06 4,6 °C 4,6 °C 92 % 1021,1 hPa 0,0 mm 10,1 km/h (2 Bft) W 264 ° 0 min 0,000 mm 0,9 UV-I 125 W/m² 3,4 °C 2,2 °C 12,9 km/h (3 Bft)
23.10.2017 11:07 4,7 °C 4,7 °C 92 % 1021,1 hPa 0,0 mm 10,3 km/h (2 Bft) W 261 ° 0 min 0,000 mm 0,9 UV-I 128 W/m² 3,5 °C 2,2 °C 14,5 km/h (3 Bft)
23.10.2017 11:08 4,7 °C 4,7 °C 92 % 1021,0 hPa 0,0 mm 10,1 km/h (2 Bft) SW 227 ° 0 min 0,000 mm 1,0 UV-I 132 W/m² 3,5 °C 2,3 °C 14,5 km/h (3 Bft)
23.10.2017 11:09 4,6 °C 4,7 °C 92 % 1021,0 hPa 0,0 mm 12,0 km/h (2 Bft) W-SW 242 ° 0 min 0,000 mm 1,0 UV-I 135 W/m² 3,4 °C 1,8 °C 16,1 km/h (3 Bft)
23.10.2017 11:10 4,7 °C 4,7 °C 92 % 1021,0 hPa 0,0 mm 9,2 km/h (2 Bft) SW 233 ° 0 min 0,000 mm 1,0 UV-I 137 W/m² 3,5 °C 2,5 °C 17,7 km/h (3 Bft)
23.10.2017 11:11 4,7 °C 4,7 °C 92 % 1021,1 hPa 0,0 mm 8,9 km/h (2 Bft) W-NW 282 ° 0 min 0,000 mm 1,0 UV-I 134 W/m² 3,5 °C 2,6 °C 14,5 km/h (3 Bft)
23.10.2017 11:12 4,7 °C 4,7 °C 92 % 1021,1 hPa 0,0 mm 10,4 km/h (2 Bft) W 280 ° 0 min 0,000 mm 1,0 UV-I 141 W/m² 3,5 °C 2,2 °C 12,9 km/h (3 Bft)
23.10.2017 11:13 4,7 °C 4,7 °C 92 % 1021,0 hPa 0,0 mm 10,8 km/h (2 Bft) W 265 ° 0 min 0,000 mm 1,0 UV-I 139 W/m² 3,5 °C 2,1 °C 16,1 km/h (3 Bft)
23.10.2017 11:14 4,8 °C 4,8 °C 92 % 1021,0 hPa 0,0 mm 11,7 km/h (2 Bft) W 272 ° 0 min 0,000 mm 1,0 UV-I 135 W/m² 3,6 °C 2,1 °C 16,1 km/h (3 Bft)
23.10.2017 11:15 4,8 °C 4,8 °C 92 % 1021,1 hPa 0,0 mm 8,1 km/h (2 Bft) W 275 ° 0 min 0,000 mm 1,0 UV-I 132 W/m² 3,6 °C 2,9 °C 12,9 km/h (3 Bft)
23.10.2017 11:16 4,7 °C 4,8 °C 92 % 1021,1 hPa 0,0 mm 10,9 km/h (2 Bft) W 277 ° 0 min 0,000 mm 0,9 UV-I 125 W/m² 3,5 °C 2,1 °C 17,7 km/h (3 Bft)
23.10.2017 11:17 4,8 °C 4,8 °C 92 % 1021,1 hPa 0,0 mm 12,7 km/h (3 Bft) S-SW 213 ° 0 min 0,000 mm 0,9 UV-I 116 W/m² 3,6 °C 1,9 °C 17,7 km/h (3 Bft)
23.10.2017 11:18 4,7 °C 4,8 °C 92 % 1021,0 hPa 0,0 mm 9,5 km/h (2 Bft) W-NW 287 ° 0 min 0,000 mm 0,9 UV-I 109 W/m² 3,5 °C 2,4 °C 16,1 km/h (3 Bft)
23.10.2017 11:19 4,8 °C 4,8 °C 92 % 1021,0 hPa 0,0 mm 10,3 km/h (2 Bft) W 272 ° 0 min 0,000 mm 0,9 UV-I 114 W/m² 3,6 °C 2,4 °C 16,1 km/h (3 Bft)
23.10.2017 11:20 4,8 °C 4,8 °C 92 % 1021,0 hPa 0,0 mm 11,0 km/h (2 Bft) W 269 ° 0 min 0,000 mm 1,0 UV-I 121 W/m² 3,6 °C 2,2 °C 17,7 km/h (3 Bft)
23.10.2017 11:21 4,8 °C 4,8 °C 92 % 1021,0 hPa 0,0 mm 12,2 km/h (2 Bft) W-NW 282 ° 0 min 0,000 mm 1,1 UV-I 130 W/m² 3,6 °C 2,0 °C 17,7 km/h (3 Bft)
23.10.2017 11:22 4,8 °C 4,8 °C 92 % 1021,1 hPa 0,0 mm 9,1 km/h (2 Bft) W-NW 300 ° 0 min 0,000 mm 1,1 UV-I 137 W/m² 3,6 °C 2,6 °C 12,9 km/h (3 Bft)
23.10.2017 11:23 4,8 °C 4,8 °C 92 % 1021,1 hPa 0,0 mm 6,1 km/h (2 Bft) W 265 ° 0 min 0,000 mm 1,1 UV-I 141 W/m² 3,6 °C 3,5 °C 8,0 km/h (2 Bft)
23.10.2017 11:24 4,9 °C 4,9 °C 92 % 1021,1 hPa 0,0 mm 6,2 km/h (2 Bft) W 279 ° 0 min 0,000 mm 1,1 UV-I 134 W/m² 3,7 °C 3,5 °C 9,7 km/h (2 Bft)
23.10.2017 11:25 4,9 °C 4,9 °C 92 % 1021,1 hPa 0,0 mm 4,4 km/h (1 Bft) W-SW 251 ° 0 min 0,000 mm 1,1 UV-I 132 W/m² 3,7 °C 4,9 °C 12,9 km/h (3 Bft)
23.10.2017 11:26 4,9 °C 4,9 °C 92 % 1021,2 hPa 0,0 mm 7,0 km/h (2 Bft) W-NW 298 ° 0 min 0,000 mm 1,1 UV-I 130 W/m² 3,7 °C 3,3 °C 11,3 km/h (2 Bft)
23.10.2017 11:27 4,9 °C 4,9 °C 92 % 1021,1 hPa 0,0 mm 10,3 km/h (2 Bft) W 271 ° 0 min 0,000 mm 1,1 UV-I 130 W/m² 3,7 °C 2,5 °C 14,5 km/h (3 Bft)
23.10.2017 11:28 4,9 °C 4,9 °C 91 % 1021,2 hPa 0,0 mm 12,0 km/h (2 Bft) SW 234 ° 0 min 0,000 mm 1,1 UV-I 135 W/m² 3,6 °C 2,1 °C 17,7 km/h (3 Bft)
23.10.2017 11:29 4,9 °C 4,9 °C 91 % 1021,2 hPa 0,0 mm 12,4 km/h (3 Bft) W 269 ° 0 min 0,000 mm 1,1 UV-I 135 W/m² 3,6 °C 2,1 °C 17,7 km/h (3 Bft)
23.10.2017 11:30 4,9 °C 4,9 °C 91 % 1021,2 hPa 0,0 mm 8,3 km/h (2 Bft) W-SW 255 ° 0 min 0,000 mm 1,1 UV-I 137 W/m² 3,6 °C 2,9 °C 14,5 km/h (3 Bft)
23.10.2017 11:31 4,9 °C 4,9 °C 91 % 1021,2 hPa 0,0 mm 12,2 km/h (2 Bft) W 273 ° 0 min 0,000 mm 1,1 UV-I 134 W/m² 3,6 °C 2,1 °C 16,1 km/h (3 Bft)
23.10.2017 11:32 4,9 °C 4,9 °C 91 % 1021,3 hPa 0,0 mm 6,9 km/h (2 Bft) SW 231 ° 0 min 0,000 mm 1,1 UV-I 134 W/m² 3,6 °C 3,3 °C 11,3 km/h (2 Bft)
23.10.2017 11:33 4,9 °C 4,9 °C 91 % 1021,3 hPa 0,0 mm 9,7 km/h (2 Bft) W 278 ° 0 min 0,000 mm 1,1 UV-I 139 W/m² 3,6 °C 2,6 °C 17,7 km/h (3 Bft)
23.10.2017 11:34 4,9 °C 4,9 °C 91 % 1021,2 hPa 0,0 mm 10,0 km/h (2 Bft) W-SW 250 ° 0 min 0,000 mm 1,2 UV-I 148 W/m² 3,6 °C 2,5 °C 14,5 km/h (3 Bft)
23.10.2017 11:35 4,9 °C 4,9 °C 91 % 1021,2 hPa 0,0 mm 10,0 km/h (2 Bft) W 266 ° 0 min 0,000 mm 1,2 UV-I 158 W/m² 3,6 °C 2,5 °C 20,9 km/h (4 Bft)
23.10.2017 11:36 5,0 °C 5,0 °C 91 % 1021,3 hPa 0,0 mm 9,7 km/h (2 Bft) W-SW 238 ° 0 min 0,000 mm 1,3 UV-I 172 W/m² 3,7 °C 2,7 °C 19,3 km/h (3 Bft)
23.10.2017 11:37 5,1 °C 5,1 °C 91 % 1021,3 hPa 0,0 mm 10,3 km/h (2 Bft) W-NW 296 ° 0 min 0,000 mm 1,3 UV-I 172 W/m² 3,8 °C 2,7 °C 16,1 km/h (3 Bft)
23.10.2017 11:38 5,1 °C 5,1 °C 91 % 1021,3 hPa 0,0 mm 11,3 km/h (2 Bft) S-SW 213 ° 0 min 0,000 mm 1,3 UV-I 169 W/m² 3,8 °C 2,5 °C 19,3 km/h (3 Bft)
23.10.2017 11:39 5,2 °C 5,2 °C 92 % 1021,3 hPa 0,0 mm 10,3 km/h (2 Bft) W 267 ° 0 min 0,000 mm 1,3 UV-I 169 W/m² 4,0 °C 2,8 °C 17,7 km/h (3 Bft)
23.10.2017 11:40 5,2 °C 5,2 °C 91 % 1021,3 hPa 0,0 mm 5,4 km/h (1 Bft) W-SW 257 ° 0 min 0,000 mm 1,3 UV-I 169 W/m² 3,9 °C 4,2 °C 9,7 km/h (2 Bft)
23.10.2017 11:41 5,2 °C 5,2 °C 91 % 1021,3 hPa 0,0 mm 4,6 km/h (1 Bft) S-SW 200 ° 0 min 0,000 mm 1,3 UV-I 171 W/m² 3,9 °C 4,5 °C 9,7 km/h (2 Bft)
23.10.2017 11:42 5,2 °C 5,2 °C 91 % 1021,2 hPa 0,0 mm 8,7 km/h (2 Bft) W 271 ° 0 min 0,000 mm 1,3 UV-I 167 W/m² 3,9 °C 3,2 °C 14,5 km/h (3 Bft)
23.10.2017 11:43 5,2 °C 5,2 °C 91 % 1021,3 hPa 0,0 mm 7,5 km/h (2 Bft) W 269 ° 0 min 0,000 mm 1,3 UV-I 167 W/m² 3,9 °C 3,5 °C 12,9 km/h (3 Bft)
23.10.2017 11:44 5,2 °C 5,2 °C 91 % 1021,3 hPa 0,0 mm 11,4 km/h (2 Bft) W 273 ° 0 min 0,000 mm 1,3 UV-I 171 W/m² 3,9 °C 2,6 °C 19,3 km/h (3 Bft)
23.10.2017 11:45 5,2 °C 5,2 °C 91 % 1021,3 hPa 0,0 mm 11,6 km/h (2 Bft) W 262 ° 0 min 0,000 mm 1,3 UV-I 169 W/m² 3,9 °C 2,6 °C 16,1 km/h (3 Bft)
23.10.2017 11:46 5,2 °C 5,2 °C 91 % 1021,3 hPa 0,0 mm 9,3 km/h (2 Bft) W 267 ° 0 min 0,000 mm 1,3 UV-I 165 W/m² 3,9 °C 3,1 °C 12,9 km/h (3 Bft)
23.10.2017 11:47 5,3 °C 5,3 °C 91 % 1021,3 hPa 0,0 mm 6,1 km/h (2 Bft) SW 223 ° 0 min 0,000 mm 1,3 UV-I 158 W/m² 4,0 °C 4,0 °C 14,5 km/h (3 Bft)
23.10.2017 11:48 5,3 °C 5,3 °C 91 % 1021,4 hPa 0,0 mm 7,4 km/h (2 Bft) W-SW 252 ° 0 min 0,000 mm 1,2 UV-I 156 W/m² 4,0 °C 3,6 °C 11,3 km/h (2 Bft)
23.10.2017 11:49 5,3 °C 5,3 °C 91 % 1021,4 hPa 0,0 mm 6,6 km/h (2 Bft) W-SW 251 ° 0 min 0,000 mm 1,3 UV-I 160 W/m² 4,0 °C 3,9 °C 14,5 km/h (3 Bft)
23.10.2017 11:50 5,3 °C 5,4 °C 91 % 1021,4 hPa 0,0 mm 10,8 km/h (2 Bft) W 269 ° 0 min 0,000 mm 1,2 UV-I 155 W/m² 4,0 °C 2,9 °C 14,5 km/h (3 Bft)
23.10.2017 11:51 5,4 °C 5,4 °C 90 % 1021,4 hPa 0,0 mm 11,2 km/h (2 Bft) W-NW 297 ° 0 min 0,000 mm 1,1 UV-I 144 W/m² 3,9 °C 2,9 °C 17,7 km/h (3 Bft)
23.10.2017 11:52 5,4 °C 5,4 °C 90 % 1021,4 hPa 0,0 mm 9,6 km/h (2 Bft) SW 227 ° 0 min 0,000 mm 1,1 UV-I 141 W/m² 3,9 °C 3,2 °C 16,1 km/h (3 Bft)
23.10.2017 11:53 5,3 °C 5,4 °C 90 % 1021,4 hPa 0,0 mm 2,5 km/h (1 Bft) SW 214 ° 0 min 0,000 mm 1,1 UV-I 139 W/m² 3,8 °C 5,3 °C 8,0 km/h (2 Bft)
23.10.2017 11:54 5,3 °C 5,3 °C 90 % 1021,4 hPa 0,0 mm 6,8 km/h (2 Bft) W 272 ° 0 min 0,000 mm 1,1 UV-I 139 W/m² 3,8 °C 3,8 °C 12,9 km/h (3 Bft)
23.10.2017 11:55 5,3 °C 5,4 °C 90 % 1021,4 hPa 0,0 mm 7,0 km/h (2 Bft) W 275 ° 0 min 0,000 mm 1,1 UV-I 148 W/m² 3,8 °C 3,8 °C 11,3 km/h (2 Bft)
23.10.2017 11:56 5,4 °C 5,4 °C 90 % 1021,4 hPa 0,0 mm 7,4 km/h (2 Bft) W 279 ° 0 min 0,000 mm 1,2 UV-I 153 W/m² 3,9 °C 3,8 °C 12,9 km/h (3 Bft)
23.10.2017 11:57 5,4 °C 5,4 °C 90 % 1021,4 hPa 0,0 mm 6,8 km/h (2 Bft) W-SW 258 ° 0 min 0,000 mm 1,1 UV-I 153 W/m² 3,9 °C 3,9 °C 11,3 km/h (2 Bft)
23.10.2017 11:58 5,4 °C 5,4 °C 90 % 1021,4 hPa 0,0 mm 5,2 km/h (1 Bft) W 272 ° 0 min 0,000 mm 1,1 UV-I 149 W/m² 3,9 °C 4,5 °C 6,4 km/h (2 Bft)
23.10.2017 11:59 5,4 °C 5,4 °C 91 % 1021,4 hPa 0,0 mm 9,7 km/h (2 Bft) W-SW 252 ° 0 min 0,000 mm 1,1 UV-I 137 W/m² 4,1 °C 3,2 °C 12,9 km/h (3 Bft)
23.10.2017 12:00 5,5 °C 5,5 °C 91 % 1021,4 hPa 0,0 mm 9,3 km/h (2 Bft) W 265 ° 0 min 0,000 mm 1,0 UV-I 134 W/m² 4,2 °C 3,4 °C 14,5 km/h (3 Bft)
23.10.2017 12:01 5,5 °C 5,5 °C 91 % 1021,5 hPa 0,0 mm 11,9 km/h (2 Bft) W 267 ° 0 min 0,051 mm 1,0 UV-I 130 W/m² 4,2 °C 2,9 °C 16,1 km/h (3 Bft)
23.10.2017 12:02 5,5 °C 5,5 °C 91 % 1021,5 hPa 0,0 mm 7,1 km/h (2 Bft) SW 223 ° 0 min 0,000 mm 1,0 UV-I 127 W/m² 4,2 °C 4,0 °C 11,3 km/h (2 Bft)
23.10.2017 12:03 5,5 °C 5,5 °C 90 % 1021,5 hPa 0,0 mm 9,2 km/h (2 Bft) W-NW 286 ° 0 min 0,000 mm 0,9 UV-I 109 W/m² 4,0 °C 3,4 °C 16,1 km/h (3 Bft)
23.10.2017 12:04 5,4 °C 5,5 °C 90 % 1021,5 hPa 0,0 mm 12,3 km/h (3 Bft) W 276 ° 0 min 0,000 mm 1,0 UV-I 118 W/m² 3,9 °C 2,7 °C 14,5 km/h (3 Bft)
23.10.2017 12:05 5,4 °C 5,4 °C 90 % 1021,5 hPa 0,0 mm 10,1 km/h (2 Bft) W-SW 251 ° 0 min 0,000 mm 1,0 UV-I 125 W/m² 3,9 °C 3,1 °C 12,9 km/h (3 Bft)
23.10.2017 12:06 5,5 °C 5,5 °C 90 % 1021,5 hPa 0,0 mm 11,0 km/h (2 Bft) W-SW 256 ° 0 min 0,000 mm 0,9 UV-I 111 W/m² 4,0 °C 3,1 °C 16,1 km/h (3 Bft)
23.10.2017 12:07 5,5 °C 5,5 °C 90 % 1021,5 hPa 0,0 mm 9,3 km/h (2 Bft) W 267 ° 0 min 0,000 mm 1,0 UV-I 118 W/m² 4,0 °C 3,4 °C 12,9 km/h (3 Bft)
23.10.2017 12:08 5,5 °C 5,5 °C 90 % 1021,5 hPa 0,0 mm 8,8 km/h (2 Bft) W-SW 238 ° 0 min 0,000 mm 0,9 UV-I 109 W/m² 4,0 °C 3,5 °C 12,9 km/h (3 Bft)
23.10.2017 12:09 5,5 °C 5,6 °C 90 % 1021,5 hPa 0,0 mm 5,5 km/h (1 Bft) W 259 ° 0 min 0,000 mm 0,9 UV-I 107 W/m² 4,0 °C 4,5 °C 11,3 km/h (2 Bft)
23.10.2017 12:10 5,5 °C 5,6 °C 90 % 1021,5 hPa 0,0 mm 6,0 km/h (2 Bft) W-SW 257 ° 0 min 0,000 mm 0,9 UV-I 109 W/m² 4,0 °C 4,3 °C 11,3 km/h (2 Bft)
23.10.2017 12:11 5,6 °C 5,6 °C 90 % 1021,4 hPa 0,0 mm 5,6 km/h (1 Bft) W-SW 248 ° 0 min 0,000 mm 1,1 UV-I 163 W/m² 4,1 °C 4,5 °C 9,7 km/h (2 Bft)
23.10.2017 12:12 5,6 °C 5,6 °C 90 % 1021,5 hPa 0,0 mm 5,1 km/h (1 Bft) W-SW 251 ° 0 min 0,000 mm 1,5 UV-I 181 W/m² 4,1 °C 4,7 °C 11,3 km/h (2 Bft)
23.10.2017 12:13 5,6 °C 5,6 °C 90 % 1021,4 hPa 0,0 mm 5,2 km/h (1 Bft) W 273 ° 0 min 0,000 mm 1,5 UV-I 185 W/m² 4,1 °C 4,7 °C 11,3 km/h (2 Bft)
23.10.2017 12:14 5,7 °C 5,7 °C 90 % 1021,4 hPa 0,0 mm 10,0 km/h (2 Bft) SW 224 ° 0 min 0,000 mm 1,6 UV-I 193 W/m² 4,2 °C 3,5 °C 14,5 km/h (3 Bft)
23.10.2017 12:15 5,7 °C 5,7 °C 90 % 1021,4 hPa 0,0 mm 6,8 km/h (2 Bft) W 266 ° 0 min 0,000 mm 1,6 UV-I 202 W/m² 4,2 °C 4,3 °C 11,3 km/h (2 Bft)
23.10.2017 12:16 5,8 °C 5,8 °C 90 % 1021,4 hPa 0,0 mm 8,0 km/h (2 Bft) W 271 ° 0 min 0,000 mm 1,6 UV-I 206 W/m² 4,3 °C 4,1 °C 12,9 km/h (3 Bft)
23.10.2017 12:17 5,8 °C 5,8 °C 90 % 1021,4 hPa 0,0 mm 10,9 km/h (2 Bft) SW 235 ° 0 min 0,000 mm 1,5 UV-I 183 W/m² 4,3 °C 3,4 °C 17,7 km/h (3 Bft)
23.10.2017 12:18 5,8 °C 5,8 °C 90 % 1021,4 hPa 0,0 mm 6,2 km/h (2 Bft) S-SW 196 ° 0 min 0,000 mm 1,3 UV-I 167 W/m² 4,3 °C 4,6 °C 9,7 km/h (2 Bft)
23.10.2017 12:19 5,8 °C 5,8 °C 89 % 1021,4 hPa 0,0 mm 8,8 km/h (2 Bft) SW 230 ° 0 min 0,000 mm 1,1 UV-I 146 W/m² 4,1 °C 3,9 °C 12,9 km/h (3 Bft)
23.10.2017 12:20 5,8 °C 5,8 °C 89 % 1021,4 hPa 0,0 mm 14,9 km/h (3 Bft) W 265 ° 0 min 0,000 mm 1,0 UV-I 127 W/m² 4,1 °C 2,8 °C 20,9 km/h (4 Bft)
23.10.2017 12:21 5,8 °C 5,8 °C 89 % 1021,5 hPa 0,0 mm 11,0 km/h (2 Bft) W-SW 248 ° 0 min 0,000 mm 0,8 UV-I 109 W/m² 4,1 °C 3,4 °C 19,3 km/h (3 Bft)
23.10.2017 12:22 5,8 °C 5,8 °C 89 % 1021,4 hPa 0,0 mm 11,1 km/h (2 Bft) SW 219 ° 0 min 0,000 mm 0,7 UV-I 79 W/m² 4,1 °C 3,4 °C 14,5 km/h (3 Bft)
23.10.2017 12:23 5,8 °C 5,8 °C 89 % 1021,4 hPa 0,0 mm 8,2 km/h (2 Bft) W 275 ° 0 min 0,000 mm 0,6 UV-I 74 W/m² 4,1 °C 4,0 °C 12,9 km/h (3 Bft)
23.10.2017 12:24 5,8 °C 5,8 °C 89 % 1021,5 hPa 0,0 mm 12,3 km/h (3 Bft) W 265 ° 0 min 0,000 mm 0,6 UV-I 83 W/m² 4,1 °C 3,2 °C 17,7 km/h (3 Bft)
23.10.2017 12:25 5,7 °C 5,8 °C 89 % 1021,4 hPa 0,0 mm 10,4 km/h (2 Bft) W 263 ° 0 min 0,000 mm 0,7 UV-I 97 W/m² 4,0 °C 3,4 °C 12,9 km/h (3 Bft)
23.10.2017 12:26 5,7 °C 5,8 °C 89 % 1021,4 hPa 0,0 mm 5,1 km/h (1 Bft) W-SW 247 ° 0 min 0,000 mm 0,8 UV-I 111 W/m² 4,0 °C 4,8 °C 6,4 km/h (2 Bft)
23.10.2017 12:27 5,7 °C 5,7 °C 89 % 1021,4 hPa 0,0 mm 5,6 km/h (1 Bft) W-SW 249 ° 0 min 0,000 mm 0,9 UV-I 111 W/m² 4,0 °C 4,7 °C 12,9 km/h (3 Bft)
23.10.2017 12:28 5,7 °C 5,7 °C 89 % 1021,5 hPa 0,0 mm 8,8 km/h (2 Bft) W 262 ° 0 min 0,000 mm 0,9 UV-I 128 W/m² 4,0 °C 3,8 °C 12,9 km/h (3 Bft)
23.10.2017 12:29 5,7 °C 5,7 °C 89 % 1021,4 hPa 0,0 mm 7,8 km/h (2 Bft) W-SW 255 ° 0 min 0,000 mm 1,0 UV-I 128 W/m² 4,0 °C 4,0 °C 11,3 km/h (2 Bft)
23.10.2017 12:30 5,7 °C 5,7 °C 90 % 1021,5 hPa 0,0 mm 8,5 km/h (2 Bft) W 281 ° 0 min 0,000 mm 0,9 UV-I 121 W/m² 4,2 °C 3,8 °C 11,3 km/h (2 Bft)
23.10.2017 12:31 5,7 °C 5,8 °C 90 % 1021,5 hPa 0,0 mm 8,0 km/h (2 Bft) W 267 ° 0 min 0,000 mm 0,9 UV-I 118 W/m² 4,2 °C 4,0 °C 14,5 km/h (3 Bft)
23.10.2017 12:32 5,8 °C 5,8 °C 89 % 1021,4 hPa 0,0 mm 12,3 km/h (3 Bft) W-SW 242 ° 0 min 0,000 mm 0,9 UV-I 118 W/m² 4,1 °C 3,2 °C 20,9 km/h (4 Bft)
23.10.2017 12:33 5,7 °C 5,8 °C 89 % 1021,4 hPa 0,0 mm 9,3 km/h (2 Bft) W 265 ° 0 min 0,000 mm 1,0 UV-I 125 W/m² 4,0 °C 3,6 °C 16,1 km/h (3 Bft)
23.10.2017 12:34 5,7 °C 5,7 °C 89 % 1021,4 hPa 0,0 mm 14,2 km/h (3 Bft) W-NW 282 ° 0 min 0,000 mm 1,1 UV-I 155 W/m² 4,0 °C 2,7 °C 20,9 km/h (4 Bft)
23.10.2017 12:35 5,8 °C 5,8 °C 89 % 1021,4 hPa 0,0 mm 9,4 km/h (2 Bft) W-NW 298 ° 0 min 0,000 mm 1,3 UV-I 162 W/m² 4,1 °C 3,7 °C 17,7 km/h (3 Bft)
23.10.2017 12:36 5,7 °C 5,8 °C 89 % 1021,4 hPa 0,0 mm 8,2 km/h (2 Bft) W 265 ° 0 min 0,000 mm 1,3 UV-I 158 W/m² 4,0 °C 3,9 °C 16,1 km/h (3 Bft)
23.10.2017 12:37 5,8 °C 5,8 °C 89 % 1021,4 hPa 0,0 mm 13,4 km/h (3 Bft) W-NW 302 ° 0 min 0,000 mm 1,1 UV-I 148 W/m² 4,1 °C 3,0 °C 16,1 km/h (3 Bft)
23.10.2017 12:38 5,8 °C 5,8 °C 89 % 1021,4 hPa 0,0 mm 13,7 km/h (3 Bft) W 264 ° 0 min 0,000 mm 1,1 UV-I 146 W/m² 4,1 °C 2,9 °C 19,3 km/h (3 Bft)
23.10.2017 12:39 5,8 °C 5,8 °C 89 % 1021,4 hPa 0,0 mm 10,2 km/h (2 Bft) W-SW 254 ° 0 min 0,000 mm 1,1 UV-I 153 W/m² 4,1 °C 3,6 °C 12,9 km/h (3 Bft)
23.10.2017 12:40 5,8 °C 5,8 °C 89 % 1021,4 hPa 0,0 mm 9,1 km/h (2 Bft) SW 214 ° 0 min 0,000 mm 1,0 UV-I 134 W/m² 4,1 °C 3,8 °C 17,7 km/h (3 Bft)
23.10.2017 12:41 5,8 °C 5,8 °C 89 % 1021,4 hPa 0,0 mm 6,6 km/h (2 Bft) W-SW 246 ° 0 min 0,000 mm 1,1 UV-I 137 W/m² 4,1 °C 4,5 °C 11,3 km/h (2 Bft)
23.10.2017 12:42 5,8 °C 5,8 °C 88 % 1021,4 hPa 0,0 mm 6,8 km/h (2 Bft) S-SW 206 ° 0 min 0,000 mm 1,2 UV-I 149 W/m² 4,0 °C 4,4 °C 9,7 km/h (2 Bft)
23.10.2017 12:43 5,8 °C 5,8 °C 89 % 1021,4 hPa 0,0 mm 5,5 km/h (1 Bft) W-SW 253 ° 0 min 0,000 mm 1,2 UV-I 148 W/m² 4,1 °C 4,8 °C 6,4 km/h (2 Bft)
23.10.2017 12:44 5,8 °C 5,8 °C 89 % 1021,4 hPa 0,0 mm 7,8 km/h (2 Bft) W 266 ° 0 min 0,000 mm 1,2 UV-I 151 W/m² 4,1 °C 4,1 °C 11,3 km/h (2 Bft)
23.10.2017 12:45 5,8 °C 5,8 °C 89 % 1021,5 hPa 0,0 mm 9,0 km/h (2 Bft) W 262 ° 0 min 0,000 mm 1,2 UV-I 149 W/m² 4,1 °C 3,8 °C 14,5 km/h (3 Bft)
23.10.2017 12:46 5,8 °C 5,8 °C 89 % 1021,4 hPa 0,0 mm 7,8 km/h (2 Bft) W-SW 250 ° 0 min 0,000 mm 1,0 UV-I 109 W/m² 4,1 °C 4,1 °C 12,9 km/h (3 Bft)
23.10.2017 12:47 5,8 °C 5,8 °C 89 % 1021,4 hPa 0,0 mm 5,7 km/h (1 Bft) W-NW 284 ° 0 min 0,000 mm 0,8 UV-I 100 W/m² 4,1 °C 4,7 °C 9,7 km/h (2 Bft)
23.10.2017 12:48 5,8 °C 5,9 °C 89 % 1021,4 hPa 0,0 mm 4,8 km/h (1 Bft) W 266 ° 0 min 0,000 mm 0,8 UV-I 98 W/m² 4,1 °C 5,1 °C 9,7 km/h (2 Bft)
23.10.2017 12:49 5,9 °C 5,9 °C 89 % 1021,5 hPa 0,0 mm 10,6 km/h (2 Bft) W-NW 291 ° 0 min 0,000 mm 0,8 UV-I 100 W/m² 4,2 °C 3,6 °C 14,5 km/h (3 Bft)
23.10.2017 12:50 5,8 °C 5,9 °C 89 % 1021,4 hPa 0,0 mm 12,6 km/h (3 Bft) W 278 ° 0 min 0,000 mm 0,9 UV-I 107 W/m² 4,1 °C 3,1 °C 16,1 km/h (3 Bft)
23.10.2017 12:51 5,8 °C 5,8 °C 89 % 1021,4 hPa 0,0 mm 9,6 km/h (2 Bft) W 267 ° 0 min 0,000 mm 0,9 UV-I 114 W/m² 4,1 °C 3,7 °C 14,5 km/h (3 Bft)
23.10.2017 12:52 5,8 °C 5,8 °C 89 % 1021,4 hPa 0,0 mm 10,1 km/h (2 Bft) W 280 ° 0 min 0,000 mm 1,0 UV-I 130 W/m² 4,1 °C 3,6 °C 12,9 km/h (3 Bft)
23.10.2017 12:53 5,8 °C 5,8 °C 89 % 1021,4 hPa 0,0 mm 6,5 km/h (2 Bft) W-NW 286 ° 0 min 0,000 mm 1,2 UV-I 141 W/m² 4,1 °C 4,5 °C 11,3 km/h (2 Bft)
23.10.2017 12:54 5,9 °C 5,9 °C 89 % 1021,4 hPa 0,0 mm 7,3 km/h (2 Bft) SW 231 ° 0 min 0,000 mm 1,2 UV-I 144 W/m² 4,2 °C 4,4 °C 12,9 km/h (3 Bft)
23.10.2017 12:55 5,9 °C 5,9 °C 89 % 1021,5 hPa 0,0 mm 15,6 km/h (3 Bft) W 270 ° 0 min 0,000 mm 1,2 UV-I 148 W/m² 4,2 °C 2,8 °C 19,3 km/h (3 Bft)
23.10.2017 12:56 5,9 °C 5,9 °C 89 % 1021,4 hPa 0,0 mm 12,0 km/h (2 Bft) W 273 ° 0 min 0,000 mm 1,2 UV-I 149 W/m² 4,2 °C 3,3 °C 17,7 km/h (3 Bft)
23.10.2017 12:57 5,9 °C 5,9 °C 89 % 1021,4 hPa 0,0 mm 11,0 km/h (2 Bft) W 261 ° 0 min 0,000 mm 1,1 UV-I 141 W/m² 4,2 °C 3,5 °C 19,3 km/h (3 Bft)
23.10.2017 12:58 5,9 °C 6,0 °C 90 % 1021,5 hPa 0,0 mm 7,8 km/h (2 Bft) NW 311 ° 0 min 0,000 mm 1,2 UV-I 139 W/m² 4,4 °C 4,2 °C 16,1 km/h (3 Bft)
23.10.2017 12:59 6,0 °C 6,0 °C 90 % 1021,5 hPa 0,0 mm 12,9 km/h (3 Bft) W 262 ° 0 min 0,000 mm 1,1 UV-I 137 W/m² 4,5 °C 3,3 °C 16,1 km/h (3 Bft)
23.10.2017 13:00 6,0 °C 6,1 °C 89 % 1021,5 hPa 0,0 mm 13,0 km/h (3 Bft) W 279 ° 0 min 0,000 mm 1,0 UV-I 125 W/m² 4,3 °C 3,3 °C 16,1 km/h (3 Bft)
23.10.2017 13:01 5,9 °C 6,0 °C 88 % 1021,4 hPa 0,0 mm 9,8 km/h (2 Bft) W-NW 286 ° 0 min 0,051 mm 0,9 UV-I 107 W/m² 4,1 °C 3,8 °C 16,1 km/h (3 Bft)
23.10.2017 13:02 5,9 °C 5,9 °C 88 % 1021,5 hPa 0,0 mm 11,8 km/h (2 Bft) W 261 ° 0 min 0,000 mm 0,8 UV-I 98 W/m² 4,1 °C 3,4 °C 16,1 km/h (3 Bft)
23.10.2017 13:03 5,9 °C 5,9 °C 89 % 1021,5 hPa 0,0 mm 7,1 km/h (2 Bft) W-SW 242 ° 0 min 0,000 mm 0,7 UV-I 93 W/m² 4,2 °C 4,4 °C 12,9 km/h (3 Bft)
23.10.2017 13:04 5,9 °C 5,9 °C 89 % 1021,4 hPa 0,0 mm 8,8 km/h (2 Bft) W-NW 283 ° 0 min 0,000 mm 0,7 UV-I 79 W/m² 4,2 °C 4,0 °C 17,7 km/h (3 Bft)
23.10.2017 13:05 5,9 °C 5,9 °C 88 % 1021,5 hPa 0,0 mm 6,7 km/h (2 Bft) W-NW 284 ° 0 min 0,000 mm 0,6 UV-I 77 W/m² 4,1 °C 4,5 °C 17,7 km/h (3 Bft)
23.10.2017 13:06 5,8 °C 5,9 °C 88 % 1021,4 hPa 0,0 mm 10,5 km/h (2 Bft) W-SW 258 ° 0 min 0,000 mm 0,6 UV-I 77 W/m² 4,0 °C 3,5 °C 16,1 km/h (3 Bft)
23.10.2017 13:07 5,8 °C 5,8 °C 88 % 1021,4 hPa 0,0 mm 7,2 km/h (2 Bft) W 260 ° 0 min 0,000 mm 0,6 UV-I 77 W/m² 4,0 °C 4,3 °C 12,9 km/h (3 Bft)
23.10.2017 13:08 5,8 °C 5,8 °C 88 % 1021,4 hPa 0,0 mm 6,2 km/h (2 Bft) W-SW 246 ° 0 min 0,000 mm 0,6 UV-I 77 W/m² 4,0 °C 4,6 °C 9,7 km/h (2 Bft)
23.10.2017 13:09 5,7 °C 5,8 °C 88 % 1021,4 hPa 0,0 mm 2,4 km/h (1 Bft) W-SW 247 ° 0 min 0,000 mm 0,7 UV-I 83 W/m² 3,9 °C 5,7 °C 3,2 km/h (1 Bft)
23.10.2017 13:10 5,7 °C 5,8 °C 88 % 1021,5 hPa 0,0 mm 7,8 km/h (2 Bft) W-SW 244 ° 0 min 0,000 mm 0,7 UV-I 83 W/m² 3,9 °C 4,0 °C 12,9 km/h (3 Bft)
23.10.2017 13:11 5,7 °C 5,7 °C 88 % 1021,4 hPa 0,0 mm 12,9 km/h (3 Bft) W-SW 244 ° 0 min 0,000 mm 0,7 UV-I 84 W/m² 3,9 °C 2,9 °C 16,1 km/h (3 Bft)
23.10.2017 13:12 5,7 °C 5,7 °C 89 % 1021,5 hPa 0,0 mm 12,2 km/h (2 Bft) W 260 ° 0 min 0,000 mm 0,8 UV-I 97 W/m² 4,0 °C 3,1 °C 16,1 km/h (3 Bft)
23.10.2017 13:13 5,7 °C 5,7 °C 89 % 1021,4 hPa 0,0 mm 11,0 km/h (2 Bft) S 191 ° 0 min 0,000 mm 0,8 UV-I 104 W/m² 4,0 °C 3,3 °C 17,7 km/h (3 Bft)
23.10.2017 13:14 5,7 °C 5,7 °C 88 % 1021,4 hPa 0,0 mm 7,9 km/h (2 Bft) NW 304 ° 0 min 0,000 mm 0,9 UV-I 107 W/m² 3,9 °C 4,0 °C 12,9 km/h (3 Bft)
23.10.2017 13:15 5,7 °C 5,7 °C 89 % 1021,4 hPa 0,0 mm 8,2 km/h (2 Bft) NW 304 ° 0 min 0,000 mm 0,9 UV-I 105 W/m² 4,0 °C 3,9 °C 12,9 km/h (3 Bft)
23.10.2017 13:16 5,7 °C 5,7 °C 89 % 1021,5 hPa 0,0 mm 5,0 km/h (1 Bft) W-SW 244 ° 0 min 0,000 mm 0,7 UV-I 95 W/m² 4,0 °C 4,9 °C 11,3 km/h (2 Bft)
23.10.2017 13:17 5,7 °C 5,7 °C 90 % 1021,5 hPa 0,0 mm 10,3 km/h (2 Bft) W 274 ° 0 min 0,000 mm 0,7 UV-I 84 W/m² 4,2 °C 3,4 °C 17,7 km/h (3 Bft)
23.10.2017 13:18 5,7 °C 5,7 °C 89 % 1021,5 hPa 0,0 mm 10,1 km/h (2 Bft) W-SW 254 ° 0 min 0,000 mm 0,7 UV-I 83 W/m² 4,0 °C 3,5 °C 14,5 km/h (3 Bft)
23.10.2017 13:19 5,8 °C 5,8 °C 90 % 1021,4 hPa 0,0 mm 13,5 km/h (3 Bft) W-SW 252 ° 0 min 0,000 mm 0,7 UV-I 84 W/m² 4,3 °C 3,0 °C 16,1 km/h (3 Bft)
23.10.2017 13:20 5,7 °C 5,8 °C 89 % 1021,4 hPa 0,0 mm 8,9 km/h (2 Bft) W 269 ° 0 min 0,000 mm 0,7 UV-I 88 W/m² 4,0 °C 3,7 °C 16,1 km/h (3 Bft)
23.10.2017 13:21 5,7 °C 5,7 °C 89 % 1021,5 hPa 0,0 mm 6,3 km/h (2 Bft) W 261 ° 0 min 0,000 mm 0,7 UV-I 88 W/m² 4,0 °C 4,4 °C 11,3 km/h (2 Bft)
23.10.2017 13:22 5,7 °C 5,7 °C 90 % 1021,5 hPa 0,0 mm 10,2 km/h (2 Bft) W 281 ° 0 min 0,000 mm 0,7 UV-I 93 W/m² 4,2 °C 3,5 °C 14,5 km/h (3 Bft)
23.10.2017 13:23 5,7 °C 5,7 °C 89 % 1021,4 hPa 0,0 mm 9,8 km/h (2 Bft) W 278 ° 0 min 0,000 mm 0,9 UV-I 111 W/m² 4,0 °C 3,5 °C 14,5 km/h (3 Bft)
23.10.2017 13:24 5,7 °C 5,7 °C 89 % 1021,5 hPa 0,0 mm 9,8 km/h (2 Bft) W-SW 256 ° 0 min 0,000 mm 1,2 UV-I 146 W/m² 4,0 °C 3,5 °C 12,9 km/h (3 Bft)
23.10.2017 13:25 5,6 °C 5,7 °C 90 % 1021,5 hPa 0,0 mm 7,8 km/h (2 Bft) W 262 ° 0 min 0,000 mm 1,5 UV-I 185 W/m² 4,1 °C 3,9 °C 11,3 km/h (2 Bft)
23.10.2017 13:26 5,6 °C 5,6 °C 90 % 1021,4 hPa 0,0 mm 8,4 km/h (2 Bft) W 277 ° 0 min 0,000 mm 1,6 UV-I 206 W/m² 4,1 °C 3,7 °C 12,9 km/h (3 Bft)
23.10.2017 13:27 5,6 °C 5,6 °C 90 % 1021,4 hPa 0,0 mm 7,0 km/h (2 Bft) W-SW 250 ° 0 min 0,000 mm 1,6 UV-I 202 W/m² 4,1 °C 4,1 °C 12,9 km/h (3 Bft)
23.10.2017 13:28 5,7 °C 5,7 °C 90 % 1021,4 hPa 0,0 mm 7,0 km/h (2 Bft) W-NW 302 ° 0 min 0,000 mm 1,5 UV-I 195 W/m² 4,2 °C 4,2 °C 12,9 km/h (3 Bft)
23.10.2017 13:29 5,7 °C 5,7 °C 90 % 1021,4 hPa 0,0 mm 8,9 km/h (2 Bft) SW 231 ° 0 min 0,000 mm 1,4 UV-I 185 W/m² 4,2 °C 3,7 °C 16,1 km/h (3 Bft)
23.10.2017 13:30 5,7 °C 5,7 °C 90 % 1021,4 hPa 0,0 mm 8,5 km/h (2 Bft) W-SW 250 ° 0 min 0,000 mm 1,4 UV-I 178 W/m² 4,2 °C 3,8 °C 12,9 km/h (3 Bft)
23.10.2017 13:31 5,7 °C 5,7 °C 90 % 1021,4 hPa 0,0 mm 9,5 km/h (2 Bft) W-SW 238 ° 0 min 0,000 mm 1,3 UV-I 165 W/m² 4,2 °C 3,6 °C 14,5 km/h (3 Bft)
23.10.2017 13:32 5,8 °C 5,8 °C 90 % 1021,4 hPa 0,0 mm 10,5 km/h (2 Bft) W-SW 249 ° 0 min 0,000 mm 1,3 UV-I 153 W/m² 4,3 °C 3,5 °C 14,5 km/h (3 Bft)
23.10.2017 13:33 5,8 °C 5,8 °C 90 % 1021,4 hPa 0,0 mm 9,0 km/h (2 Bft) W 281 ° 0 min 0,000 mm 1,0 UV-I 132 W/m² 4,3 °C 3,8 °C 14,5 km/h (3 Bft)
23.10.2017 13:34 5,8 °C 5,8 °C 90 % 1021,4 hPa 0,0 mm 8,7 km/h (2 Bft) W-SW 244 ° 0 min 0,000 mm 1,0 UV-I 125 W/m² 4,3 °C 3,9 °C 11,3 km/h (2 Bft)
23.10.2017 13:35 5,8 °C 5,8 °C 90 % 1021,4 hPa 0,0 mm 5,8 km/h (2 Bft) W 267 ° 0 min 0,000 mm 1,0 UV-I 123 W/m² 4,3 °C 4,7 °C 9,7 km/h (2 Bft)
23.10.2017 13:36 5,9 °C 5,9 °C 91 % 1021,4 hPa 0,0 mm 9,5 km/h (2 Bft) W 264 ° 0 min 0,000 mm 1,0 UV-I 128 W/m² 4,5 °C 3,8 °C 11,3 km/h (2 Bft)
23.10.2017 13:37 5,8 °C 5,9 °C 90 % 1021,4 hPa 0,0 mm 9,0 km/h (2 Bft) W-NW 294 ° 0 min 0,000 mm 1,1 UV-I 139 W/m² 4,3 °C 3,8 °C 11,3 km/h (2 Bft)
23.10.2017 13:38 5,8 °C 5,9 °C 90 % 1021,4 hPa 0,0 mm 6,2 km/h (2 Bft) W-NW 287 ° 0 min 0,000 mm 1,2 UV-I 148 W/m² 4,3 °C 4,6 °C 9,7 km/h (2 Bft)
23.10.2017 13:39 5,8 °C 5,9 °C 90 % 1021,4 hPa 0,0 mm 4,8 km/h (1 Bft) W-SW 243 ° 0 min 0,000 mm 1,2 UV-I 144 W/m² 4,3 °C 5,1 °C 6,4 km/h (2 Bft)
23.10.2017 13:40 5,8 °C 5,9 °C 90 % 1021,4 hPa 0,0 mm 3,8 km/h (1 Bft) W-NW 284 ° 0 min 0,000 mm 1,2 UV-I 148 W/m² 4,3 °C 5,8 °C 6,4 km/h (2 Bft)
23.10.2017 13:41 5,9 °C 5,9 °C 90 % 1021,4 hPa 0,0 mm 3,0 km/h (1 Bft) W-NW 285 ° 0 min 0,000 mm 1,1 UV-I 142 W/m² 4,4 °C 5,9 °C 6,4 km/h (2 Bft)
23.10.2017 13:42 5,9 °C 5,9 °C 89 % 1021,4 hPa 0,0 mm 6,4 km/h (2 Bft) SW 220 ° 0 min 0,000 mm 1,0 UV-I 132 W/m² 4,2 °C 4,6 °C 9,7 km/h (2 Bft)
23.10.2017 13:43 5,9 °C 5,9 °C 89 % 1021,3 hPa 0,0 mm 12,6 km/h (3 Bft) W 281 ° 0 min 0,000 mm 1,1 UV-I 137 W/m² 4,2 °C 3,2 °C 16,1 km/h (3 Bft)
23.10.2017 13:44 5,8 °C 5,9 °C 88 % 1021,3 hPa 0,0 mm 9,5 km/h (2 Bft) W-NW 283 ° 0 min 0,000 mm 1,2 UV-I 148 W/m² 4,0 °C 3,7 °C 14,5 km/h (3 Bft)
23.10.2017 13:45 5,9 °C 5,9 °C 89 % 1021,4 hPa 0,0 mm 8,9 km/h (2 Bft) W 262 ° 0 min 0,000 mm 1,2 UV-I 151 W/m² 4,2 °C 4,0 °C 14,5 km/h (3 Bft)
23.10.2017 13:46 5,9 °C 5,9 °C 89 % 1021,4 hPa 0,0 mm 6,3 km/h (2 Bft) W-SW 239 ° 0 min 0,000 mm 1,3 UV-I 162 W/m² 4,2 °C 4,7 °C 9,7 km/h (2 Bft)
23.10.2017 13:47 5,9 °C 5,9 °C 90 % 1021,4 hPa 0,0 mm 5,8 km/h (2 Bft) W-SW 254 ° 0 min 0,000 mm 1,3 UV-I 167 W/m² 4,4 °C 4,8 °C 11,3 km/h (2 Bft)
23.10.2017 13:48 5,9 °C 5,9 °C 89 % 1021,4 hPa 0,0 mm 7,3 km/h (2 Bft) W-SW 242 ° 0 min 0,000 mm 1,3 UV-I 163 W/m² 4,2 °C 4,4 °C 11,3 km/h (2 Bft)
23.10.2017 13:49 6,0 °C 6,0 °C 90 % 1021,4 hPa 0,0 mm 6,1 km/h (2 Bft) W-SW 240 ° 0 min 0,000 mm 1,2 UV-I 155 W/m² 4,5 °C 4,8 °C 11,3 km/h (2 Bft)
23.10.2017 13:50 6,1 °C 6,1 °C 89 % 1021,4 hPa 0,0 mm 10,0 km/h (2 Bft) SW 229 ° 0 min 0,000 mm 1,2 UV-I 139 W/m² 4,4 °C 4,0 °C 17,7 km/h (3 Bft)
23.10.2017 13:51 6,1 °C 6,1 °C 89 % 1021,4 hPa 0,0 mm 9,9 km/h (2 Bft) W-SW 241 ° 0 min 0,000 mm 1,1 UV-I 141 W/m² 4,4 °C 4,0 °C 16,1 km/h (3 Bft)
23.10.2017 13:52 6,1 °C 6,1 °C 89 % 1021,4 hPa 0,0 mm 7,7 km/h (2 Bft) W-NW 303 ° 0 min 0,000 mm 1,1 UV-I 142 W/m² 4,4 °C 4,5 °C 12,9 km/h (3 Bft)
23.10.2017 13:53 6,1 °C 6,1 °C 89 % 1021,4 hPa 0,0 mm 6,4 km/h (2 Bft) W-NW 293 ° 0 min 0,000 mm 1,2 UV-I 148 W/m² 4,4 °C 4,9 °C 11,3 km/h (2 Bft)
23.10.2017 13:54 6,1 °C 6,1 °C 89 % 1021,4 hPa 0,0 mm 9,0 km/h (2 Bft) W 265 ° 0 min 0,000 mm 1,2 UV-I 146 W/m² 4,4 °C 4,2 °C 16,1 km/h (3 Bft)
23.10.2017 13:55 6,1 °C 6,1 °C 88 % 1021,4 hPa 0,0 mm 8,2 km/h (2 Bft) W-NW 289 ° 0 min 0,000 mm 1,1 UV-I 144 W/m² 4,3 °C 4,4 °C 14,5 km/h (3 Bft)
23.10.2017 13:56 6,1 °C 6,1 °C 89 % 1021,4 hPa 0,0 mm 8,4 km/h (2 Bft) W 271 ° 0 min 0,000 mm 1,2 UV-I 148 W/m² 4,4 °C 4,3 °C 14,5 km/h (3 Bft)
23.10.2017 13:57 6,1 °C 6,1 °C 89 % 1021,4 hPa 0,0 mm 10,4 km/h (2 Bft) W-SW 249 ° 0 min 0,000 mm 1,2 UV-I 148 W/m² 4,4 °C 3,9 °C 17,7 km/h (3 Bft)
23.10.2017 13:58 6,1 °C 6,1 °C 89 % 1021,5 hPa 0,0 mm 8,1 km/h (2 Bft) W 267 ° 0 min 0,000 mm 1,1 UV-I 142 W/m² 4,4 °C 4,4 °C 12,9 km/h (3 Bft)
23.10.2017 13:59 6,1 °C 6,1 °C 89 % 1021,4 hPa 0,0 mm 12,5 km/h (3 Bft) W 268 ° 0 min 0,000 mm 1,0 UV-I 130 W/m² 4,4 °C 3,5 °C 16,1 km/h (3 Bft)
23.10.2017 14:00 6,1 °C 6,1 °C 88 % 1021,4 hPa 0,0 mm 19,5 km/h (3 Bft) W 269 ° 0 min 0,000 mm 0,9 UV-I 121 W/m² 4,3 °C 2,5 °C 24,1 km/h (4 Bft)
23.10.2017 14:01 6,1 °C 6,1 °C 88 % 1021,5 hPa 0,0 mm 13,8 km/h (3 Bft) W-SW 246 ° 0 min 0,051 mm 1,1 UV-I 137 W/m² 4,3 °C 3,3 °C 19,3 km/h (3 Bft)
23.10.2017 14:02 6,1 °C 6,1 °C 88 % 1021,5 hPa 0,0 mm 8,6 km/h (2 Bft) W-SW 248 ° 0 min 0,000 mm 1,2 UV-I 158 W/m² 4,3 °C 4,3 °C 14,5 km/h (3 Bft)
23.10.2017 14:03 6,1 °C 6,1 °C 88 % 1021,4 hPa 0,0 mm 8,6 km/h (2 Bft) W 263 ° 0 min 0,000 mm 1,3 UV-I 165 W/m² 4,3 °C 4,3 °C 12,9 km/h (3 Bft)
23.10.2017 14:04 6,1 °C 6,1 °C 88 % 1021,4 hPa 0,0 mm 6,8 km/h (2 Bft) W 267 ° 0 min 0,000 mm 1,3 UV-I 171 W/m² 4,3 °C 4,7 °C 11,3 km/h (2 Bft)
23.10.2017 14:05 6,1 °C 6,1 °C 87 % 1021,4 hPa 0,0 mm 14,7 km/h (3 Bft) W 261 ° 0 min 0,000 mm 1,3 UV-I 171 W/m² 4,1 °C 3,1 °C 22,5 km/h (4 Bft)
23.10.2017 14:06 6,1 °C 6,1 °C 87 % 1021,5 hPa 0,0 mm 13,0 km/h (3 Bft) W 279 ° 0 min 0,000 mm 1,2 UV-I 163 W/m² 4,1 °C 3,4 °C 24,1 km/h (4 Bft)
23.10.2017 14:07 6,1 °C 6,1 °C 87 % 1021,5 hPa 0,0 mm 19,3 km/h (3 Bft) W 263 ° 0 min 0,000 mm 1,2 UV-I 155 W/m² 4,1 °C 2,5 °C 27,4 km/h (4 Bft)
23.10.2017 14:08 6,1 °C 6,1 °C 87 % 1021,5 hPa 0,0 mm 10,8 km/h (2 Bft) W-SW 256 ° 0 min 0,000 mm 1,1 UV-I 144 W/m² 4,1 °C 3,8 °C 17,7 km/h (3 Bft)
23.10.2017 14:09 6,0 °C 6,1 °C 87 % 1021,5 hPa 0,0 mm 13,3 km/h (3 Bft) W 269 ° 0 min 0,000 mm 1,1 UV-I 142 W/m² 4,0 °C 3,2 °C 22,5 km/h (4 Bft)
23.10.2017 14:10 6,1 °C 6,1 °C 87 % 1021,5 hPa 0,0 mm 12,4 km/h (3 Bft) W 260 ° 0 min 0,000 mm 1,1 UV-I 141 W/m² 4,1 °C 3,5 °C 17,7 km/h (3 Bft)
23.10.2017 14:11 6,1 °C 6,1 °C 87 % 1021,6 hPa 0,0 mm 12,0 km/h (2 Bft) W-SW 250 ° 0 min 0,000 mm 1,0 UV-I 135 W/m² 4,1 °C 3,6 °C 22,5 km/h (4 Bft)
23.10.2017 14:12 6,1 °C 6,1 °C 87 % 1021,5 hPa 0,0 mm 9,8 km/h (2 Bft) W 268 ° 0 min 0,000 mm 1,0 UV-I 132 W/m² 4,1 °C 4,0 °C 17,7 km/h (3 Bft)
23.10.2017 14:13 6,1 °C 6,1 °C 87 % 1021,5 hPa 0,0 mm 15,3 km/h (3 Bft) W-SW 257 ° 0 min 0,000 mm 1,0 UV-I 121 W/m² 4,1 °C 3,1 °C 22,5 km/h (4 Bft)
23.10.2017 14:14 6,1 °C 6,1 °C 87 % 1021,5 hPa 0,0 mm 10,2 km/h (2 Bft) W 271 ° 0 min 0,000 mm 0,9 UV-I 118 W/m² 4,1 °C 3,9 °C 14,5 km/h (3 Bft)
23.10.2017 14:15 6,0 °C 6,1 °C 87 % 1021,6 hPa 0,0 mm 8,3 km/h (2 Bft) W 262 ° 0 min 0,000 mm 0,8 UV-I 111 W/m² 4,0 °C 4,2 °C 17,7 km/h (3 Bft)
23.10.2017 14:16 6,0 °C 6,0 °C 87 % 1021,5 hPa 0,0 mm 12,2 km/h (2 Bft) W-NW 298 ° 0 min 0,000 mm 0,8 UV-I 107 W/m² 4,0 °C 3,4 °C 16,1 km/h (3 Bft)
23.10.2017 14:17 5,9 °C 6,0 °C 87 % 1021,6 hPa 0,0 mm 16,1 km/h (3 Bft) W-NW 288 ° 0 min 0,000 mm 0,8 UV-I 107 W/m² 3,9 °C 2,7 °C 27,4 km/h (4 Bft)
23.10.2017 14:18 5,9 °C 5,9 °C 87 % 1021,6 hPa 0,0 mm 12,6 km/h (3 Bft) W-NW 284 ° 0 min 0,000 mm 0,9 UV-I 111 W/m² 3,9 °C 3,2 °C 19,3 km/h (3 Bft)
23.10.2017 14:19 5,9 °C 5,9 °C 87 % 1021,6 hPa 0,0 mm 13,7 km/h (3 Bft) W 281 ° 0 min 0,000 mm 0,9 UV-I 113 W/m² 3,9 °C 3,1 °C 19,3 km/h (3 Bft)
23.10.2017 14:20 5,9 °C 5,9 °C 86 % 1021,5 hPa 0,0 mm 10,6 km/h (2 Bft) W 275 ° 0 min 0,000 mm 0,9 UV-I 113 W/m² 3,7 °C 3,6 °C 20,9 km/h (4 Bft)
23.10.2017 14:21 5,9 °C 5,9 °C 87 % 1021,6 hPa 0,0 mm 14,3 km/h (3 Bft) W 259 ° 0 min 0,000 mm 0,8 UV-I 114 W/m² 3,9 °C 3,0 °C 22,5 km/h (4 Bft)
23.10.2017 14:22 5,9 °C 5,9 °C 87 % 1021,5 hPa 0,0 mm 9,0 km/h (2 Bft) W-SW 250 ° 0 min 0,000 mm 0,9 UV-I 116 W/m² 3,9 °C 4,0 °C 14,5 km/h (3 Bft)
23.10.2017 14:23 5,8 °C 5,9 °C 86 % 1021,6 hPa 0,0 mm 9,5 km/h (2 Bft) W 259 ° 0 min 0,000 mm 0,9 UV-I 116 W/m² 3,6 °C 3,7 °C 14,5 km/h (3 Bft)
23.10.2017 14:24 5,8 °C 5,8 °C 87 % 1021,6 hPa 0,0 mm 14,5 km/h (3 Bft) W-NW 298 ° 0 min 0,000 mm 0,9 UV-I 116 W/m² 3,8 °C 2,8 °C 17,7 km/h (3 Bft)
23.10.2017 14:25 5,8 °C 5,8 °C 87 % 1021,5 hPa 0,0 mm 13,6 km/h (3 Bft) W-SW 249 ° 0 min 0,000 mm 0,9 UV-I 116 W/m² 3,8 °C 3,0 °C 17,7 km/h (3 Bft)
23.10.2017 14:26 5,8 °C 5,8 °C 87 % 1021,5 hPa 0,0 mm 14,2 km/h (3 Bft) W 272 ° 0 min 0,000 mm 0,9 UV-I 123 W/m² 3,8 °C 2,9 °C 22,5 km/h (4 Bft)
23.10.2017 14:27 5,8 °C 5,8 °C 87 % 1021,6 hPa 0,0 mm 9,7 km/h (2 Bft) W 281 ° 0 min 0,000 mm 0,9 UV-I 125 W/m² 3,8 °C 3,7 °C 17,7 km/h (3 Bft)
23.10.2017 14:28 5,8 °C 5,8 °C 87 % 1021,5 hPa 0,0 mm 6,6 km/h (2 Bft) W 269 ° 0 min 0,000 mm 0,9 UV-I 123 W/m² 3,8 °C 4,5 °C 11,3 km/h (2 Bft)
23.10.2017 14:29 5,8 °C 5,8 °C 87 % 1021,6 hPa 0,0 mm 13,9 km/h (3 Bft) W 269 ° 0 min 0,000 mm 1,0 UV-I 130 W/m² 3,8 °C 2,9 °C 20,9 km/h (4 Bft)
23.10.2017 14:30 5,8 °C 5,8 °C 87 % 1021,5 hPa 0,0 mm 6,9 km/h (2 Bft) W 266 ° 0 min 0,000 mm 1,0 UV-I 132 W/m² 3,8 °C 4,4 °C 11,3 km/h (2 Bft)
23.10.2017 14:31 5,8 °C 5,8 °C 87 % 1021,6 hPa 0,0 mm 9,5 km/h (2 Bft) W 280 ° 0 min 0,000 mm 1,0 UV-I 132 W/m² 3,8 °C 3,7 °C 12,9 km/h (3 Bft)
23.10.2017 14:32 5,9 °C 5,9 °C 87 % 1021,6 hPa 0,0 mm 7,0 km/h (2 Bft) W 262 ° 0 min 0,000 mm 0,9 UV-I 127 W/m² 3,9 °C 4,5 °C 12,9 km/h (3 Bft)
23.10.2017 14:33 5,9 °C 5,9 °C 87 % 1021,6 hPa 0,0 mm 9,9 km/h (2 Bft) W 275 ° 0 min 0,000 mm 0,9 UV-I 125 W/m² 3,9 °C 3,8 °C 14,5 km/h (3 Bft)
23.10.2017 14:34 5,8 °C 5,9 °C 87 % 1021,6 hPa 0,0 mm 12,4 km/h (3 Bft) W 274 ° 0 min 0,000 mm 0,9 UV-I 121 W/m² 3,8 °C 3,2 °C 16,1 km/h (3 Bft)
23.10.2017 14:35 5,9 °C 5,9 °C 87 % 1021,6 hPa 0,0 mm 8,4 km/h (2 Bft) N-NW 327 ° 0 min 0,000 mm 0,9 UV-I 121 W/m² 3,9 °C 4,1 °C 11,3 km/h (2 Bft)
23.10.2017 14:36 5,9 °C 5,9 °C 87 % 1021,5 hPa 0,0 mm 12,1 km/h (2 Bft) W 267 ° 0 min 0,000 mm 0,9 UV-I 121 W/m² 3,9 °C 3,3 °C 19,3 km/h (3 Bft)
23.10.2017 14:37 5,9 °C 5,9 °C 86 % 1021,6 hPa 0,0 mm 13,6 km/h (3 Bft) W 274 ° 0 min 0,000 mm 0,9 UV-I 123 W/m² 3,7 °C 3,1 °C 20,9 km/h (4 Bft)
23.10.2017 14:38 5,9 °C 5,9 °C 87 % 1021,6 hPa 0,0 mm 15,1 km/h (3 Bft) W 259 ° 0 min 0,000 mm 1,0 UV-I 127 W/m² 3,9 °C 2,8 °C 22,5 km/h (4 Bft)
23.10.2017 14:39 5,9 °C 5,9 °C 87 % 1021,6 hPa 0,0 mm 12,6 km/h (3 Bft) W-SW 256 ° 0 min 0,000 mm 1,0 UV-I 135 W/m² 3,9 °C 3,2 °C 17,7 km/h (3 Bft)
23.10.2017 14:40 5,9 °C 5,9 °C 87 % 1021,6 hPa 0,0 mm 11,4 km/h (2 Bft) W 268 ° 0 min 0,000 mm 1,0 UV-I 134 W/m² 3,9 °C 3,5 °C 16,1 km/h (3 Bft)
23.10.2017 14:41 5,8 °C 5,9 °C 87 % 1021,6 hPa 0,0 mm 11,3 km/h (2 Bft) W-SW 248 ° 0 min 0,000 mm 0,9 UV-I 125 W/m² 3,8 °C 3,4 °C 16,1 km/h (3 Bft)
23.10.2017 14:42 5,9 °C 5,9 °C 87 % 1021,6 hPa 0,0 mm 10,0 km/h (2 Bft) W 267 ° 0 min 0,000 mm 0,9 UV-I 118 W/m² 3,9 °C 3,7 °C 14,5 km/h (3 Bft)
23.10.2017 14:43 5,8 °C 5,9 °C 87 % 1021,7 hPa 0,0 mm 9,8 km/h (2 Bft) W 273 ° 0 min 0,000 mm 0,9 UV-I 113 W/m² 3,8 °C 3,7 °C 16,1 km/h (3 Bft)
23.10.2017 14:44 5,8 °C 5,8 °C 88 % 1021,6 hPa 0,0 mm 8,6 km/h (2 Bft) W-SW 256 ° 0 min 0,000 mm 0,8 UV-I 107 W/m² 4,0 °C 3,9 °C 12,9 km/h (3 Bft)
23.10.2017 14:45 5,8 °C 5,8 °C 87 % 1021,6 hPa 0,0 mm 10,9 km/h (2 Bft) W-SW 254 ° 0 min 0,000 mm 0,8 UV-I 105 W/m² 3,8 °C 3,4 °C 14,5 km/h (3 Bft)
23.10.2017 14:46 5,8 °C 5,8 °C 88 % 1021,6 hPa 0,0 mm 9,7 km/h (2 Bft) W 266 ° 0 min 0,000 mm 0,8 UV-I 105 W/m² 4,0 °C 3,7 °C 16,1 km/h (3 Bft)
23.10.2017 14:47 5,8 °C 5,8 °C 88 % 1021,6 hPa 0,0 mm 9,9 km/h (2 Bft) W-SW 257 ° 0 min 0,000 mm 0,8 UV-I 109 W/m² 4,0 °C 3,6 °C 12,9 km/h (3 Bft)
23.10.2017 14:48 5,8 °C 5,8 °C 88 % 1021,6 hPa 0,0 mm 12,1 km/h (2 Bft) W 276 ° 0 min 0,000 mm 0,8 UV-I 109 W/m² 4,0 °C 3,2 °C 16,1 km/h (3 Bft)
23.10.2017 14:49 5,7 °C 5,8 °C 89 % 1021,6 hPa 0,0 mm 11,3 km/h (2 Bft) W-NW 302 ° 0 min 0,000 mm 0,8 UV-I 109 W/m² 4,0 °C 3,2 °C 16,1 km/h (3 Bft)
23.10.2017 14:50 5,7 °C 5,7 °C 89 % 1021,6 hPa 0,0 mm 8,3 km/h (2 Bft) W 265 ° 0 min 0,000 mm 0,8 UV-I 109 W/m² 4,0 °C 3,9 °C 11,3 km/h (2 Bft)
23.10.2017 14:51 5,7 °C 5,7 °C 88 % 1021,6 hPa 0,0 mm 10,9 km/h (2 Bft) NW 307 ° 0 min 0,000 mm 0,8 UV-I 102 W/m² 3,9 °C 3,3 °C 22,5 km/h (4 Bft)
23.10.2017 14:52 5,6 °C 5,7 °C 88 % 1021,6 hPa 0,0 mm 14,6 km/h (3 Bft) W-NW 289 ° 0 min 0,000 mm 0,7 UV-I 93 W/m² 3,8 °C 2,5 °C 20,9 km/h (4 Bft)
23.10.2017 14:53 5,6 °C 5,6 °C 88 % 1021,7 hPa 0,0 mm 12,1 km/h (2 Bft) W 271 ° 0 min 0,000 mm 0,6 UV-I 86 W/m² 3,8 °C 3,0 °C 16,1 km/h (3 Bft)
23.10.2017 14:54 5,6 °C 5,6 °C 88 % 1021,7 hPa 0,0 mm 11,7 km/h (2 Bft) W-NW 295 ° 0 min 0,000 mm 0,7 UV-I 90 W/m² 3,8 °C 3,0 °C 14,5 km/h (3 Bft)
23.10.2017 14:55 5,5 °C 5,6 °C 88 % 1021,6 hPa 0,0 mm 6,9 km/h (2 Bft) SW 235 ° 0 min 0,000 mm 0,7 UV-I 104 W/m² 3,7 °C 4,0 °C 11,3 km/h (2 Bft)
23.10.2017 14:56 5,6 °C 5,6 °C 89 % 1021,6 hPa 0,0 mm 5,5 km/h (1 Bft) W-SW 255 ° 0 min 0,000 mm 0,8 UV-I 104 W/m² 3,9 °C 4,6 °C 11,3 km/h (2 Bft)
23.10.2017 14:57 5,5 °C 5,6 °C 89 % 1021,7 hPa 0,0 mm 7,8 km/h (2 Bft) W 264 ° 0 min 0,000 mm 0,7 UV-I 98 W/m² 3,8 °C 3,8 °C 14,5 km/h (3 Bft)
23.10.2017 14:58 5,5 °C 5,5 °C 89 % 1021,6 hPa 0,0 mm 8,5 km/h (2 Bft) W 268 ° 0 min 0,000 mm 0,7 UV-I 93 W/m² 3,8 °C 3,6 °C 11,3 km/h (2 Bft)
23.10.2017 14:59 5,5 °C 5,5 °C 89 % 1021,7 hPa 0,0 mm 10,5 km/h (2 Bft) W 273 ° 0 min 0,000 mm 0,7 UV-I 97 W/m² 3,8 °C 3,2 °C 17,7 km/h (3 Bft)
23.10.2017 15:00 5,4 °C 5,5 °C 89 % 1021,7 hPa 0,0 mm 12,2 km/h (2 Bft) W 265 ° 0 min 0,000 mm 0,8 UV-I 104 W/m² 3,7 °C 2,7 °C 19,3 km/h (3 Bft)
23.10.2017 15:01 5,4 °C 5,4 °C 89 % 1021,6 hPa 0,0 mm 11,9 km/h (2 Bft) W-NW 288 ° 0 min 0,050 mm 0,8 UV-I 113 W/m² 3,7 °C 2,8 °C 17,7 km/h (3 Bft)
23.10.2017 15:02 5,4 °C 5,4 °C 89 % 1021,6 hPa 0,0 mm 12,4 km/h (3 Bft) W 265 ° 0 min 0,000 mm 0,8 UV-I 107 W/m² 3,7 °C 2,7 °C 16,1 km/h (3 Bft)
23.10.2017 15:03 5,4 °C 5,4 °C 89 % 1021,7 hPa 0,0 mm 9,0 km/h (2 Bft) W 261 ° 0 min 0,000 mm 0,8 UV-I 107 W/m² 3,7 °C 3,4 °C 11,3 km/h (2 Bft)
23.10.2017 15:04 5,4 °C 5,4 °C 89 % 1021,7 hPa 0,0 mm 12,8 km/h (3 Bft) NW 311 ° 0 min 0,000 mm 0,7 UV-I 104 W/m² 3,7 °C 2,6 °C 16,1 km/h (3 Bft)
23.10.2017 15:05 5,4 °C 5,4 °C 89 % 1021,7 hPa 0,2 mm 9,2 km/h (2 Bft) W-SW 251 ° 0 min 0,000 mm 0,7 UV-I 100 W/m² 3,7 °C 3,3 °C 14,5 km/h (3 Bft)
23.10.2017 15:06 5,4 °C 5,4 °C 89 % 1021,6 hPa 0,0 mm 9,7 km/h (2 Bft) W-SW 248 ° 0 min 0,000 mm 0,7 UV-I 97 W/m² 3,7 °C 3,2 °C 12,9 km/h (3 Bft)
23.10.2017 15:07 5,4 °C 5,4 °C 89 % 1021,6 hPa 0,0 mm 8,0 km/h (2 Bft) W 280 ° 0 min 0,000 mm 0,7 UV-I 102 W/m² 3,7 °C 3,6 °C 11,3 km/h (2 Bft)
23.10.2017 15:08 5,4 °C 5,4 °C 89 % 1021,7 hPa 0,0 mm 8,3 km/h (2 Bft) W 261 ° 0 min 0,000 mm 0,7 UV-I 100 W/m² 3,7 °C 3,5 °C 11,3 km/h (2 Bft)
23.10.2017 15:09 5,4 °C 5,4 °C 90 % 1021,7 hPa 0,0 mm 7,3 km/h (2 Bft) W 265 ° 0 min 0,000 mm 0,7 UV-I 104 W/m² 3,9 °C 3,8 °C 14,5 km/h (3 Bft)
23.10.2017 15:10 5,4 °C 5,4 °C 90 % 1021,6 hPa 0,0 mm 13,9 km/h (3 Bft) W 281 ° 0 min 0,000 mm 0,7 UV-I 102 W/m² 3,9 °C 2,4 °C 17,7 km/h (3 Bft)
23.10.2017 15:11 5,4 °C 5,4 °C 90 % 1021,7 hPa 0,0 mm 11,5 km/h (2 Bft) W-NW 291 ° 0 min 0,000 mm 0,7 UV-I 98 W/m² 3,9 °C 2,8 °C 14,5 km/h (3 Bft)
23.10.2017 15:12 5,4 °C 5,4 °C 90 % 1021,7 hPa 0,0 mm 12,5 km/h (3 Bft) W 264 ° 0 min 0,000 mm 0,8 UV-I 107 W/m² 3,9 °C 2,7 °C 16,1 km/h (3 Bft)
23.10.2017 15:14 5,4 °C 5,4 °C 90 % 1021,7 hPa 0,0 mm 8,3 km/h (2 Bft) W 259 ° 0 min 0,000 mm 0,7 UV-I 100 W/m² 3,9 °C 3,5 °C 16,1 km/h (3 Bft)
23.10.2017 15:15 5,4 °C 5,4 °C 90 % 1021,7 hPa 0,0 mm 9,3 km/h (2 Bft) SW 224 ° 0 min 0,000 mm 0,7 UV-I 102 W/m² 3,9 °C 3,3 °C 16,1 km/h (3 Bft)
23.10.2017 15:16 5,4 °C 5,4 °C 90 % 1021,7 hPa 0,0 mm 11,2 km/h (2 Bft) W 262 ° 0 min 0,000 mm 0,7 UV-I 98 W/m² 3,9 °C 2,9 °C 19,3 km/h (3 Bft)
23.10.2017 15:17 5,4 °C 5,4 °C 90 % 1021,7 hPa 0,0 mm 11,2 km/h (2 Bft) W 281 ° 0 min 0,000 mm 0,7 UV-I 98 W/m² 3,9 °C 2,9 °C 19,3 km/h (3 Bft)
23.10.2017 15:18 5,5 °C 5,5 °C 91 % 1021,7 hPa 0,0 mm 10,5 km/h (2 Bft) W 276 ° 0 min 0,000 mm 0,7 UV-I 88 W/m² 4,2 °C 3,2 °C 19,3 km/h (3 Bft)
23.10.2017 15:19 5,4 °C 5,5 °C 90 % 1021,7 hPa 0,0 mm 15,2 km/h (3 Bft) W 264 ° 0 min 0,000 mm 0,7 UV-I 90 W/m² 3,9 °C 2,2 °C 20,9 km/h (4 Bft)
23.10.2017 15:20 5,5 °C 5,5 °C 90 % 1021,8 hPa 0,0 mm 6,9 km/h (2 Bft) W-NW 300 ° 0 min 0,000 mm 0,7 UV-I 86 W/m² 4,0 °C 4,0 °C 14,5 km/h (3 Bft)
23.10.2017 15:21 5,4 °C 5,5 °C 90 % 1021,7 hPa 0,0 mm 2,9 km/h (1 Bft) W-NW 294 ° 0 min 0,000 mm 0,6 UV-I 86 W/m² 3,9 °C 5,4 °C 4,8 km/h (1 Bft)
23.10.2017 15:22 5,4 °C 5,4 °C 90 % 1021,8 hPa 0,0 mm 6,0 km/h (2 Bft) W-SW 238 ° 0 min 0,000 mm 0,6 UV-I 86 W/m² 3,9 °C 4,2 °C 11,3 km/h (2 Bft)
23.10.2017 15:24 5,5 °C 5,5 °C 90 % 1021,7 hPa 0,0 mm 9,9 km/h (2 Bft) W 273 ° 0 min 0,000 mm 0,7 UV-I 91 W/m² 4,0 °C 3,3 °C 17,7 km/h (3 Bft)
23.10.2017 15:25 5,5 °C 5,5 °C 90 % 1021,7 hPa 0,0 mm 10,7 km/h (2 Bft) W-NW 282 ° 0 min 0,000 mm 0,8 UV-I 95 W/m² 4,0 °C 3,1 °C 16,1 km/h (3 Bft)
23.10.2017 15:26 5,5 °C 5,5 °C 90 % 1021,8 hPa 0,0 mm 8,1 km/h (2 Bft) W-NW 297 ° 0 min 0,000 mm 0,8 UV-I 97 W/m² 4,0 °C 3,7 °C 14,5 km/h (3 Bft)
23.10.2017 15:27 5,5 °C 5,6 °C 90 % 1021,7 hPa 0,0 mm 10,9 km/h (2 Bft) S-SW 207 ° 0 min 0,000 mm 0,8 UV-I 97 W/m² 4,0 °C 3,1 °C 16,1 km/h (3 Bft)
23.10.2017 15:28 5,5 °C 5,5 °C 89 % 1021,8 hPa 0,0 mm 13,5 km/h (3 Bft) W-SW 258 ° 0 min 0,000 mm 0,8 UV-I 93 W/m² 3,8 °C 2,6 °C 19,3 km/h (3 Bft)
23.10.2017 15:29 5,5 °C 5,5 °C 89 % 1021,8 hPa 0,0 mm 11,4 km/h (2 Bft) W 262 ° 0 min 0,000 mm 0,8 UV-I 91 W/m² 3,8 °C 3,0 °C 19,3 km/h (3 Bft)
23.10.2017 15:30 5,5 °C 5,5 °C 89 % 1021,7 hPa 0,0 mm 10,0 km/h (2 Bft) W 275 ° 0 min 0,000 mm 0,8 UV-I 98 W/m² 3,8 °C 3,3 °C 20,9 km/h (4 Bft)
23.10.2017 15:31 5,5 °C 5,5 °C 89 % 1021,7 hPa 0,0 mm 13,2 km/h (3 Bft) W 273 ° 0 min 0,000 mm 0,8 UV-I 97 W/m² 3,8 °C 2,7 °C 19,3 km/h (3 Bft)
23.10.2017 15:32 5,5 °C 5,6 °C 89 % 1021,7 hPa 0,0 mm 11,1 km/h (2 Bft) W-NW 284 ° 0 min 0,000 mm 0,8 UV-I 100 W/m² 3,8 °C 3,0 °C 16,1 km/h (3 Bft)
23.10.2017 15:33 5,5 °C 5,6 °C 89 % 1021,8 hPa 0,0 mm 14,1 km/h (3 Bft) W-SW 258 ° 0 min 0,000 mm 0,8 UV-I 104 W/m² 3,8 °C 2,5 °C 17,7 km/h (3 Bft)
23.10.2017 15:34 5,6 °C 5,6 °C 89 % 1021,8 hPa 0,0 mm 10,6 km/h (2 Bft) S-SW 208 ° 0 min 0,000 mm 0,8 UV-I 102 W/m² 3,9 °C 3,3 °C 16,1 km/h (3 Bft)
23.10.2017 15:35 5,5 °C 5,6 °C 89 % 1021,8 hPa 0,0 mm 11,7 km/h (2 Bft) W-SW 257 ° 0 min 0,000 mm 0,8 UV-I 98 W/m² 3,8 °C 2,9 °C 19,3 km/h (3 Bft)
23.10.2017 15:36 5,5 °C 5,5 °C 89 % 1021,8 hPa 0,0 mm 13,1 km/h (3 Bft) W-SW 251 ° 0 min 0,000 mm 0,7 UV-I 90 W/m² 3,8 °C 2,7 °C 17,7 km/h (3 Bft)
23.10.2017 15:37 5,5 °C 5,5 °C 88 % 1021,8 hPa 0,0 mm 13,3 km/h (3 Bft) W-NW 282 ° 0 min 0,000 mm 0,7 UV-I 86 W/m² 3,7 °C 2,6 °C 16,1 km/h (3 Bft)
23.10.2017 15:38 5,5 °C 5,6 °C 89 % 1021,8 hPa 0,0 mm 15,3 km/h (3 Bft) W-NW 288 ° 0 min 0,000 mm 0,7 UV-I 84 W/m² 3,8 °C 2,3 °C 20,9 km/h (4 Bft)
23.10.2017 15:39 5,6 °C 5,6 °C 89 % 1021,7 hPa 0,0 mm 12,1 km/h (2 Bft) W-SW 252 ° 0 min 0,000 mm 0,7 UV-I 83 W/m² 3,9 °C 3,0 °C 17,7 km/h (3 Bft)
23.10.2017 15:40 5,5 °C 5,6 °C 89 % 1021,8 hPa 0,0 mm 15,7 km/h (3 Bft) W-SW 258 ° 0 min 0,000 mm 0,7 UV-I 84 W/m² 3,8 °C 2,3 °C 20,9 km/h (4 Bft)
23.10.2017 15:41 5,5 °C 5,6 °C 89 % 1021,8 hPa 0,0 mm 10,6 km/h (2 Bft) W-NW 303 ° 0 min 0,000 mm 0,7 UV-I 86 W/m² 3,8 °C 3,1 °C 17,7 km/h (3 Bft)
23.10.2017 15:42 5,5 °C 5,5 °C 89 % 1021,8 hPa 0,0 mm 13,3 km/h (3 Bft) W 275 ° 0 min 0,000 mm 0,7 UV-I 88 W/m² 3,8 °C 2,6 °C 22,5 km/h (4 Bft)
23.10.2017 15:43 5,5 °C 5,5 °C 89 % 1021,8 hPa 0,0 mm 18,2 km/h (3 Bft) W-SW 248 ° 0 min 0,000 mm 0,7 UV-I 86 W/m² 3,8 °C 1,9 °C 22,5 km/h (4 Bft)
23.10.2017 15:44 5,4 °C 5,5 °C 89 % 1021,8 hPa 0,0 mm 12,2 km/h (2 Bft) W-SW 258 ° 0 min 0,000 mm 0,7 UV-I 84 W/m² 3,7 °C 2,7 °C 20,9 km/h (4 Bft)
23.10.2017 15:45 5,4 °C 5,4 °C 89 % 1021,9 hPa 0,0 mm 20,0 km/h (4 Bft) W 259 ° 0 min 0,000 mm 0,7 UV-I 83 W/m² 3,7 °C 1,6 °C 30,6 km/h (5 Bft)
23.10.2017 15:46 5,4 °C 5,4 °C 88 % 1021,8 hPa 0,0 mm 14,0 km/h (3 Bft) W 269 ° 0 min 0,000 mm 0,7 UV-I 83 W/m² 3,6 °C 2,4 °C 29,0 km/h (5 Bft)
23.10.2017 15:47 5,4 °C 5,4 °C 89 % 1021,8 hPa 0,0 mm 13,1 km/h (3 Bft) W 263 ° 0 min 0,000 mm 0,7 UV-I 86 W/m² 3,7 °C 2,5 °C 17,7 km/h (3 Bft)
23.10.2017 15:48 5,4 °C 5,4 °C 89 % 1021,8 hPa 0,0 mm 11,4 km/h (2 Bft) W 259 ° 0 min 0,000 mm 0,7 UV-I 91 W/m² 3,7 °C 2,9 °C 16,1 km/h (3 Bft)
23.10.2017 15:49 5,3 °C 5,4 °C 89 % 1021,9 hPa 0,0 mm 15,7 km/h (3 Bft) W 263 ° 0 min 0,000 mm 0,7 UV-I 97 W/m² 3,6 °C 2,0 °C 19,3 km/h (3 Bft)
23.10.2017 15:50 5,3 °C 5,3 °C 89 % 1021,9 hPa 0,0 mm 13,1 km/h (3 Bft) W 270 ° 0 min 0,000 mm 0,7 UV-I 102 W/m² 3,6 °C 2,4 °C 16,1 km/h (3 Bft)
23.10.2017 15:51 5,3 °C 5,3 °C 89 % 1021,8 hPa 0,0 mm 8,9 km/h (2 Bft) W-SW 238 ° 0 min 0,000 mm 0,8 UV-I 107 W/m² 3,6 °C 3,3 °C 14,5 km/h (3 Bft)
23.10.2017 15:52 5,3 °C 5,4 °C 88 % 1021,9 hPa 0,0 mm 8,1 km/h (2 Bft) S-SW 209 ° 0 min 0,000 mm 0,8 UV-I 111 W/m² 3,5 °C 3,5 °C 16,1 km/h (3 Bft)
23.10.2017 15:53 5,3 °C 5,3 °C 89 % 1021,8 hPa 0,0 mm 7,8 km/h (2 Bft) W-NW 300 ° 0 min 0,000 mm 0,8 UV-I 114 W/m² 3,6 °C 3,5 °C 16,1 km/h (3 Bft)
23.10.2017 15:54 5,3 °C 5,3 °C 89 % 1021,9 hPa 0,0 mm 14,2 km/h (3 Bft) W 260 ° 0 min 0,000 mm 0,8 UV-I 114 W/m² 3,6 °C 2,2 °C 22,5 km/h (4 Bft)
23.10.2017 15:55 5,3 °C 5,3 °C 89 % 1021,8 hPa 0,0 mm 17,8 km/h (3 Bft) W 274 ° 0 min 0,000 mm 0,8 UV-I 113 W/m² 3,6 °C 1,7 °C 24,1 km/h (4 Bft)
23.10.2017 15:56 5,3 °C 5,3 °C 89 % 1021,9 hPa 0,0 mm 12,6 km/h (3 Bft) W-SW 250 ° 0 min 0,000 mm 0,8 UV-I 109 W/m² 3,6 °C 2,5 °C 20,9 km/h (4 Bft)
23.10.2017 15:57 5,3 °C 5,3 °C 89 % 1021,9 hPa 0,0 mm 15,4 km/h (3 Bft) W-SW 255 ° 0 min 0,000 mm 0,7 UV-I 102 W/m² 3,6 °C 2,1 °C 24,1 km/h (4 Bft)
23.10.2017 15:58 5,3 °C 5,3 °C 89 % 1021,9 hPa 0,0 mm 16,8 km/h (3 Bft) W-SW 245 ° 0 min 0,000 mm 0,7 UV-I 95 W/m² 3,6 °C 1,9 °C 24,1 km/h (4 Bft)
23.10.2017 15:59 5,3 °C 5,3 °C 89 % 1021,9 hPa 0,0 mm 14,4 km/h (3 Bft) W-NW 296 ° 0 min 0,000 mm 0,7 UV-I 81 W/m² 3,6 °C 2,2 °C 20,9 km/h (4 Bft)
23.10.2017 16:00 5,3 °C 5,3 °C 89 % 1021,9 hPa 0,0 mm 14,4 km/h (3 Bft) W-SW 257 ° 0 min 0,000 mm 0,6 UV-I 76 W/m² 3,6 °C 2,2 °C 20,9 km/h (4 Bft)
23.10.2017 16:01 5,3 °C 5,4 °C 89 % 1021,9 hPa 0,0 mm 17,5 km/h (3 Bft) W-NW 294 ° 0 min 0,051 mm 0,6 UV-I 72 W/m² 3,6 °C 1,8 °C 22,5 km/h (4 Bft)
23.10.2017 16:02 5,3 °C 5,3 °C 89 % 1021,9 hPa 0,0 mm 13,4 km/h (3 Bft) W 274 ° 0 min 0,000 mm 0,6 UV-I 70 W/m² 3,6 °C 2,4 °C 16,1 km/h (3 Bft)
23.10.2017 16:03 5,3 °C 5,3 °C 89 % 1021,9 hPa 0,0 mm 7,4 km/h (2 Bft) W 267 ° 0 min 0,000 mm 0,6 UV-I 69 W/m² 3,6 °C 3,6 °C 17,7 km/h (3 Bft)
23.10.2017 16:04 5,3 °C 5,3 °C 89 % 1021,9 hPa 0,0 mm 7,6 km/h (2 Bft) W-SW 254 ° 0 min 0,000 mm 0,5 UV-I 67 W/m² 3,6 °C 3,6 °C 14,5 km/h (3 Bft)
23.10.2017 16:05 5,3 °C 5,3 °C 89 % 1022,0 hPa 0,0 mm 8,5 km/h (2 Bft) W-SW 250 ° 0 min 0,000 mm 0,5 UV-I 63 W/m² 3,6 °C 3,4 °C 16,1 km/h (3 Bft)
23.10.2017 16:06 5,3 °C 5,3 °C 89 % 1022,0 hPa 0,0 mm 14,3 km/h (3 Bft) W 261 ° 0 min 0,000 mm 0,5 UV-I 62 W/m² 3,6 °C 2,2 °C 22,5 km/h (4 Bft)
23.10.2017 16:07 5,2 °C 5,3 °C 88 % 1022,0 hPa 0,0 mm 13,0 km/h (3 Bft) W-NW 284 ° 0 min 0,000 mm 0,5 UV-I 62 W/m² 3,4 °C 2,3 °C 22,5 km/h (4 Bft)
23.10.2017 16:08 5,3 °C 5,3 °C 89 % 1022,0 hPa 0,0 mm 10,4 km/h (2 Bft) W 267 ° 0 min 0,000 mm 0,5 UV-I 63 W/m² 3,6 °C 2,9 °C 12,9 km/h (3 Bft)
23.10.2017 16:09 5,3 °C 5,3 °C 89 % 1022,0 hPa 0,0 mm 11,5 km/h (2 Bft) W 262 ° 0 min 0,000 mm 0,5 UV-I 67 W/m² 3,6 °C 2,7 °C 17,7 km/h (3 Bft)
23.10.2017 16:10 5,2 °C 5,3 °C 89 % 1022,0 hPa 0,0 mm 12,9 km/h (3 Bft) SW 225 ° 0 min 0,000 mm 0,5 UV-I 69 W/m² 3,5 °C 2,3 °C 22,5 km/h (4 Bft)
23.10.2017 16:11 5,2 °C 5,2 °C 89 % 1022,0 hPa 0,0 mm 13,6 km/h (3 Bft) W-NW 297 ° 0 min 0,000 mm 0,5 UV-I 67 W/m² 3,5 °C 2,2 °C 17,7 km/h (3 Bft)
23.10.2017 16:12 5,2 °C 5,2 °C 89 % 1022,0 hPa 0,0 mm 11,8 km/h (2 Bft) W-SW 255 ° 0 min 0,000 mm 0,0 UV-I 58 W/m² 3,5 °C 2,5 °C 17,7 km/h (3 Bft)
23.10.2017 16:13 5,2 °C 5,2 °C 89 % 1022,0 hPa 0,0 mm 13,8 km/h (3 Bft) W 266 ° 0 min 0,000 mm 0,0 UV-I 56 W/m² 3,5 °C 2,2 °C 17,7 km/h (3 Bft)
23.10.2017 16:14 5,2 °C 5,2 °C 89 % 1022,0 hPa 0,0 mm 9,4 km/h (2 Bft) W 263 ° 0 min 0,000 mm 0,0 UV-I 54 W/m² 3,5 °C 3,0 °C 17,7 km/h (3 Bft)
23.10.2017 16:15 5,2 °C 5,2 °C 89 % 1022,0 hPa 0,0 mm 7,6 km/h (2 Bft) W-SW 244 ° 0 min 0,000 mm 0,0 UV-I 54 W/m² 3,5 °C 3,5 °C 12,9 km/h (3 Bft)
23.10.2017 16:16 5,2 °C 5,2 °C 89 % 1022,0 hPa 0,0 mm 5,6 km/h (1 Bft) W 266 ° 0 min 0,000 mm 0,0 UV-I 54 W/m² 3,5 °C 4,1 °C 9,7 km/h (2 Bft)
23.10.2017 16:17 5,1 °C 5,2 °C 89 % 1022,0 hPa 0,0 mm 11,4 km/h (2 Bft) W 273 ° 0 min 0,000 mm 0,0 UV-I 56 W/m² 3,4 °C 2,5 °C 14,5 km/h (3 Bft)
23.10.2017 16:18 5,2 °C 5,2 °C 89 % 1022,0 hPa 0,0 mm 12,1 km/h (2 Bft) W 262 ° 0 min 0,000 mm 0,0 UV-I 58 W/m² 3,5 °C 2,5 °C 20,9 km/h (4 Bft)
23.10.2017 16:19 5,1 °C 5,2 °C 89 % 1022,0 hPa 0,0 mm 11,1 km/h (2 Bft) W 280 ° 0 min 0,000 mm 0,0 UV-I 58 W/m² 3,4 °C 2,6 °C 19,3 km/h (3 Bft)
23.10.2017 16:20 5,1 °C 5,2 °C 89 % 1022,0 hPa 0,0 mm 11,6 km/h (2 Bft) SW 226 ° 0 min 0,000 mm 0,0 UV-I 56 W/m² 3,4 °C 2,5 °C 20,9 km/h (4 Bft)
23.10.2017 16:21 5,1 °C 5,1 °C 89 % 1022,1 hPa 0,0 mm 6,9 km/h (2 Bft) W 272 ° 0 min 0,000 mm 0,0 UV-I 54 W/m² 3,4 °C 3,6 °C 12,9 km/h (3 Bft)
23.10.2017 16:22 5,1 °C 5,2 °C 89 % 1022,1 hPa 0,0 mm 6,1 km/h (2 Bft) W-SW 254 ° 0 min 0,000 mm 0,0 UV-I 56 W/m² 3,4 °C 3,8 °C 12,9 km/h (3 Bft)
23.10.2017 16:23 5,1 °C 5,1 °C 89 % 1022,1 hPa 0,0 mm 10,2 km/h (2 Bft) SW 224 ° 0 min 0,000 mm 0,0 UV-I 53 W/m² 3,4 °C 2,7 °C 19,3 km/h (3 Bft)
23.10.2017 16:24 5,1 °C 5,1 °C 89 % 1022,1 hPa 0,0 mm 13,1 km/h (3 Bft) W 263 ° 0 min 0,000 mm 0,0 UV-I 51 W/m² 3,4 °C 2,2 °C 20,9 km/h (4 Bft)
23.10.2017 16:25 5,1 °C 5,1 °C 89 % 1022,1 hPa 0,0 mm 9,3 km/h (2 Bft) W 264 ° 0 min 0,000 mm 0,0 UV-I 49 W/m² 3,4 °C 2,9 °C 16,1 km/h (3 Bft)
23.10.2017 16:26 5,1 °C 5,1 °C 89 % 1022,1 hPa 0,0 mm 11,1 km/h (2 Bft) W-SW 244 ° 0 min 0,000 mm 0,0 UV-I 51 W/m² 3,4 °C 2,6 °C 19,3 km/h (3 Bft)
23.10.2017 16:27 5,1 °C 5,1 °C 89 % 1022,1 hPa 0,0 mm 6,4 km/h (2 Bft) W 280 ° 0 min 0,000 mm 0,0 UV-I 53 W/m² 3,4 °C 3,7 °C 12,9 km/h (3 Bft)
23.10.2017 16:28 5,2 °C 5,2 °C 89 % 1022,1 hPa 0,0 mm 8,3 km/h (2 Bft) W 273 ° 0 min 0,000 mm 0,0 UV-I 58 W/m² 3,5 °C 3,3 °C 12,9 km/h (3 Bft)
23.10.2017 16:29 5,1 °C 5,2 °C 89 % 1022,1 hPa 0,0 mm 8,1 km/h (2 Bft) W 263 ° 0 min 0,000 mm 0,0 UV-I 58 W/m² 3,4 °C 3,2 °C 12,9 km/h (3 Bft)
23.10.2017 16:30 5,1 °C 5,2 °C 89 % 1022,1 hPa 0,0 mm 8,6 km/h (2 Bft) W 269 ° 0 min 0,000 mm 0,0 UV-I 60 W/m² 3,4 °C 3,1 °C 12,9 km/h (3 Bft)
23.10.2017 16:31 5,2 °C 5,2 °C 89 % 1022,1 hPa 0,0 mm 9,9 km/h (2 Bft) W-SW 240 ° 0 min 0,000 mm 0,0 UV-I 58 W/m² 3,5 °C 2,9 °C 14,5 km/h (3 Bft)
23.10.2017 16:32 5,2 °C 5,2 °C 88 % 1022,1 hPa 0,0 mm 7,4 km/h (2 Bft) SW 230 ° 0 min 0,000 mm 0,0 UV-I 58 W/m² 3,4 °C 3,5 °C 11,3 km/h (2 Bft)
23.10.2017 16:33 5,2 °C 5,2 °C 88 % 1022,1 hPa 0,0 mm 10,1 km/h (2 Bft) W 265 ° 0 min 0,000 mm 0,0 UV-I 56 W/m² 3,4 °C 2,9 °C 14,5 km/h (3 Bft)
23.10.2017 16:34 5,2 °C 5,2 °C 88 % 1022,1 hPa 0,0 mm 9,6 km/h (2 Bft) W-SW 254 ° 0 min 0,000 mm 0,0 UV-I 54 W/m² 3,4 °C 3,0 °C 16,1 km/h (3 Bft)
23.10.2017 16:35 5,2 °C 5,2 °C 89 % 1022,1 hPa 0,0 mm 7,6 km/h (2 Bft) W 260 ° 0 min 0,000 mm 0,0 UV-I 53 W/m² 3,5 °C 3,5 °C 11,3 km/h (2 Bft)
23.10.2017 16:36 5,1 °C 5,2 °C 89 % 1022,1 hPa 0,0 mm 9,1 km/h (2 Bft) W 266 ° 0 min 0,000 mm 0,0 UV-I 51 W/m² 3,4 °C 3,0 °C 14,5 km/h (3 Bft)
23.10.2017 16:37 5,1 °C 5,2 °C 89 % 1022,1 hPa 0,0 mm 7,9 km/h (2 Bft) W-SW 248 ° 0 min 0,000 mm 0,0 UV-I 49 W/m² 3,4 °C 3,3 °C 14,5 km/h (3 Bft)
23.10.2017 16:39 5,1 °C 5,2 °C 89 % 1022,1 hPa 0,0 mm 9,9 km/h (2 Bft) W 273 ° 0 min 0,000 mm 0,0 UV-I 40 W/m² 3,4 °C 2,8 °C 17,7 km/h (3 Bft)
23.10.2017 16:40 5,1 °C 5,2 °C 89 % 1022,1 hPa 0,0 mm 11,5 km/h (2 Bft) W 271 ° 0 min 0,000 mm 0,0 UV-I 39 W/m² 3,4 °C 2,5 °C 16,1 km/h (3 Bft)
23.10.2017 16:41 5,1 °C 5,2 °C 89 % 1022,1 hPa 0,0 mm 10,2 km/h (2 Bft) W-SW 249 ° 0 min 0,000 mm 0,0 UV-I 39 W/m² 3,4 °C 2,7 °C 12,9 km/h (3 Bft)
23.10.2017 16:42 5,2 °C 5,2 °C 89 % 1022,1 hPa 0,0 mm 11,7 km/h (2 Bft) W 260 ° 0 min 0,000 mm 0,0 UV-I 39 W/m² 3,5 °C 2,6 °C 16,1 km/h (3 Bft)
23.10.2017 16:43 5,1 °C 5,2 °C 89 % 1022,1 hPa 0,0 mm 14,5 km/h (3 Bft) W 267 ° 0 min 0,000 mm 0,0 UV-I 40 W/m² 3,4 °C 2,0 °C 17,7 km/h (3 Bft)
23.10.2017 16:44 5,2 °C 5,2 °C 89 % 1022,1 hPa 0,0 mm 12,2 km/h (2 Bft) W-SW 252 ° 0 min 0,000 mm 0,0 UV-I 40 W/m² 3,5 °C 2,5 °C 16,1 km/h (3 Bft)
23.10.2017 16:45 5,1 °C 5,2 °C 89 % 1022,1 hPa 0,0 mm 11,5 km/h (2 Bft) W 264 ° 0 min 0,000 mm 0,0 UV-I 40 W/m² 3,4 °C 2,5 °C 16,1 km/h (3 Bft)
23.10.2017 16:46 5,1 °C 5,2 °C 89 % 1022,1 hPa 0,0 mm 10,8 km/h (2 Bft) SW 218 ° 0 min 0,000 mm 0,0 UV-I 40 W/m² 3,4 °C 2,6 °C 16,1 km/h (3 Bft)
23.10.2017 16:47 5,1 °C 5,2 °C 89 % 1022,2 hPa 0,0 mm 15,8 km/h (3 Bft) W 265 ° 0 min 0,000 mm 0,0 UV-I 39 W/m² 3,4 °C 1,8 °C 20,9 km/h (4 Bft)
23.10.2017 16:48 5,1 °C 5,2 °C 89 % 1022,2 hPa 0,0 mm 9,4 km/h (2 Bft) W 277 ° 0 min 0,000 mm 0,0 UV-I 37 W/m² 3,4 °C 2,9 °C 14,5 km/h (3 Bft)
23.10.2017 16:49 5,1 °C 5,1 °C 89 % 1022,3 hPa 0,0 mm 16,2 km/h (3 Bft) W-SW 254 ° 0 min 0,000 mm 0,0 UV-I 37 W/m² 3,4 °C 1,7 °C 22,5 km/h (4 Bft)
23.10.2017 16:50 5,1 °C 5,1 °C 89 % 1022,2 hPa 0,0 mm 7,6 km/h (2 Bft) W-SW 253 ° 0 min 0,000 mm 0,0 UV-I 37 W/m² 3,4 °C 3,4 °C 14,5 km/h (3 Bft)
23.10.2017 16:51 5,1 °C 5,1 °C 89 % 1022,3 hPa 0,0 mm 15,4 km/h (3 Bft) W 269 ° 0 min 0,000 mm 0,0 UV-I 35 W/m² 3,4 °C 1,8 °C 19,3 km/h (3 Bft)
23.10.2017 16:52 5,1 °C 5,1 °C 90 % 1022,3 hPa 0,2 mm 18,5 km/h (3 Bft) W 264 ° 0 min 0,000 mm 0,0 UV-I 39 W/m² 3,6 °C 1,4 °C 25,7 km/h (4 Bft)
23.10.2017 16:53 5,1 °C 5,1 °C 90 % 1022,2 hPa 0,0 mm 10,1 km/h (2 Bft) W 274 ° 0 min 0,000 mm 0,0 UV-I 37 W/m² 3,6 °C 2,8 °C 16,1 km/h (3 Bft)
23.10.2017 16:54 5,1 °C 5,1 °C 90 % 1022,2 hPa 0,0 mm 12,0 km/h (2 Bft) W 274 ° 0 min 0,000 mm 0,0 UV-I 37 W/m² 3,6 °C 2,4 °C 16,1 km/h (3 Bft)
23.10.2017 16:55 5,1 °C 5,1 °C 90 % 1022,3 hPa 0,0 mm 12,9 km/h (3 Bft) W-SW 257 ° 0 min 0,000 mm 0,0 UV-I 35 W/m² 3,6 °C 2,2 °C 17,7 km/h (3 Bft)
23.10.2017 16:56 5,1 °C 5,1 °C 90 % 1022,2 hPa 0,0 mm 13,7 km/h (3 Bft) W 269 ° 0 min 0,000 mm 0,0 UV-I 33 W/m² 3,6 °C 2,1 °C 17,7 km/h (3 Bft)
23.10.2017 16:57 5,1 °C 5,1 °C 90 % 1022,2 hPa 0,0 mm 10,0 km/h (2 Bft) W 263 ° 0 min 0,000 mm 0,0 UV-I 30 W/m² 3,6 °C 2,8 °C 14,5 km/h (3 Bft)
23.10.2017 16:58 5,1 °C 5,1 °C 90 % 1022,3 hPa 0,0 mm 11,3 km/h (2 Bft) W-NW 296 ° 0 min 0,000 mm 0,0 UV-I 28 W/m² 3,6 °C 2,5 °C 14,5 km/h (3 Bft)
23.10.2017 16:59 5,0 °C 5,1 °C 90 % 1022,3 hPa 0,0 mm 10,0 km/h (2 Bft) W 275 ° 0 min 0,000 mm 0,0 UV-I 25 W/m² 3,5 °C 2,7 °C 14,5 km/h (3 Bft)
23.10.2017 17:00 5,0 °C 5,1 °C 90 % 1022,3 hPa 0,0 mm 9,9 km/h (2 Bft) W 263 ° 0 min 0,000 mm 0,0 UV-I 23 W/m² 3,5 °C 2,7 °C 14,5 km/h (3 Bft)
23.10.2017 17:01 5,0 °C 5,1 °C 90 % 1022,3 hPa 0,0 mm 11,0 km/h (2 Bft) W 265 ° 0 min 0,026 mm 0,0 UV-I 19 W/m² 3,5 °C 2,4 °C 17,7 km/h (3 Bft)
23.10.2017 17:02 5,0 °C 5,0 °C 90 % 1022,3 hPa 0,0 mm 13,7 km/h (3 Bft) W-SW 240 ° 0 min 0,000 mm 0,0 UV-I 18 W/m² 3,5 °C 2,0 °C 17,7 km/h (3 Bft)
23.10.2017 17:03 4,9 °C 5,0 °C 90 % 1022,4 hPa 0,0 mm 17,1 km/h (3 Bft) W-NW 288 ° 0 min 0,000 mm 0,0 UV-I 18 W/m² 3,4 °C 1,3 °C 20,9 km/h (4 Bft)
23.10.2017 17:04 5,0 °C 5,0 °C 90 % 1022,3 hPa 0,0 mm 15,4 km/h (3 Bft) W-SW 254 ° 0 min 0,000 mm 0,0 UV-I 19 W/m² 3,5 °C 1,7 °C 19,3 km/h (3 Bft)
23.10.2017 17:05 5,0 °C 5,0 °C 90 % 1022,3 hPa 0,0 mm 14,2 km/h (3 Bft) W-SW 250 ° 0 min 0,000 mm 0,0 UV-I 23 W/m² 3,5 °C 1,9 °C 19,3 km/h (3 Bft)
23.10.2017 17:06 5,0 °C 5,0 °C 90 % 1022,3 hPa 0,0 mm 5,8 km/h (2 Bft) W-NW 293 ° 0 min 0,000 mm 0,0 UV-I 23 W/m² 3,5 °C 3,8 °C 11,3 km/h (2 Bft)
23.10.2017 17:07 4,9 °C 5,0 °C 90 % 1022,3 hPa 0,0 mm 11,2 km/h (2 Bft) W-NW 300 ° 0 min 0,000 mm 0,0 UV-I 23 W/m² 3,4 °C 2,3 °C 19,3 km/h (3 Bft)
23.10.2017 17:08 4,9 °C 5,0 °C 91 % 1022,3 hPa 0,0 mm 16,0 km/h (3 Bft) W 262 ° 0 min 0,000 mm 0,0 UV-I 23 W/m² 3,6 °C 1,5 °C 19,3 km/h (3 Bft)
23.10.2017 17:09 5,0 °C 5,0 °C 91 % 1022,3 hPa 0,0 mm 13,1 km/h (3 Bft) W 265 ° 0 min 0,000 mm 0,0 UV-I 21 W/m² 3,7 °C 2,1 °C 17,7 km/h (3 Bft)
23.10.2017 17:10 4,9 °C 5,0 °C 91 % 1022,4 hPa 0,0 mm 7,1 km/h (2 Bft) W 266 ° 0 min 0,000 mm 0,0 UV-I 21 W/m² 3,6 °C 3,3 °C 14,5 km/h (3 Bft)
23.10.2017 17:11 4,9 °C 5,0 °C 91 % 1022,3 hPa 0,0 mm 4,1 km/h (1 Bft) W 280 ° 0 min 0,000 mm 0,0 UV-I 23 W/m² 3,6 °C 4,9 °C 6,4 km/h (2 Bft)
23.10.2017 17:12 4,9 °C 4,9 °C 91 % 1022,3 hPa 0,0 mm 7,3 km/h (2 Bft) W 273 ° 0 min 0,000 mm 0,0 UV-I 21 W/m² 3,6 °C 3,2 °C 12,9 km/h (3 Bft)
23.10.2017 17:13 4,9 °C 4,9 °C 91 % 1022,2 hPa 0,0 mm 7,6 km/h (2 Bft) W 269 ° 0 min 0,000 mm 0,0 UV-I 19 W/m² 3,6 °C 3,1 °C 11,3 km/h (2 Bft)
23.10.2017 17:14 4,9 °C 4,9 °C 91 % 1022,2 hPa 0,0 mm 7,9 km/h (2 Bft) W 265 ° 0 min 0,000 mm 0,0 UV-I 19 W/m² 3,6 °C 3,0 °C 11,3 km/h (2 Bft)
23.10.2017 17:15 4,9 °C 4,9 °C 91 % 1022,2 hPa 0,0 mm 11,3 km/h (2 Bft) W-NW 286 ° 0 min 0,000 mm 0,0 UV-I 21 W/m² 3,6 °C 2,3 °C 14,5 km/h (3 Bft)
23.10.2017 17:16 4,9 °C 4,9 °C 91 % 1022,1 hPa 0,0 mm 4,6 km/h (1 Bft) W 279 ° 0 min 0,000 mm 0,0 UV-I 21 W/m² 3,6 °C 4,1 °C 6,4 km/h (2 Bft)
23.10.2017 17:17 4,9 °C 4,9 °C 91 % 1022,1 hPa 0,0 mm 7,6 km/h (2 Bft) W 275 ° 0 min 0,000 mm 0,0 UV-I 19 W/m² 3,6 °C 3,1 °C 12,9 km/h (3 Bft)
23.10.2017 17:18 4,9 °C 4,9 °C 91 % 1022,1 hPa 0,0 mm 13,8 km/h (3 Bft) W-NW 296 ° 0 min 0,000 mm 0,0 UV-I 18 W/m² 3,6 °C 1,8 °C 17,7 km/h (3 Bft)
23.10.2017 17:19 4,9 °C 4,9 °C 91 % 1022,1 hPa 0,0 mm 10,6 km/h (2 Bft) W 274 ° 0 min 0,000 mm 0,0 UV-I 18 W/m² 3,6 °C 2,4 °C 16,1 km/h (3 Bft)
23.10.2017 17:20 4,9 °C 4,9 °C 91 % 1022,1 hPa 0,0 mm 6,4 km/h (2 Bft) W 260 ° 0 min 0,000 mm 0,0 UV-I 19 W/m² 3,6 °C 3,5 °C 11,3 km/h (2 Bft)
23.10.2017 17:21 4,9 °C 4,9 °C 91 % 1022,1 hPa 0,0 mm 3,1 km/h (1 Bft) W 259 ° 0 min 0,000 mm 0,0 UV-I 21 W/m² 3,6 °C 4,9 °C 3,2 km/h (1 Bft)
23.10.2017 17:22 4,9 °C 4,9 °C 91 % 1022,1 hPa 0,0 mm 9,6 km/h (2 Bft) W-SW 258 ° 0 min 0,000 mm 0,0 UV-I 19 W/m² 3,6 °C 2,6 °C 14,5 km/h (3 Bft)
23.10.2017 17:23 4,9 °C 4,9 °C 91 % 1022,1 hPa 0,0 mm 9,9 km/h (2 Bft) W 274 ° 0 min 0,000 mm 0,0 UV-I 19 W/m² 3,6 °C 2,6 °C 16,1 km/h (3 Bft)
23.10.2017 17:24 4,9 °C 4,9 °C 91 % 1022,1 hPa 0,0 mm 3,6 km/h (1 Bft) W 272 ° 0 min 0,000 mm 0,0 UV-I 19 W/m² 3,6 °C 4,9 °C 4,8 km/h (1 Bft)
23.10.2017 17:25 4,9 °C 4,9 °C 91 % 1022,1 hPa 0,0 mm 7,7 km/h (2 Bft) W 277 ° 0 min 0,000 mm 0,0 UV-I 19 W/m² 3,6 °C 3,1 °C 12,9 km/h (3 Bft)
23.10.2017 17:26 4,9 °C 4,9 °C 91 % 1022,2 hPa 0,0 mm 12,7 km/h (3 Bft) W-SW 257 ° 0 min 0,000 mm 0,0 UV-I 18 W/m² 3,6 °C 2,0 °C 16,1 km/h (3 Bft)
23.10.2017 17:27 4,9 °C 4,9 °C 91 % 1022,2 hPa 0,0 mm 11,7 km/h (2 Bft) W 261 ° 0 min 0,000 mm 0,0 UV-I 18 W/m² 3,6 °C 2,2 °C 17,7 km/h (3 Bft)
23.10.2017 17:28 4,9 °C 4,9 °C 91 % 1022,2 hPa 0,0 mm 10,8 km/h (2 Bft) W 265 ° 0 min 0,000 mm 0,0 UV-I 16 W/m² 3,6 °C 2,4 °C 17,7 km/h (3 Bft)
23.10.2017 17:29 4,9 °C 4,9 °C 91 % 1022,2 hPa 0,0 mm 8,9 km/h (2 Bft) NW 307 ° 0 min 0,000 mm 0,0 UV-I 16 W/m² 3,6 °C 2,8 °C 12,9 km/h (3 Bft)
23.10.2017 17:30 4,9 °C 4,9 °C 91 % 1022,2 hPa 0,0 mm 9,1 km/h (2 Bft) W-SW 250 ° 0 min 0,000 mm 0,0 UV-I 14 W/m² 3,6 °C 2,7 °C 16,1 km/h (3 Bft)
23.10.2017 17:31 4,9 °C 4,9 °C 91 % 1022,2 hPa 0,0 mm 9,6 km/h (2 Bft) W-SW 245 ° 0 min 0,000 mm 0,0 UV-I 12 W/m² 3,6 °C 2,6 °C 17,7 km/h (3 Bft)
23.10.2017 17:32 5,0 °C 5,0 °C 91 % 1022,3 hPa 0,0 mm 10,8 km/h (2 Bft) W-NW 296 ° 0 min 0,000 mm 0,0 UV-I 12 W/m² 3,7 °C 2,5 °C 14,5 km/h (3 Bft)
23.10.2017 17:34 4,9 °C 5,0 °C 90 % 1022,3 hPa 0,0 mm 9,5 km/h (2 Bft) W 263 ° 0 min 0,000 mm 0,0 UV-I 12 W/m² 3,4 °C 2,7 °C 17,7 km/h (3 Bft)
23.10.2017 17:35 5,0 °C 5,0 °C 90 % 1022,3 hPa 0,0 mm 5,7 km/h (1 Bft) W 270 ° 0 min 0,000 mm 0,0 UV-I 12 W/m² 3,5 °C 3,8 °C 9,7 km/h (2 Bft)
23.10.2017 17:36 5,0 °C 5,0 °C 90 % 1022,3 hPa 0,0 mm 7,6 km/h (2 Bft) W-NW 296 ° 0 min 0,000 mm 0,0 UV-I 12 W/m² 3,5 °C 3,2 °C 12,9 km/h (3 Bft)
23.10.2017 17:37 5,1 °C 5,1 °C 90 % 1022,4 hPa 0,0 mm 13,4 km/h (3 Bft) W-SW 255 ° 0 min 0,000 mm 0,0 UV-I 12 W/m² 3,6 °C 2,1 °C 17,7 km/h (3 Bft)
23.10.2017 17:38 5,0 °C 5,1 °C 90 % 1022,3 hPa 0,0 mm 12,3 km/h (3 Bft) W 259 ° 0 min 0,000 mm 0,0 UV-I 11 W/m² 3,5 °C 2,2 °C 16,1 km/h (3 Bft)
23.10.2017 17:39 5,0 °C 5,1 °C 90 % 1022,3 hPa 0,0 mm 9,1 km/h (2 Bft) W-SW 253 ° 0 min 0,000 mm 0,0 UV-I 11 W/m² 3,5 °C 2,9 °C 14,5 km/h (3 Bft)
23.10.2017 17:40 5,1 °C 5,1 °C 90 % 1022,3 hPa 0,0 mm 9,7 km/h (2 Bft) W-NW 283 ° 0 min 0,000 mm 0,0 UV-I 12 W/m² 3,6 °C 2,8 °C 17,7 km/h (3 Bft)
23.10.2017 17:41 5,1 °C 5,1 °C 90 % 1022,3 hPa 0,0 mm 15,9 km/h (3 Bft) W-NW 290 ° 0 min 0,000 mm 0,0 UV-I 11 W/m² 3,6 °C 1,7 °C 20,9 km/h (4 Bft)
23.10.2017 17:42 5,1 °C 5,1 °C 89 % 1022,4 hPa 0,0 mm 9,8 km/h (2 Bft) W 271 ° 0 min 0,000 mm 0,0 UV-I 11 W/m² 3,4 °C 2,8 °C 12,9 km/h (3 Bft)
23.10.2017 17:43 5,1 °C 5,1 °C 89 % 1022,3 hPa 0,0 mm 9,7 km/h (2 Bft) W-NW 291 ° 0 min 0,000 mm 0,0 UV-I 9 W/m² 3,4 °C 2,8 °C 14,5 km/h (3 Bft)
23.10.2017 17:44 5,1 °C 5,1 °C 89 % 1022,4 hPa 0,0 mm 10,7 km/h (2 Bft) W 263 ° 0 min 0,000 mm 0,0 UV-I 9 W/m² 3,4 °C 2,6 °C 14,5 km/h (3 Bft)
23.10.2017 17:45 5,1 °C 5,1 °C 89 % 1022,4 hPa 0,0 mm 15,7 km/h (3 Bft) W 266 ° 0 min 0,000 mm 0,0 UV-I 5 W/m² 3,4 °C 1,8 °C 17,7 km/h (3 Bft)
23.10.2017 17:46 5,1 °C 5,1 °C 89 % 1022,4 hPa 0,0 mm 8,0 km/h (2 Bft) W 275 ° 0 min 0,000 mm 0,0 UV-I 5 W/m² 3,4 °C 3,3 °C 12,9 km/h (3 Bft)
23.10.2017 17:47 5,1 °C 5,1 °C 89 % 1022,4 hPa 0,0 mm 8,9 km/h (2 Bft) W-NW 303 ° 0 min 0,000 mm 0,0 UV-I 5 W/m² 3,4 °C 3,0 °C 12,9 km/h (3 Bft)
23.10.2017 17:48 5,1 °C 5,1 °C 89 % 1022,4 hPa 0,0 mm 12,2 km/h (2 Bft) W 268 ° 0 min 0,000 mm 0,0 UV-I 5 W/m² 3,4 °C 2,3 °C 17,7 km/h (3 Bft)
23.10.2017 17:49 5,1 °C 5,1 °C 89 % 1022,4 hPa 0,0 mm 8,5 km/h (2 Bft) W 271 ° 0 min 0,000 mm 0,0 UV-I 5 W/m² 3,4 °C 3,1 °C 17,7 km/h (3 Bft)
23.10.2017 17:50 5,1 °C 5,1 °C 89 % 1022,4 hPa 0,0 mm 13,4 km/h (3 Bft) W-SW 256 ° 0 min 0,000 mm 0,0 UV-I 5 W/m² 3,4 °C 2,1 °C 17,7 km/h (3 Bft)
23.10.2017 17:51 5,1 °C 5,2 °C 89 % 1022,4 hPa 0,0 mm 9,9 km/h (2 Bft) W-SW 254 ° 0 min 0,000 mm 0,0 UV-I 7 W/m² 3,4 °C 2,8 °C 17,7 km/h (3 Bft)
23.10.2017 17:52 5,1 °C 5,1 °C 89 % 1022,4 hPa 0,0 mm 15,2 km/h (3 Bft) W 262 ° 0 min 0,000 mm 0,0 UV-I 7 W/m² 3,4 °C 1,8 °C 20,9 km/h (4 Bft)
23.10.2017 17:54 5,1 °C 5,2 °C 89 % 1022,5 hPa 0,0 mm 10,8 km/h (2 Bft) W-SW 253 ° 0 min 0,000 mm 0,0 UV-I 7 W/m² 3,4 °C 2,6 °C 16,1 km/h (3 Bft)
23.10.2017 17:55 5,2 °C 5,2 °C 89 % 1022,6 hPa 0,0 mm 16,9 km/h (3 Bft) W 265 ° 0 min 0,000 mm 0,0 UV-I 5 W/m² 3,5 °C 1,7 °C 24,1 km/h (4 Bft)
23.10.2017 17:56 5,2 °C 5,2 °C 89 % 1022,6 hPa 0,0 mm 11,6 km/h (2 Bft) SW 232 ° 0 min 0,000 mm 0,0 UV-I 0 W/m² 3,5 °C 2,6 °C 19,3 km/h (3 Bft)
23.10.2017 17:57 5,2 °C 5,2 °C 88 % 1022,6 hPa 0,0 mm 7,6 km/h (2 Bft) W 275 ° 0 min 0,000 mm 0,0 UV-I 0 W/m² 3,4 °C 3,5 °C 12,9 km/h (3 Bft)
23.10.2017 17:58 5,2 °C 5,2 °C 89 % 1022,6 hPa 0,0 mm 14,9 km/h (3 Bft) W-NW 297 ° 0 min 0,000 mm 0,0 UV-I 0 W/m² 3,5 °C 2,0 °C 19,3 km/h (3 Bft)
23.10.2017 17:59 5,2 °C 5,2 °C 88 % 1022,6 hPa 0,0 mm 10,1 km/h (2 Bft) W 277 ° 0 min 0,000 mm 0,0 UV-I 0 W/m² 3,4 °C 2,9 °C 17,7 km/h (3 Bft)
23.10.2017 18:00 5,2 °C 5,2 °C 88 % 1022,6 hPa 0,0 mm 10,5 km/h (2 Bft) W 272 ° 0 min 0,000 mm 0,0 UV-I 0 W/m² 3,4 °C 2,8 °C 17,7 km/h (3 Bft)
23.10.2017 18:01 5,2 °C 5,2 °C 88 % 1022,6 hPa 0,0 mm 11,9 km/h (2 Bft) W 268 ° 0 min 0,025 mm 0,0 UV-I 0 W/m² 3,4 °C 2,5 °C 16,1 km/h (3 Bft)
23.10.2017 18:02 5,2 °C 5,2 °C 88 % 1022,7 hPa 0,0 mm 10,1 km/h (2 Bft) W 279 ° 0 min 0,000 mm 0,0 UV-I 0 W/m² 3,4 °C 2,9 °C 19,3 km/h (3 Bft)
23.10.2017 18:03 5,2 °C 5,2 °C 88 % 1022,6 hPa 0,0 mm 14,2 km/h (3 Bft) W-SW 239 ° 0 min 0,000 mm 0,0 UV-I 0 W/m² 3,4 °C 2,1 °C 17,7 km/h (3 Bft)
23.10.2017 18:04 5,2 °C 5,2 °C 88 % 1022,7 hPa 0,0 mm 13,4 km/h (3 Bft) W 280 ° 0 min 0,000 mm 0,0 UV-I 0 W/m² 3,4 °C 2,3 °C 19,3 km/h (3 Bft)
23.10.2017 18:05 5,2 °C 5,2 °C 88 % 1022,7 hPa 0,0 mm 7,3 km/h (2 Bft) W 269 ° 0 min 0,000 mm 0,0 UV-I 0 W/m² 3,4 °C 3,6 °C 12,9 km/h (3 Bft)
23.10.2017 18:06 5,2 °C 5,2 °C 88 % 1022,7 hPa 0,0 mm 10,5 km/h (2 Bft) SW 219 ° 0 min 0,000 mm 0,0 UV-I 0 W/m² 3,4 °C 2,8 °C 16,1 km/h (3 Bft)
23.10.2017 18:07 5,3 °C 5,3 °C 88 % 1022,7 hPa 0,0 mm 13,8 km/h (3 Bft) W 266 ° 0 min 0,000 mm 0,0 UV-I 0 W/m² 3,5 °C 2,3 °C 19,3 km/h (3 Bft)
23.10.2017 18:08 5,3 °C 5,3 °C 87 % 1022,7 hPa 0,0 mm 11,2 km/h (2 Bft) W 265 ° 0 min 0,000 mm 0,0 UV-I 0 W/m² 3,3 °C 2,8 °C 16,1 km/h (3 Bft)
23.10.2017 18:09 5,2 °C 5,3 °C 87 % 1022,7 hPa 0,0 mm 12,7 km/h (3 Bft) S-SW 193 ° 0 min 0,000 mm 0,0 UV-I 0 W/m² 3,2 °C 2,4 °C 19,3 km/h (3 Bft)
23.10.2017 18:10 5,2 °C 5,3 °C 87 % 1022,7 hPa 0,0 mm 13,6 km/h (3 Bft) S-SW 209 ° 0 min 0,000 mm 0,0 UV-I 0 W/m² 3,2 °C 2,2 °C 24,1 km/h (4 Bft)
23.10.2017 18:11 5,3 °C 5,3 °C 87 % 1022,7 hPa 0,0 mm 9,7 km/h (2 Bft) W 263 ° 0 min 0,000 mm 0,0 UV-I 0 W/m² 3,3 °C 3,1 °C 14,5 km/h (3 Bft)
23.10.2017 18:12 5,3 °C 5,3 °C 87 % 1022,8 hPa 0,0 mm 9,2 km/h (2 Bft) W-SW 258 ° 0 min 0,000 mm 0,0 UV-I 0 W/m² 3,3 °C 3,2 °C 16,1 km/h (3 Bft)
23.10.2017 18:13 5,3 °C 5,3 °C 87 % 1022,8 hPa 0,0 mm 12,8 km/h (3 Bft) W 259 ° 0 min 0,000 mm 0,0 UV-I 0 W/m² 3,3 °C 2,5 °C 20,9 km/h (4 Bft)
23.10.2017 18:14 5,3 °C 5,3 °C 87 % 1022,8 hPa 0,0 mm 11,6 km/h (2 Bft) W 269 ° 0 min 0,000 mm 0,0 UV-I 0 W/m² 3,3 °C 2,7 °C 17,7 km/h (3 Bft)
23.10.2017 18:15 5,3 °C 5,3 °C 87 % 1022,9 hPa 0,0 mm 9,5 km/h (2 Bft) W 263 ° 0 min 0,000 mm 0,0 UV-I 0 W/m² 3,3 °C 3,1 °C 12,9 km/h (3 Bft)
23.10.2017 18:16 5,3 °C 5,3 °C 87 % 1022,9 hPa 0,0 mm 10,0 km/h (2 Bft) W 261 ° 0 min 0,000 mm 0,0 UV-I 0 W/m² 3,3 °C 3,0 °C 17,7 km/h (3 Bft)
23.10.2017 18:17 5,3 °C 5,3 °C 87 % 1022,8 hPa 0,0 mm 3,5 km/h (1 Bft) SW 229 ° 0 min 0,000 mm 0,0 UV-I 0 W/m² 3,3 °C 5,3 °C 8,0 km/h (2 Bft)
23.10.2017 18:19 5,3 °C 5,3 °C 87 % 1022,9 hPa 0,0 mm 6,4 km/h (2 Bft) W-NW 290 ° 0 min 0,000 mm 0,0 UV-I 0 W/m² 3,3 °C 3,9 °C 12,9 km/h (3 Bft)
23.10.2017 18:20 5,3 °C 5,3 °C 88 % 1022,9 hPa 0,0 mm 4,7 km/h (1 Bft) NW 305 ° 0 min 0,000 mm 0,0 UV-I 0 W/m² 3,5 °C 4,5 °C 12,9 km/h (3 Bft)
23.10.2017 18:21 5,3 °C 5,3 °C 88 % 1022,9 hPa 0,0 mm 6,8 km/h (2 Bft) W-SW 254 ° 0 min 0,000 mm 0,0 UV-I 0 W/m² 3,5 °C 3,8 °C 14,5 km/h (3 Bft)
23.10.2017 18:22 5,3 °C 5,3 °C 87 % 1022,9 hPa 0,0 mm 7,7 km/h (2 Bft) W 263 ° 0 min 0,000 mm 0,0 UV-I 0 W/m² 3,3 °C 3,6 °C 12,9 km/h (3 Bft)
23.10.2017 18:23 5,3 °C 5,3 °C 87 % 1022,9 hPa 0,0 mm 6,4 km/h (2 Bft) W-NW 283 ° 0 min 0,000 mm 0,0 UV-I 0 W/m² 3,3 °C 3,9 °C 11,3 km/h (2 Bft)
23.10.2017 18:24 5,3 °C 5,3 °C 87 % 1023,0 hPa 0,0 mm 7,0 km/h (2 Bft) W 262 ° 0 min 0,000 mm 0,0 UV-I 0 W/m² 3,3 °C 3,8 °C 11,3 km/h (2 Bft)
23.10.2017 18:25 5,3 °C 5,3 °C 87 % 1023,1 hPa 0,0 mm 15,6 km/h (3 Bft) W 260 ° 0 min 0,000 mm 0,0 UV-I 0 W/m² 3,3 °C 2,0 °C 24,1 km/h (4 Bft)
23.10.2017 18:26 5,3 °C 5,3 °C 87 % 1023,0 hPa 0,0 mm 8,9 km/h (2 Bft) W 266 ° 0 min 0,000 mm 0,0 UV-I 0 W/m² 3,3 °C 3,3 °C 19,3 km/h (3 Bft)
23.10.2017 18:27 5,3 °C 5,3 °C 87 % 1023,0 hPa 0,0 mm 14,4 km/h (3 Bft) W 270 ° 0 min 0,000 mm 0,0 UV-I 0 W/m² 3,3 °C 2,2 °C 24,1 km/h (4 Bft)
23.10.2017 18:29 5,3 °C 5,3 °C 87 % 1023,1 hPa 0,0 mm 9,2 km/h (2 Bft) W-NW 290 ° 0 min 0,000 mm 0,0 UV-I 0 W/m² 3,3 °C 3,2 °C 17,7 km/h (3 Bft)
23.10.2017 18:30 5,3 °C 5,3 °C 87 % 1023,1 hPa 0,0 mm 8,3 km/h (2 Bft) W 277 ° 0 min 0,000 mm 0,0 UV-I 0 W/m² 3,3 °C 3,4 °C 16,1 km/h (3 Bft)
23.10.2017 18:31 5,3 °C 5,3 °C 87 % 1023,1 hPa 0,0 mm 3,9 km/h (1 Bft) W 265 ° 0 min 0,000 mm 0,0 UV-I 0 W/m² 3,3 °C 5,3 °C 9,7 km/h (2 Bft)
23.10.2017 18:32 5,3 °C 5,3 °C 87 % 1023,1 hPa 0,0 mm 5,8 km/h (2 Bft) N-NW 330 ° 0 min 0,000 mm 0,0 UV-I 0 W/m² 3,3 °C 4,1 °C 9,7 km/h (2 Bft)
23.10.2017 18:33 5,3 °C 5,3 °C 87 % 1023,2 hPa 0,0 mm 10,2 km/h (2 Bft) W-NW 285 ° 0 min 0,000 mm 0,0 UV-I 0 W/m² 3,3 °C 3,0 °C 14,5 km/h (3 Bft)
23.10.2017 18:34 5,3 °C 5,3 °C 88 % 1023,3 hPa 0,0 mm 8,9 km/h (2 Bft) NW 307 ° 0 min 0,000 mm 0,0 UV-I 0 W/m² 3,5 °C 3,3 °C 14,5 km/h (3 Bft)
23.10.2017 18:35 5,3 °C 5,3 °C 88 % 1023,3 hPa 0,0 mm 7,0 km/h (2 Bft) W-SW 251 ° 0 min 0,000 mm 0,0 UV-I 0 W/m² 3,5 °C 3,8 °C 11,3 km/h (2 Bft)
23.10.2017 18:36 5,3 °C 5,3 °C 88 % 1023,2 hPa 0,0 mm 8,2 km/h (2 Bft) W-NW 298 ° 0 min 0,000 mm 0,0 UV-I 0 W/m² 3,5 °C 3,4 °C 14,5 km/h (3 Bft)
23.10.2017 18:37 5,3 °C 5,3 °C 88 % 1023,3 hPa 0,0 mm 4,6 km/h (1 Bft) W 266 ° 0 min 0,000 mm 0,0 UV-I 0 W/m² 3,5 °C 4,6 °C 9,7 km/h (2 Bft)
23.10.2017 18:38 5,3 °C 5,3 °C 87 % 1023,3 hPa 0,0 mm 13,8 km/h (3 Bft) W-NW 290 ° 0 min 0,000 mm 0,0 UV-I 0 W/m² 3,3 °C 2,3 °C 19,3 km/h (3 Bft)
23.10.2017 18:39 5,3 °C 5,3 °C 87 % 1023,2 hPa 0,0 mm 11,8 km/h (2 Bft) W 262 ° 0 min 0,000 mm 0,0 UV-I 0 W/m² 3,3 °C 2,7 °C 14,5 km/h (3 Bft)
23.10.2017 18:40 5,3 °C 5,3 °C 88 % 1023,2 hPa 0,0 mm 9,2 km/h (2 Bft) W 281 ° 0 min 0,000 mm 0,0 UV-I 0 W/m² 3,5 °C 3,2 °C 12,9 km/h (3 Bft)
23.10.2017 18:41 5,3 °C 5,3 °C 87 % 1023,2 hPa 0,0 mm 9,3 km/h (2 Bft) W 279 ° 0 min 0,000 mm 0,0 UV-I 0 W/m² 3,3 °C 3,2 °C 14,5 km/h (3 Bft)
23.10.2017 18:42 5,3 °C 5,3 °C 87 % 1023,2 hPa 0,0 mm 8,0 km/h (2 Bft) W-SW 256 ° 0 min 0,000 mm 0,0 UV-I 0 W/m² 3,3 °C 3,5 °C 12,9 km/h (3 Bft)
23.10.2017 18:44 5,3 °C 5,3 °C 88 % 1023,3 hPa 0,0 mm 9,8 km/h (2 Bft) W 261 ° 0 min 0,000 mm 0,0 UV-I 0 W/m² 3,5 °C 3,1 °C 14,5 km/h (3 Bft)
23.10.2017 18:45 5,3 °C 5,3 °C 88 % 1023,3 hPa 0,0 mm 9,4 km/h (2 Bft) W 275 ° 0 min 0,000 mm 0,0 UV-I 0 W/m² 3,5 °C 3,1 °C 12,9 km/h (3 Bft)
23.10.2017 18:46 5,3 °C 5,3 °C 88 % 1023,3 hPa 0,0 mm 5,8 km/h (2 Bft) W 278 ° 0 min 0,000 mm 0,0 UV-I 0 W/m² 3,5 °C 4,1 °C 12,9 km/h (3 Bft)
23.10.2017 18:47 5,3 °C 5,3 °C 88 % 1023,3 hPa 0,0 mm 6,7 km/h (2 Bft) W 263 ° 0 min 0,000 mm 0,0 UV-I 0 W/m² 3,5 °C 3,8 °C 11,3 km/h (2 Bft)
23.10.2017 18:48 5,3 °C 5,3 °C 88 % 1023,3 hPa 0,0 mm 5,9 km/h (2 Bft) W 274 ° 0 min 0,000 mm 0,0 UV-I 0 W/m² 3,5 °C 4,1 °C 11,3 km/h (2 Bft)
23.10.2017 18:49 5,2 °C 5,3 °C 88 % 1023,3 hPa 0,0 mm 5,1 km/h (1 Bft) W 279 ° 0 min 0,000 mm 0,0 UV-I 0 W/m² 3,4 °C 4,3 °C 11,3 km/h (2 Bft)
23.10.2017 18:50 5,2 °C 5,3 °C 88 % 1023,3 hPa 0,0 mm 5,6 km/h (1 Bft) W 261 ° 0 min 0,000 mm 0,0 UV-I 0 W/m² 3,4 °C 4,1 °C 9,7 km/h (2 Bft)
23.10.2017 18:51 5,3 °C 5,3 °C 88 % 1023,3 hPa 0,0 mm 1,5 km/h (1 Bft) W 261 ° 0 min 0,000 mm 0,0 UV-I 0 W/m² 3,5 °C 5,3 °C 3,2 km/h (1 Bft)
23.10.2017 18:52 5,2 °C 5,3 °C 88 % 1023,3 hPa 0,0 mm 1,2 km/h (1 Bft) W 260 ° 0 min 0,000 mm 0,0 UV-I 0 W/m² 3,4 °C 5,2 °C 4,8 km/h (1 Bft)
23.10.2017 18:53 5,2 °C 5,2 °C 88 % 1023,4 hPa 0,0 mm 2,6 km/h (1 Bft) S-SW 203 ° 0 min 0,000 mm 0,0 UV-I 0 W/m² 3,4 °C 5,2 °C 6,4 km/h (2 Bft)
23.10.2017 18:54 5,2 °C 5,2 °C 88 % 1023,4 hPa 0,0 mm 4,1 km/h (1 Bft) W 261 ° 0 min 0,000 mm 0,0 UV-I 0 W/m² 3,4 °C 5,2 °C 4,8 km/h (1 Bft)
23.10.2017 18:55 5,2 °C 5,2 °C 87 % 1023,4 hPa 0,0 mm 3,5 km/h (1 Bft) W 262 ° 0 min 0,000 mm 0,0 UV-I 0 W/m² 3,2 °C 5,2 °C 6,4 km/h (2 Bft)
23.10.2017 18:56 5,3 °C 5,3 °C 87 % 1023,5 hPa 0,0 mm 7,3 km/h (2 Bft) SW 230 ° 0 min 0,000 mm 0,0 UV-I 0 W/m² 3,3 °C 3,7 °C 11,3 km/h (2 Bft)
23.10.2017 18:57 5,3 °C 5,3 °C 87 % 1023,5 hPa 0,0 mm 7,2 km/h (2 Bft) SW 223 ° 0 min 0,000 mm 0,0 UV-I 0 W/m² 3,3 °C 3,7 °C 12,9 km/h (3 Bft)
23.10.2017 18:58 5,3 °C 5,3 °C 87 % 1023,5 hPa 0,0 mm 9,9 km/h (2 Bft) SW 233 ° 0 min 0,000 mm 0,0 UV-I 0 W/m² 3,3 °C 3,0 °C 12,9 km/h (3 Bft)
23.10.2017 18:59 5,3 °C 5,3 °C 87 % 1023,5 hPa 0,0 mm 4,8 km/h (1 Bft) W 278 ° 0 min 0,000 mm 0,0 UV-I 0 W/m² 3,3 °C 4,5 °C 11,3 km/h (2 Bft)
23.10.2017 19:00 5,3 °C 5,3 °C 86 % 1023,5 hPa 0,0 mm 8,6 km/h (2 Bft) W-SW 257 ° 0 min 0,000 mm 0,0 UV-I 0 W/m² 3,2 °C 3,3 °C 11,3 km/h (2 Bft)
23.10.2017 19:01 5,4 °C 5,4 °C 86 % 1023,5 hPa 0,0 mm 3,0 km/h (1 Bft) W-SW 246 ° 0 min 0,000 mm 0,0 UV-I 0 W/m² 3,3 °C 5,4 °C 4,8 km/h (1 Bft)
23.10.2017 19:02 5,4 °C 5,4 °C 86 % 1023,5 hPa 0,0 mm 5,6 km/h (1 Bft) W-SW 244 ° 0 min 0,000 mm 0,0 UV-I 0 W/m² 3,3 °C 4,3 °C 12,9 km/h (3 Bft)
23.10.2017 19:03 5,4 °C 5,4 °C 86 % 1023,5 hPa 0,0 mm 7,5 km/h (2 Bft) W 267 ° 0 min 0,000 mm 0,0 UV-I 0 W/m² 3,3 °C 3,7 °C 9,7 km/h (2 Bft)
23.10.2017 19:04 5,4 °C 5,4 °C 86 % 1023,6 hPa 0,0 mm 4,1 km/h (1 Bft) W-SW 254 ° 0 min 0,000 mm 0,0 UV-I 0 W/m² 3,3 °C 5,4 °C 6,4 km/h (2 Bft)
23.10.2017 19:05 5,4 °C 5,4 °C 86 % 1023,6 hPa 0,0 mm 5,5 km/h (1 Bft) W 274 ° 0 min 0,000 mm 0,0 UV-I 0 W/m² 3,3 °C 4,4 °C 8,0 km/h (2 Bft)
23.10.2017 19:06 5,4 °C 5,4 °C 86 % 1023,5 hPa 0,0 mm 10,7 km/h (2 Bft) W 263 ° 0 min 0,000 mm 0,0 UV-I 0 W/m² 3,3 °C 3,0 °C 16,1 km/h (3 Bft)
23.10.2017 19:07 5,4 °C 5,4 °C 86 % 1023,5 hPa 0,0 mm 5,7 km/h (1 Bft) W 259 ° 0 min 0,000 mm 0,0 UV-I 0 W/m² 3,3 °C 4,3 °C 8,0 km/h (2 Bft)
23.10.2017 19:08 5,4 °C 5,4 °C 87 % 1023,5 hPa 0,0 mm 3,2 km/h (1 Bft) SW 232 ° 0 min 0,000 mm 0,0 UV-I 0 W/m² 3,4 °C 5,4 °C 6,4 km/h (2 Bft)
23.10.2017 19:09 5,4 °C 5,4 °C 86 % 1023,6 hPa 0,0 mm 9,1 km/h (2 Bft) W-SW 245 ° 0 min 0,000 mm 0,0 UV-I 0 W/m² 3,3 °C 3,3 °C 12,9 km/h (3 Bft)
23.10.2017 19:10 5,4 °C 5,4 °C 86 % 1023,5 hPa 0,0 mm 7,6 km/h (2 Bft) W 260 ° 0 min 0,000 mm 0,0 UV-I 0 W/m² 3,3 °C 3,7 °C 16,1 km/h (3 Bft)
23.10.2017 19:11 5,4 °C 5,4 °C 86 % 1023,5 hPa 0,0 mm 10,2 km/h (2 Bft) W 265 ° 0 min 0,000 mm 0,0 UV-I 0 W/m² 3,3 °C 3,1 °C 17,7 km/h (3 Bft)
23.10.2017 19:12 5,4 °C 5,4 °C 86 % 1023,6 hPa 0,0 mm 4,8 km/h (1 Bft) W-SW 244 ° 0 min 0,000 mm 0,0 UV-I 0 W/m² 3,3 °C 4,6 °C 11,3 km/h (2 Bft)
23.10.2017 19:13 5,4 °C 5,4 °C 86 % 1023,6 hPa 0,0 mm 6,2 km/h (2 Bft) W 261 ° 0 min 0,000 mm 0,0 UV-I 0 W/m² 3,3 °C 4,1 °C 11,3 km/h (2 Bft)
23.10.2017 19:14 5,4 °C 5,4 °C 86 % 1023,6 hPa 0,0 mm 6,2 km/h (2 Bft) SW 234 ° 0 min 0,000 mm 0,0 UV-I 0 W/m² 3,3 °C 4,1 °C 9,7 km/h (2 Bft)
23.10.2017 19:15 5,4 °C 5,4 °C 86 % 1023,6 hPa 0,0 mm 6,3 km/h (2 Bft) S-SW 208 ° 0 min 0,000 mm 0,0 UV-I 0 W/m² 3,3 °C 4,1 °C 9,7 km/h (2 Bft)
23.10.2017 19:16 5,4 °C 5,4 °C 86 % 1023,6 hPa 0,0 mm 6,2 km/h (2 Bft) W-SW 249 ° 0 min 0,000 mm 0,0 UV-I 0 W/m² 3,3 °C 4,1 °C 11,3 km/h (2 Bft)
23.10.2017 19:17 5,4 °C 5,4 °C 86 % 1023,6 hPa 0,0 mm 7,1 km/h (2 Bft) W-SW 252 ° 0 min 0,000 mm 0,0 UV-I 0 W/m² 3,3 °C 3,8 °C 11,3 km/h (2 Bft)
23.10.2017 19:18 5,4 °C 5,4 °C 86 % 1023,6 hPa 0,0 mm 5,5 km/h (1 Bft) W-SW 257 ° 0 min 0,000 mm 0,0 UV-I 0 W/m² 3,3 °C 4,4 °C 9,7 km/h (2 Bft)
23.10.2017 19:19 5,4 °C 5,5 °C 86 % 1023,6 hPa 0,0 mm 5,1 km/h (1 Bft) W-SW 246 ° 0 min 0,000 mm 0,0 UV-I 0 W/m² 3,3 °C 4,5 °C 6,4 km/h (2 Bft)
23.10.2017 19:20 5,4 °C 5,4 °C 86 % 1023,7 hPa 0,0 mm 4,4 km/h (1 Bft) W-SW 248 ° 0 min 0,000 mm 0,0 UV-I 0 W/m² 3,3 °C 5,4 °C 6,4 km/h (2 Bft)
23.10.2017 19:21 5,4 °C 5,4 °C 86 % 1023,7 hPa 0,0 mm 6,2 km/h (2 Bft) W-SW 245 ° 0 min 0,000 mm 0,0 UV-I 0 W/m² 3,3 °C 4,1 °C 9,7 km/h (2 Bft)
23.10.2017 19:22 5,4 °C 5,4 °C 86 % 1023,7 hPa 0,0 mm 7,4 km/h (2 Bft) S-SW 213 ° 0 min 0,000 mm 0,0 UV-I 0 W/m² 3,3 °C 3,8 °C 12,9 km/h (3 Bft)
23.10.2017 19:23 5,4 °C 5,4 °C 86 % 1023,7 hPa 0,0 mm 4,7 km/h (1 Bft) W 265 ° 0 min 0,000 mm 0,0 UV-I 0 W/m² 3,3 °C 4,7 °C 6,4 km/h (2 Bft)
23.10.2017 19:24 5,4 °C 5,4 °C 86 % 1023,7 hPa 0,0 mm 4,6 km/h (1 Bft) W-SW 257 ° 0 min 0,000 mm 0,0 UV-I 0 W/m² 3,3 °C 4,7 °C 8,0 km/h (2 Bft)
23.10.2017 19:25 5,5 °C 5,5 °C 86 % 1023,7 hPa 0,0 mm 5,7 km/h (1 Bft) SW 214 ° 0 min 0,000 mm 0,0 UV-I 0 W/m² 3,3 °C 4,4 °C 9,7 km/h (2 Bft)
23.10.2017 19:26 5,4 °C 5,5 °C 86 % 1023,7 hPa 0,0 mm 10,2 km/h (2 Bft) W-SW 241 ° 0 min 0,000 mm 0,0 UV-I 0 W/m² 3,3 °C 3,1 °C 17,7 km/h (3 Bft)
23.10.2017 19:27 5,5 °C 5,5 °C 86 % 1023,7 hPa 0,0 mm 7,8 km/h (2 Bft) SW 236 ° 0 min 0,000 mm 0,0 UV-I 0 W/m² 3,3 °C 3,8 °C 11,3 km/h (2 Bft)
23.10.2017 19:28 5,5 °C 5,5 °C 86 % 1023,7 hPa 0,0 mm 9,8 km/h (2 Bft) W-SW 250 ° 0 min 0,000 mm 0,0 UV-I 0 W/m² 3,3 °C 3,3 °C 14,5 km/h (3 Bft)
23.10.2017 19:29 5,5 °C 5,5 °C 86 % 1023,7 hPa 0,0 mm 7,4 km/h (2 Bft) W-NW 300 ° 0 min 0,000 mm 0,0 UV-I 0 W/m² 3,3 °C 3,9 °C 12,9 km/h (3 Bft)
23.10.2017 19:30 5,5 °C 5,6 °C 86 % 1023,7 hPa 0,0 mm 8,8 km/h (2 Bft) W 269 ° 0 min 0,000 mm 0,0 UV-I 0 W/m² 3,3 °C 3,5 °C 14,5 km/h (3 Bft)
23.10.2017 19:31 5,6 °C 5,6 °C 86 % 1023,8 hPa 0,0 mm 10,7 km/h (2 Bft) W-SW 239 ° 0 min 0,000 mm 0,0 UV-I 0 W/m² 3,4 °C 3,2 °C 14,5 km/h (3 Bft)
23.10.2017 19:32 5,5 °C 5,6 °C 86 % 1023,7 hPa 0,0 mm 9,4 km/h (2 Bft) W 264 ° 0 min 0,000 mm 0,0 UV-I 0 W/m² 3,3 °C 3,4 °C 14,5 km/h (3 Bft)
23.10.2017 19:33 5,6 °C 5,6 °C 86 % 1023,7 hPa 0,0 mm 14,9 km/h (3 Bft) W-SW 254 ° 0 min 0,000 mm 0,0 UV-I 0 W/m² 3,4 °C 2,5 °C 19,3 km/h (3 Bft)
23.10.2017 19:34 5,6 °C 5,6 °C 86 % 1023,8 hPa 0,0 mm 11,7 km/h (2 Bft) W 264 ° 0 min 0,000 mm 0,0 UV-I 0 W/m² 3,4 °C 3,0 °C 17,7 km/h (3 Bft)
23.10.2017 19:35 5,6 °C 5,6 °C 86 % 1023,8 hPa 0,0 mm 11,7 km/h (2 Bft) W 270 ° 0 min 0,000 mm 0,0 UV-I 0 W/m² 3,4 °C 3,0 °C 14,5 km/h (3 Bft)
23.10.2017 19:36 5,6 °C 5,6 °C 87 % 1023,9 hPa 0,0 mm 7,5 km/h (2 Bft) W 263 ° 0 min 0,000 mm 0,0 UV-I 0 W/m² 3,6 °C 4,0 °C 11,3 km/h (2 Bft)
23.10.2017 19:37 5,6 °C 5,6 °C 87 % 1023,9 hPa 0,0 mm 9,1 km/h (2 Bft) W-NW 282 ° 0 min 0,000 mm 0,0 UV-I 0 W/m² 3,6 °C 3,6 °C 12,9 km/h (3 Bft)
23.10.2017 19:38 5,5 °C 5,6 °C 87 % 1023,9 hPa 0,0 mm 7,4 km/h (2 Bft) W-NW 283 ° 0 min 0,000 mm 0,0 UV-I 0 W/m² 3,5 °C 3,9 °C 11,3 km/h (2 Bft)
23.10.2017 19:39 5,5 °C 5,6 °C 87 % 1023,9 hPa 0,0 mm 5,5 km/h (1 Bft) W-SW 256 ° 0 min 0,000 mm 0,0 UV-I 0 W/m² 3,5 °C 4,5 °C 9,7 km/h (2 Bft)
23.10.2017 19:40 5,5 °C 5,5 °C 87 % 1023,9 hPa 0,0 mm 8,7 km/h (2 Bft) W-SW 240 ° 0 min 0,000 mm 0,0 UV-I 0 W/m² 3,5 °C 3,5 °C 12,9 km/h (3 Bft)
23.10.2017 19:41 5,5 °C 5,5 °C 87 % 1023,9 hPa 0,0 mm 4,6 km/h (1 Bft) W-SW 254 ° 0 min 0,000 mm 0,0 UV-I 0 W/m² 3,5 °C 4,8 °C 8,0 km/h (2 Bft)
23.10.2017 19:42 5,5 °C 5,5 °C 87 % 1023,9 hPa 0,0 mm 6,8 km/h (2 Bft) W 261 ° 0 min 0,000 mm 0,0 UV-I 0 W/m² 3,5 °C 4,1 °C 11,3 km/h (2 Bft)
23.10.2017 19:43 5,6 °C 5,6 °C 86 % 1023,8 hPa 0,0 mm 5,0 km/h (1 Bft) W 264 ° 0 min 0,000 mm 0,0 UV-I 0 W/m² 3,4 °C 4,8 °C 9,7 km/h (2 Bft)
23.10.2017 19:44 5,5 °C 5,6 °C 87 % 1023,8 hPa 0,0 mm 3,7 km/h (1 Bft) W-SW 242 ° 0 min 0,000 mm 0,0 UV-I 0 W/m² 3,5 °C 5,5 °C 6,4 km/h (2 Bft)
23.10.2017 19:45 5,5 °C 5,5 °C 87 % 1023,8 hPa 0,0 mm 6,7 km/h (2 Bft) W 268 ° 0 min 0,000 mm 0,0 UV-I 0 W/m² 3,5 °C 4,1 °C 11,3 km/h (2 Bft)
23.10.2017 19:46 5,5 °C 5,6 °C 87 % 1023,8 hPa 0,0 mm 6,6 km/h (2 Bft) W 277 ° 0 min 0,000 mm 0,0 UV-I 0 W/m² 3,5 °C 4,1 °C 12,9 km/h (3 Bft)
23.10.2017 19:47 5,6 °C 5,6 °C 87 % 1023,8 hPa 0,0 mm 8,7 km/h (2 Bft) W 259 ° 0 min 0,000 mm 0,0 UV-I 0 W/m² 3,6 °C 3,7 °C 12,9 km/h (3 Bft)
23.10.2017 19:48 5,5 °C 5,6 °C 87 % 1023,8 hPa 0,0 mm 9,0 km/h (2 Bft) W 266 ° 0 min 0,000 mm 0,0 UV-I 0 W/m² 3,5 °C 3,5 °C 19,3 km/h (3 Bft)
23.10.2017 19:49 5,5 °C 5,6 °C 87 % 1023,8 hPa 0,0 mm 8,0 km/h (2 Bft) W 260 ° 0 min 0,000 mm 0,0 UV-I 0 W/m² 3,5 °C 3,7 °C 14,5 km/h (3 Bft)
23.10.2017 19:50 5,5 °C 5,5 °C 87 % 1024,0 hPa 0,0 mm 10,5 km/h (2 Bft) S-SW 207 ° 0 min 0,000 mm 0,0 UV-I 0 W/m² 3,5 °C 3,2 °C 20,9 km/h (4 Bft)
23.10.2017 19:51 5,5 °C 5,5 °C 87 % 1024,0 hPa 0,0 mm 10,6 km/h (2 Bft) W 279 ° 0 min 0,000 mm 0,0 UV-I 0 W/m² 3,5 °C 3,1 °C 17,7 km/h (3 Bft)
23.10.2017 19:52 5,5 °C 5,5 °C 87 % 1023,9 hPa 0,0 mm 9,0 km/h (2 Bft) SW 229 ° 0 min 0,000 mm 0,0 UV-I 0 W/m² 3,5 °C 3,5 °C 12,9 km/h (3 Bft)
23.10.2017 19:53 5,6 °C 5,6 °C 87 % 1023,9 hPa 0,0 mm 6,5 km/h (2 Bft) SW 215 ° 0 min 0,000 mm 0,0 UV-I 0 W/m² 3,6 °C 4,3 °C 12,9 km/h (3 Bft)
23.10.2017 19:54 5,6 °C 5,6 °C 87 % 1024,0 hPa 0,0 mm 3,4 km/h (1 Bft) W-SW 257 ° 0 min 0,000 mm 0,0 UV-I 0 W/m² 3,6 °C 5,6 °C 6,4 km/h (2 Bft)
23.10.2017 19:55 5,6 °C 5,6 °C 87 % 1024,0 hPa 0,0 mm 6,2 km/h (2 Bft) SW 223 ° 0 min 0,000 mm 0,0 UV-I 0 W/m² 3,6 °C 4,3 °C 11,3 km/h (2 Bft)
23.10.2017 19:56 5,6 °C 5,6 °C 87 % 1023,9 hPa 0,0 mm 11,7 km/h (2 Bft) W 265 ° 0 min 0,000 mm 0,0 UV-I 0 W/m² 3,6 °C 3,0 °C 17,7 km/h (3 Bft)
23.10.2017 19:57 5,6 °C 5,6 °C 86 % 1023,9 hPa 0,0 mm 13,1 km/h (3 Bft) W 270 ° 0 min 0,000 mm 0,0 UV-I 0 W/m² 3,4 °C 2,8 °C 17,7 km/h (3 Bft)
23.10.2017 19:58 5,6 °C 5,6 °C 86 % 1023,9 hPa 0,0 mm 7,1 km/h (2 Bft) W-SW 243 ° 0 min 0,000 mm 0,0 UV-I 0 W/m² 3,4 °C 4,1 °C 11,3 km/h (2 Bft)
23.10.2017 19:59 5,7 °C 5,7 °C 86 % 1023,9 hPa 0,0 mm 8,0 km/h (2 Bft) SW 222 ° 0 min 0,000 mm 0,0 UV-I 0 W/m² 3,5 °C 4,0 °C 11,3 km/h (2 Bft)
23.10.2017 20:00 5,7 °C 5,7 °C 86 % 1024,0 hPa 0,0 mm 12,6 km/h (3 Bft) W 275 ° 0 min 0,000 mm 0,0 UV-I 0 W/m² 3,5 °C 3,0 °C 20,9 km/h (4 Bft)
23.10.2017 20:01 5,7 °C 5,7 °C 86 % 1024,0 hPa 0,0 mm 11,2 km/h (2 Bft) W 263 ° 0 min 0,025 mm 0,0 UV-I 0 W/m² 3,5 °C 3,3 °C 16,1 km/h (3 Bft)
23.10.2017 20:02 5,7 °C 5,7 °C 86 % 1024,0 hPa 0,0 mm 6,0 km/h (2 Bft) W-SW 252 ° 0 min 0,000 mm 0,0 UV-I 0 W/m² 3,5 °C 4,5 °C 11,3 km/h (2 Bft)
23.10.2017 20:03 5,7 °C 5,7 °C 86 % 1024,0 hPa 0,0 mm 5,6 km/h (1 Bft) W-SW 253 ° 0 min 0,000 mm 0,0 UV-I 0 W/m² 3,5 °C 4,7 °C 12,9 km/h (3 Bft)
23.10.2017 20:04 5,7 °C 5,7 °C 86 % 1024,0 hPa 0,0 mm 9,8 km/h (2 Bft) W 261 ° 0 min 0,000 mm 0,0 UV-I 0 W/m² 3,5 °C 3,5 °C 19,3 km/h (3 Bft)
23.10.2017 20:05 5,7 °C 5,7 °C 86 % 1024,0 hPa 0,0 mm 11,5 km/h (2 Bft) W-SW 254 ° 0 min 0,000 mm 0,0 UV-I 0 W/m² 3,5 °C 3,2 °C 16,1 km/h (3 Bft)
23.10.2017 20:06 5,6 °C 5,7 °C 86 % 1024,0 hPa 0,0 mm 13,3 km/h (3 Bft) W 276 ° 0 min 0,000 mm 0,0 UV-I 0 W/m² 3,4 °C 2,8 °C 19,3 km/h (3 Bft)
23.10.2017 20:07 5,6 °C 5,7 °C 87 % 1024,0 hPa 0,0 mm 14,2 km/h (3 Bft) W 277 ° 0 min 0,000 mm 0,0 UV-I 0 W/m² 3,6 °C 2,6 °C 19,3 km/h (3 Bft)
23.10.2017 20:08 5,6 °C 5,6 °C 87 % 1024,0 hPa 0,0 mm 15,2 km/h (3 Bft) S 186 ° 0 min 0,000 mm 0,0 UV-I 0 W/m² 3,6 °C 2,5 °C 19,3 km/h (3 Bft)
23.10.2017 20:09 5,6 °C 5,6 °C 86 % 1024,0 hPa 0,0 mm 13,3 km/h (3 Bft) W 263 ° 0 min 0,000 mm 0,0 UV-I 0 W/m² 3,4 °C 2,8 °C 20,9 km/h (4 Bft)
23.10.2017 20:10 5,6 °C 5,6 °C 87 % 1024,0 hPa 0,0 mm 10,9 km/h (2 Bft) W 261 ° 0 min 0,000 mm 0,0 UV-I 0 W/m² 3,6 °C 3,2 °C 16,1 km/h (3 Bft)
23.10.2017 20:11 5,6 °C 5,6 °C 87 % 1024,1 hPa 0,0 mm 12,9 km/h (3 Bft) W-SW 244 ° 0 min 0,000 mm 0,0 UV-I 0 W/m² 3,6 °C 2,8 °C 17,7 km/h (3 Bft)
23.10.2017 20:12 5,6 °C 5,6 °C 87 % 1024,1 hPa 0,0 mm 11,4 km/h (2 Bft) W 281 ° 0 min 0,000 mm 0,0 UV-I 0 W/m² 3,6 °C 3,1 °C 19,3 km/h (3 Bft)
23.10.2017 20:13 5,6 °C 5,6 °C 87 % 1024,1 hPa 0,0 mm 12,1 km/h (2 Bft) W-NW 295 ° 0 min 0,000 mm 0,0 UV-I 0 W/m² 3,6 °C 3,0 °C 20,9 km/h (4 Bft)
23.10.2017 20:14 5,6 °C 5,6 °C 87 % 1024,1 hPa 0,0 mm 14,0 km/h (3 Bft) W 263 ° 0 min 0,000 mm 0,0 UV-I 0 W/m² 3,6 °C 2,6 °C 22,5 km/h (4 Bft)
23.10.2017 20:15 5,6 °C 5,6 °C 87 % 1024,1 hPa 0,0 mm 18,6 km/h (3 Bft) W 259 ° 0 min 0,000 mm 0,0 UV-I 0 W/m² 3,6 °C 2,0 °C 25,7 km/h (4 Bft)
23.10.2017 20:16 5,6 °C 5,6 °C 87 % 1024,1 hPa 0,0 mm 13,0 km/h (3 Bft) SW 233 ° 0 min 0,000 mm 0,0 UV-I 0 W/m² 3,6 °C 2,8 °C 19,3 km/h (3 Bft)
23.10.2017 20:17 5,6 °C 5,6 °C 87 % 1024,1 hPa 0,0 mm 12,9 km/h (3 Bft) W 274 ° 0 min 0,000 mm 0,0 UV-I 0 W/m² 3,6 °C 2,8 °C 16,1 km/h (3 Bft)
23.10.2017 20:18 5,6 °C 5,6 °C 87 % 1024,1 hPa 0,0 mm 13,3 km/h (3 Bft) SW 234 ° 0 min 0,000 mm 0,0 UV-I 0 W/m² 3,6 °C 2,8 °C 20,9 km/h (4 Bft)
23.10.2017 20:19 5,5 °C 5,6 °C 87 % 1024,1 hPa 0,0 mm 9,9 km/h (2 Bft) SW 236 ° 0 min 0,000 mm 0,0 UV-I 0 W/m² 3,5 °C 3,3 °C 16,1 km/h (3 Bft)
23.10.2017 20:20 5,5 °C 5,5 °C 87 % 1024,1 hPa 0,0 mm 6,6 km/h (2 Bft) W 259 ° 0 min 0,000 mm 0,0 UV-I 0 W/m² 3,5 °C 4,1 °C 11,3 km/h (2 Bft)
23.10.2017 20:21 5,5 °C 5,5 °C 87 % 1024,1 hPa 0,0 mm 11,3 km/h (2 Bft) W 259 ° 0 min 0,000 mm 0,0 UV-I 0 W/m² 3,5 °C 3,0 °C 11,3 km/h (2 Bft)
23.10.2017 20:22 5,5 °C 5,5 °C 87 % 1024,1 hPa 0,0 mm 11,3 km/h (2 Bft) W 264 ° 0 min 0,000 mm 0,0 UV-I 0 W/m² 3,5 °C 3,0 °C 17,7 km/h (3 Bft)
23.10.2017 20:23 5,5 °C 5,5 °C 87 % 1024,1 hPa 0,0 mm 11,2 km/h (2 Bft) NW 313 ° 0 min 0,000 mm 0,0 UV-I 0 W/m² 3,5 °C 3,0 °C 16,1 km/h (3 Bft)
23.10.2017 20:24 5,5 °C 5,5 °C 87 % 1024,1 hPa 0,0 mm 9,6 km/h (2 Bft) W-SW 238 ° 0 min 0,000 mm 0,0 UV-I 0 W/m² 3,5 °C 3,3 °C 16,1 km/h (3 Bft)
23.10.2017 20:25 5,5 °C 5,5 °C 87 % 1024,1 hPa 0,0 mm 10,2 km/h (2 Bft) W 259 ° 0 min 0,000 mm 0,0 UV-I 0 W/m² 3,5 °C 3,2 °C 14,5 km/h (3 Bft)
23.10.2017 20:26 5,5 °C 5,5 °C 87 % 1024,1 hPa 0,0 mm 11,7 km/h (2 Bft) W 266 ° 0 min 0,000 mm 0,0 UV-I 0 W/m² 3,5 °C 2,9 °C 14,5 km/h (3 Bft)
23.10.2017 20:27 5,5 °C 5,5 °C 87 % 1024,1 hPa 0,0 mm 14,2 km/h (3 Bft) W 261 ° 0 min 0,000 mm 0,0 UV-I 0 W/m² 3,5 °C 2,5 °C 19,3 km/h (3 Bft)
23.10.2017 20:28 5,5 °C 5,5 °C 87 % 1024,1 hPa 0,0 mm 8,3 km/h (2 Bft) W 265 ° 0 min 0,000 mm 0,0 UV-I 0 W/m² 3,5 °C 3,6 °C 12,9 km/h (3 Bft)
23.10.2017 20:29 5,4 °C 5,5 °C 87 % 1024,1 hPa 0,0 mm 10,1 km/h (2 Bft) SW 231 ° 0 min 0,000 mm 0,0 UV-I 0 W/m² 3,4 °C 3,1 °C 19,3 km/h (3 Bft)
23.10.2017 20:30 5,5 °C 5,5 °C 87 % 1024,1 hPa 0,0 mm 12,1 km/h (2 Bft) W-NW 288 ° 0 min 0,000 mm 0,0 UV-I 0 W/m² 3,5 °C 2,8 °C 17,7 km/h (3 Bft)
23.10.2017 20:31 5,5 °C 5,5 °C 87 % 1024,2 hPa 0,0 mm 11,7 km/h (2 Bft) W-SW 258 ° 0 min 0,000 mm 0,0 UV-I 0 W/m² 3,5 °C 2,9 °C 17,7 km/h (3 Bft)
23.10.2017 20:32 5,5 °C 5,5 °C 87 % 1024,1 hPa 0,0 mm 6,8 km/h (2 Bft) W-SW 238 ° 0 min 0,000 mm 0,0 UV-I 0 W/m² 3,5 °C 4,1 °C 12,9 km/h (3 Bft)
23.10.2017 20:33 5,5 °C 5,5 °C 87 % 1024,2 hPa 0,0 mm 7,2 km/h (2 Bft) W 265 ° 0 min 0,000 mm 0,0 UV-I 0 W/m² 3,5 °C 3,9 °C 9,7 km/h (2 Bft)
23.10.2017 20:34 5,5 °C 5,5 °C 87 % 1024,1 hPa 0,0 mm 10,3 km/h (2 Bft) W-SW 248 ° 0 min 0,000 mm 0,0 UV-I 0 W/m² 3,5 °C 3,2 °C 16,1 km/h (3 Bft)
23.10.2017 20:35 5,5 °C 5,5 °C 87 % 1024,2 hPa 0,0 mm 9,5 km/h (2 Bft) W-SW 242 ° 0 min 0,000 mm 0,0 UV-I 0 W/m² 3,5 °C 3,4 °C 17,7 km/h (3 Bft)
23.10.2017 20:36 5,5 °C 5,5 °C 87 % 1024,1 hPa 0,0 mm 13,1 km/h (3 Bft) W 263 ° 0 min 0,000 mm 0,0 UV-I 0 W/m² 3,5 °C 2,7 °C 17,7 km/h (3 Bft)
23.10.2017 20:37 5,5 °C 5,5 °C 87 % 1024,1 hPa 0,0 mm 8,0 km/h (2 Bft) S-SW 210 ° 0 min 0,000 mm 0,0 UV-I 0 W/m² 3,5 °C 3,7 °C 14,5 km/h (3 Bft)
23.10.2017 20:38 5,5 °C 5,5 °C 87 % 1024,1 hPa 0,0 mm 12,3 km/h (3 Bft) W 267 ° 0 min 0,000 mm 0,0 UV-I 0 W/m² 3,5 °C 2,8 °C 19,3 km/h (3 Bft)
23.10.2017 20:39 5,5 °C 5,5 °C 87 % 1024,1 hPa 0,0 mm 13,9 km/h (3 Bft) W 265 ° 0 min 0,000 mm 0,0 UV-I 0 W/m² 3,5 °C 2,5 °C 16,1 km/h (3 Bft)
23.10.2017 20:40 5,4 °C 5,5 °C 87 % 1024,2 hPa 0,0 mm 9,7 km/h (2 Bft) W-NW 284 ° 0 min 0,000 mm 0,0 UV-I 0 W/m² 3,4 °C 3,2 °C 19,3 km/h (3 Bft)
23.10.2017 20:41 5,4 °C 5,5 °C 87 % 1024,2 hPa 0,0 mm 14,8 km/h (3 Bft) W-SW 254 ° 0 min 0,000 mm 0,0 UV-I 0 W/m² 3,4 °C 2,3 °C 22,5 km/h (4 Bft)
23.10.2017 20:42 5,4 °C 5,4 °C 87 % 1024,2 hPa 0,0 mm 10,2 km/h (2 Bft) W 259 ° 0 min 0,000 mm 0,0 UV-I 0 W/m² 3,4 °C 3,1 °C 11,3 km/h (2 Bft)
23.10.2017 20:43 5,5 °C 5,5 °C 87 % 1024,2 hPa 0,0 mm 10,6 km/h (2 Bft) W 269 ° 0 min 0,000 mm 0,0 UV-I 0 W/m² 3,5 °C 3,1 °C 12,9 km/h (3 Bft)
23.10.2017 20:44 5,5 °C 5,5 °C 87 % 1024,2 hPa 0,0 mm 12,4 km/h (3 Bft) W-SW 252 ° 0 min 0,000 mm 0,0 UV-I 0 W/m² 3,5 °C 2,8 °C 19,3 km/h (3 Bft)
23.10.2017 20:45 5,5 °C 5,5 °C 87 % 1024,2 hPa 0,0 mm 8,1 km/h (2 Bft) W-SW 255 ° 0 min 0,000 mm 0,0 UV-I 0 W/m² 3,5 °C 3,7 °C 11,3 km/h (2 Bft)
23.10.2017 20:46 5,5 °C 5,5 °C 87 % 1024,2 hPa 0,0 mm 5,9 km/h (2 Bft) W 266 ° 0 min 0,000 mm 0,0 UV-I 0 W/m² 3,5 °C 4,3 °C 12,9 km/h (3 Bft)
23.10.2017 20:47 5,4 °C 5,5 °C 87 % 1024,2 hPa 0,0 mm 11,2 km/h (2 Bft) W 263 ° 0 min 0,000 mm 0,0 UV-I 0 W/m² 3,4 °C 2,9 °C 17,7 km/h (3 Bft)
23.10.2017 20:48 5,4 °C 5,4 °C 87 % 1024,2 hPa 0,0 mm 9,8 km/h (2 Bft) W-NW 283 ° 0 min 0,000 mm 0,0 UV-I 0 W/m² 3,4 °C 3,2 °C 16,1 km/h (3 Bft)
23.10.2017 20:49 5,4 °C 5,4 °C 87 % 1024,2 hPa 0,0 mm 9,9 km/h (2 Bft) W-SW 244 ° 0 min 0,000 mm 0,0 UV-I 0 W/m² 3,4 °C 3,2 °C 12,9 km/h (3 Bft)
23.10.2017 20:50 5,4 °C 5,4 °C 87 % 1024,2 hPa 0,0 mm 8,0 km/h (2 Bft) W 277 ° 0 min 0,000 mm 0,0 UV-I 0 W/m² 3,4 °C 3,6 °C 14,5 km/h (3 Bft)
23.10.2017 20:51 5,4 °C 5,4 °C 87 % 1024,2 hPa 0,0 mm 7,2 km/h (2 Bft) NW 311 ° 0 min 0,000 mm 0,0 UV-I 0 W/m² 3,4 °C 3,8 °C 11,3 km/h (2 Bft)
23.10.2017 20:52 5,4 °C 5,4 °C 87 % 1024,3 hPa 0,0 mm 7,2 km/h (2 Bft) W-SW 248 ° 0 min 0,000 mm 0,0 UV-I 0 W/m² 3,4 °C 3,8 °C 11,3 km/h (2 Bft)
23.10.2017 20:53 5,4 °C 5,4 °C 87 % 1024,3 hPa 0,0 mm 8,6 km/h (2 Bft) W 271 ° 0 min 0,000 mm 0,0 UV-I 0 W/m² 3,4 °C 3,5 °C 14,5 km/h (3 Bft)
23.10.2017 20:54 5,4 °C 5,4 °C 87 % 1024,2 hPa 0,0 mm 7,0 km/h (2 Bft) W-SW 246 ° 0 min 0,000 mm 0,0 UV-I 0 W/m² 3,4 °C 3,9 °C 8,0 km/h (2 Bft)
23.10.2017 20:55 5,4 °C 5,4 °C 87 % 1024,3 hPa 0,0 mm 13,5 km/h (3 Bft) W-SW 249 ° 0 min 0,000 mm 0,0 UV-I 0 W/m² 3,4 °C 2,5 °C 17,7 km/h (3 Bft)
23.10.2017 20:56 5,4 °C 5,4 °C 87 % 1024,3 hPa 0,0 mm 8,0 km/h (2 Bft) W-SW 257 ° 0 min 0,000 mm 0,0 UV-I 0 W/m² 3,4 °C 3,6 °C 16,1 km/h (3 Bft)
23.10.2017 20:57 5,4 °C 5,4 °C 87 % 1024,2 hPa 0,0 mm 9,5 km/h (2 Bft) W-SW 254 ° 0 min 0,000 mm 0,0 UV-I 0 W/m² 3,4 °C 3,2 °C 12,9 km/h (3 Bft)
23.10.2017 20:58 5,4 °C 5,4 °C 87 % 1024,3 hPa 0,0 mm 10,2 km/h (2 Bft) W-SW 241 ° 0 min 0,000 mm 0,0 UV-I 0 W/m² 3,4 °C 3,1 °C 14,5 km/h (3 Bft)
23.10.2017 20:59 5,4 °C 5,4 °C 87 % 1024,3 hPa 0,0 mm 11,7 km/h (2 Bft) W-NW 282 ° 0 min 0,000 mm 0,0 UV-I 0 W/m² 3,4 °C 2,8 °C 19,3 km/h (3 Bft)
23.10.2017 21:00 5,4 °C 5,4 °C 86 % 1024,4 hPa 0,0 mm 15,6 km/h (3 Bft) SW 227 ° 0 min 0,026 mm 0,0 UV-I 0 W/m² 3,3 °C 2,2 °C 20,9 km/h (4 Bft)
23.10.2017 21:01 5,4 °C 5,4 °C 86 % 1024,4 hPa 0,0 mm 11,5 km/h (2 Bft) W-SW 247 ° 0 min 0,000 mm 0,0 UV-I 0 W/m² 3,3 °C 2,8 °C 16,1 km/h (3 Bft)
23.10.2017 21:02 5,5 °C 5,5 °C 86 % 1024,4 hPa 0,0 mm 8,1 km/h (2 Bft) SW 214 ° 0 min 0,000 mm 0,0 UV-I 0 W/m² 3,3 °C 3,7 °C 16,1 km/h (3 Bft)
23.10.2017 21:03 5,5 °C 5,5 °C 86 % 1024,4 hPa 0,0 mm 10,9 km/h (2 Bft) W-SW 251 ° 0 min 0,000 mm 0,0 UV-I 0 W/m² 3,3 °C 3,1 °C 14,5 km/h (3 Bft)
23.10.2017 21:04 5,5 °C 5,5 °C 86 % 1024,4 hPa 0,0 mm 14,1 km/h (3 Bft) W 268 ° 0 min 0,000 mm 0,0 UV-I 0 W/m² 3,3 °C 2,5 °C 17,7 km/h (3 Bft)
23.10.2017 21:05 5,5 °C 5,6 °C 86 % 1024,5 hPa 0,0 mm 8,3 km/h (2 Bft) W 270 ° 0 min 0,000 mm 0,0 UV-I 0 W/m² 3,3 °C 3,6 °C 14,5 km/h (3 Bft)
23.10.2017 21:06 5,5 °C 5,5 °C 86 % 1024,4 hPa 0,0 mm 10,1 km/h (2 Bft) W 263 ° 0 min 0,000 mm 0,0 UV-I 0 W/m² 3,3 °C 3,2 °C 14,5 km/h (3 Bft)
23.10.2017 21:07 5,5 °C 5,5 °C 86 % 1024,5 hPa 0,0 mm 11,4 km/h (2 Bft) W-SW 244 ° 0 min 0,000 mm 0,0 UV-I 0 W/m² 3,3 °C 3,0 °C 19,3 km/h (3 Bft)
23.10.2017 21:08 5,5 °C 5,5 °C 86 % 1024,5 hPa 0,0 mm 10,0 km/h (2 Bft) W 263 ° 0 min 0,000 mm 0,0 UV-I 0 W/m² 3,3 °C 3,3 °C 12,9 km/h (3 Bft)
23.10.2017 21:09 5,5 °C 5,5 °C 86 % 1024,5 hPa 0,0 mm 7,3 km/h (2 Bft) W 263 ° 0 min 0,000 mm 0,0 UV-I 0 W/m² 3,3 °C 3,9 °C 11,3 km/h (2 Bft)
23.10.2017 21:10 5,5 °C 5,5 °C 86 % 1024,5 hPa 0,0 mm 9,7 km/h (2 Bft) W-SW 249 ° 0 min 0,000 mm 0,0 UV-I 0 W/m² 3,3 °C 3,3 °C 12,9 km/h (3 Bft)
23.10.2017 21:11 5,5 °C 5,5 °C 86 % 1024,4 hPa 0,0 mm 12,5 km/h (3 Bft) W 267 ° 0 min 0,000 mm 0,0 UV-I 0 W/m² 3,3 °C 2,8 °C 19,3 km/h (3 Bft)
23.10.2017 21:12 5,5 °C 5,5 °C 86 % 1024,5 hPa 0,0 mm 15,0 km/h (3 Bft) W 277 ° 0 min 0,000 mm 0,0 UV-I 0 W/m² 3,3 °C 2,4 °C 20,9 km/h (4 Bft)
23.10.2017 21:13 5,5 °C 5,5 °C 86 % 1024,5 hPa 0,0 mm 7,7 km/h (2 Bft) W 266 ° 0 min 0,000 mm 0,0 UV-I 0 W/m² 3,3 °C 3,8 °C 9,7 km/h (2 Bft)
23.10.2017 21:14 5,4 °C 5,5 °C 86 % 1024,5 hPa 0,0 mm 9,0 km/h (2 Bft) SW 234 ° 0 min 0,000 mm 0,0 UV-I 0 W/m² 3,3 °C 3,4 °C 11,3 km/h (2 Bft)
23.10.2017 21:15 5,4 °C 5,4 °C 87 % 1024,5 hPa 0,0 mm 10,3 km/h (2 Bft) W-SW 253 ° 0 min 0,000 mm 0,0 UV-I 0 W/m² 3,4 °C 3,1 °C 12,9 km/h (3 Bft)
23.10.2017 21:16 5,4 °C 5,4 °C 86 % 1024,4 hPa 0,0 mm 6,8 km/h (2 Bft) W-SW 253 ° 0 min 0,000 mm 0,0 UV-I 0 W/m² 3,3 °C 3,9 °C 12,9 km/h (3 Bft)
23.10.2017 21:17 5,4 °C 5,4 °C 86 % 1024,5 hPa 0,0 mm 6,6 km/h (2 Bft) W-SW 247 ° 0 min 0,000 mm 0,0 UV-I 0 W/m² 3,3 °C 4,0 °C 8,0 km/h (2 Bft)
23.10.2017 21:18 5,4 °C 5,4 °C 86 % 1024,5 hPa 0,0 mm 4,4 km/h (1 Bft) W-NW 298 ° 0 min 0,000 mm 0,0 UV-I 0 W/m² 3,3 °C 5,4 °C 8,0 km/h (2 Bft)
23.10.2017 21:19 5,4 °C 5,4 °C 86 % 1024,5 hPa 0,0 mm 11,0 km/h (2 Bft) W-SW 247 ° 0 min 0,000 mm 0,0 UV-I 0 W/m² 3,3 °C 2,9 °C 16,1 km/h (3 Bft)
23.10.2017 21:20 5,4 °C 5,4 °C 86 % 1024,5 hPa 0,0 mm 11,0 km/h (2 Bft) W 277 ° 0 min 0,000 mm 0,0 UV-I 0 W/m² 3,3 °C 2,9 °C 12,9 km/h (3 Bft)
23.10.2017 21:21 5,4 °C 5,4 °C 86 % 1024,6 hPa 0,0 mm 6,1 km/h (2 Bft) W 265 ° 0 min 0,000 mm 0,0 UV-I 0 W/m² 3,3 °C 4,2 °C 11,3 km/h (2 Bft)
23.10.2017 21:22 5,4 °C 5,4 °C 86 % 1024,6 hPa 0,0 mm 11,1 km/h (2 Bft) W 267 ° 0 min 0,000 mm 0,0 UV-I 0 W/m² 3,3 °C 2,9 °C 19,3 km/h (3 Bft)
23.10.2017 21:23 5,4 °C 5,4 °C 86 % 1024,6 hPa 0,0 mm 12,0 km/h (2 Bft) W-NW 290 ° 0 min 0,000 mm 0,0 UV-I 0 W/m² 3,3 °C 2,7 °C 14,5 km/h (3 Bft)
23.10.2017 21:24 5,4 °C 5,4 °C 86 % 1024,6 hPa 0,0 mm 9,5 km/h (2 Bft) W 261 ° 0 min 0,000 mm 0,0 UV-I 0 W/m² 3,3 °C 3,2 °C 12,9 km/h (3 Bft)
23.10.2017 21:25 5,4 °C 5,4 °C 86 % 1024,7 hPa 0,0 mm 10,9 km/h (2 Bft) W 280 ° 0 min 0,000 mm 0,0 UV-I 0 W/m² 3,3 °C 3,0 °C 12,9 km/h (3 Bft)
23.10.2017 21:26 5,4 °C 5,4 °C 86 % 1024,7 hPa 0,0 mm 10,4 km/h (2 Bft) W 261 ° 0 min 0,000 mm 0,0 UV-I 0 W/m² 3,3 °C 3,1 °C 14,5 km/h (3 Bft)
23.10.2017 21:27 5,4 °C 5,4 °C 86 % 1024,6 hPa 0,0 mm 5,0 km/h (1 Bft) SW 217 ° 0 min 0,000 mm 0,0 UV-I 0 W/m² 3,3 °C 4,5 °C 8,0 km/h (2 Bft)
23.10.2017 21:28 5,4 °C 5,4 °C 86 % 1024,7 hPa 0,0 mm 6,4 km/h (2 Bft) W-SW 238 ° 0 min 0,000 mm 0,0 UV-I 0 W/m² 3,3 °C 4,1 °C 12,9 km/h (3 Bft)
23.10.2017 21:29 5,4 °C 5,4 °C 86 % 1024,6 hPa 0,0 mm 8,0 km/h (2 Bft) W 271 ° 0 min 0,000 mm 0,0 UV-I 0 W/m² 3,3 °C 3,6 °C 12,9 km/h (3 Bft)
23.10.2017 21:30 5,4 °C 5,5 °C 86 % 1024,6 hPa 0,0 mm 13,1 km/h (3 Bft) W-SW 249 ° 0 min 0,000 mm 0,0 UV-I 0 W/m² 3,3 °C 2,5 °C 16,1 km/h (3 Bft)
23.10.2017 21:31 5,4 °C 5,5 °C 87 % 1024,7 hPa 0,0 mm 8,8 km/h (2 Bft) W-SW 255 ° 0 min 0,000 mm 0,0 UV-I 0 W/m² 3,4 °C 3,4 °C 14,5 km/h (3 Bft)
23.10.2017 21:32 5,4 °C 5,4 °C 87 % 1024,7 hPa 0,0 mm 7,6 km/h (2 Bft) W-SW 258 ° 0 min 0,000 mm 0,0 UV-I 0 W/m² 3,4 °C 3,7 °C 14,5 km/h (3 Bft)
23.10.2017 21:33 5,4 °C 5,4 °C 87 % 1024,6 hPa 0,0 mm 7,2 km/h (2 Bft) W 271 ° 0 min 0,000 mm 0,0 UV-I 0 W/m² 3,4 °C 3,8 °C 12,9 km/h (3 Bft)
23.10.2017 21:34 5,4 °C 5,4 °C 87 % 1024,6 hPa 0,0 mm 7,7 km/h (2 Bft) W-SW 243 ° 0 min 0,000 mm 0,0 UV-I 0 W/m² 3,4 °C 3,7 °C 11,3 km/h (2 Bft)
23.10.2017 21:35 5,4 °C 5,4 °C 87 % 1024,6 hPa 0,0 mm 6,4 km/h (2 Bft) S-SW 213 ° 0 min 0,000 mm 0,0 UV-I 0 W/m² 3,4 °C 4,1 °C 12,9 km/h (3 Bft)
23.10.2017 21:36 5,4 °C 5,4 °C 86 % 1024,6 hPa 0,0 mm 4,6 km/h (1 Bft) SW 220 ° 0 min 0,000 mm 0,0 UV-I 0 W/m² 3,3 °C 4,7 °C 6,4 km/h (2 Bft)
23.10.2017 21:37 5,4 °C 5,4 °C 86 % 1024,6 hPa 0,0 mm 4,6 km/h (1 Bft) SW 233 ° 0 min 0,000 mm 0,0 UV-I 0 W/m² 3,3 °C 4,7 °C 6,4 km/h (2 Bft)
23.10.2017 21:38 5,4 °C 5,5 °C 86 % 1024,6 hPa 0,0 mm 9,6 km/h (2 Bft) SW 217 ° 0 min 0,000 mm 0,0 UV-I 0 W/m² 3,3 °C 3,2 °C 14,5 km/h (3 Bft)
23.10.2017 21:39 5,5 °C 5,5 °C 86 % 1024,6 hPa 0,0 mm 6,0 km/h (2 Bft) W 269 ° 0 min 0,000 mm 0,0 UV-I 0 W/m² 3,3 °C 4,3 °C 9,7 km/h (2 Bft)
23.10.2017 21:40 5,4 °C 5,5 °C 86 % 1024,7 hPa 0,0 mm 10,3 km/h (2 Bft) W-SW 257 ° 0 min 0,000 mm 0,0 UV-I 0 W/m² 3,3 °C 3,1 °C 17,7 km/h (3 Bft)
23.10.2017 21:41 5,5 °C 5,5 °C 86 % 1024,6 hPa 0,0 mm 9,1 km/h (2 Bft) W-SW 250 ° 0 min 0,000 mm 0,0 UV-I 0 W/m² 3,3 °C 3,5 °C 12,9 km/h (3 Bft)
23.10.2017 21:42 5,5 °C 5,5 °C 86 % 1024,7 hPa 0,0 mm 8,8 km/h (2 Bft) W 267 ° 0 min 0,000 mm 0,0 UV-I 0 W/m² 3,3 °C 3,5 °C 12,9 km/h (3 Bft)
23.10.2017 21:43 5,5 °C 5,5 °C 87 % 1024,7 hPa 0,0 mm 5,6 km/h (1 Bft) W 270 ° 0 min 0,000 mm 0,0 UV-I 0 W/m² 3,5 °C 4,4 °C 11,3 km/h (2 Bft)
23.10.2017 21:44 5,4 °C 5,5 °C 87 % 1024,7 hPa 0,0 mm 6,5 km/h (2 Bft) W-SW 257 ° 0 min 0,000 mm 0,0 UV-I 0 W/m² 3,4 °C 4,0 °C 11,3 km/h (2 Bft)
23.10.2017 21:45 5,4 °C 5,4 °C 87 % 1024,7 hPa 0,0 mm 6,2 km/h (2 Bft) W 269 ° 0 min 0,000 mm 0,0 UV-I 0 W/m² 3,4 °C 4,1 °C 6,4 km/h (2 Bft)
23.10.2017 21:46 5,4 °C 5,4 °C 87 % 1024,8 hPa 0,0 mm 4,9 km/h (1 Bft) W 267 ° 0 min 0,000 mm 0,0 UV-I 0 W/m² 3,4 °C 4,6 °C 6,4 km/h (2 Bft)
23.10.2017 21:47 5,4 °C 5,4 °C 87 % 1024,7 hPa 0,0 mm 4,8 km/h (1 Bft) W 266 ° 0 min 0,000 mm 0,0 UV-I 0 W/m² 3,4 °C 4,6 °C 11,3 km/h (2 Bft)
23.10.2017 21:48 5,4 °C 5,4 °C 87 % 1024,7 hPa 0,0 mm 4,4 km/h (1 Bft) W 275 ° 0 min 0,000 mm 0,0 UV-I 0 W/m² 3,4 °C 5,4 °C 4,8 km/h (1 Bft)
23.10.2017 21:49 5,4 °C 5,4 °C 87 % 1024,8 hPa 0,0 mm 6,6 km/h (2 Bft) W-SW 255 ° 0 min 0,000 mm 0,0 UV-I 0 W/m² 3,4 °C 4,0 °C 12,9 km/h (3 Bft)
23.10.2017 21:50 5,4 °C 5,4 °C 87 % 1024,8 hPa 0,0 mm 13,4 km/h (3 Bft) W-SW 254 ° 0 min 0,000 mm 0,0 UV-I 0 W/m² 3,4 °C 2,5 °C 16,1 km/h (3 Bft)
23.10.2017 21:51 5,4 °C 5,4 °C 87 % 1024,8 hPa 0,0 mm 6,7 km/h (2 Bft) W-SW 244 ° 0 min 0,000 mm 0,0 UV-I 0 W/m² 3,4 °C 4,0 °C 11,3 km/h (2 Bft)
23.10.2017 21:52 5,4 °C 5,4 °C 87 % 1024,8 hPa 0,0 mm 5,8 km/h (2 Bft) W 272 ° 0 min 0,000 mm 0,0 UV-I 0 W/m² 3,4 °C 4,2 °C 11,3 km/h (2 Bft)
23.10.2017 21:53 5,4 °C 5,4 °C 87 % 1024,9 hPa 0,0 mm 6,1 km/h (2 Bft) W 260 ° 0 min 0,000 mm 0,0 UV-I 0 W/m² 3,4 °C 4,2 °C 12,9 km/h (3 Bft)
23.10.2017 21:54 5,4 °C 5,4 °C 87 % 1024,8 hPa 0,0 mm 10,9 km/h (2 Bft) W-SW 240 ° 0 min 0,000 mm 0,0 UV-I 0 W/m² 3,4 °C 3,0 °C 16,1 km/h (3 Bft)
23.10.2017 21:55 5,4 °C 5,4 °C 87 % 1024,9 hPa 0,0 mm 4,8 km/h (1 Bft) W-SW 252 ° 0 min 0,000 mm 0,0 UV-I 0 W/m² 3,4 °C 4,6 °C 6,4 km/h (2 Bft)
23.10.2017 21:56 5,4 °C 5,4 °C 87 % 1024,9 hPa 0,0 mm 7,4 km/h (2 Bft) W-SW 250 ° 0 min 0,000 mm 0,0 UV-I 0 W/m² 3,4 °C 3,8 °C 12,9 km/h (3 Bft)
23.10.2017 21:57 5,4 °C 5,4 °C 87 % 1024,9 hPa 0,0 mm 3,7 km/h (1 Bft) W-SW 247 ° 0 min 0,000 mm 0,0 UV-I 0 W/m² 3,4 °C 5,4 °C 6,4 km/h (2 Bft)
23.10.2017 21:58 5,4 °C 5,4 °C 87 % 1024,9 hPa 0,0 mm 5,6 km/h (1 Bft) W 271 ° 0 min 0,000 mm 0,0 UV-I 0 W/m² 3,4 °C 4,3 °C 9,7 km/h (2 Bft)
23.10.2017 21:59 5,4 °C 5,4 °C 87 % 1024,9 hPa 0,0 mm 8,5 km/h (2 Bft) W 266 ° 0 min 0,000 mm 0,0 UV-I 0 W/m² 3,4 °C 3,5 °C 14,5 km/h (3 Bft)
23.10.2017 22:00 5,4 °C 5,4 °C 87 % 1024,9 hPa 0,0 mm 8,4 km/h (2 Bft) W 266 ° 0 min 0,000 mm 0,0 UV-I 0 W/m² 3,4 °C 3,5 °C 12,9 km/h (3 Bft)
23.10.2017 22:01 5,4 °C 5,4 °C 87 % 1024,9 hPa 0,0 mm 9,5 km/h (2 Bft) SW 219 ° 0 min 0,025 mm 0,0 UV-I 0 W/m² 3,4 °C 3,2 °C 11,3 km/h (2 Bft)
23.10.2017 22:03 5,4 °C 5,4 °C 87 % 1025,0 hPa 0,0 mm 8,0 km/h (2 Bft) W-SW 245 ° 0 min 0,000 mm 0,0 UV-I 0 W/m² 3,4 °C 3,6 °C 14,5 km/h (3 Bft)
23.10.2017 22:04 5,4 °C 5,4 °C 87 % 1024,9 hPa 0,0 mm 2,9 km/h (1 Bft) W-SW 244 ° 0 min 0,000 mm 0,0 UV-I 0 W/m² 3,4 °C 5,4 °C 11,3 km/h (2 Bft)
23.10.2017 22:05 5,4 °C 5,4 °C 87 % 1024,9 hPa 0,0 mm 2,1 km/h (1 Bft) W-SW 245 ° 0 min 0,000 mm 0,0 UV-I 0 W/m² 3,4 °C 5,4 °C 4,8 km/h (1 Bft)
23.10.2017 22:06 5,4 °C 5,4 °C 87 % 1024,9 hPa 0,0 mm 5,6 km/h (1 Bft) W-SW 251 ° 0 min 0,000 mm 0,0 UV-I 0 W/m² 3,4 °C 4,3 °C 9,7 km/h (2 Bft)
23.10.2017 22:07 5,4 °C 5,4 °C 87 % 1024,9 hPa 0,0 mm 2,1 km/h (1 Bft) W-SW 251 ° 0 min 0,000 mm 0,0 UV-I 0 W/m² 3,4 °C 5,4 °C 4,8 km/h (1 Bft)
23.10.2017 22:08 5,4 °C 5,4 °C 87 % 1024,9 hPa 0,0 mm 4,8 km/h (1 Bft) W 266 ° 0 min 0,000 mm 0,0 UV-I 0 W/m² 3,4 °C 4,6 °C 11,3 km/h (2 Bft)
23.10.2017 22:09 5,4 °C 5,5 °C 87 % 1024,9 hPa 0,0 mm 9,2 km/h (2 Bft) W 271 ° 0 min 0,000 mm 0,0 UV-I 0 W/m² 3,4 °C 3,3 °C 12,9 km/h (3 Bft)
23.10.2017 22:10 5,4 °C 5,4 °C 87 % 1024,9 hPa 0,0 mm 5,4 km/h (1 Bft) W-SW 254 ° 0 min 0,000 mm 0,0 UV-I 0 W/m² 3,4 °C 4,4 °C 9,7 km/h (2 Bft)
23.10.2017 22:11 5,4 °C 5,5 °C 87 % 1025,0 hPa 0,0 mm 6,0 km/h (2 Bft) S-SW 201 ° 0 min 0,000 mm 0,0 UV-I 0 W/m² 3,4 °C 4,2 °C 11,3 km/h (2 Bft)
23.10.2017 22:12 5,4 °C 5,5 °C 87 % 1024,9 hPa 0,0 mm 5,6 km/h (1 Bft) W 261 ° 0 min 0,000 mm 0,0 UV-I 0 W/m² 3,4 °C 4,3 °C 6,4 km/h (2 Bft)
23.10.2017 22:13 5,5 °C 5,5 °C 87 % 1024,9 hPa 0,0 mm 3,9 km/h (1 Bft) W 261 ° 0 min 0,000 mm 0,0 UV-I 0 W/m² 3,5 °C 5,5 °C 6,4 km/h (2 Bft)
23.10.2017 22:14 5,5 °C 5,5 °C 87 % 1024,9 hPa 0,0 mm 3,3 km/h (1 Bft) W-SW 256 ° 0 min 0,000 mm 0,0 UV-I 0 W/m² 3,5 °C 5,5 °C 9,7 km/h (2 Bft)
23.10.2017 22:15 5,5 °C 5,5 °C 87 % 1024,9 hPa 0,0 mm 5,2 km/h (1 Bft) W-SW 248 ° 0 min 0,000 mm 0,0 UV-I 0 W/m² 3,5 °C 4,6 °C 8,0 km/h (2 Bft)
23.10.2017 22:16 5,5 °C 5,5 °C 87 % 1024,9 hPa 0,0 mm 4,4 km/h (1 Bft) SW 229 ° 0 min 0,000 mm 0,0 UV-I 0 W/m² 3,5 °C 5,5 °C 8,0 km/h (2 Bft)
23.10.2017 22:17 5,5 °C 5,5 °C 87 % 1024,9 hPa 0,0 mm 5,2 km/h (1 Bft) W 263 ° 0 min 0,000 mm 0,0 UV-I 0 W/m² 3,5 °C 4,6 °C 9,7 km/h (2 Bft)
23.10.2017 22:18 5,5 °C 5,5 °C 87 % 1024,9 hPa 0,0 mm 7,4 km/h (2 Bft) W 260 ° 0 min 0,000 mm 0,0 UV-I 0 W/m² 3,5 °C 3,9 °C 11,3 km/h (2 Bft)
23.10.2017 22:19 5,5 °C 5,5 °C 87 % 1024,9 hPa 0,0 mm 4,1 km/h (1 Bft) W 273 ° 0 min 0,000 mm 0,0 UV-I 0 W/m² 3,5 °C 5,5 °C 8,0 km/h (2 Bft)
23.10.2017 22:20 5,5 °C 5,5 °C 87 % 1024,9 hPa 0,0 mm 9,1 km/h (2 Bft) W 278 ° 0 min 0,000 mm 0,0 UV-I 0 W/m² 3,5 °C 3,5 °C 11,3 km/h (2 Bft)
23.10.2017 22:21 5,5 °C 5,5 °C 88 % 1025,0 hPa 0,0 mm 11,5 km/h (2 Bft) W-SW 241 ° 0 min 0,000 mm 0,0 UV-I 0 W/m² 3,7 °C 3,0 °C 16,1 km/h (3 Bft)
23.10.2017 22:22 5,5 °C 5,5 °C 88 % 1025,0 hPa 0,0 mm 9,3 km/h (2 Bft) W 273 ° 0 min 0,000 mm 0,0 UV-I 0 W/m² 3,7 °C 3,4 °C 11,3 km/h (2 Bft)
23.10.2017 22:23 5,4 °C 5,5 °C 88 % 1025,1 hPa 0,0 mm 6,2 km/h (2 Bft) W 260 ° 0 min 0,000 mm 0,0 UV-I 0 W/m² 3,6 °C 4,1 °C 11,3 km/h (2 Bft)
23.10.2017 22:24 5,4 °C 5,4 °C 88 % 1025,1 hPa 0,0 mm 5,4 km/h (1 Bft) W 271 ° 0 min 0,000 mm 0,0 UV-I 0 W/m² 3,6 °C 4,4 °C 6,4 km/h (2 Bft)
23.10.2017 22:25 5,4 °C 5,4 °C 88 % 1025,1 hPa 0,0 mm 6,4 km/h (2 Bft) W 275 ° 0 min 0,000 mm 0,0 UV-I 0 W/m² 3,6 °C 4,1 °C 11,3 km/h (2 Bft)
23.10.2017 22:26 5,4 °C 5,4 °C 88 % 1025,1 hPa 0,0 mm 6,6 km/h (2 Bft) W-SW 255 ° 0 min 0,000 mm 0,0 UV-I 0 W/m² 3,6 °C 4,0 °C 11,3 km/h (2 Bft)
23.10.2017 22:27 5,4 °C 5,4 °C 88 % 1025,1 hPa 0,0 mm 5,5 km/h (1 Bft) W-SW 250 ° 0 min 0,000 mm 0,0 UV-I 0 W/m² 3,6 °C 4,4 °C 9,7 km/h (2 Bft)
23.10.2017 22:28 5,4 °C 5,4 °C 88 % 1025,1 hPa 0,0 mm 3,1 km/h (1 Bft) W-SW 252 ° 0 min 0,000 mm 0,0 UV-I 0 W/m² 3,6 °C 5,4 °C 4,8 km/h (1 Bft)
23.10.2017 22:29 5,4 °C 5,4 °C 88 % 1025,0 hPa 0,0 mm 3,5 km/h (1 Bft) SW 225 ° 0 min 0,000 mm 0,0 UV-I 0 W/m² 3,6 °C 5,4 °C 6,4 km/h (2 Bft)
23.10.2017 22:30 5,4 °C 5,4 °C 88 % 1025,1 hPa 0,0 mm 6,6 km/h (2 Bft) W 259 ° 0 min 0,000 mm 0,0 UV-I 0 W/m² 3,6 °C 4,0 °C 11,3 km/h (2 Bft)
23.10.2017 22:31 5,4 °C 5,4 °C 88 % 1025,1 hPa 0,0 mm 7,0 km/h (2 Bft) W 263 ° 0 min 0,000 mm 0,0 UV-I 0 W/m² 3,6 °C 3,9 °C 11,3 km/h (2 Bft)
23.10.2017 22:32 5,4 °C 5,4 °C 88 % 1025,2 hPa 0,0 mm 6,3 km/h (2 Bft) W-SW 242 ° 0 min 0,000 mm 0,0 UV-I 0 W/m² 3,6 °C 4,1 °C 12,9 km/h (3 Bft)
23.10.2017 22:33 5,4 °C 5,4 °C 88 % 1025,1 hPa 0,0 mm 3,4 km/h (1 Bft) W 277 ° 0 min 0,000 mm 0,0 UV-I 0 W/m² 3,6 °C 5,4 °C 6,4 km/h (2 Bft)
23.10.2017 22:34 5,4 °C 5,4 °C 88 % 1025,2 hPa 0,0 mm 5,2 km/h (1 Bft) W 261 ° 0 min 0,000 mm 0,0 UV-I 0 W/m² 3,6 °C 4,5 °C 9,7 km/h (2 Bft)
23.10.2017 22:35 5,4 °C 5,4 °C 88 % 1025,2 hPa 0,0 mm 5,2 km/h (1 Bft) W-SW 255 ° 0 min 0,000 mm 0,0 UV-I 0 W/m² 3,6 °C 4,5 °C 8,0 km/h (2 Bft)
23.10.2017 22:36 5,4 °C 5,4 °C 88 % 1025,2 hPa 0,0 mm 5,8 km/h (2 Bft) SW 232 ° 0 min 0,000 mm 0,0 UV-I 0 W/m² 3,6 °C 4,2 °C 6,4 km/h (2 Bft)
23.10.2017 22:37 5,4 °C 5,4 °C 88 % 1025,2 hPa 0,0 mm 4,5 km/h (1 Bft) W-SW 252 ° 0 min 0,000 mm 0,0 UV-I 0 W/m² 3,6 °C 5,4 °C 8,0 km/h (2 Bft)
23.10.2017 22:38 5,4 °C 5,4 °C 88 % 1025,2 hPa 0,0 mm 4,8 km/h (1 Bft) W 260 ° 0 min 0,000 mm 0,0 UV-I 0 W/m² 3,6 °C 4,6 °C 9,7 km/h (2 Bft)
23.10.2017 22:39 5,4 °C 5,4 °C 88 % 1025,2 hPa 0,0 mm 6,2 km/h (2 Bft) W 268 ° 0 min 0,000 mm 0,0 UV-I 0 W/m² 3,6 °C 4,1 °C 9,7 km/h (2 Bft)
23.10.2017 22:40 5,4 °C 5,4 °C 88 % 1025,2 hPa 0,0 mm 5,8 km/h (2 Bft) SW 236 ° 0 min 0,000 mm 0,0 UV-I 0 W/m² 3,6 °C 4,2 °C 11,3 km/h (2 Bft)
23.10.2017 22:41 5,4 °C 5,4 °C 89 % 1025,2 hPa 0,0 mm 5,0 km/h (1 Bft) W 261 ° 0 min 0,000 mm 0,0 UV-I 0 W/m² 3,7 °C 4,5 °C 9,7 km/h (2 Bft)
23.10.2017 22:42 5,4 °C 5,4 °C 89 % 1025,2 hPa 0,0 mm 6,8 km/h (2 Bft) W-SW 257 ° 0 min 0,000 mm 0,0 UV-I 0 W/m² 3,7 °C 3,9 °C 9,7 km/h (2 Bft)
23.10.2017 22:43 5,4 °C 5,4 °C 89 % 1025,2 hPa 0,0 mm 6,3 km/h (2 Bft) W-SW 237 ° 0 min 0,000 mm 0,0 UV-I 0 W/m² 3,7 °C 4,1 °C 11,3 km/h (2 Bft)
23.10.2017 22:44 5,4 °C 5,4 °C 89 % 1025,2 hPa 0,0 mm 8,0 km/h (2 Bft) W 270 ° 0 min 0,000 mm 0,0 UV-I 0 W/m² 3,7 °C 3,6 °C 12,9 km/h (3 Bft)
23.10.2017 22:45 5,4 °C 5,4 °C 89 % 1025,2 hPa 0,0 mm 6,0 km/h (2 Bft) W 268 ° 0 min 0,000 mm 0,0 UV-I 0 W/m² 3,7 °C 4,2 °C 9,7 km/h (2 Bft)
23.10.2017 22:46 5,4 °C 5,4 °C 89 % 1025,2 hPa 0,0 mm 5,0 km/h (1 Bft) W-SW 257 ° 0 min 0,000 mm 0,0 UV-I 0 W/m² 3,7 °C 4,5 °C 6,4 km/h (2 Bft)
23.10.2017 22:47 5,3 °C 5,4 °C 89 % 1025,2 hPa 0,0 mm 5,0 km/h (1 Bft) W-NW 295 ° 0 min 0,000 mm 0,0 UV-I 0 W/m² 3,6 °C 4,4 °C 6,4 km/h (2 Bft)
23.10.2017 22:48 5,3 °C 5,3 °C 89 % 1025,2 hPa 0,0 mm 6,3 km/h (2 Bft) W 281 ° 0 min 0,000 mm 0,0 UV-I 0 W/m² 3,6 °C 4,0 °C 9,7 km/h (2 Bft)
23.10.2017 22:49 5,3 °C 5,3 °C 89 % 1025,3 hPa 0,0 mm 7,8 km/h (2 Bft) W 259 ° 0 min 0,000 mm 0,0 UV-I 0 W/m² 3,6 °C 3,5 °C 11,3 km/h (2 Bft)
23.10.2017 22:50 5,3 °C 5,3 °C 90 % 1025,3 hPa 0,0 mm 6,6 km/h (2 Bft) W 265 ° 0 min 0,000 mm 0,0 UV-I 0 W/m² 3,8 °C 3,9 °C 11,3 km/h (2 Bft)
23.10.2017 22:51 5,3 °C 5,3 °C 90 % 1025,3 hPa 0,0 mm 6,1 km/h (2 Bft) SW 230 ° 0 min 0,000 mm 0,0 UV-I 0 W/m² 3,8 °C 4,0 °C 9,7 km/h (2 Bft)
23.10.2017 22:52 5,2 °C 5,3 °C 90 % 1025,3 hPa 0,0 mm 5,5 km/h (1 Bft) W-SW 254 ° 0 min 0,000 mm 0,0 UV-I 0 W/m² 3,7 °C 4,1 °C 12,9 km/h (3 Bft)
23.10.2017 22:53 5,2 °C 5,2 °C 90 % 1025,3 hPa 0,0 mm 5,8 km/h (2 Bft) W-SW 237 ° 0 min 0,000 mm 0,0 UV-I 0 W/m² 3,7 °C 4,0 °C 12,9 km/h (3 Bft)
23.10.2017 22:54 5,2 °C 5,2 °C 90 % 1025,3 hPa 0,0 mm 7,2 km/h (2 Bft) W-SW 251 ° 0 min 0,000 mm 0,0 UV-I 0 W/m² 3,7 °C 3,6 °C 9,7 km/h (2 Bft)
23.10.2017 22:55 5,2 °C 5,2 °C 90 % 1025,3 hPa 0,0 mm 6,1 km/h (2 Bft) W-SW 247 ° 0 min 0,000 mm 0,0 UV-I 0 W/m² 3,7 °C 3,9 °C 11,3 km/h (2 Bft)
23.10.2017 22:56 5,2 °C 5,2 °C 90 % 1025,3 hPa 0,0 mm 7,8 km/h (2 Bft) W 277 ° 0 min 0,000 mm 0,0 UV-I 0 W/m² 3,7 °C 3,4 °C 12,9 km/h (3 Bft)
23.10.2017 22:57 5,2 °C 5,2 °C 90 % 1025,3 hPa 0,0 mm 4,5 km/h (1 Bft) W 259 ° 0 min 0,000 mm 0,0 UV-I 0 W/m² 3,7 °C 5,2 °C 11,3 km/h (2 Bft)
23.10.2017 22:58 5,2 °C 5,2 °C 91 % 1025,4 hPa 0,0 mm 3,4 km/h (1 Bft) W-SW 245 ° 0 min 0,000 mm 0,0 UV-I 0 W/m² 3,9 °C 5,2 °C 4,8 km/h (1 Bft)
23.10.2017 22:59 5,1 °C 5,2 °C 91 % 1025,3 hPa 0,0 mm 4,4 km/h (1 Bft) SW 215 ° 0 min 0,000 mm 0,0 UV-I 0 W/m² 3,8 °C 5,1 °C 6,4 km/h (2 Bft)
23.10.2017 23:00 5,1 °C 5,2 °C 91 % 1025,3 hPa 0,0 mm 5,4 km/h (1 Bft) W-SW 238 ° 0 min 0,000 mm 0,0 UV-I 0 W/m² 3,8 °C 4,0 °C 11,3 km/h (2 Bft)
23.10.2017 23:01 5,1 °C 5,2 °C 91 % 1025,4 hPa 0,0 mm 6,9 km/h (2 Bft) W-SW 257 ° 0 min 0,000 mm 0,0 UV-I 0 W/m² 3,8 °C 3,6 °C 14,5 km/h (3 Bft)
23.10.2017 23:02 5,1 °C 5,2 °C 91 % 1025,3 hPa 0,0 mm 5,3 km/h (1 Bft) SW 232 ° 0 min 0,000 mm 0,0 UV-I 0 W/m² 3,8 °C 4,1 °C 6,4 km/h (2 Bft)
23.10.2017 23:03 5,2 °C 5,2 °C 91 % 1025,3 hPa 0,0 mm 5,2 km/h (1 Bft) W 277 ° 0 min 0,000 mm 0,0 UV-I 0 W/m² 3,9 °C 4,2 °C 6,4 km/h (2 Bft)
23.10.2017 23:04 5,2 °C 5,2 °C 91 % 1025,3 hPa 0,0 mm 4,4 km/h (1 Bft) W 268 ° 0 min 0,000 mm 0,0 UV-I 0 W/m² 3,9 °C 5,2 °C 9,7 km/h (2 Bft)
23.10.2017 23:05 5,1 °C 5,2 °C 91 % 1025,3 hPa 0,0 mm 8,4 km/h (2 Bft) W-SW 242 ° 0 min 0,000 mm 0,0 UV-I 0 W/m² 3,8 °C 3,1 °C 12,9 km/h (3 Bft)
23.10.2017 23:06 5,2 °C 5,2 °C 91 % 1025,3 hPa 0,0 mm 4,4 km/h (1 Bft) W-SW 257 ° 0 min 0,000 mm 0,0 UV-I 0 W/m² 3,9 °C 5,2 °C 9,7 km/h (2 Bft)
23.10.2017 23:07 5,1 °C 5,2 °C 91 % 1025,3 hPa 0,0 mm 3,0 km/h (1 Bft) W-SW 244 ° 0 min 0,000 mm 0,0 UV-I 0 W/m² 3,8 °C 5,1 °C 4,8 km/h (1 Bft)
23.10.2017 23:08 5,1 °C 5,2 °C 91 % 1025,3 hPa 0,0 mm 4,5 km/h (1 Bft) W-SW 240 ° 0 min 0,000 mm 0,0 UV-I 0 W/m² 3,8 °C 5,1 °C 9,7 km/h (2 Bft)
23.10.2017 23:09 5,1 °C 5,2 °C 91 % 1025,3 hPa 0,0 mm 7,8 km/h (2 Bft) W-SW 242 ° 0 min 0,000 mm 0,0 UV-I 0 W/m² 3,8 °C 3,3 °C 12,9 km/h (3 Bft)
23.10.2017 23:10 5,2 °C 5,2 °C 91 % 1025,4 hPa 0,0 mm 6,0 km/h (2 Bft) SW 226 ° 0 min 0,000 mm 0,0 UV-I 0 W/m² 3,9 °C 4,0 °C 8,0 km/h (2 Bft)
23.10.2017 23:11 5,2 °C 5,2 °C 91 % 1025,3 hPa 0,0 mm 5,6 km/h (1 Bft) SW 224 ° 0 min 0,000 mm 0,0 UV-I 0 W/m² 3,9 °C 4,1 °C 8,0 km/h (2 Bft)
23.10.2017 23:12 5,2 °C 5,2 °C 91 % 1025,4 hPa 0,0 mm 5,8 km/h (2 Bft) W-SW 251 ° 0 min 0,000 mm 0,0 UV-I 0 W/m² 3,9 °C 4,0 °C 8,0 km/h (2 Bft)
23.10.2017 23:13 5,1 °C 5,2 °C 91 % 1025,4 hPa 0,0 mm 6,0 km/h (2 Bft) W-SW 254 ° 0 min 0,000 mm 0,0 UV-I 0 W/m² 3,8 °C 3,8 °C 11,3 km/h (2 Bft)
23.10.2017 23:14 5,1 °C 5,2 °C 91 % 1025,4 hPa 0,2 mm 5,6 km/h (1 Bft) W-SW 242 ° 0 min 0,000 mm 0,0 UV-I 0 W/m² 3,8 °C 4,0 °C 9,7 km/h (2 Bft)
23.10.2017 23:15 5,1 °C 5,1 °C 91 % 1025,4 hPa 0,0 mm 4,1 km/h (1 Bft) S-SW 208 ° 0 min 0,000 mm 0,0 UV-I 0 W/m² 3,8 °C 5,1 °C 6,4 km/h (2 Bft)
23.10.2017 23:16 5,1 °C 5,1 °C 91 % 1025,5 hPa 0,0 mm 3,2 km/h (1 Bft) SW 236 ° 0 min 0,000 mm 0,0 UV-I 0 W/m² 3,8 °C 5,1 °C 4,8 km/h (1 Bft)
23.10.2017 23:17 5,1 °C 5,1 °C 91 % 1025,5 hPa 0,0 mm 5,1 km/h (1 Bft) W 268 ° 0 min 0,000 mm 0,0 UV-I 0 W/m² 3,8 °C 4,2 °C 8,0 km/h (2 Bft)
23.10.2017 23:18 5,1 °C 5,1 °C 91 % 1025,5 hPa 0,0 mm 4,2 km/h (1 Bft) W-SW 253 ° 0 min 0,000 mm 0,0 UV-I 0 W/m² 3,8 °C 5,1 °C 6,4 km/h (2 Bft)
23.10.2017 23:19 5,1 °C 5,1 °C 91 % 1025,5 hPa 0,0 mm 2,9 km/h (1 Bft) W-SW 253 ° 0 min 0,000 mm 0,0 UV-I 0 W/m² 3,8 °C 5,1 °C 4,8 km/h (1 Bft)
23.10.2017 23:20 5,1 °C 5,1 °C 91 % 1025,5 hPa 0,0 mm 4,8 km/h (1 Bft) W 265 ° 0 min 0,000 mm 0,0 UV-I 0 W/m² 3,8 °C 4,3 °C 9,7 km/h (2 Bft)
23.10.2017 23:21 5,0 °C 5,1 °C 92 % 1025,5 hPa 0,0 mm 1,5 km/h (1 Bft) W 265 ° 0 min 0,000 mm 0,0 UV-I 0 W/m² 3,8 °C 5,0 °C 3,2 km/h (1 Bft)
23.10.2017 23:22 5,0 °C 5,1 °C 92 % 1025,5 hPa 0,2 mm 1,0 km/h (0 Bft) W 265 ° 0 min 0,000 mm 0,0 UV-I 0 W/m² 3,8 °C 5,0 °C 1,6 km/h (1 Bft)
23.10.2017 23:23 5,0 °C 5,1 °C 91 % 1025,5 hPa 0,0 mm 0,3 km/h (0 Bft) W 265 ° 0 min 0,000 mm 0,0 UV-I 0 W/m² 3,7 °C 5,0 °C 1,6 km/h (1 Bft)
23.10.2017 23:24 5,0 °C 5,0 °C 92 % 1025,5 hPa 0,0 mm 0,0 km/h (0 Bft) W 265 ° 0 min 0,000 mm 0,0 UV-I 0 W/m² 3,8 °C 5,0 °C 0,0 km/h (0 Bft)
23.10.2017 23:25 5,0 °C 5,0 °C 92 % 1025,5 hPa 0,0 mm 0,0 km/h (0 Bft) W 265 ° 0 min 0,000 mm 0,0 UV-I 0 W/m² 3,8 °C 5,0 °C 0,0 km/h (0 Bft)
23.10.2017 23:26 4,9 °C 5,0 °C 92 % 1025,4 hPa 0,0 mm 2,2 km/h (1 Bft) W-SW 242 ° 0 min 0,000 mm 0,0 UV-I 0 W/m² 3,7 °C 4,9 °C 4,8 km/h (1 Bft)
23.10.2017 23:27 5,0 °C 5,0 °C 92 % 1025,4 hPa 0,0 mm 1,2 km/h (1 Bft) W-SW 242 ° 0 min 0,000 mm 0,0 UV-I 0 W/m² 3,8 °C 5,0 °C 4,8 km/h (1 Bft)
23.10.2017 23:28 4,9 °C 5,0 °C 92 % 1025,4 hPa 0,0 mm 0,8 km/h (0 Bft) W-SW 242 ° 0 min 0,000 mm 0,0 UV-I 0 W/m² 3,7 °C 4,9 °C 1,6 km/h (1 Bft)
23.10.2017 23:29 4,9 °C 4,9 °C 92 % 1025,4 hPa 0,0 mm 0,4 km/h (0 Bft) W-SW 242 ° 0 min 0,000 mm 0,0 UV-I 0 W/m² 3,7 °C 4,9 °C 1,6 km/h (1 Bft)
23.10.2017 23:30 4,9 °C 4,9 °C 92 % 1025,4 hPa 0,0 mm 0,2 km/h (0 Bft) W-SW 242 ° 0 min 0,000 mm 0,0 UV-I 0 W/m² 3,7 °C 4,9 °C 1,6 km/h (1 Bft)
23.10.2017 23:31 4,9 °C 4,9 °C 92 % 1025,4 hPa 0,0 mm 2,3 km/h (1 Bft) W-SW 246 ° 0 min 0,000 mm 0,0 UV-I 0 W/m² 3,7 °C 4,9 °C 4,8 km/h (1 Bft)
23.10.2017 23:32 4,9 °C 4,9 °C 92 % 1025,5 hPa 0,0 mm 2,1 km/h (1 Bft) W-SW 256 ° 0 min 0,000 mm 0,0 UV-I 0 W/m² 3,7 °C 4,9 °C 4,8 km/h (1 Bft)
23.10.2017 23:33 4,9 °C 4,9 °C 92 % 1025,4 hPa 0,0 mm 1,5 km/h (1 Bft) W 268 ° 0 min 0,000 mm 0,0 UV-I 0 W/m² 3,7 °C 4,9 °C 3,2 km/h (1 Bft)
23.10.2017 23:34 4,9 °C 4,9 °C 92 % 1025,5 hPa 0,0 mm 0,8 km/h (0 Bft) W 268 ° 0 min 0,000 mm 0,0 UV-I 0 W/m² 3,7 °C 4,9 °C 1,6 km/h (1 Bft)
23.10.2017 23:35 4,9 °C 4,9 °C 92 % 1025,5 hPa 0,0 mm 1,1 km/h (1 Bft) W 268 ° 0 min 0,000 mm 0,0 UV-I 0 W/m² 3,7 °C 4,9 °C 3,2 km/h (1 Bft)
23.10.2017 23:36 4,9 °C 4,9 °C 92 % 1025,5 hPa 0,0 mm 0,0 km/h (0 Bft) W 268 ° 0 min 0,000 mm 0,0 UV-I 0 W/m² 3,7 °C 4,9 °C 0,0 km/h (0 Bft)
23.10.2017 23:37 4,9 °C 4,9 °C 92 % 1025,5 hPa 0,0 mm 0,0 km/h (0 Bft) W 268 ° 0 min 0,000 mm 0,0 UV-I 0 W/m² 3,7 °C 4,9 °C 0,0 km/h (0 Bft)
23.10.2017 23:38 4,9 °C 5,0 °C 92 % 1025,5 hPa 0,0 mm 0,0 km/h (0 Bft) W 268 ° 0 min 0,000 mm 0,0 UV-I 0 W/m² 3,7 °C 4,9 °C 0,0 km/h (0 Bft)
23.10.2017 23:39 5,0 °C 5,0 °C 92 % 1025,5 hPa 0,0 mm 1,3 km/h (1 Bft) W 268 ° 0 min 0,000 mm 0,0 UV-I 0 W/m² 3,8 °C 5,0 °C 4,8 km/h (1 Bft)
23.10.2017 23:40 5,0 °C 5,0 °C 92 % 1025,5 hPa 0,0 mm 2,9 km/h (1 Bft) W 270 ° 0 min 0,000 mm 0,0 UV-I 0 W/m² 3,8 °C 5,0 °C 4,8 km/h (1 Bft)
23.10.2017 23:41 5,0 °C 5,0 °C 92 % 1025,5 hPa 0,0 mm 4,7 km/h (1 Bft) SW 227 ° 0 min 0,000 mm 0,0 UV-I 0 W/m² 3,8 °C 4,2 °C 6,4 km/h (2 Bft)
23.10.2017 23:42 4,9 °C 5,0 °C 92 % 1025,5 hPa 0,0 mm 2,7 km/h (1 Bft) SW 227 ° 0 min 0,000 mm 0,0 UV-I 0 W/m² 3,7 °C 4,9 °C 4,8 km/h (1 Bft)
23.10.2017 23:43 4,9 °C 4,9 °C 92 % 1025,5 hPa 0,0 mm 4,5 km/h (1 Bft) W-SW 254 ° 0 min 0,000 mm 0,0 UV-I 0 W/m² 3,7 °C 4,9 °C 6,4 km/h (2 Bft)
23.10.2017 23:44 4,9 °C 5,0 °C 92 % 1025,5 hPa 0,0 mm 1,7 km/h (1 Bft) W-SW 254 ° 0 min 0,000 mm 0,0 UV-I 0 W/m² 3,7 °C 4,9 °C 3,2 km/h (1 Bft)
23.10.2017 23:45 4,9 °C 5,0 °C 92 % 1025,5 hPa 0,0 mm 2,1 km/h (1 Bft) W-SW 254 ° 0 min 0,000 mm 0,0 UV-I 0 W/m² 3,7 °C 4,9 °C 4,8 km/h (1 Bft)
23.10.2017 23:46 4,9 °C 5,0 °C 92 % 1025,5 hPa 0,0 mm 2,0 km/h (1 Bft) W-SW 237 ° 0 min 0,000 mm 0,0 UV-I 0 W/m² 3,7 °C 4,9 °C 4,8 km/h (1 Bft)
23.10.2017 23:47 5,0 °C 5,0 °C 92 % 1025,5 hPa 0,0 mm 4,7 km/h (1 Bft) W-SW 251 ° 0 min 0,000 mm 0,0 UV-I 0 W/m² 3,8 °C 4,2 °C 6,4 km/h (2 Bft)
23.10.2017 23:48 5,0 °C 5,0 °C 92 % 1025,6 hPa 0,0 mm 4,3 km/h (1 Bft) W-SW 252 ° 0 min 0,000 mm 0,0 UV-I 0 W/m² 3,8 °C 5,0 °C 6,4 km/h (2 Bft)
23.10.2017 23:49 5,0 °C 5,0 °C 92 % 1025,5 hPa 0,0 mm 4,8 km/h (1 Bft) SW 232 ° 0 min 0,000 mm 0,0 UV-I 0 W/m² 3,8 °C 4,2 °C 8,0 km/h (2 Bft)
23.10.2017 23:50 5,0 °C 5,0 °C 92 % 1025,6 hPa 0,0 mm 1,5 km/h (1 Bft) SW 232 ° 0 min 0,000 mm 0,0 UV-I 0 W/m² 3,8 °C 5,0 °C 3,2 km/h (1 Bft)
23.10.2017 23:51 5,0 °C 5,0 °C 92 % 1025,6 hPa 0,0 mm 1,3 km/h (1 Bft) SW 232 ° 0 min 0,000 mm 0,0 UV-I 0 W/m² 3,8 °C 5,0 °C 3,2 km/h (1 Bft)
23.10.2017 23:52 5,0 °C 5,0 °C 92 % 1025,5 hPa 0,2 mm 0,0 km/h (0 Bft) SW 232 ° 0 min 0,000 mm 0,0 UV-I 0 W/m² 3,8 °C 5,0 °C 0,0 km/h (0 Bft)
23.10.2017 23:53 5,0 °C 5,0 °C 92 % 1025,6 hPa 0,0 mm 0,0 km/h (0 Bft) SW 232 ° 0 min 0,000 mm 0,0 UV-I 0 W/m² 3,8 °C 5,0 °C 0,0 km/h (0 Bft)
23.10.2017 23:54 4,9 °C 5,0 °C 92 % 1025,6 hPa 0,0 mm 0,1 km/h (0 Bft) SW 232 ° 0 min 0,000 mm 0,0 UV-I 0 W/m² 3,7 °C 4,9 °C 1,6 km/h (1 Bft)
23.10.2017 23:55 4,9 °C 5,0 °C 92 % 1025,6 hPa 0,0 mm 0,3 km/h (0 Bft) SW 232 ° 0 min 0,000 mm 0,0 UV-I 0 W/m² 3,7 °C 4,9 °C 3,2 km/h (1 Bft)
23.10.2017 23:56 4,9 °C 5,0 °C 92 % 1025,6 hPa 0,0 mm 2,5 km/h (1 Bft) W 267 ° 0 min 0,000 mm 0,0 UV-I 0 W/m² 3,7 °C 4,9 °C 6,4 km/h (2 Bft)
23.10.2017 23:57 4,9 °C 5,0 °C 92 % 1025,6 hPa 0,0 mm 0,4 km/h (0 Bft) W 267 ° 0 min 0,000 mm 0,0 UV-I 0 W/m² 3,7 °C 4,9 °C 1,6 km/h (1 Bft)
23.10.2017 23:58 5,0 °C 5,0 °C 92 % 1025,6 hPa 0,0 mm 0,0 km/h (0 Bft) W 267 ° 0 min 0,000 mm 0,0 UV-I 0 W/m² 3,8 °C 5,0 °C 0,0 km/h (0 Bft)
23.10.2017 23:59 5,0 °C 5,0 °C 92 % 1025,6 hPa 0,0 mm 0,0 km/h (0 Bft) W 267 ° 0 min 0,000 mm 0,0 UV-I 0 W/m² 3,8 °C 5,0 °C 0,0 km/h (0 Bft)
_ Min-Zeit 07:58 07:57 21:42 01:40 - 23:59 - - - - - - 07:58 07:48 23:59
Minimum _ 3,4 °C 3,4 °C 86 % 1017,7 hPa - 0,0 km/h (0 Bft) - - - - - - 2,1 °C -0,4 °C 0,0 km/h (0 Bft)
_ Max-Zeit 14:14 14:15 10:07 23:59 23:52 15:45 - - 23:59 16:01 13:27 13:26 13:36 13:41 15:45
Maximum _ 6,1 °C 6,1 °C 93 % 1025,6 hPa 0,2 mm 20,0 km/h
W (4 Bft)
- - 0 min 0,051 mm 1,6 UV-I 206 W/m² 4,5 °C 5,9 °C 30,6 km/h
W-SW (5 Bft)
Durchschnitt _ 4,8 °C 4,8 °C 90 % 1021,1 hPa #4,4 mm 9,3 km/h (2 Bft) W - #0 min. #0,457 mm 0,9 UV-I 33 W/m² 3,3 °C 2,8 °C 14,4 km/h (3 Bft)